<?xml version="1.0" encoding="UTF-8" standalone="no" ?>
<gpx xmlns="http://www.topografix.com/GPX/1/1" xmlns:xsi="http://www.w3.org/2001/XMLSchema-instance" xsi:schemaLocation="http://www.topografix.com/GPX/1/1 http://www.topografix.com/GPX/1/1/gpx.xsd" version="1.1" creator="VisuGPX - https://www.visugpx.com">
  <metadata>
    <name>La coulée verte </name>
    <desc><![CDATA[Ballade sur une partie du parcours de la coulée verte]]></desc>
  </metadata>
  <trk>
    <name><![CDATA[Entraînement libre]]></name>
    <trkseg>
      <trkpt lat="46.32531" lon="-0.47045">
        <ele>12.9451</ele>
        <time>2011-02-20T13:13:56Z</time>
      </trkpt>
      <trkpt lat="46.32531" lon="-0.47047">
        <ele>12.9419</ele>
        <time>2011-02-20T13:13:57Z</time>
      </trkpt>
      <trkpt lat="46.32531" lon="-0.47049">
        <ele>12.9773</ele>
        <time>2011-02-20T13:13:58Z</time>
      </trkpt>
      <trkpt lat="46.32531" lon="-0.47051">
        <ele>12.973</ele>
        <time>2011-02-20T13:13:59Z</time>
      </trkpt>
      <trkpt lat="46.32531" lon="-0.4706">
        <ele>11.9974</ele>
        <time>2011-02-20T13:14:06Z</time>
      </trkpt>
      <trkpt lat="46.32531" lon="-0.47062">
        <ele>11.8686</ele>
        <time>2011-02-20T13:14:07Z</time>
      </trkpt>
      <trkpt lat="46.32531" lon="-0.47064">
        <ele>11.7068</ele>
        <time>2011-02-20T13:14:08Z</time>
      </trkpt>
      <trkpt lat="46.32531" lon="-0.47065">
        <ele>11.3557</ele>
        <time>2011-02-20T13:14:09Z</time>
      </trkpt>
      <trkpt lat="46.32531" lon="-0.47067">
        <ele>11.1471</ele>
        <time>2011-02-20T13:14:10Z</time>
      </trkpt>
      <trkpt lat="46.32531" lon="-0.47068">
        <ele>10.9725</ele>
        <time>2011-02-20T13:14:11Z</time>
      </trkpt>
      <trkpt lat="46.32531" lon="-0.47069">
        <ele>10.8729</ele>
        <time>2011-02-20T13:14:12Z</time>
      </trkpt>
      <trkpt lat="46.32531" lon="-0.4707">
        <ele>10.8674</ele>
        <time>2011-02-20T13:14:13Z</time>
      </trkpt>
      <trkpt lat="46.32531" lon="-0.47072">
        <ele>10.8578</ele>
        <time>2011-02-20T13:14:14Z</time>
      </trkpt>
      <trkpt lat="46.32531" lon="-0.47074">
        <ele>10.8499</ele>
        <time>2011-02-20T13:14:15Z</time>
      </trkpt>
      <trkpt lat="46.32531" lon="-0.47075">
        <ele>10.8422</ele>
        <time>2011-02-20T13:14:16Z</time>
      </trkpt>
      <trkpt lat="46.32531" lon="-0.47077">
        <ele>10.835</ele>
        <time>2011-02-20T13:14:17Z</time>
      </trkpt>
      <trkpt lat="46.32531" lon="-0.47078">
        <ele>10.8277</ele>
        <time>2011-02-20T13:14:18Z</time>
      </trkpt>
      <trkpt lat="46.32531" lon="-0.47079">
        <ele>10.8179</ele>
        <time>2011-02-20T13:14:19Z</time>
      </trkpt>
      <trkpt lat="46.32531" lon="-0.47079">
        <ele>10.8028</ele>
        <time>2011-02-20T13:14:20Z</time>
      </trkpt>
      <trkpt lat="46.32531" lon="-0.4708">
        <ele>10.7842</ele>
        <time>2011-02-20T13:14:21Z</time>
      </trkpt>
      <trkpt lat="46.32531" lon="-0.47081">
        <ele>10.7649</ele>
        <time>2011-02-20T13:14:22Z</time>
      </trkpt>
      <trkpt lat="46.32531" lon="-0.47083">
        <ele>10.7441</ele>
        <time>2011-02-20T13:14:23Z</time>
      </trkpt>
      <trkpt lat="46.32531" lon="-0.47084">
        <ele>10.724</ele>
        <time>2011-02-20T13:14:24Z</time>
      </trkpt>
      <trkpt lat="46.32531" lon="-0.47086">
        <ele>10.7059</ele>
        <time>2011-02-20T13:14:25Z</time>
      </trkpt>
      <trkpt lat="46.32531" lon="-0.47086">
        <ele>10.6846</ele>
        <time>2011-02-20T13:14:26Z</time>
      </trkpt>
      <trkpt lat="46.32536" lon="-0.47087">
        <ele>10.607</ele>
        <time>2011-02-20T13:14:37Z</time>
      </trkpt>
      <trkpt lat="46.32537" lon="-0.47088">
        <ele>10.5739</ele>
        <time>2011-02-20T13:14:38Z</time>
      </trkpt>
      <trkpt lat="46.32538" lon="-0.47089">
        <ele>10.5527</ele>
        <time>2011-02-20T13:14:39Z</time>
      </trkpt>
      <trkpt lat="46.32539" lon="-0.4709">
        <ele>10.5437</ele>
        <time>2011-02-20T13:14:40Z</time>
      </trkpt>
      <trkpt lat="46.32539" lon="-0.47092">
        <ele>10.5477</ele>
        <time>2011-02-20T13:14:41Z</time>
      </trkpt>
      <trkpt lat="46.32539" lon="-0.47093">
        <ele>10.5657</ele>
        <time>2011-02-20T13:14:42Z</time>
      </trkpt>
      <trkpt lat="46.32539" lon="-0.47095">
        <ele>10.5957</ele>
        <time>2011-02-20T13:14:43Z</time>
      </trkpt>
      <trkpt lat="46.32539" lon="-0.47096">
        <ele>10.6236</ele>
        <time>2011-02-20T13:14:44Z</time>
      </trkpt>
      <trkpt lat="46.32539" lon="-0.47097">
        <ele>10.6461</ele>
        <time>2011-02-20T13:14:45Z</time>
      </trkpt>
      <trkpt lat="46.32538" lon="-0.47099">
        <ele>10.6694</ele>
        <time>2011-02-20T13:14:46Z</time>
      </trkpt>
      <trkpt lat="46.32537" lon="-0.471">
        <ele>10.6912</ele>
        <time>2011-02-20T13:14:47Z</time>
      </trkpt>
      <trkpt lat="46.32537" lon="-0.47102">
        <ele>10.7106</ele>
        <time>2011-02-20T13:14:48Z</time>
      </trkpt>
      <trkpt lat="46.32536" lon="-0.47104">
        <ele>10.7301</ele>
        <time>2011-02-20T13:14:49Z</time>
      </trkpt>
      <trkpt lat="46.32536" lon="-0.47105">
        <ele>10.7493</ele>
        <time>2011-02-20T13:14:50Z</time>
      </trkpt>
      <trkpt lat="46.32536" lon="-0.47107">
        <ele>10.7671</ele>
        <time>2011-02-20T13:14:51Z</time>
      </trkpt>
      <trkpt lat="46.32535" lon="-0.47108">
        <ele>10.7835</ele>
        <time>2011-02-20T13:14:52Z</time>
      </trkpt>
      <trkpt lat="46.32535" lon="-0.47109">
        <ele>10.8016</ele>
        <time>2011-02-20T13:14:53Z</time>
      </trkpt>
      <trkpt lat="46.32535" lon="-0.47111">
        <ele>10.8213</ele>
        <time>2011-02-20T13:14:54Z</time>
      </trkpt>
      <trkpt lat="46.32535" lon="-0.47112">
        <ele>10.842</ele>
        <time>2011-02-20T13:14:55Z</time>
      </trkpt>
      <trkpt lat="46.32535" lon="-0.47113">
        <ele>10.8638</ele>
        <time>2011-02-20T13:14:56Z</time>
      </trkpt>
      <trkpt lat="46.32535" lon="-0.47115">
        <ele>10.8852</ele>
        <time>2011-02-20T13:14:57Z</time>
      </trkpt>
      <trkpt lat="46.32535" lon="-0.47116">
        <ele>10.9054</ele>
        <time>2011-02-20T13:14:58Z</time>
      </trkpt>
      <trkpt lat="46.32535" lon="-0.47117">
        <ele>10.9227</ele>
        <time>2011-02-20T13:14:59Z</time>
      </trkpt>
      <trkpt lat="46.32535" lon="-0.47119">
        <ele>10.9387</ele>
        <time>2011-02-20T13:15:00Z</time>
      </trkpt>
      <trkpt lat="46.32534" lon="-0.4712">
        <ele>10.9516</ele>
        <time>2011-02-20T13:15:01Z</time>
      </trkpt>
      <trkpt lat="46.32534" lon="-0.47122">
        <ele>10.9649</ele>
        <time>2011-02-20T13:15:02Z</time>
      </trkpt>
      <trkpt lat="46.32534" lon="-0.47123">
        <ele>10.9783</ele>
        <time>2011-02-20T13:15:03Z</time>
      </trkpt>
      <trkpt lat="46.32534" lon="-0.47125">
        <ele>10.9927</ele>
        <time>2011-02-20T13:15:04Z</time>
      </trkpt>
      <trkpt lat="46.32534" lon="-0.47126">
        <ele>11.0075</ele>
        <time>2011-02-20T13:15:05Z</time>
      </trkpt>
      <trkpt lat="46.32534" lon="-0.47128">
        <ele>11.0233</ele>
        <time>2011-02-20T13:15:06Z</time>
      </trkpt>
      <trkpt lat="46.32535" lon="-0.47129">
        <ele>11.0391</ele>
        <time>2011-02-20T13:15:07Z</time>
      </trkpt>
      <trkpt lat="46.32535" lon="-0.47131">
        <ele>11.0556</ele>
        <time>2011-02-20T13:15:08Z</time>
      </trkpt>
      <trkpt lat="46.32536" lon="-0.47132">
        <ele>11.0736</ele>
        <time>2011-02-20T13:15:09Z</time>
      </trkpt>
      <trkpt lat="46.32536" lon="-0.47134">
        <ele>11.0926</ele>
        <time>2011-02-20T13:15:10Z</time>
      </trkpt>
      <trkpt lat="46.32536" lon="-0.47135">
        <ele>11.1132</ele>
        <time>2011-02-20T13:15:11Z</time>
      </trkpt>
      <trkpt lat="46.32536" lon="-0.47137">
        <ele>11.1346</ele>
        <time>2011-02-20T13:15:12Z</time>
      </trkpt>
      <trkpt lat="46.32536" lon="-0.47139">
        <ele>11.1543</ele>
        <time>2011-02-20T13:15:13Z</time>
      </trkpt>
      <trkpt lat="46.32537" lon="-0.47141">
        <ele>11.1741</ele>
        <time>2011-02-20T13:15:14Z</time>
      </trkpt>
      <trkpt lat="46.32537" lon="-0.47143">
        <ele>11.1917</ele>
        <time>2011-02-20T13:15:15Z</time>
      </trkpt>
      <trkpt lat="46.32538" lon="-0.47144">
        <ele>11.2091</ele>
        <time>2011-02-20T13:15:16Z</time>
      </trkpt>
      <trkpt lat="46.32538" lon="-0.47146">
        <ele>11.2242</ele>
        <time>2011-02-20T13:15:17Z</time>
      </trkpt>
      <trkpt lat="46.32538" lon="-0.47148">
        <ele>11.2393</ele>
        <time>2011-02-20T13:15:18Z</time>
      </trkpt>
      <trkpt lat="46.32538" lon="-0.4715">
        <ele>11.2496</ele>
        <time>2011-02-20T13:15:19Z</time>
      </trkpt>
      <trkpt lat="46.32538" lon="-0.47151">
        <ele>11.2581</ele>
        <time>2011-02-20T13:15:20Z</time>
      </trkpt>
      <trkpt lat="46.32538" lon="-0.47153">
        <ele>11.2606</ele>
        <time>2011-02-20T13:15:21Z</time>
      </trkpt>
      <trkpt lat="46.32539" lon="-0.47155">
        <ele>11.2606</ele>
        <time>2011-02-20T13:15:22Z</time>
      </trkpt>
      <trkpt lat="46.32539" lon="-0.47157">
        <ele>11.257</ele>
        <time>2011-02-20T13:15:23Z</time>
      </trkpt>
      <trkpt lat="46.32539" lon="-0.47159">
        <ele>11.2535</ele>
        <time>2011-02-20T13:15:24Z</time>
      </trkpt>
      <trkpt lat="46.32539" lon="-0.4716">
        <ele>11.2512</ele>
        <time>2011-02-20T13:15:25Z</time>
      </trkpt>
      <trkpt lat="46.32539" lon="-0.47162">
        <ele>11.2494</ele>
        <time>2011-02-20T13:15:26Z</time>
      </trkpt>
      <trkpt lat="46.32539" lon="-0.47164">
        <ele>11.2476</ele>
        <time>2011-02-20T13:15:27Z</time>
      </trkpt>
      <trkpt lat="46.32539" lon="-0.47165">
        <ele>11.2467</ele>
        <time>2011-02-20T13:15:28Z</time>
      </trkpt>
      <trkpt lat="46.32539" lon="-0.47166">
        <ele>11.2463</ele>
        <time>2011-02-20T13:15:29Z</time>
      </trkpt>
      <trkpt lat="46.32539" lon="-0.47168">
        <ele>11.2452</ele>
        <time>2011-02-20T13:15:30Z</time>
      </trkpt>
      <trkpt lat="46.3254" lon="-0.47169">
        <ele>11.244</ele>
        <time>2011-02-20T13:15:31Z</time>
      </trkpt>
      <trkpt lat="46.3254" lon="-0.4717">
        <ele>11.2438</ele>
        <time>2011-02-20T13:15:32Z</time>
      </trkpt>
      <trkpt lat="46.3254" lon="-0.47171">
        <ele>11.2432</ele>
        <time>2011-02-20T13:15:33Z</time>
      </trkpt>
      <trkpt lat="46.3254" lon="-0.47173">
        <ele>11.2449</ele>
        <time>2011-02-20T13:15:34Z</time>
      </trkpt>
      <trkpt lat="46.32539" lon="-0.47175">
        <ele>11.247</ele>
        <time>2011-02-20T13:15:35Z</time>
      </trkpt>
      <trkpt lat="46.32539" lon="-0.47176">
        <ele>11.2473</ele>
        <time>2011-02-20T13:15:36Z</time>
      </trkpt>
      <trkpt lat="46.32539" lon="-0.47178">
        <ele>11.2435</ele>
        <time>2011-02-20T13:15:37Z</time>
      </trkpt>
      <trkpt lat="46.32539" lon="-0.47179">
        <ele>11.2362</ele>
        <time>2011-02-20T13:15:38Z</time>
      </trkpt>
      <trkpt lat="46.32539" lon="-0.4718">
        <ele>11.2304</ele>
        <time>2011-02-20T13:15:39Z</time>
      </trkpt>
      <trkpt lat="46.32539" lon="-0.47182">
        <ele>11.2257</ele>
        <time>2011-02-20T13:15:40Z</time>
      </trkpt>
      <trkpt lat="46.32539" lon="-0.47183">
        <ele>11.2181</ele>
        <time>2011-02-20T13:15:41Z</time>
      </trkpt>
      <trkpt lat="46.32541" lon="-0.47183">
        <ele>11.2072</ele>
        <time>2011-02-20T13:15:48Z</time>
      </trkpt>
      <trkpt lat="46.32541" lon="-0.47184">
        <ele>11.2</ele>
        <time>2011-02-20T13:15:49Z</time>
      </trkpt>
      <trkpt lat="46.32541" lon="-0.47185">
        <ele>11.1861</ele>
        <time>2011-02-20T13:15:50Z</time>
      </trkpt>
      <trkpt lat="46.32541" lon="-0.47187">
        <ele>11.1674</ele>
        <time>2011-02-20T13:15:51Z</time>
      </trkpt>
      <trkpt lat="46.32541" lon="-0.47188">
        <ele>11.1465</ele>
        <time>2011-02-20T13:15:52Z</time>
      </trkpt>
      <trkpt lat="46.32541" lon="-0.4719">
        <ele>11.124</ele>
        <time>2011-02-20T13:15:53Z</time>
      </trkpt>
      <trkpt lat="46.32541" lon="-0.47191">
        <ele>11.102</ele>
        <time>2011-02-20T13:15:54Z</time>
      </trkpt>
      <trkpt lat="46.32541" lon="-0.47192">
        <ele>11.0816</ele>
        <time>2011-02-20T13:15:55Z</time>
      </trkpt>
      <trkpt lat="46.32541" lon="-0.47194">
        <ele>11.0646</ele>
        <time>2011-02-20T13:15:56Z</time>
      </trkpt>
      <trkpt lat="46.32541" lon="-0.47195">
        <ele>11.0493</ele>
        <time>2011-02-20T13:15:57Z</time>
      </trkpt>
      <trkpt lat="46.32541" lon="-0.47196">
        <ele>11.0326</ele>
        <time>2011-02-20T13:15:58Z</time>
      </trkpt>
      <trkpt lat="46.32542" lon="-0.47198">
        <ele>11.0146</ele>
        <time>2011-02-20T13:15:59Z</time>
      </trkpt>
      <trkpt lat="46.32542" lon="-0.47199">
        <ele>10.9992</ele>
        <time>2011-02-20T13:16:00Z</time>
      </trkpt>
      <trkpt lat="46.32542" lon="-0.472">
        <ele>10.9811</ele>
        <time>2011-02-20T13:16:01Z</time>
      </trkpt>
      <trkpt lat="46.32542" lon="-0.47202">
        <ele>10.9675</ele>
        <time>2011-02-20T13:16:02Z</time>
      </trkpt>
      <trkpt lat="46.32542" lon="-0.47204">
        <ele>10.9531</ele>
        <time>2011-02-20T13:16:03Z</time>
      </trkpt>
      <trkpt lat="46.32542" lon="-0.47206">
        <ele>10.938</ele>
        <time>2011-02-20T13:16:04Z</time>
      </trkpt>
      <trkpt lat="46.32543" lon="-0.47208">
        <ele>10.9229</ele>
        <time>2011-02-20T13:16:05Z</time>
      </trkpt>
      <trkpt lat="46.32543" lon="-0.4721">
        <ele>10.9084</ele>
        <time>2011-02-20T13:16:06Z</time>
      </trkpt>
      <trkpt lat="46.32543" lon="-0.47212">
        <ele>10.8916</ele>
        <time>2011-02-20T13:16:07Z</time>
      </trkpt>
      <trkpt lat="46.32544" lon="-0.47213">
        <ele>10.8741</ele>
        <time>2011-02-20T13:16:08Z</time>
      </trkpt>
      <trkpt lat="46.32544" lon="-0.47214">
        <ele>10.8582</ele>
        <time>2011-02-20T13:16:09Z</time>
      </trkpt>
      <trkpt lat="46.32544" lon="-0.47216">
        <ele>10.845</ele>
        <time>2011-02-20T13:16:10Z</time>
      </trkpt>
      <trkpt lat="46.32544" lon="-0.47217">
        <ele>10.8364</ele>
        <time>2011-02-20T13:16:11Z</time>
      </trkpt>
      <trkpt lat="46.32544" lon="-0.47218">
        <ele>10.8274</ele>
        <time>2011-02-20T13:16:12Z</time>
      </trkpt>
      <trkpt lat="46.32544" lon="-0.4722">
        <ele>10.8192</ele>
        <time>2011-02-20T13:16:13Z</time>
      </trkpt>
      <trkpt lat="46.32544" lon="-0.47221">
        <ele>10.8102</ele>
        <time>2011-02-20T13:16:14Z</time>
      </trkpt>
      <trkpt lat="46.32544" lon="-0.47223">
        <ele>10.7984</ele>
        <time>2011-02-20T13:16:15Z</time>
      </trkpt>
      <trkpt lat="46.32544" lon="-0.47224">
        <ele>10.7882</ele>
        <time>2011-02-20T13:16:16Z</time>
      </trkpt>
      <trkpt lat="46.32544" lon="-0.47226">
        <ele>10.778</ele>
        <time>2011-02-20T13:16:17Z</time>
      </trkpt>
      <trkpt lat="46.32544" lon="-0.47227">
        <ele>10.7702</ele>
        <time>2011-02-20T13:16:18Z</time>
      </trkpt>
      <trkpt lat="46.32544" lon="-0.47229">
        <ele>10.7616</ele>
        <time>2011-02-20T13:16:19Z</time>
      </trkpt>
      <trkpt lat="46.32544" lon="-0.4723">
        <ele>10.7505</ele>
        <time>2011-02-20T13:16:20Z</time>
      </trkpt>
      <trkpt lat="46.32544" lon="-0.47232">
        <ele>10.7363</ele>
        <time>2011-02-20T13:16:21Z</time>
      </trkpt>
      <trkpt lat="46.32544" lon="-0.47234">
        <ele>10.7183</ele>
        <time>2011-02-20T13:16:22Z</time>
      </trkpt>
      <trkpt lat="46.32544" lon="-0.47235">
        <ele>10.696</ele>
        <time>2011-02-20T13:16:23Z</time>
      </trkpt>
      <trkpt lat="46.32544" lon="-0.47237">
        <ele>10.6691</ele>
        <time>2011-02-20T13:16:24Z</time>
      </trkpt>
      <trkpt lat="46.32544" lon="-0.47238">
        <ele>10.6401</ele>
        <time>2011-02-20T13:16:25Z</time>
      </trkpt>
      <trkpt lat="46.32544" lon="-0.4724">
        <ele>10.6109</ele>
        <time>2011-02-20T13:16:26Z</time>
      </trkpt>
      <trkpt lat="46.32544" lon="-0.47242">
        <ele>10.5822</ele>
        <time>2011-02-20T13:16:27Z</time>
      </trkpt>
      <trkpt lat="46.32544" lon="-0.47243">
        <ele>10.5529</ele>
        <time>2011-02-20T13:16:28Z</time>
      </trkpt>
      <trkpt lat="46.32544" lon="-0.47245">
        <ele>10.5257</ele>
        <time>2011-02-20T13:16:29Z</time>
      </trkpt>
      <trkpt lat="46.32544" lon="-0.47247">
        <ele>10.5043</ele>
        <time>2011-02-20T13:16:30Z</time>
      </trkpt>
      <trkpt lat="46.32544" lon="-0.47249">
        <ele>10.4866</ele>
        <time>2011-02-20T13:16:31Z</time>
      </trkpt>
      <trkpt lat="46.32544" lon="-0.47251">
        <ele>10.4678</ele>
        <time>2011-02-20T13:16:32Z</time>
      </trkpt>
      <trkpt lat="46.32544" lon="-0.47252">
        <ele>10.448</ele>
        <time>2011-02-20T13:16:33Z</time>
      </trkpt>
      <trkpt lat="46.32545" lon="-0.47253">
        <ele>10.4303</ele>
        <time>2011-02-20T13:16:34Z</time>
      </trkpt>
      <trkpt lat="46.32545" lon="-0.47254">
        <ele>10.4126</ele>
        <time>2011-02-20T13:16:35Z</time>
      </trkpt>
      <trkpt lat="46.32545" lon="-0.47255">
        <ele>10.3923</ele>
        <time>2011-02-20T13:16:36Z</time>
      </trkpt>
      <trkpt lat="46.32546" lon="-0.47257">
        <ele>10.3788</ele>
        <time>2011-02-20T13:16:37Z</time>
      </trkpt>
      <trkpt lat="46.32546" lon="-0.47259">
        <ele>10.3586</ele>
        <time>2011-02-20T13:16:38Z</time>
      </trkpt>
      <trkpt lat="46.32547" lon="-0.4726">
        <ele>10.3394</ele>
        <time>2011-02-20T13:16:39Z</time>
      </trkpt>
      <trkpt lat="46.32547" lon="-0.47262">
        <ele>10.3227</ele>
        <time>2011-02-20T13:16:40Z</time>
      </trkpt>
      <trkpt lat="46.32547" lon="-0.47264">
        <ele>10.2999</ele>
        <time>2011-02-20T13:16:41Z</time>
      </trkpt>
      <trkpt lat="46.32547" lon="-0.47265">
        <ele>10.2423</ele>
        <time>2011-02-20T13:16:42Z</time>
      </trkpt>
      <trkpt lat="46.32548" lon="-0.47268">
        <ele>10.2008</ele>
        <time>2011-02-20T13:16:43Z</time>
      </trkpt>
      <trkpt lat="46.32549" lon="-0.4727">
        <ele>10.1562</ele>
        <time>2011-02-20T13:16:44Z</time>
      </trkpt>
      <trkpt lat="46.32549" lon="-0.47272">
        <ele>10.1092</ele>
        <time>2011-02-20T13:16:45Z</time>
      </trkpt>
      <trkpt lat="46.3255" lon="-0.47273">
        <ele>10.0536</ele>
        <time>2011-02-20T13:16:46Z</time>
      </trkpt>
      <trkpt lat="46.3255" lon="-0.47275">
        <ele>10.0066</ele>
        <time>2011-02-20T13:16:47Z</time>
      </trkpt>
      <trkpt lat="46.3255" lon="-0.47277">
        <ele>9.9695</ele>
        <time>2011-02-20T13:16:48Z</time>
      </trkpt>
      <trkpt lat="46.3255" lon="-0.4728">
        <ele>9.9446</ele>
        <time>2011-02-20T13:16:49Z</time>
      </trkpt>
      <trkpt lat="46.32551" lon="-0.47282">
        <ele>9.9307</ele>
        <time>2011-02-20T13:16:50Z</time>
      </trkpt>
      <trkpt lat="46.32552" lon="-0.47284">
        <ele>9.9261</ele>
        <time>2011-02-20T13:16:51Z</time>
      </trkpt>
      <trkpt lat="46.32552" lon="-0.47286">
        <ele>9.9281</ele>
        <time>2011-02-20T13:16:52Z</time>
      </trkpt>
      <trkpt lat="46.32552" lon="-0.47288">
        <ele>9.9349</ele>
        <time>2011-02-20T13:16:53Z</time>
      </trkpt>
      <trkpt lat="46.32552" lon="-0.47289">
        <ele>9.9425</ele>
        <time>2011-02-20T13:16:54Z</time>
      </trkpt>
      <trkpt lat="46.32552" lon="-0.47291">
        <ele>9.9506</ele>
        <time>2011-02-20T13:16:55Z</time>
      </trkpt>
      <trkpt lat="46.32552" lon="-0.47293">
        <ele>9.9587</ele>
        <time>2011-02-20T13:16:56Z</time>
      </trkpt>
      <trkpt lat="46.32553" lon="-0.47295">
        <ele>9.9684</ele>
        <time>2011-02-20T13:16:57Z</time>
      </trkpt>
      <trkpt lat="46.32553" lon="-0.47297">
        <ele>9.9785</ele>
        <time>2011-02-20T13:16:58Z</time>
      </trkpt>
      <trkpt lat="46.32553" lon="-0.47298">
        <ele>9.9877</ele>
        <time>2011-02-20T13:16:59Z</time>
      </trkpt>
      <trkpt lat="46.32553" lon="-0.473">
        <ele>9.9979</ele>
        <time>2011-02-20T13:17:00Z</time>
      </trkpt>
      <trkpt lat="46.32554" lon="-0.47301">
        <ele>10.0114</ele>
        <time>2011-02-20T13:17:01Z</time>
      </trkpt>
      <trkpt lat="46.32554" lon="-0.47302">
        <ele>10.0315</ele>
        <time>2011-02-20T13:17:02Z</time>
      </trkpt>
      <trkpt lat="46.32555" lon="-0.47304">
        <ele>10.0592</ele>
        <time>2011-02-20T13:17:03Z</time>
      </trkpt>
      <trkpt lat="46.32555" lon="-0.47306">
        <ele>10.1001</ele>
        <time>2011-02-20T13:17:04Z</time>
      </trkpt>
      <trkpt lat="46.32555" lon="-0.47308">
        <ele>10.1443</ele>
        <time>2011-02-20T13:17:05Z</time>
      </trkpt>
      <trkpt lat="46.32555" lon="-0.4731">
        <ele>10.1885</ele>
        <time>2011-02-20T13:17:06Z</time>
      </trkpt>
      <trkpt lat="46.32555" lon="-0.47311">
        <ele>10.233</ele>
        <time>2011-02-20T13:17:07Z</time>
      </trkpt>
      <trkpt lat="46.32555" lon="-0.47313">
        <ele>10.2781</ele>
        <time>2011-02-20T13:17:08Z</time>
      </trkpt>
      <trkpt lat="46.32555" lon="-0.47314">
        <ele>10.3231</ele>
        <time>2011-02-20T13:17:09Z</time>
      </trkpt>
      <trkpt lat="46.32555" lon="-0.47316">
        <ele>10.3682</ele>
        <time>2011-02-20T13:17:10Z</time>
      </trkpt>
      <trkpt lat="46.32555" lon="-0.47318">
        <ele>10.412</ele>
        <time>2011-02-20T13:17:11Z</time>
      </trkpt>
      <trkpt lat="46.32555" lon="-0.47319">
        <ele>10.4556</ele>
        <time>2011-02-20T13:17:12Z</time>
      </trkpt>
      <trkpt lat="46.32555" lon="-0.47321">
        <ele>10.4985</ele>
        <time>2011-02-20T13:17:13Z</time>
      </trkpt>
      <trkpt lat="46.32556" lon="-0.47322">
        <ele>10.5402</ele>
        <time>2011-02-20T13:17:14Z</time>
      </trkpt>
      <trkpt lat="46.32556" lon="-0.47324">
        <ele>10.5804</ele>
        <time>2011-02-20T13:17:15Z</time>
      </trkpt>
      <trkpt lat="46.32556" lon="-0.47325">
        <ele>10.6193</ele>
        <time>2011-02-20T13:17:16Z</time>
      </trkpt>
      <trkpt lat="46.32556" lon="-0.47327">
        <ele>10.656</ele>
        <time>2011-02-20T13:17:17Z</time>
      </trkpt>
      <trkpt lat="46.32556" lon="-0.47329">
        <ele>10.6904</ele>
        <time>2011-02-20T13:17:18Z</time>
      </trkpt>
      <trkpt lat="46.32557" lon="-0.4733">
        <ele>10.7228</ele>
        <time>2011-02-20T13:17:19Z</time>
      </trkpt>
      <trkpt lat="46.32556" lon="-0.47332">
        <ele>10.7534</ele>
        <time>2011-02-20T13:17:20Z</time>
      </trkpt>
      <trkpt lat="46.32556" lon="-0.47334">
        <ele>10.7826</ele>
        <time>2011-02-20T13:17:21Z</time>
      </trkpt>
      <trkpt lat="46.32557" lon="-0.47336">
        <ele>10.8116</ele>
        <time>2011-02-20T13:17:22Z</time>
      </trkpt>
      <trkpt lat="46.32557" lon="-0.47338">
        <ele>10.84</ele>
        <time>2011-02-20T13:17:23Z</time>
      </trkpt>
      <trkpt lat="46.32557" lon="-0.4734">
        <ele>10.8684</ele>
        <time>2011-02-20T13:17:24Z</time>
      </trkpt>
      <trkpt lat="46.32558" lon="-0.47341">
        <ele>10.8958</ele>
        <time>2011-02-20T13:17:25Z</time>
      </trkpt>
      <trkpt lat="46.32558" lon="-0.47343">
        <ele>10.9225</ele>
        <time>2011-02-20T13:17:26Z</time>
      </trkpt>
      <trkpt lat="46.32558" lon="-0.47344">
        <ele>10.9493</ele>
        <time>2011-02-20T13:17:27Z</time>
      </trkpt>
      <trkpt lat="46.32559" lon="-0.47345">
        <ele>10.9759</ele>
        <time>2011-02-20T13:17:28Z</time>
      </trkpt>
      <trkpt lat="46.32559" lon="-0.47347">
        <ele>11.001</ele>
        <time>2011-02-20T13:17:29Z</time>
      </trkpt>
      <trkpt lat="46.32559" lon="-0.47349">
        <ele>11.0261</ele>
        <time>2011-02-20T13:17:30Z</time>
      </trkpt>
      <trkpt lat="46.32559" lon="-0.47351">
        <ele>11.0513</ele>
        <time>2011-02-20T13:17:31Z</time>
      </trkpt>
      <trkpt lat="46.3256" lon="-0.47353">
        <ele>11.0757</ele>
        <time>2011-02-20T13:17:32Z</time>
      </trkpt>
      <trkpt lat="46.3256" lon="-0.47355">
        <ele>11.0978</ele>
        <time>2011-02-20T13:17:33Z</time>
      </trkpt>
      <trkpt lat="46.3256" lon="-0.47356">
        <ele>11.1179</ele>
        <time>2011-02-20T13:17:34Z</time>
      </trkpt>
      <trkpt lat="46.3256" lon="-0.47358">
        <ele>11.1376</ele>
        <time>2011-02-20T13:17:35Z</time>
      </trkpt>
      <trkpt lat="46.3256" lon="-0.4736">
        <ele>11.155</ele>
        <time>2011-02-20T13:17:36Z</time>
      </trkpt>
      <trkpt lat="46.3256" lon="-0.47361">
        <ele>11.1719</ele>
        <time>2011-02-20T13:17:37Z</time>
      </trkpt>
      <trkpt lat="46.3256" lon="-0.47363">
        <ele>11.1876</ele>
        <time>2011-02-20T13:17:38Z</time>
      </trkpt>
      <trkpt lat="46.32561" lon="-0.47365">
        <ele>11.2019</ele>
        <time>2011-02-20T13:17:39Z</time>
      </trkpt>
      <trkpt lat="46.32561" lon="-0.47366">
        <ele>11.2142</ele>
        <time>2011-02-20T13:17:40Z</time>
      </trkpt>
      <trkpt lat="46.32561" lon="-0.47368">
        <ele>11.2264</ele>
        <time>2011-02-20T13:17:41Z</time>
      </trkpt>
      <trkpt lat="46.32561" lon="-0.4737">
        <ele>11.2383</ele>
        <time>2011-02-20T13:17:42Z</time>
      </trkpt>
      <trkpt lat="46.32561" lon="-0.47372">
        <ele>11.2482</ele>
        <time>2011-02-20T13:17:43Z</time>
      </trkpt>
      <trkpt lat="46.32562" lon="-0.47374">
        <ele>11.2568</ele>
        <time>2011-02-20T13:17:44Z</time>
      </trkpt>
      <trkpt lat="46.32562" lon="-0.47376">
        <ele>11.2656</ele>
        <time>2011-02-20T13:17:45Z</time>
      </trkpt>
      <trkpt lat="46.32562" lon="-0.47378">
        <ele>11.2745</ele>
        <time>2011-02-20T13:17:46Z</time>
      </trkpt>
      <trkpt lat="46.32562" lon="-0.4738">
        <ele>11.2847</ele>
        <time>2011-02-20T13:17:47Z</time>
      </trkpt>
      <trkpt lat="46.32563" lon="-0.47381">
        <ele>11.2954</ele>
        <time>2011-02-20T13:17:48Z</time>
      </trkpt>
      <trkpt lat="46.32563" lon="-0.47382">
        <ele>11.3059</ele>
        <time>2011-02-20T13:17:49Z</time>
      </trkpt>
      <trkpt lat="46.32564" lon="-0.47383">
        <ele>11.3172</ele>
        <time>2011-02-20T13:17:50Z</time>
      </trkpt>
      <trkpt lat="46.32565" lon="-0.47383">
        <ele>11.3265</ele>
        <time>2011-02-20T13:17:51Z</time>
      </trkpt>
      <trkpt lat="46.32565" lon="-0.47384">
        <ele>11.3338</ele>
        <time>2011-02-20T13:17:52Z</time>
      </trkpt>
      <trkpt lat="46.32566" lon="-0.47386">
        <ele>11.3405</ele>
        <time>2011-02-20T13:17:53Z</time>
      </trkpt>
      <trkpt lat="46.32566" lon="-0.47387">
        <ele>11.344</ele>
        <time>2011-02-20T13:17:54Z</time>
      </trkpt>
      <trkpt lat="46.32566" lon="-0.47389">
        <ele>11.3476</ele>
        <time>2011-02-20T13:17:55Z</time>
      </trkpt>
      <trkpt lat="46.32567" lon="-0.4739">
        <ele>11.3508</ele>
        <time>2011-02-20T13:17:56Z</time>
      </trkpt>
      <trkpt lat="46.32567" lon="-0.47392">
        <ele>11.3539</ele>
        <time>2011-02-20T13:17:57Z</time>
      </trkpt>
      <trkpt lat="46.32567" lon="-0.47393">
        <ele>11.3579</ele>
        <time>2011-02-20T13:17:58Z</time>
      </trkpt>
      <trkpt lat="46.32567" lon="-0.47394">
        <ele>11.3617</ele>
        <time>2011-02-20T13:17:59Z</time>
      </trkpt>
      <trkpt lat="46.32567" lon="-0.47395">
        <ele>11.3644</ele>
        <time>2011-02-20T13:18:00Z</time>
      </trkpt>
      <trkpt lat="46.32567" lon="-0.47396">
        <ele>11.3664</ele>
        <time>2011-02-20T13:18:01Z</time>
      </trkpt>
      <trkpt lat="46.32567" lon="-0.47398">
        <ele>11.3684</ele>
        <time>2011-02-20T13:18:02Z</time>
      </trkpt>
      <trkpt lat="46.32567" lon="-0.47399">
        <ele>11.3703</ele>
        <time>2011-02-20T13:18:03Z</time>
      </trkpt>
      <trkpt lat="46.32568" lon="-0.474">
        <ele>11.372</ele>
        <time>2011-02-20T13:18:04Z</time>
      </trkpt>
      <trkpt lat="46.32568" lon="-0.47402">
        <ele>11.3738</ele>
        <time>2011-02-20T13:18:05Z</time>
      </trkpt>
      <trkpt lat="46.32568" lon="-0.47403">
        <ele>11.3773</ele>
        <time>2011-02-20T13:18:06Z</time>
      </trkpt>
      <trkpt lat="46.32568" lon="-0.47404">
        <ele>11.381</ele>
        <time>2011-02-20T13:18:07Z</time>
      </trkpt>
      <trkpt lat="46.32568" lon="-0.47406">
        <ele>11.3842</ele>
        <time>2011-02-20T13:18:08Z</time>
      </trkpt>
      <trkpt lat="46.32568" lon="-0.47407">
        <ele>11.3872</ele>
        <time>2011-02-20T13:18:09Z</time>
      </trkpt>
      <trkpt lat="46.32568" lon="-0.47409">
        <ele>11.3903</ele>
        <time>2011-02-20T13:18:10Z</time>
      </trkpt>
      <trkpt lat="46.32567" lon="-0.47411">
        <ele>11.3928</ele>
        <time>2011-02-20T13:18:11Z</time>
      </trkpt>
      <trkpt lat="46.32567" lon="-0.47413">
        <ele>11.3958</ele>
        <time>2011-02-20T13:18:12Z</time>
      </trkpt>
      <trkpt lat="46.32567" lon="-0.47416">
        <ele>11.3989</ele>
        <time>2011-02-20T13:18:13Z</time>
      </trkpt>
      <trkpt lat="46.32568" lon="-0.47418">
        <ele>11.4031</ele>
        <time>2011-02-20T13:18:14Z</time>
      </trkpt>
      <trkpt lat="46.32568" lon="-0.4742">
        <ele>11.4072</ele>
        <time>2011-02-20T13:18:15Z</time>
      </trkpt>
      <trkpt lat="46.32568" lon="-0.47422">
        <ele>11.4115</ele>
        <time>2011-02-20T13:18:16Z</time>
      </trkpt>
      <trkpt lat="46.32568" lon="-0.47425">
        <ele>11.4163</ele>
        <time>2011-02-20T13:18:17Z</time>
      </trkpt>
      <trkpt lat="46.32568" lon="-0.47426">
        <ele>11.4203</ele>
        <time>2011-02-20T13:18:18Z</time>
      </trkpt>
      <trkpt lat="46.32568" lon="-0.47428">
        <ele>11.4241</ele>
        <time>2011-02-20T13:18:19Z</time>
      </trkpt>
      <trkpt lat="46.32569" lon="-0.4743">
        <ele>11.4288</ele>
        <time>2011-02-20T13:18:20Z</time>
      </trkpt>
      <trkpt lat="46.32569" lon="-0.47433">
        <ele>11.4357</ele>
        <time>2011-02-20T13:18:21Z</time>
      </trkpt>
      <trkpt lat="46.3257" lon="-0.47435">
        <ele>11.4431</ele>
        <time>2011-02-20T13:18:22Z</time>
      </trkpt>
      <trkpt lat="46.32571" lon="-0.47437">
        <ele>11.4526</ele>
        <time>2011-02-20T13:18:23Z</time>
      </trkpt>
      <trkpt lat="46.32571" lon="-0.4744">
        <ele>11.4646</ele>
        <time>2011-02-20T13:18:24Z</time>
      </trkpt>
      <trkpt lat="46.32572" lon="-0.47442">
        <ele>11.4774</ele>
        <time>2011-02-20T13:18:25Z</time>
      </trkpt>
      <trkpt lat="46.32572" lon="-0.47444">
        <ele>11.4903</ele>
        <time>2011-02-20T13:18:26Z</time>
      </trkpt>
      <trkpt lat="46.32573" lon="-0.47446">
        <ele>11.5037</ele>
        <time>2011-02-20T13:18:27Z</time>
      </trkpt>
      <trkpt lat="46.32573" lon="-0.47447">
        <ele>11.5175</ele>
        <time>2011-02-20T13:18:28Z</time>
      </trkpt>
      <trkpt lat="46.32573" lon="-0.47449">
        <ele>11.5258</ele>
        <time>2011-02-20T13:18:29Z</time>
      </trkpt>
      <trkpt lat="46.32574" lon="-0.47451">
        <ele>11.5348</ele>
        <time>2011-02-20T13:18:30Z</time>
      </trkpt>
      <trkpt lat="46.32574" lon="-0.47452">
        <ele>11.5436</ele>
        <time>2011-02-20T13:18:31Z</time>
      </trkpt>
      <trkpt lat="46.32574" lon="-0.47454">
        <ele>11.5437</ele>
        <time>2011-02-20T13:18:32Z</time>
      </trkpt>
      <trkpt lat="46.32575" lon="-0.47456">
        <ele>11.545</ele>
        <time>2011-02-20T13:18:33Z</time>
      </trkpt>
      <trkpt lat="46.32575" lon="-0.47457">
        <ele>11.5477</ele>
        <time>2011-02-20T13:18:34Z</time>
      </trkpt>
      <trkpt lat="46.32575" lon="-0.47459">
        <ele>11.5499</ele>
        <time>2011-02-20T13:18:35Z</time>
      </trkpt>
      <trkpt lat="46.32576" lon="-0.47461">
        <ele>11.5519</ele>
        <time>2011-02-20T13:18:36Z</time>
      </trkpt>
      <trkpt lat="46.32576" lon="-0.47462">
        <ele>11.5543</ele>
        <time>2011-02-20T13:18:37Z</time>
      </trkpt>
      <trkpt lat="46.32577" lon="-0.47464">
        <ele>11.5568</ele>
        <time>2011-02-20T13:18:38Z</time>
      </trkpt>
      <trkpt lat="46.32578" lon="-0.47465">
        <ele>11.559</ele>
        <time>2011-02-20T13:18:39Z</time>
      </trkpt>
      <trkpt lat="46.32579" lon="-0.47467">
        <ele>11.5599</ele>
        <time>2011-02-20T13:18:40Z</time>
      </trkpt>
      <trkpt lat="46.32579" lon="-0.47468">
        <ele>11.5605</ele>
        <time>2011-02-20T13:18:41Z</time>
      </trkpt>
      <trkpt lat="46.3258" lon="-0.47469">
        <ele>11.5594</ele>
        <time>2011-02-20T13:18:42Z</time>
      </trkpt>
      <trkpt lat="46.32581" lon="-0.4747">
        <ele>11.5571</ele>
        <time>2011-02-20T13:18:43Z</time>
      </trkpt>
      <trkpt lat="46.32581" lon="-0.47471">
        <ele>11.5524</ele>
        <time>2011-02-20T13:18:44Z</time>
      </trkpt>
      <trkpt lat="46.32582" lon="-0.47472">
        <ele>11.542</ele>
        <time>2011-02-20T13:18:48Z</time>
      </trkpt>
      <trkpt lat="46.32582" lon="-0.47473">
        <ele>11.5306</ele>
        <time>2011-02-20T13:18:49Z</time>
      </trkpt>
      <trkpt lat="46.32583" lon="-0.47473">
        <ele>11.5183</ele>
        <time>2011-02-20T13:18:50Z</time>
      </trkpt>
      <trkpt lat="46.32584" lon="-0.47474">
        <ele>11.5041</ele>
        <time>2011-02-20T13:18:51Z</time>
      </trkpt>
      <trkpt lat="46.32584" lon="-0.47475">
        <ele>11.4894</ele>
        <time>2011-02-20T13:18:52Z</time>
      </trkpt>
      <trkpt lat="46.32585" lon="-0.47476">
        <ele>11.4748</ele>
        <time>2011-02-20T13:18:53Z</time>
      </trkpt>
      <trkpt lat="46.32586" lon="-0.47477">
        <ele>11.459</ele>
        <time>2011-02-20T13:18:54Z</time>
      </trkpt>
      <trkpt lat="46.32587" lon="-0.47478">
        <ele>11.4416</ele>
        <time>2011-02-20T13:18:55Z</time>
      </trkpt>
      <trkpt lat="46.32587" lon="-0.47479">
        <ele>11.4221</ele>
        <time>2011-02-20T13:18:56Z</time>
      </trkpt>
      <trkpt lat="46.32588" lon="-0.4748">
        <ele>11.4031</ele>
        <time>2011-02-20T13:18:57Z</time>
      </trkpt>
      <trkpt lat="46.32589" lon="-0.47481">
        <ele>11.3845</ele>
        <time>2011-02-20T13:18:58Z</time>
      </trkpt>
      <trkpt lat="46.3259" lon="-0.47481">
        <ele>11.366</ele>
        <time>2011-02-20T13:18:59Z</time>
      </trkpt>
      <trkpt lat="46.32591" lon="-0.47482">
        <ele>11.348</ele>
        <time>2011-02-20T13:19:00Z</time>
      </trkpt>
      <trkpt lat="46.32592" lon="-0.47483">
        <ele>11.3276</ele>
        <time>2011-02-20T13:19:01Z</time>
      </trkpt>
      <trkpt lat="46.32593" lon="-0.47484">
        <ele>11.3077</ele>
        <time>2011-02-20T13:19:02Z</time>
      </trkpt>
      <trkpt lat="46.32594" lon="-0.47485">
        <ele>11.2881</ele>
        <time>2011-02-20T13:19:03Z</time>
      </trkpt>
      <trkpt lat="46.32595" lon="-0.47486">
        <ele>11.2671</ele>
        <time>2011-02-20T13:19:04Z</time>
      </trkpt>
      <trkpt lat="46.32596" lon="-0.47487">
        <ele>11.2461</ele>
        <time>2011-02-20T13:19:05Z</time>
      </trkpt>
      <trkpt lat="46.32597" lon="-0.47488">
        <ele>11.2176</ele>
        <time>2011-02-20T13:19:06Z</time>
      </trkpt>
      <trkpt lat="46.32599" lon="-0.47489">
        <ele>11.1866</ele>
        <time>2011-02-20T13:19:07Z</time>
      </trkpt>
      <trkpt lat="46.326" lon="-0.47489">
        <ele>11.1561</ele>
        <time>2011-02-20T13:19:08Z</time>
      </trkpt>
      <trkpt lat="46.32601" lon="-0.4749">
        <ele>11.1196</ele>
        <time>2011-02-20T13:19:09Z</time>
      </trkpt>
      <trkpt lat="46.32602" lon="-0.4749">
        <ele>11.0813</ele>
        <time>2011-02-20T13:19:10Z</time>
      </trkpt>
      <trkpt lat="46.32604" lon="-0.47491">
        <ele>11.0429</ele>
        <time>2011-02-20T13:19:11Z</time>
      </trkpt>
      <trkpt lat="46.32605" lon="-0.47492">
        <ele>11.0041</ele>
        <time>2011-02-20T13:19:12Z</time>
      </trkpt>
      <trkpt lat="46.32606" lon="-0.47492">
        <ele>10.9671</ele>
        <time>2011-02-20T13:19:13Z</time>
      </trkpt>
      <trkpt lat="46.32607" lon="-0.47493">
        <ele>10.9334</ele>
        <time>2011-02-20T13:19:14Z</time>
      </trkpt>
      <trkpt lat="46.32608" lon="-0.47493">
        <ele>10.9004</ele>
        <time>2011-02-20T13:19:15Z</time>
      </trkpt>
      <trkpt lat="46.32609" lon="-0.47493">
        <ele>10.8669</ele>
        <time>2011-02-20T13:19:16Z</time>
      </trkpt>
      <trkpt lat="46.3261" lon="-0.47494">
        <ele>10.8328</ele>
        <time>2011-02-20T13:19:17Z</time>
      </trkpt>
      <trkpt lat="46.32612" lon="-0.47494">
        <ele>10.7994</ele>
        <time>2011-02-20T13:19:18Z</time>
      </trkpt>
      <trkpt lat="46.32613" lon="-0.47495">
        <ele>10.7656</ele>
        <time>2011-02-20T13:19:19Z</time>
      </trkpt>
      <trkpt lat="46.32614" lon="-0.47495">
        <ele>10.7314</ele>
        <time>2011-02-20T13:19:20Z</time>
      </trkpt>
      <trkpt lat="46.32615" lon="-0.47496">
        <ele>10.6965</ele>
        <time>2011-02-20T13:19:21Z</time>
      </trkpt>
      <trkpt lat="46.32616" lon="-0.47496">
        <ele>10.6613</ele>
        <time>2011-02-20T13:19:22Z</time>
      </trkpt>
      <trkpt lat="46.32618" lon="-0.47496">
        <ele>10.6261</ele>
        <time>2011-02-20T13:19:23Z</time>
      </trkpt>
      <trkpt lat="46.32619" lon="-0.47496">
        <ele>10.5926</ele>
        <time>2011-02-20T13:19:24Z</time>
      </trkpt>
      <trkpt lat="46.3262" lon="-0.47497">
        <ele>10.5619</ele>
        <time>2011-02-20T13:19:25Z</time>
      </trkpt>
      <trkpt lat="46.32622" lon="-0.47497">
        <ele>10.5334</ele>
        <time>2011-02-20T13:19:26Z</time>
      </trkpt>
      <trkpt lat="46.32623" lon="-0.47497">
        <ele>10.5066</ele>
        <time>2011-02-20T13:19:27Z</time>
      </trkpt>
      <trkpt lat="46.32624" lon="-0.47498">
        <ele>10.483</ele>
        <time>2011-02-20T13:19:28Z</time>
      </trkpt>
      <trkpt lat="46.32626" lon="-0.47498">
        <ele>10.4603</ele>
        <time>2011-02-20T13:19:29Z</time>
      </trkpt>
      <trkpt lat="46.32627" lon="-0.47498">
        <ele>10.4382</ele>
        <time>2011-02-20T13:19:30Z</time>
      </trkpt>
      <trkpt lat="46.32628" lon="-0.47499">
        <ele>10.4166</ele>
        <time>2011-02-20T13:19:31Z</time>
      </trkpt>
      <trkpt lat="46.32628" lon="-0.47498">
        <ele>10.3943</ele>
        <time>2011-02-20T13:19:32Z</time>
      </trkpt>
      <trkpt lat="46.32629" lon="-0.47499">
        <ele>10.3695</ele>
        <time>2011-02-20T13:19:34Z</time>
      </trkpt>
      <trkpt lat="46.32629" lon="-0.47499">
        <ele>10.3483</ele>
        <time>2011-02-20T13:19:35Z</time>
      </trkpt>
      <trkpt lat="46.32631" lon="-0.475">
        <ele>10.3291</ele>
        <time>2011-02-20T13:19:36Z</time>
      </trkpt>
      <trkpt lat="46.32631" lon="-0.47501">
        <ele>10.3096</ele>
        <time>2011-02-20T13:19:37Z</time>
      </trkpt>
      <trkpt lat="46.32632" lon="-0.47501">
        <ele>10.2913</ele>
        <time>2011-02-20T13:19:38Z</time>
      </trkpt>
      <trkpt lat="46.32634" lon="-0.47502">
        <ele>10.2701</ele>
        <time>2011-02-20T13:19:39Z</time>
      </trkpt>
      <trkpt lat="46.32635" lon="-0.47502">
        <ele>10.2505</ele>
        <time>2011-02-20T13:19:40Z</time>
      </trkpt>
      <trkpt lat="46.32636" lon="-0.47503">
        <ele>10.23</ele>
        <time>2011-02-20T13:19:41Z</time>
      </trkpt>
      <trkpt lat="46.32637" lon="-0.47504">
        <ele>10.2101</ele>
        <time>2011-02-20T13:19:42Z</time>
      </trkpt>
      <trkpt lat="46.32638" lon="-0.47504">
        <ele>10.1904</ele>
        <time>2011-02-20T13:19:43Z</time>
      </trkpt>
      <trkpt lat="46.32639" lon="-0.47505">
        <ele>10.1692</ele>
        <time>2011-02-20T13:19:44Z</time>
      </trkpt>
      <trkpt lat="46.3264" lon="-0.47506">
        <ele>10.1471</ele>
        <time>2011-02-20T13:19:45Z</time>
      </trkpt>
      <trkpt lat="46.32641" lon="-0.47506">
        <ele>10.1231</ele>
        <time>2011-02-20T13:19:46Z</time>
      </trkpt>
      <trkpt lat="46.32642" lon="-0.47507">
        <ele>10.0982</ele>
        <time>2011-02-20T13:19:47Z</time>
      </trkpt>
      <trkpt lat="46.32644" lon="-0.47508">
        <ele>10.0713</ele>
        <time>2011-02-20T13:19:48Z</time>
      </trkpt>
      <trkpt lat="46.32645" lon="-0.47509">
        <ele>10.0437</ele>
        <time>2011-02-20T13:19:49Z</time>
      </trkpt>
      <trkpt lat="46.32646" lon="-0.47509">
        <ele>10.0154</ele>
        <time>2011-02-20T13:19:50Z</time>
      </trkpt>
      <trkpt lat="46.32647" lon="-0.4751">
        <ele>9.9892</ele>
        <time>2011-02-20T13:19:51Z</time>
      </trkpt>
      <trkpt lat="46.32649" lon="-0.4751">
        <ele>9.9636</ele>
        <time>2011-02-20T13:19:52Z</time>
      </trkpt>
      <trkpt lat="46.3265" lon="-0.47511">
        <ele>9.9391</ele>
        <time>2011-02-20T13:19:53Z</time>
      </trkpt>
      <trkpt lat="46.32651" lon="-0.47512">
        <ele>9.9153</ele>
        <time>2011-02-20T13:19:54Z</time>
      </trkpt>
      <trkpt lat="46.32652" lon="-0.47513">
        <ele>9.8912</ele>
        <time>2011-02-20T13:19:55Z</time>
      </trkpt>
      <trkpt lat="46.32653" lon="-0.47514">
        <ele>9.865</ele>
        <time>2011-02-20T13:19:56Z</time>
      </trkpt>
      <trkpt lat="46.32654" lon="-0.47514">
        <ele>9.8361</ele>
        <time>2011-02-20T13:19:57Z</time>
      </trkpt>
      <trkpt lat="46.32655" lon="-0.47515">
        <ele>9.805</ele>
        <time>2011-02-20T13:19:58Z</time>
      </trkpt>
      <trkpt lat="46.32656" lon="-0.47515">
        <ele>9.7719</ele>
        <time>2011-02-20T13:19:59Z</time>
      </trkpt>
      <trkpt lat="46.32657" lon="-0.47516">
        <ele>9.7368</ele>
        <time>2011-02-20T13:20:00Z</time>
      </trkpt>
      <trkpt lat="46.32658" lon="-0.47517">
        <ele>9.7001</ele>
        <time>2011-02-20T13:20:01Z</time>
      </trkpt>
      <trkpt lat="46.32659" lon="-0.47518">
        <ele>9.662</ele>
        <time>2011-02-20T13:20:02Z</time>
      </trkpt>
      <trkpt lat="46.3266" lon="-0.47518">
        <ele>9.6235</ele>
        <time>2011-02-20T13:20:03Z</time>
      </trkpt>
      <trkpt lat="46.32661" lon="-0.47519">
        <ele>9.5838</ele>
        <time>2011-02-20T13:20:04Z</time>
      </trkpt>
      <trkpt lat="46.32663" lon="-0.4752">
        <ele>9.5437</ele>
        <time>2011-02-20T13:20:05Z</time>
      </trkpt>
      <trkpt lat="46.32664" lon="-0.47521">
        <ele>9.5033</ele>
        <time>2011-02-20T13:20:06Z</time>
      </trkpt>
      <trkpt lat="46.32665" lon="-0.47521">
        <ele>9.4637</ele>
        <time>2011-02-20T13:20:07Z</time>
      </trkpt>
      <trkpt lat="46.32666" lon="-0.47522">
        <ele>9.4246</ele>
        <time>2011-02-20T13:20:08Z</time>
      </trkpt>
      <trkpt lat="46.32667" lon="-0.47522">
        <ele>9.3864</ele>
        <time>2011-02-20T13:20:09Z</time>
      </trkpt>
      <trkpt lat="46.32668" lon="-0.47523">
        <ele>9.3495</ele>
        <time>2011-02-20T13:20:10Z</time>
      </trkpt>
      <trkpt lat="46.32669" lon="-0.47524">
        <ele>9.3154</ele>
        <time>2011-02-20T13:20:11Z</time>
      </trkpt>
      <trkpt lat="46.3267" lon="-0.47524">
        <ele>9.2829</ele>
        <time>2011-02-20T13:20:12Z</time>
      </trkpt>
      <trkpt lat="46.32671" lon="-0.47525">
        <ele>9.251</ele>
        <time>2011-02-20T13:20:13Z</time>
      </trkpt>
      <trkpt lat="46.32673" lon="-0.47525">
        <ele>9.2209</ele>
        <time>2011-02-20T13:20:14Z</time>
      </trkpt>
      <trkpt lat="46.32674" lon="-0.47526">
        <ele>9.1893</ele>
        <time>2011-02-20T13:20:15Z</time>
      </trkpt>
      <trkpt lat="46.32674" lon="-0.47527">
        <ele>9.1587</ele>
        <time>2011-02-20T13:20:16Z</time>
      </trkpt>
      <trkpt lat="46.32675" lon="-0.47527">
        <ele>9.1276</ele>
        <time>2011-02-20T13:20:17Z</time>
      </trkpt>
      <trkpt lat="46.32676" lon="-0.47527">
        <ele>9.097</ele>
        <time>2011-02-20T13:20:18Z</time>
      </trkpt>
      <trkpt lat="46.32677" lon="-0.47528">
        <ele>9.0666</ele>
        <time>2011-02-20T13:20:19Z</time>
      </trkpt>
      <trkpt lat="46.32678" lon="-0.47528">
        <ele>9.0367</ele>
        <time>2011-02-20T13:20:20Z</time>
      </trkpt>
      <trkpt lat="46.32679" lon="-0.47529">
        <ele>9.0079</ele>
        <time>2011-02-20T13:20:21Z</time>
      </trkpt>
      <trkpt lat="46.3268" lon="-0.47529">
        <ele>8.9812</ele>
        <time>2011-02-20T13:20:22Z</time>
      </trkpt>
      <trkpt lat="46.32681" lon="-0.4753">
        <ele>8.9571</ele>
        <time>2011-02-20T13:20:23Z</time>
      </trkpt>
      <trkpt lat="46.32682" lon="-0.47531">
        <ele>8.9354</ele>
        <time>2011-02-20T13:20:24Z</time>
      </trkpt>
      <trkpt lat="46.32683" lon="-0.47532">
        <ele>8.9147</ele>
        <time>2011-02-20T13:20:25Z</time>
      </trkpt>
      <trkpt lat="46.32684" lon="-0.47532">
        <ele>8.8954</ele>
        <time>2011-02-20T13:20:26Z</time>
      </trkpt>
      <trkpt lat="46.32685" lon="-0.47533">
        <ele>8.8769</ele>
        <time>2011-02-20T13:20:27Z</time>
      </trkpt>
      <trkpt lat="46.32686" lon="-0.47534">
        <ele>8.8614</ele>
        <time>2011-02-20T13:20:28Z</time>
      </trkpt>
      <trkpt lat="46.32687" lon="-0.47534">
        <ele>8.8499</ele>
        <time>2011-02-20T13:20:29Z</time>
      </trkpt>
      <trkpt lat="46.32688" lon="-0.47535">
        <ele>8.8414</ele>
        <time>2011-02-20T13:20:30Z</time>
      </trkpt>
      <trkpt lat="46.32689" lon="-0.47536">
        <ele>8.8369</ele>
        <time>2011-02-20T13:20:31Z</time>
      </trkpt>
      <trkpt lat="46.3269" lon="-0.47536">
        <ele>8.836</ele>
        <time>2011-02-20T13:20:32Z</time>
      </trkpt>
      <trkpt lat="46.32691" lon="-0.47537">
        <ele>8.8382</ele>
        <time>2011-02-20T13:20:33Z</time>
      </trkpt>
      <trkpt lat="46.32692" lon="-0.47537">
        <ele>8.8415</ele>
        <time>2011-02-20T13:20:34Z</time>
      </trkpt>
      <trkpt lat="46.32693" lon="-0.47537">
        <ele>8.8444</ele>
        <time>2011-02-20T13:20:35Z</time>
      </trkpt>
      <trkpt lat="46.32694" lon="-0.47538">
        <ele>8.8481</ele>
        <time>2011-02-20T13:20:36Z</time>
      </trkpt>
      <trkpt lat="46.32695" lon="-0.47538">
        <ele>8.8505</ele>
        <time>2011-02-20T13:20:37Z</time>
      </trkpt>
      <trkpt lat="46.32696" lon="-0.47539">
        <ele>8.8518</ele>
        <time>2011-02-20T13:20:38Z</time>
      </trkpt>
      <trkpt lat="46.32697" lon="-0.47539">
        <ele>8.8498</ele>
        <time>2011-02-20T13:20:39Z</time>
      </trkpt>
      <trkpt lat="46.32698" lon="-0.4754">
        <ele>8.8473</ele>
        <time>2011-02-20T13:20:40Z</time>
      </trkpt>
      <trkpt lat="46.32699" lon="-0.47541">
        <ele>8.8442</ele>
        <time>2011-02-20T13:20:41Z</time>
      </trkpt>
      <trkpt lat="46.327" lon="-0.47541">
        <ele>8.8397</ele>
        <time>2011-02-20T13:20:42Z</time>
      </trkpt>
      <trkpt lat="46.32701" lon="-0.47542">
        <ele>8.8349</ele>
        <time>2011-02-20T13:20:43Z</time>
      </trkpt>
      <trkpt lat="46.32702" lon="-0.47543">
        <ele>8.8296</ele>
        <time>2011-02-20T13:20:44Z</time>
      </trkpt>
      <trkpt lat="46.32703" lon="-0.47544">
        <ele>8.8203</ele>
        <time>2011-02-20T13:20:45Z</time>
      </trkpt>
      <trkpt lat="46.32704" lon="-0.47545">
        <ele>8.8081</ele>
        <time>2011-02-20T13:20:46Z</time>
      </trkpt>
      <trkpt lat="46.32705" lon="-0.47546">
        <ele>8.7961</ele>
        <time>2011-02-20T13:20:47Z</time>
      </trkpt>
      <trkpt lat="46.32706" lon="-0.47547">
        <ele>8.7864</ele>
        <time>2011-02-20T13:20:48Z</time>
      </trkpt>
      <trkpt lat="46.32707" lon="-0.47548">
        <ele>8.7795</ele>
        <time>2011-02-20T13:20:49Z</time>
      </trkpt>
      <trkpt lat="46.32708" lon="-0.47548">
        <ele>8.7749</ele>
        <time>2011-02-20T13:20:50Z</time>
      </trkpt>
      <trkpt lat="46.32709" lon="-0.47549">
        <ele>8.772</ele>
        <time>2011-02-20T13:20:51Z</time>
      </trkpt>
      <trkpt lat="46.3271" lon="-0.47549">
        <ele>8.7714</ele>
        <time>2011-02-20T13:20:52Z</time>
      </trkpt>
      <trkpt lat="46.32711" lon="-0.4755">
        <ele>8.7735</ele>
        <time>2011-02-20T13:20:53Z</time>
      </trkpt>
      <trkpt lat="46.32712" lon="-0.4755">
        <ele>8.7771</ele>
        <time>2011-02-20T13:20:54Z</time>
      </trkpt>
      <trkpt lat="46.32713" lon="-0.47551">
        <ele>8.7829</ele>
        <time>2011-02-20T13:20:55Z</time>
      </trkpt>
      <trkpt lat="46.32714" lon="-0.47551">
        <ele>8.7906</ele>
        <time>2011-02-20T13:20:56Z</time>
      </trkpt>
      <trkpt lat="46.32715" lon="-0.47552">
        <ele>8.7979</ele>
        <time>2011-02-20T13:20:57Z</time>
      </trkpt>
      <trkpt lat="46.32716" lon="-0.47552">
        <ele>8.8046</ele>
        <time>2011-02-20T13:20:58Z</time>
      </trkpt>
      <trkpt lat="46.32717" lon="-0.47553">
        <ele>8.8138</ele>
        <time>2011-02-20T13:20:59Z</time>
      </trkpt>
      <trkpt lat="46.32718" lon="-0.47553">
        <ele>8.826</ele>
        <time>2011-02-20T13:21:00Z</time>
      </trkpt>
      <trkpt lat="46.32719" lon="-0.47554">
        <ele>8.8369</ele>
        <time>2011-02-20T13:21:01Z</time>
      </trkpt>
      <trkpt lat="46.32721" lon="-0.47555">
        <ele>8.8479</ele>
        <time>2011-02-20T13:21:02Z</time>
      </trkpt>
      <trkpt lat="46.32722" lon="-0.47556">
        <ele>8.8567</ele>
        <time>2011-02-20T13:21:03Z</time>
      </trkpt>
      <trkpt lat="46.32723" lon="-0.47556">
        <ele>8.8659</ele>
        <time>2011-02-20T13:21:04Z</time>
      </trkpt>
      <trkpt lat="46.32724" lon="-0.47557">
        <ele>8.8764</ele>
        <time>2011-02-20T13:21:05Z</time>
      </trkpt>
      <trkpt lat="46.32725" lon="-0.47558">
        <ele>8.8897</ele>
        <time>2011-02-20T13:21:06Z</time>
      </trkpt>
      <trkpt lat="46.32726" lon="-0.47559">
        <ele>8.9057</ele>
        <time>2011-02-20T13:21:07Z</time>
      </trkpt>
      <trkpt lat="46.32727" lon="-0.47559">
        <ele>8.9223</ele>
        <time>2011-02-20T13:21:08Z</time>
      </trkpt>
      <trkpt lat="46.32728" lon="-0.4756">
        <ele>8.9391</ele>
        <time>2011-02-20T13:21:09Z</time>
      </trkpt>
      <trkpt lat="46.32729" lon="-0.47561">
        <ele>8.9548</ele>
        <time>2011-02-20T13:21:10Z</time>
      </trkpt>
      <trkpt lat="46.3273" lon="-0.47561">
        <ele>8.9675</ele>
        <time>2011-02-20T13:21:11Z</time>
      </trkpt>
      <trkpt lat="46.32731" lon="-0.47562">
        <ele>8.9777</ele>
        <time>2011-02-20T13:21:12Z</time>
      </trkpt>
      <trkpt lat="46.32732" lon="-0.47563">
        <ele>8.9871</ele>
        <time>2011-02-20T13:21:13Z</time>
      </trkpt>
      <trkpt lat="46.32733" lon="-0.47564">
        <ele>8.9969</ele>
        <time>2011-02-20T13:21:14Z</time>
      </trkpt>
      <trkpt lat="46.32734" lon="-0.47564">
        <ele>9.0085</ele>
        <time>2011-02-20T13:21:15Z</time>
      </trkpt>
      <trkpt lat="46.32735" lon="-0.47565">
        <ele>9.0203</ele>
        <time>2011-02-20T13:21:16Z</time>
      </trkpt>
      <trkpt lat="46.32736" lon="-0.47566">
        <ele>9.0299</ele>
        <time>2011-02-20T13:21:17Z</time>
      </trkpt>
      <trkpt lat="46.32737" lon="-0.47567">
        <ele>9.0395</ele>
        <time>2011-02-20T13:21:18Z</time>
      </trkpt>
      <trkpt lat="46.32739" lon="-0.47567">
        <ele>9.05</ele>
        <time>2011-02-20T13:21:19Z</time>
      </trkpt>
      <trkpt lat="46.3274" lon="-0.47568">
        <ele>9.061</ele>
        <time>2011-02-20T13:21:20Z</time>
      </trkpt>
      <trkpt lat="46.32741" lon="-0.47569">
        <ele>9.0715</ele>
        <time>2011-02-20T13:21:21Z</time>
      </trkpt>
      <trkpt lat="46.32742" lon="-0.4757">
        <ele>9.0827</ele>
        <time>2011-02-20T13:21:22Z</time>
      </trkpt>
      <trkpt lat="46.32743" lon="-0.47571">
        <ele>9.0935</ele>
        <time>2011-02-20T13:21:23Z</time>
      </trkpt>
      <trkpt lat="46.32744" lon="-0.47572">
        <ele>9.1029</ele>
        <time>2011-02-20T13:21:24Z</time>
      </trkpt>
      <trkpt lat="46.32745" lon="-0.47573">
        <ele>9.1098</ele>
        <time>2011-02-20T13:21:25Z</time>
      </trkpt>
      <trkpt lat="46.32745" lon="-0.47574">
        <ele>9.1147</ele>
        <time>2011-02-20T13:21:26Z</time>
      </trkpt>
      <trkpt lat="46.32747" lon="-0.47575">
        <ele>9.1167</ele>
        <time>2011-02-20T13:21:27Z</time>
      </trkpt>
      <trkpt lat="46.32747" lon="-0.47576">
        <ele>9.1169</ele>
        <time>2011-02-20T13:21:28Z</time>
      </trkpt>
      <trkpt lat="46.32748" lon="-0.47577">
        <ele>9.116</ele>
        <time>2011-02-20T13:21:29Z</time>
      </trkpt>
      <trkpt lat="46.32749" lon="-0.47578">
        <ele>9.1156</ele>
        <time>2011-02-20T13:21:30Z</time>
      </trkpt>
      <trkpt lat="46.3275" lon="-0.47579">
        <ele>9.1159</ele>
        <time>2011-02-20T13:21:31Z</time>
      </trkpt>
      <trkpt lat="46.3275" lon="-0.47579">
        <ele>9.1177</ele>
        <time>2011-02-20T13:21:32Z</time>
      </trkpt>
      <trkpt lat="46.32751" lon="-0.4758">
        <ele>9.121</ele>
        <time>2011-02-20T13:21:33Z</time>
      </trkpt>
      <trkpt lat="46.32752" lon="-0.47581">
        <ele>9.125</ele>
        <time>2011-02-20T13:21:34Z</time>
      </trkpt>
      <trkpt lat="46.32753" lon="-0.47582">
        <ele>9.1288</ele>
        <time>2011-02-20T13:21:35Z</time>
      </trkpt>
      <trkpt lat="46.32754" lon="-0.47583">
        <ele>9.1329</ele>
        <time>2011-02-20T13:21:36Z</time>
      </trkpt>
      <trkpt lat="46.32755" lon="-0.47584">
        <ele>9.1367</ele>
        <time>2011-02-20T13:21:37Z</time>
      </trkpt>
      <trkpt lat="46.32755" lon="-0.47585">
        <ele>9.1374</ele>
        <time>2011-02-20T13:21:38Z</time>
      </trkpt>
      <trkpt lat="46.32756" lon="-0.47586">
        <ele>9.1363</ele>
        <time>2011-02-20T13:21:39Z</time>
      </trkpt>
      <trkpt lat="46.32757" lon="-0.47587">
        <ele>9.1338</ele>
        <time>2011-02-20T13:21:40Z</time>
      </trkpt>
      <trkpt lat="46.32758" lon="-0.47589">
        <ele>9.1328</ele>
        <time>2011-02-20T13:21:41Z</time>
      </trkpt>
      <trkpt lat="46.32758" lon="-0.4759">
        <ele>9.1317</ele>
        <time>2011-02-20T13:21:42Z</time>
      </trkpt>
      <trkpt lat="46.3276" lon="-0.47591">
        <ele>9.1298</ele>
        <time>2011-02-20T13:21:43Z</time>
      </trkpt>
      <trkpt lat="46.3276" lon="-0.47592">
        <ele>9.1271</ele>
        <time>2011-02-20T13:21:44Z</time>
      </trkpt>
      <trkpt lat="46.32761" lon="-0.47593">
        <ele>9.1269</ele>
        <time>2011-02-20T13:21:45Z</time>
      </trkpt>
      <trkpt lat="46.32761" lon="-0.47604">
        <ele>9.138</ele>
        <time>2011-02-20T13:21:50Z</time>
      </trkpt>
      <trkpt lat="46.32761" lon="-0.47612">
        <ele>9.4675</ele>
        <time>2011-02-20T13:21:53Z</time>
      </trkpt>
      <trkpt lat="46.32762" lon="-0.47614">
        <ele>9.6788</ele>
        <time>2011-02-20T13:21:54Z</time>
      </trkpt>
      <trkpt lat="46.32762" lon="-0.47616">
        <ele>9.9013</ele>
        <time>2011-02-20T13:21:55Z</time>
      </trkpt>
      <trkpt lat="46.32763" lon="-0.47618">
        <ele>10.1607</ele>
        <time>2011-02-20T13:21:56Z</time>
      </trkpt>
      <trkpt lat="46.32764" lon="-0.47621">
        <ele>10.4395</ele>
        <time>2011-02-20T13:21:57Z</time>
      </trkpt>
      <trkpt lat="46.32764" lon="-0.47622">
        <ele>10.7198</ele>
        <time>2011-02-20T13:21:58Z</time>
      </trkpt>
      <trkpt lat="46.32765" lon="-0.47624">
        <ele>10.9815</ele>
        <time>2011-02-20T13:21:59Z</time>
      </trkpt>
      <trkpt lat="46.32766" lon="-0.47625">
        <ele>11.224</ele>
        <time>2011-02-20T13:22:00Z</time>
      </trkpt>
      <trkpt lat="46.32767" lon="-0.47625">
        <ele>11.459</ele>
        <time>2011-02-20T13:22:01Z</time>
      </trkpt>
      <trkpt lat="46.32768" lon="-0.47626">
        <ele>11.6895</ele>
        <time>2011-02-20T13:22:02Z</time>
      </trkpt>
      <trkpt lat="46.32769" lon="-0.47627">
        <ele>11.9004</ele>
        <time>2011-02-20T13:22:03Z</time>
      </trkpt>
      <trkpt lat="46.32769" lon="-0.47628">
        <ele>12.1182</ele>
        <time>2011-02-20T13:22:04Z</time>
      </trkpt>
      <trkpt lat="46.32771" lon="-0.47629">
        <ele>12.3258</ele>
        <time>2011-02-20T13:22:05Z</time>
      </trkpt>
      <trkpt lat="46.32771" lon="-0.47629">
        <ele>12.5199</ele>
        <time>2011-02-20T13:22:06Z</time>
      </trkpt>
      <trkpt lat="46.32772" lon="-0.4763">
        <ele>12.6953</ele>
        <time>2011-02-20T13:22:07Z</time>
      </trkpt>
      <trkpt lat="46.32773" lon="-0.47631">
        <ele>12.8535</ele>
        <time>2011-02-20T13:22:08Z</time>
      </trkpt>
      <trkpt lat="46.32774" lon="-0.47631">
        <ele>12.987</ele>
        <time>2011-02-20T13:22:09Z</time>
      </trkpt>
      <trkpt lat="46.32774" lon="-0.47632">
        <ele>13.0999</ele>
        <time>2011-02-20T13:22:10Z</time>
      </trkpt>
      <trkpt lat="46.32775" lon="-0.47633">
        <ele>13.1975</ele>
        <time>2011-02-20T13:22:11Z</time>
      </trkpt>
      <trkpt lat="46.32776" lon="-0.47632">
        <ele>13.2897</ele>
        <time>2011-02-20T13:22:12Z</time>
      </trkpt>
      <trkpt lat="46.32777" lon="-0.47632">
        <ele>13.3614</ele>
        <time>2011-02-20T13:22:13Z</time>
      </trkpt>
      <trkpt lat="46.32777" lon="-0.47632">
        <ele>13.4221</ele>
        <time>2011-02-20T13:22:14Z</time>
      </trkpt>
      <trkpt lat="46.32778" lon="-0.47632">
        <ele>13.4782</ele>
        <time>2011-02-20T13:22:15Z</time>
      </trkpt>
      <trkpt lat="46.32779" lon="-0.47632">
        <ele>13.5266</ele>
        <time>2011-02-20T13:22:16Z</time>
      </trkpt>
      <trkpt lat="46.3278" lon="-0.47632">
        <ele>13.5679</ele>
        <time>2011-02-20T13:22:17Z</time>
      </trkpt>
      <trkpt lat="46.32781" lon="-0.47632">
        <ele>13.6044</ele>
        <time>2011-02-20T13:22:18Z</time>
      </trkpt>
      <trkpt lat="46.32781" lon="-0.47632">
        <ele>13.6343</ele>
        <time>2011-02-20T13:22:19Z</time>
      </trkpt>
      <trkpt lat="46.32782" lon="-0.47633">
        <ele>13.6648</ele>
        <time>2011-02-20T13:22:20Z</time>
      </trkpt>
      <trkpt lat="46.32783" lon="-0.47634">
        <ele>13.6904</ele>
        <time>2011-02-20T13:22:21Z</time>
      </trkpt>
      <trkpt lat="46.32784" lon="-0.47635">
        <ele>13.7145</ele>
        <time>2011-02-20T13:22:22Z</time>
      </trkpt>
      <trkpt lat="46.32785" lon="-0.47635">
        <ele>13.7371</ele>
        <time>2011-02-20T13:22:23Z</time>
      </trkpt>
      <trkpt lat="46.32786" lon="-0.47636">
        <ele>13.76</ele>
        <time>2011-02-20T13:22:24Z</time>
      </trkpt>
      <trkpt lat="46.32787" lon="-0.47637">
        <ele>13.7833</ele>
        <time>2011-02-20T13:22:25Z</time>
      </trkpt>
      <trkpt lat="46.32787" lon="-0.47638">
        <ele>13.8083</ele>
        <time>2011-02-20T13:22:26Z</time>
      </trkpt>
      <trkpt lat="46.32788" lon="-0.47639">
        <ele>13.8337</ele>
        <time>2011-02-20T13:22:27Z</time>
      </trkpt>
      <trkpt lat="46.32789" lon="-0.4764">
        <ele>13.8583</ele>
        <time>2011-02-20T13:22:28Z</time>
      </trkpt>
      <trkpt lat="46.3279" lon="-0.4764">
        <ele>13.8831</ele>
        <time>2011-02-20T13:22:29Z</time>
      </trkpt>
      <trkpt lat="46.3279" lon="-0.47641">
        <ele>13.9088</ele>
        <time>2011-02-20T13:22:30Z</time>
      </trkpt>
      <trkpt lat="46.32791" lon="-0.47642">
        <ele>13.9364</ele>
        <time>2011-02-20T13:22:31Z</time>
      </trkpt>
      <trkpt lat="46.32792" lon="-0.47643">
        <ele>13.9651</ele>
        <time>2011-02-20T13:22:32Z</time>
      </trkpt>
      <trkpt lat="46.32793" lon="-0.47643">
        <ele>13.9944</ele>
        <time>2011-02-20T13:22:33Z</time>
      </trkpt>
      <trkpt lat="46.32794" lon="-0.47644">
        <ele>14.0233</ele>
        <time>2011-02-20T13:22:34Z</time>
      </trkpt>
      <trkpt lat="46.32795" lon="-0.47645">
        <ele>14.0509</ele>
        <time>2011-02-20T13:22:35Z</time>
      </trkpt>
      <trkpt lat="46.32797" lon="-0.47647">
        <ele>14.1024</ele>
        <time>2011-02-20T13:22:38Z</time>
      </trkpt>
      <trkpt lat="46.32797" lon="-0.47648">
        <ele>14.124</ele>
        <time>2011-02-20T13:22:39Z</time>
      </trkpt>
      <trkpt lat="46.32798" lon="-0.4765">
        <ele>14.1408</ele>
        <time>2011-02-20T13:22:40Z</time>
      </trkpt>
      <trkpt lat="46.32799" lon="-0.47651">
        <ele>14.151</ele>
        <time>2011-02-20T13:22:41Z</time>
      </trkpt>
      <trkpt lat="46.328" lon="-0.47652">
        <ele>14.1589</ele>
        <time>2011-02-20T13:22:42Z</time>
      </trkpt>
      <trkpt lat="46.32801" lon="-0.47653">
        <ele>14.1639</ele>
        <time>2011-02-20T13:22:43Z</time>
      </trkpt>
      <trkpt lat="46.32802" lon="-0.47654">
        <ele>14.1667</ele>
        <time>2011-02-20T13:22:44Z</time>
      </trkpt>
      <trkpt lat="46.32803" lon="-0.47655">
        <ele>14.1691</ele>
        <time>2011-02-20T13:22:45Z</time>
      </trkpt>
      <trkpt lat="46.32805" lon="-0.47656">
        <ele>14.1688</ele>
        <time>2011-02-20T13:22:46Z</time>
      </trkpt>
      <trkpt lat="46.32805" lon="-0.47657">
        <ele>14.1682</ele>
        <time>2011-02-20T13:22:47Z</time>
      </trkpt>
      <trkpt lat="46.32806" lon="-0.47658">
        <ele>14.1676</ele>
        <time>2011-02-20T13:22:48Z</time>
      </trkpt>
      <trkpt lat="46.32807" lon="-0.47659">
        <ele>14.1668</ele>
        <time>2011-02-20T13:22:49Z</time>
      </trkpt>
      <trkpt lat="46.32808" lon="-0.4766">
        <ele>14.1656</ele>
        <time>2011-02-20T13:22:50Z</time>
      </trkpt>
      <trkpt lat="46.32809" lon="-0.4766">
        <ele>14.1591</ele>
        <time>2011-02-20T13:22:51Z</time>
      </trkpt>
      <trkpt lat="46.32811" lon="-0.47661">
        <ele>14.1498</ele>
        <time>2011-02-20T13:22:52Z</time>
      </trkpt>
      <trkpt lat="46.32812" lon="-0.47662">
        <ele>14.1392</ele>
        <time>2011-02-20T13:22:53Z</time>
      </trkpt>
      <trkpt lat="46.32813" lon="-0.47662">
        <ele>14.1279</ele>
        <time>2011-02-20T13:22:54Z</time>
      </trkpt>
      <trkpt lat="46.32814" lon="-0.47663">
        <ele>14.1163</ele>
        <time>2011-02-20T13:22:55Z</time>
      </trkpt>
      <trkpt lat="46.32816" lon="-0.47664">
        <ele>14.1016</ele>
        <time>2011-02-20T13:22:56Z</time>
      </trkpt>
      <trkpt lat="46.32817" lon="-0.47664">
        <ele>14.0844</ele>
        <time>2011-02-20T13:22:57Z</time>
      </trkpt>
      <trkpt lat="46.32818" lon="-0.47665">
        <ele>14.0634</ele>
        <time>2011-02-20T13:22:58Z</time>
      </trkpt>
      <trkpt lat="46.32819" lon="-0.47666">
        <ele>14.0396</ele>
        <time>2011-02-20T13:22:59Z</time>
      </trkpt>
      <trkpt lat="46.3282" lon="-0.47666">
        <ele>14.0126</ele>
        <time>2011-02-20T13:23:00Z</time>
      </trkpt>
      <trkpt lat="46.32821" lon="-0.47666">
        <ele>13.9852</ele>
        <time>2011-02-20T13:23:01Z</time>
      </trkpt>
      <trkpt lat="46.32822" lon="-0.47667">
        <ele>13.9578</ele>
        <time>2011-02-20T13:23:02Z</time>
      </trkpt>
      <trkpt lat="46.32823" lon="-0.47667">
        <ele>13.9311</ele>
        <time>2011-02-20T13:23:03Z</time>
      </trkpt>
      <trkpt lat="46.32824" lon="-0.47667">
        <ele>13.9026</ele>
        <time>2011-02-20T13:23:04Z</time>
      </trkpt>
      <trkpt lat="46.32826" lon="-0.47668">
        <ele>13.8733</ele>
        <time>2011-02-20T13:23:05Z</time>
      </trkpt>
      <trkpt lat="46.32827" lon="-0.47668">
        <ele>13.844</ele>
        <time>2011-02-20T13:23:06Z</time>
      </trkpt>
      <trkpt lat="46.32827" lon="-0.47669">
        <ele>13.8146</ele>
        <time>2011-02-20T13:23:07Z</time>
      </trkpt>
      <trkpt lat="46.32829" lon="-0.47669">
        <ele>13.7837</ele>
        <time>2011-02-20T13:23:08Z</time>
      </trkpt>
      <trkpt lat="46.3283" lon="-0.4767">
        <ele>13.7533</ele>
        <time>2011-02-20T13:23:09Z</time>
      </trkpt>
      <trkpt lat="46.32831" lon="-0.4767">
        <ele>13.7202</ele>
        <time>2011-02-20T13:23:10Z</time>
      </trkpt>
      <trkpt lat="46.32832" lon="-0.47671">
        <ele>13.685</ele>
        <time>2011-02-20T13:23:11Z</time>
      </trkpt>
      <trkpt lat="46.32833" lon="-0.47671">
        <ele>13.649</ele>
        <time>2011-02-20T13:23:12Z</time>
      </trkpt>
      <trkpt lat="46.32834" lon="-0.47672">
        <ele>13.609</ele>
        <time>2011-02-20T13:23:13Z</time>
      </trkpt>
      <trkpt lat="46.32835" lon="-0.47672">
        <ele>13.5648</ele>
        <time>2011-02-20T13:23:14Z</time>
      </trkpt>
      <trkpt lat="46.32836" lon="-0.47672">
        <ele>13.5194</ele>
        <time>2011-02-20T13:23:15Z</time>
      </trkpt>
      <trkpt lat="46.32837" lon="-0.47672">
        <ele>13.4725</ele>
        <time>2011-02-20T13:23:16Z</time>
      </trkpt>
      <trkpt lat="46.32838" lon="-0.47672">
        <ele>13.4261</ele>
        <time>2011-02-20T13:23:17Z</time>
      </trkpt>
      <trkpt lat="46.32839" lon="-0.47672">
        <ele>13.379</ele>
        <time>2011-02-20T13:23:18Z</time>
      </trkpt>
      <trkpt lat="46.3284" lon="-0.47673">
        <ele>13.3327</ele>
        <time>2011-02-20T13:23:19Z</time>
      </trkpt>
      <trkpt lat="46.32841" lon="-0.47673">
        <ele>13.2849</ele>
        <time>2011-02-20T13:23:20Z</time>
      </trkpt>
      <trkpt lat="46.32842" lon="-0.47673">
        <ele>13.2377</ele>
        <time>2011-02-20T13:23:21Z</time>
      </trkpt>
      <trkpt lat="46.32843" lon="-0.47673">
        <ele>13.1941</ele>
        <time>2011-02-20T13:23:22Z</time>
      </trkpt>
      <trkpt lat="46.32844" lon="-0.47674">
        <ele>13.1509</ele>
        <time>2011-02-20T13:23:23Z</time>
      </trkpt>
      <trkpt lat="46.32845" lon="-0.47674">
        <ele>13.1082</ele>
        <time>2011-02-20T13:23:24Z</time>
      </trkpt>
      <trkpt lat="46.32846" lon="-0.47674">
        <ele>13.0656</ele>
        <time>2011-02-20T13:23:25Z</time>
      </trkpt>
      <trkpt lat="46.32847" lon="-0.47678">
        <ele>12.3339</ele>
        <time>2011-02-20T13:23:35Z</time>
      </trkpt>
      <trkpt lat="46.32847" lon="-0.47679">
        <ele>12.0702</ele>
        <time>2011-02-20T13:23:36Z</time>
      </trkpt>
      <trkpt lat="46.32848" lon="-0.4768">
        <ele>11.8411</ele>
        <time>2011-02-20T13:23:37Z</time>
      </trkpt>
      <trkpt lat="46.32849" lon="-0.4768">
        <ele>11.6234</ele>
        <time>2011-02-20T13:23:38Z</time>
      </trkpt>
      <trkpt lat="46.3285" lon="-0.47681">
        <ele>11.4006</ele>
        <time>2011-02-20T13:23:39Z</time>
      </trkpt>
      <trkpt lat="46.32852" lon="-0.47682">
        <ele>11.1778</ele>
        <time>2011-02-20T13:23:40Z</time>
      </trkpt>
      <trkpt lat="46.32853" lon="-0.47683">
        <ele>10.9572</ele>
        <time>2011-02-20T13:23:41Z</time>
      </trkpt>
      <trkpt lat="46.32855" lon="-0.47684">
        <ele>10.7545</ele>
        <time>2011-02-20T13:23:42Z</time>
      </trkpt>
      <trkpt lat="46.32856" lon="-0.47685">
        <ele>10.5651</ele>
        <time>2011-02-20T13:23:43Z</time>
      </trkpt>
      <trkpt lat="46.32858" lon="-0.47685">
        <ele>10.2291</ele>
        <time>2011-02-20T13:23:45Z</time>
      </trkpt>
      <trkpt lat="46.32859" lon="-0.47685">
        <ele>10.0716</ele>
        <time>2011-02-20T13:23:46Z</time>
      </trkpt>
      <trkpt lat="46.32861" lon="-0.47686">
        <ele>9.922</ele>
        <time>2011-02-20T13:23:47Z</time>
      </trkpt>
      <trkpt lat="46.32862" lon="-0.47686">
        <ele>9.7768</ele>
        <time>2011-02-20T13:23:48Z</time>
      </trkpt>
      <trkpt lat="46.32863" lon="-0.47686">
        <ele>9.6594</ele>
        <time>2011-02-20T13:23:49Z</time>
      </trkpt>
      <trkpt lat="46.32864" lon="-0.47686">
        <ele>9.5429</ele>
        <time>2011-02-20T13:23:50Z</time>
      </trkpt>
      <trkpt lat="46.32865" lon="-0.47686">
        <ele>9.444</ele>
        <time>2011-02-20T13:23:51Z</time>
      </trkpt>
      <trkpt lat="46.32866" lon="-0.47686">
        <ele>9.3593</ele>
        <time>2011-02-20T13:23:52Z</time>
      </trkpt>
      <trkpt lat="46.32867" lon="-0.47687">
        <ele>9.2707</ele>
        <time>2011-02-20T13:23:53Z</time>
      </trkpt>
      <trkpt lat="46.32868" lon="-0.47687">
        <ele>9.1749</ele>
        <time>2011-02-20T13:23:54Z</time>
      </trkpt>
      <trkpt lat="46.32869" lon="-0.47687">
        <ele>9.0799</ele>
        <time>2011-02-20T13:23:55Z</time>
      </trkpt>
      <trkpt lat="46.32871" lon="-0.47687">
        <ele>8.9869</ele>
        <time>2011-02-20T13:23:56Z</time>
      </trkpt>
      <trkpt lat="46.32872" lon="-0.47687">
        <ele>8.8992</ele>
        <time>2011-02-20T13:23:57Z</time>
      </trkpt>
      <trkpt lat="46.32873" lon="-0.47688">
        <ele>8.8131</ele>
        <time>2011-02-20T13:23:58Z</time>
      </trkpt>
      <trkpt lat="46.32874" lon="-0.47688">
        <ele>8.7353</ele>
        <time>2011-02-20T13:23:59Z</time>
      </trkpt>
      <trkpt lat="46.32875" lon="-0.47688">
        <ele>8.6621</ele>
        <time>2011-02-20T13:24:00Z</time>
      </trkpt>
      <trkpt lat="46.32876" lon="-0.47689">
        <ele>8.5913</ele>
        <time>2011-02-20T13:24:01Z</time>
      </trkpt>
      <trkpt lat="46.32877" lon="-0.47689">
        <ele>8.5247</ele>
        <time>2011-02-20T13:24:02Z</time>
      </trkpt>
      <trkpt lat="46.3288" lon="-0.47691">
        <ele>8.3591</ele>
        <time>2011-02-20T13:24:05Z</time>
      </trkpt>
      <trkpt lat="46.32881" lon="-0.47692">
        <ele>8.3059</ele>
        <time>2011-02-20T13:24:06Z</time>
      </trkpt>
      <trkpt lat="46.32882" lon="-0.47692">
        <ele>8.2587</ele>
        <time>2011-02-20T13:24:07Z</time>
      </trkpt>
      <trkpt lat="46.32883" lon="-0.47693">
        <ele>8.2313</ele>
        <time>2011-02-20T13:24:08Z</time>
      </trkpt>
      <trkpt lat="46.32884" lon="-0.47693">
        <ele>8.2168</ele>
        <time>2011-02-20T13:24:09Z</time>
      </trkpt>
      <trkpt lat="46.32886" lon="-0.47694">
        <ele>8.1974</ele>
        <time>2011-02-20T13:24:10Z</time>
      </trkpt>
      <trkpt lat="46.32887" lon="-0.47695">
        <ele>8.2064</ele>
        <time>2011-02-20T13:24:11Z</time>
      </trkpt>
      <trkpt lat="46.32889" lon="-0.47696">
        <ele>8.2353</ele>
        <time>2011-02-20T13:24:12Z</time>
      </trkpt>
      <trkpt lat="46.3289" lon="-0.47696">
        <ele>8.2743</ele>
        <time>2011-02-20T13:24:13Z</time>
      </trkpt>
      <trkpt lat="46.32892" lon="-0.47697">
        <ele>8.3202</ele>
        <time>2011-02-20T13:24:14Z</time>
      </trkpt>
      <trkpt lat="46.32893" lon="-0.47697">
        <ele>8.368</ele>
        <time>2011-02-20T13:24:15Z</time>
      </trkpt>
      <trkpt lat="46.32894" lon="-0.47698">
        <ele>8.4161</ele>
        <time>2011-02-20T13:24:16Z</time>
      </trkpt>
      <trkpt lat="46.32895" lon="-0.47699">
        <ele>8.4637</ele>
        <time>2011-02-20T13:24:17Z</time>
      </trkpt>
      <trkpt lat="46.32895" lon="-0.47699">
        <ele>8.5084</ele>
        <time>2011-02-20T13:24:18Z</time>
      </trkpt>
      <trkpt lat="46.32896" lon="-0.477">
        <ele>8.5549</ele>
        <time>2011-02-20T13:24:19Z</time>
      </trkpt>
      <trkpt lat="46.32897" lon="-0.47701">
        <ele>8.5959</ele>
        <time>2011-02-20T13:24:20Z</time>
      </trkpt>
      <trkpt lat="46.32898" lon="-0.47702">
        <ele>8.6356</ele>
        <time>2011-02-20T13:24:21Z</time>
      </trkpt>
      <trkpt lat="46.32899" lon="-0.47703">
        <ele>8.6754</ele>
        <time>2011-02-20T13:24:22Z</time>
      </trkpt>
      <trkpt lat="46.329" lon="-0.47703">
        <ele>8.7134</ele>
        <time>2011-02-20T13:24:23Z</time>
      </trkpt>
      <trkpt lat="46.32901" lon="-0.47704">
        <ele>8.7518</ele>
        <time>2011-02-20T13:24:24Z</time>
      </trkpt>
      <trkpt lat="46.32903" lon="-0.47705">
        <ele>8.7882</ele>
        <time>2011-02-20T13:24:25Z</time>
      </trkpt>
      <trkpt lat="46.32904" lon="-0.47706">
        <ele>8.8231</ele>
        <time>2011-02-20T13:24:26Z</time>
      </trkpt>
      <trkpt lat="46.32905" lon="-0.47706">
        <ele>8.8565</ele>
        <time>2011-02-20T13:24:27Z</time>
      </trkpt>
      <trkpt lat="46.32906" lon="-0.47707">
        <ele>8.8804</ele>
        <time>2011-02-20T13:24:28Z</time>
      </trkpt>
      <trkpt lat="46.32907" lon="-0.47708">
        <ele>8.8888</ele>
        <time>2011-02-20T13:24:29Z</time>
      </trkpt>
      <trkpt lat="46.32908" lon="-0.47709">
        <ele>8.8777</ele>
        <time>2011-02-20T13:24:30Z</time>
      </trkpt>
      <trkpt lat="46.32909" lon="-0.4771">
        <ele>8.8511</ele>
        <time>2011-02-20T13:24:31Z</time>
      </trkpt>
      <trkpt lat="46.32911" lon="-0.47711">
        <ele>8.8449</ele>
        <time>2011-02-20T13:24:32Z</time>
      </trkpt>
      <trkpt lat="46.32912" lon="-0.47712">
        <ele>8.8318</ele>
        <time>2011-02-20T13:24:33Z</time>
      </trkpt>
      <trkpt lat="46.32913" lon="-0.47713">
        <ele>8.8081</ele>
        <time>2011-02-20T13:24:34Z</time>
      </trkpt>
      <trkpt lat="46.32914" lon="-0.47714">
        <ele>8.7782</ele>
        <time>2011-02-20T13:24:35Z</time>
      </trkpt>
      <trkpt lat="46.32915" lon="-0.47715">
        <ele>8.7458</ele>
        <time>2011-02-20T13:24:36Z</time>
      </trkpt>
      <trkpt lat="46.32916" lon="-0.47716">
        <ele>8.711</ele>
        <time>2011-02-20T13:24:37Z</time>
      </trkpt>
      <trkpt lat="46.32916" lon="-0.47717">
        <ele>8.6729</ele>
        <time>2011-02-20T13:24:38Z</time>
      </trkpt>
      <trkpt lat="46.32917" lon="-0.47717">
        <ele>8.6311</ele>
        <time>2011-02-20T13:24:39Z</time>
      </trkpt>
      <trkpt lat="46.32918" lon="-0.47718">
        <ele>8.5875</ele>
        <time>2011-02-20T13:24:40Z</time>
      </trkpt>
      <trkpt lat="46.32919" lon="-0.47719">
        <ele>8.544</ele>
        <time>2011-02-20T13:24:41Z</time>
      </trkpt>
      <trkpt lat="46.3292" lon="-0.4772">
        <ele>8.5466</ele>
        <time>2011-02-20T13:24:42Z</time>
      </trkpt>
      <trkpt lat="46.32921" lon="-0.47722">
        <ele>8.5481</ele>
        <time>2011-02-20T13:24:43Z</time>
      </trkpt>
      <trkpt lat="46.32921" lon="-0.47724">
        <ele>8.547</ele>
        <time>2011-02-20T13:24:44Z</time>
      </trkpt>
      <trkpt lat="46.32922" lon="-0.47725">
        <ele>8.5439</ele>
        <time>2011-02-20T13:24:45Z</time>
      </trkpt>
      <trkpt lat="46.32923" lon="-0.47726">
        <ele>8.5384</ele>
        <time>2011-02-20T13:24:46Z</time>
      </trkpt>
      <trkpt lat="46.32924" lon="-0.47727">
        <ele>8.5297</ele>
        <time>2011-02-20T13:24:47Z</time>
      </trkpt>
      <trkpt lat="46.32925" lon="-0.47728">
        <ele>8.5178</ele>
        <time>2011-02-20T13:24:48Z</time>
      </trkpt>
      <trkpt lat="46.32926" lon="-0.47729">
        <ele>8.5032</ele>
        <time>2011-02-20T13:24:49Z</time>
      </trkpt>
      <trkpt lat="46.32927" lon="-0.4773">
        <ele>8.4645</ele>
        <time>2011-02-20T13:24:59Z</time>
      </trkpt>
      <trkpt lat="46.32927" lon="-0.47731">
        <ele>8.4515</ele>
        <time>2011-02-20T13:25:00Z</time>
      </trkpt>
      <trkpt lat="46.32928" lon="-0.47731">
        <ele>8.4437</ele>
        <time>2011-02-20T13:25:01Z</time>
      </trkpt>
      <trkpt lat="46.32929" lon="-0.47732">
        <ele>8.4399</ele>
        <time>2011-02-20T13:25:02Z</time>
      </trkpt>
      <trkpt lat="46.3293" lon="-0.47732">
        <ele>8.443</ele>
        <time>2011-02-20T13:25:03Z</time>
      </trkpt>
      <trkpt lat="46.32931" lon="-0.47733">
        <ele>8.4491</ele>
        <time>2011-02-20T13:25:04Z</time>
      </trkpt>
      <trkpt lat="46.32932" lon="-0.47734">
        <ele>8.4587</ele>
        <time>2011-02-20T13:25:05Z</time>
      </trkpt>
      <trkpt lat="46.32933" lon="-0.47735">
        <ele>8.466</ele>
        <time>2011-02-20T13:25:06Z</time>
      </trkpt>
      <trkpt lat="46.32934" lon="-0.47736">
        <ele>8.4733</ele>
        <time>2011-02-20T13:25:07Z</time>
      </trkpt>
      <trkpt lat="46.32935" lon="-0.47736">
        <ele>8.4856</ele>
        <time>2011-02-20T13:25:08Z</time>
      </trkpt>
      <trkpt lat="46.32935" lon="-0.47737">
        <ele>8.5056</ele>
        <time>2011-02-20T13:25:09Z</time>
      </trkpt>
      <trkpt lat="46.32936" lon="-0.47738">
        <ele>8.5492</ele>
        <time>2011-02-20T13:25:10Z</time>
      </trkpt>
      <trkpt lat="46.32937" lon="-0.4774">
        <ele>8.6046</ele>
        <time>2011-02-20T13:25:11Z</time>
      </trkpt>
      <trkpt lat="46.32938" lon="-0.47741">
        <ele>8.6682</ele>
        <time>2011-02-20T13:25:12Z</time>
      </trkpt>
      <trkpt lat="46.32938" lon="-0.47742">
        <ele>8.737</ele>
        <time>2011-02-20T13:25:13Z</time>
      </trkpt>
      <trkpt lat="46.32939" lon="-0.47744">
        <ele>8.809</ele>
        <time>2011-02-20T13:25:14Z</time>
      </trkpt>
      <trkpt lat="46.3294" lon="-0.47745">
        <ele>8.8845</ele>
        <time>2011-02-20T13:25:15Z</time>
      </trkpt>
      <trkpt lat="46.3294" lon="-0.47746">
        <ele>8.9604</ele>
        <time>2011-02-20T13:25:16Z</time>
      </trkpt>
      <trkpt lat="46.32941" lon="-0.47747">
        <ele>9.0396</ele>
        <time>2011-02-20T13:25:17Z</time>
      </trkpt>
      <trkpt lat="46.32942" lon="-0.47748">
        <ele>9.1215</ele>
        <time>2011-02-20T13:25:18Z</time>
      </trkpt>
      <trkpt lat="46.32943" lon="-0.47749">
        <ele>9.2004</ele>
        <time>2011-02-20T13:25:19Z</time>
      </trkpt>
      <trkpt lat="46.32944" lon="-0.4775">
        <ele>9.2754</ele>
        <time>2011-02-20T13:25:20Z</time>
      </trkpt>
      <trkpt lat="46.32945" lon="-0.47751">
        <ele>9.3473</ele>
        <time>2011-02-20T13:25:21Z</time>
      </trkpt>
      <trkpt lat="46.32945" lon="-0.47752">
        <ele>9.4152</ele>
        <time>2011-02-20T13:25:22Z</time>
      </trkpt>
      <trkpt lat="46.32946" lon="-0.47753">
        <ele>9.4799</ele>
        <time>2011-02-20T13:25:23Z</time>
      </trkpt>
      <trkpt lat="46.32947" lon="-0.47754">
        <ele>9.54</ele>
        <time>2011-02-20T13:25:24Z</time>
      </trkpt>
      <trkpt lat="46.32948" lon="-0.47755">
        <ele>9.5955</ele>
        <time>2011-02-20T13:25:25Z</time>
      </trkpt>
      <trkpt lat="46.32949" lon="-0.47755">
        <ele>9.6484</ele>
        <time>2011-02-20T13:25:26Z</time>
      </trkpt>
      <trkpt lat="46.3295" lon="-0.47756">
        <ele>9.6995</ele>
        <time>2011-02-20T13:25:27Z</time>
      </trkpt>
      <trkpt lat="46.32951" lon="-0.47757">
        <ele>9.7496</ele>
        <time>2011-02-20T13:25:28Z</time>
      </trkpt>
      <trkpt lat="46.32951" lon="-0.47757">
        <ele>9.7997</ele>
        <time>2011-02-20T13:25:29Z</time>
      </trkpt>
      <trkpt lat="46.32953" lon="-0.47758">
        <ele>9.8473</ele>
        <time>2011-02-20T13:25:30Z</time>
      </trkpt>
      <trkpt lat="46.32953" lon="-0.47759">
        <ele>9.8933</ele>
        <time>2011-02-20T13:25:31Z</time>
      </trkpt>
      <trkpt lat="46.32954" lon="-0.4776">
        <ele>9.9361</ele>
        <time>2011-02-20T13:25:32Z</time>
      </trkpt>
      <trkpt lat="46.32956" lon="-0.47761">
        <ele>9.9743</ele>
        <time>2011-02-20T13:25:33Z</time>
      </trkpt>
      <trkpt lat="46.32956" lon="-0.47762">
        <ele>10.0088</ele>
        <time>2011-02-20T13:25:34Z</time>
      </trkpt>
      <trkpt lat="46.32957" lon="-0.47762">
        <ele>10.0399</ele>
        <time>2011-02-20T13:25:35Z</time>
      </trkpt>
      <trkpt lat="46.32958" lon="-0.47763">
        <ele>10.0686</ele>
        <time>2011-02-20T13:25:36Z</time>
      </trkpt>
      <trkpt lat="46.32959" lon="-0.47764">
        <ele>10.0962</ele>
        <time>2011-02-20T13:25:37Z</time>
      </trkpt>
      <trkpt lat="46.32959" lon="-0.47765">
        <ele>10.1235</ele>
        <time>2011-02-20T13:25:38Z</time>
      </trkpt>
      <trkpt lat="46.3296" lon="-0.47765">
        <ele>10.1477</ele>
        <time>2011-02-20T13:25:39Z</time>
      </trkpt>
      <trkpt lat="46.32961" lon="-0.47766">
        <ele>10.1706</ele>
        <time>2011-02-20T13:25:40Z</time>
      </trkpt>
      <trkpt lat="46.32962" lon="-0.47766">
        <ele>10.192</ele>
        <time>2011-02-20T13:25:41Z</time>
      </trkpt>
      <trkpt lat="46.32963" lon="-0.47767">
        <ele>10.2106</ele>
        <time>2011-02-20T13:25:42Z</time>
      </trkpt>
      <trkpt lat="46.32964" lon="-0.47768">
        <ele>10.2265</ele>
        <time>2011-02-20T13:25:43Z</time>
      </trkpt>
      <trkpt lat="46.32965" lon="-0.47769">
        <ele>10.241</ele>
        <time>2011-02-20T13:25:44Z</time>
      </trkpt>
      <trkpt lat="46.32966" lon="-0.47769">
        <ele>10.253</ele>
        <time>2011-02-20T13:25:45Z</time>
      </trkpt>
      <trkpt lat="46.32966" lon="-0.4777">
        <ele>10.2626</ele>
        <time>2011-02-20T13:25:46Z</time>
      </trkpt>
      <trkpt lat="46.32967" lon="-0.47771">
        <ele>10.2715</ele>
        <time>2011-02-20T13:25:47Z</time>
      </trkpt>
      <trkpt lat="46.32968" lon="-0.47772">
        <ele>10.2778</ele>
        <time>2011-02-20T13:25:48Z</time>
      </trkpt>
      <trkpt lat="46.32969" lon="-0.47773">
        <ele>10.2857</ele>
        <time>2011-02-20T13:25:49Z</time>
      </trkpt>
      <trkpt lat="46.3297" lon="-0.47774">
        <ele>10.2908</ele>
        <time>2011-02-20T13:25:50Z</time>
      </trkpt>
      <trkpt lat="46.32971" lon="-0.47775">
        <ele>10.2933</ele>
        <time>2011-02-20T13:25:51Z</time>
      </trkpt>
      <trkpt lat="46.32972" lon="-0.47776">
        <ele>10.2941</ele>
        <time>2011-02-20T13:25:52Z</time>
      </trkpt>
      <trkpt lat="46.32973" lon="-0.47777">
        <ele>10.2938</ele>
        <time>2011-02-20T13:25:53Z</time>
      </trkpt>
      <trkpt lat="46.32974" lon="-0.47778">
        <ele>10.2918</ele>
        <time>2011-02-20T13:25:54Z</time>
      </trkpt>
      <trkpt lat="46.32975" lon="-0.47779">
        <ele>10.2901</ele>
        <time>2011-02-20T13:25:55Z</time>
      </trkpt>
      <trkpt lat="46.32975" lon="-0.4778">
        <ele>10.2876</ele>
        <time>2011-02-20T13:25:56Z</time>
      </trkpt>
      <trkpt lat="46.32976" lon="-0.47781">
        <ele>10.2845</ele>
        <time>2011-02-20T13:25:57Z</time>
      </trkpt>
      <trkpt lat="46.32977" lon="-0.47781">
        <ele>10.2798</ele>
        <time>2011-02-20T13:25:58Z</time>
      </trkpt>
      <trkpt lat="46.32978" lon="-0.47783">
        <ele>10.2747</ele>
        <time>2011-02-20T13:25:59Z</time>
      </trkpt>
      <trkpt lat="46.3298" lon="-0.47785">
        <ele>10.2496</ele>
        <time>2011-02-20T13:26:03Z</time>
      </trkpt>
      <trkpt lat="46.3298" lon="-0.47786">
        <ele>10.2367</ele>
        <time>2011-02-20T13:26:04Z</time>
      </trkpt>
      <trkpt lat="46.32981" lon="-0.47786">
        <ele>10.2193</ele>
        <time>2011-02-20T13:26:05Z</time>
      </trkpt>
      <trkpt lat="46.32982" lon="-0.47787">
        <ele>10.1997</ele>
        <time>2011-02-20T13:26:06Z</time>
      </trkpt>
      <trkpt lat="46.32983" lon="-0.47787">
        <ele>10.1798</ele>
        <time>2011-02-20T13:26:07Z</time>
      </trkpt>
      <trkpt lat="46.32987" lon="-0.4779">
        <ele>10.1772</ele>
        <time>2011-02-20T13:26:27Z</time>
      </trkpt>
      <trkpt lat="46.32989" lon="-0.47791">
        <ele>10.2638</ele>
        <time>2011-02-20T13:26:29Z</time>
      </trkpt>
      <trkpt lat="46.3299" lon="-0.47792">
        <ele>10.3044</ele>
        <time>2011-02-20T13:26:30Z</time>
      </trkpt>
      <trkpt lat="46.3299" lon="-0.47792">
        <ele>10.345</ele>
        <time>2011-02-20T13:26:31Z</time>
      </trkpt>
      <trkpt lat="46.32991" lon="-0.47793">
        <ele>10.3831</ele>
        <time>2011-02-20T13:26:32Z</time>
      </trkpt>
      <trkpt lat="46.32993" lon="-0.47794">
        <ele>10.4209</ele>
        <time>2011-02-20T13:26:33Z</time>
      </trkpt>
      <trkpt lat="46.32993" lon="-0.47795">
        <ele>10.458</ele>
        <time>2011-02-20T13:26:34Z</time>
      </trkpt>
      <trkpt lat="46.32995" lon="-0.47795">
        <ele>10.4953</ele>
        <time>2011-02-20T13:26:35Z</time>
      </trkpt>
      <trkpt lat="46.32996" lon="-0.47796">
        <ele>10.532</ele>
        <time>2011-02-20T13:26:36Z</time>
      </trkpt>
      <trkpt lat="46.32996" lon="-0.47797">
        <ele>10.5665</ele>
        <time>2011-02-20T13:26:37Z</time>
      </trkpt>
      <trkpt lat="46.32998" lon="-0.47798">
        <ele>10.599</ele>
        <time>2011-02-20T13:26:38Z</time>
      </trkpt>
      <trkpt lat="46.32999" lon="-0.47799">
        <ele>10.6265</ele>
        <time>2011-02-20T13:26:39Z</time>
      </trkpt>
      <trkpt lat="46.33" lon="-0.478">
        <ele>10.6486</ele>
        <time>2011-02-20T13:26:40Z</time>
      </trkpt>
      <trkpt lat="46.33001" lon="-0.47801">
        <ele>10.6691</ele>
        <time>2011-02-20T13:26:41Z</time>
      </trkpt>
      <trkpt lat="46.33002" lon="-0.47801">
        <ele>10.6872</ele>
        <time>2011-02-20T13:26:42Z</time>
      </trkpt>
      <trkpt lat="46.33003" lon="-0.47802">
        <ele>10.6988</ele>
        <time>2011-02-20T13:26:43Z</time>
      </trkpt>
      <trkpt lat="46.33003" lon="-0.47803">
        <ele>10.7083</ele>
        <time>2011-02-20T13:26:44Z</time>
      </trkpt>
      <trkpt lat="46.33004" lon="-0.47803">
        <ele>10.7098</ele>
        <time>2011-02-20T13:26:45Z</time>
      </trkpt>
      <trkpt lat="46.33005" lon="-0.47804">
        <ele>10.7032</ele>
        <time>2011-02-20T13:26:46Z</time>
      </trkpt>
      <trkpt lat="46.33006" lon="-0.47805">
        <ele>10.6914</ele>
        <time>2011-02-20T13:26:47Z</time>
      </trkpt>
      <trkpt lat="46.33007" lon="-0.47806">
        <ele>10.6782</ele>
        <time>2011-02-20T13:26:48Z</time>
      </trkpt>
      <trkpt lat="46.33007" lon="-0.47806">
        <ele>10.6648</ele>
        <time>2011-02-20T13:26:49Z</time>
      </trkpt>
      <trkpt lat="46.33008" lon="-0.47807">
        <ele>10.6499</ele>
        <time>2011-02-20T13:26:50Z</time>
      </trkpt>
      <trkpt lat="46.33009" lon="-0.47807">
        <ele>10.6352</ele>
        <time>2011-02-20T13:26:51Z</time>
      </trkpt>
      <trkpt lat="46.3301" lon="-0.47808">
        <ele>10.62</ele>
        <time>2011-02-20T13:26:52Z</time>
      </trkpt>
      <trkpt lat="46.33011" lon="-0.47808">
        <ele>10.6036</ele>
        <time>2011-02-20T13:26:53Z</time>
      </trkpt>
      <trkpt lat="46.33011" lon="-0.47808">
        <ele>10.5842</ele>
        <time>2011-02-20T13:26:54Z</time>
      </trkpt>
      <trkpt lat="46.33012" lon="-0.47809">
        <ele>10.5622</ele>
        <time>2011-02-20T13:26:55Z</time>
      </trkpt>
      <trkpt lat="46.33013" lon="-0.47809">
        <ele>10.538</ele>
        <time>2011-02-20T13:26:56Z</time>
      </trkpt>
      <trkpt lat="46.33014" lon="-0.4781">
        <ele>10.5126</ele>
        <time>2011-02-20T13:26:57Z</time>
      </trkpt>
      <trkpt lat="46.33015" lon="-0.4781">
        <ele>10.4843</ele>
        <time>2011-02-20T13:26:58Z</time>
      </trkpt>
      <trkpt lat="46.33016" lon="-0.47811">
        <ele>10.453</ele>
        <time>2011-02-20T13:26:59Z</time>
      </trkpt>
      <trkpt lat="46.33017" lon="-0.47811">
        <ele>10.4202</ele>
        <time>2011-02-20T13:27:00Z</time>
      </trkpt>
      <trkpt lat="46.33018" lon="-0.47812">
        <ele>10.3861</ele>
        <time>2011-02-20T13:27:01Z</time>
      </trkpt>
      <trkpt lat="46.33019" lon="-0.47812">
        <ele>10.3495</ele>
        <time>2011-02-20T13:27:02Z</time>
      </trkpt>
      <trkpt lat="46.3302" lon="-0.47812">
        <ele>10.3125</ele>
        <time>2011-02-20T13:27:03Z</time>
      </trkpt>
      <trkpt lat="46.33021" lon="-0.47813">
        <ele>10.2748</ele>
        <time>2011-02-20T13:27:04Z</time>
      </trkpt>
      <trkpt lat="46.33022" lon="-0.47813">
        <ele>10.232</ele>
        <time>2011-02-20T13:27:05Z</time>
      </trkpt>
      <trkpt lat="46.33024" lon="-0.47814">
        <ele>10.1813</ele>
        <time>2011-02-20T13:27:06Z</time>
      </trkpt>
      <trkpt lat="46.33025" lon="-0.47815">
        <ele>10.1245</ele>
        <time>2011-02-20T13:27:07Z</time>
      </trkpt>
      <trkpt lat="46.33026" lon="-0.47816">
        <ele>10.0683</ele>
        <time>2011-02-20T13:27:08Z</time>
      </trkpt>
      <trkpt lat="46.33027" lon="-0.47817">
        <ele>10.0133</ele>
        <time>2011-02-20T13:27:09Z</time>
      </trkpt>
      <trkpt lat="46.33028" lon="-0.47818">
        <ele>9.9574</ele>
        <time>2011-02-20T13:27:10Z</time>
      </trkpt>
      <trkpt lat="46.33029" lon="-0.47819">
        <ele>9.8927</ele>
        <time>2011-02-20T13:27:11Z</time>
      </trkpt>
      <trkpt lat="46.3303" lon="-0.4782">
        <ele>9.8286</ele>
        <time>2011-02-20T13:27:12Z</time>
      </trkpt>
      <trkpt lat="46.33031" lon="-0.47821">
        <ele>9.7657</ele>
        <time>2011-02-20T13:27:13Z</time>
      </trkpt>
      <trkpt lat="46.33032" lon="-0.47822">
        <ele>9.7076</ele>
        <time>2011-02-20T13:27:14Z</time>
      </trkpt>
      <trkpt lat="46.33033" lon="-0.47823">
        <ele>9.651</ele>
        <time>2011-02-20T13:27:15Z</time>
      </trkpt>
      <trkpt lat="46.33034" lon="-0.47824">
        <ele>9.5972</ele>
        <time>2011-02-20T13:27:16Z</time>
      </trkpt>
      <trkpt lat="46.33035" lon="-0.47824">
        <ele>9.546</ele>
        <time>2011-02-20T13:27:17Z</time>
      </trkpt>
      <trkpt lat="46.33036" lon="-0.47825">
        <ele>9.4958</ele>
        <time>2011-02-20T13:27:18Z</time>
      </trkpt>
      <trkpt lat="46.33038" lon="-0.47826">
        <ele>9.4477</ele>
        <time>2011-02-20T13:27:19Z</time>
      </trkpt>
      <trkpt lat="46.33041" lon="-0.47827">
        <ele>9.2504</ele>
        <time>2011-02-20T13:27:23Z</time>
      </trkpt>
      <trkpt lat="46.33042" lon="-0.47827">
        <ele>9.2055</ele>
        <time>2011-02-20T13:27:24Z</time>
      </trkpt>
      <trkpt lat="46.33043" lon="-0.47828">
        <ele>9.1625</ele>
        <time>2011-02-20T13:27:25Z</time>
      </trkpt>
      <trkpt lat="46.33044" lon="-0.47829">
        <ele>9.1231</ele>
        <time>2011-02-20T13:27:26Z</time>
      </trkpt>
      <trkpt lat="46.33045" lon="-0.47829">
        <ele>9.0872</ele>
        <time>2011-02-20T13:27:27Z</time>
      </trkpt>
      <trkpt lat="46.33046" lon="-0.4783">
        <ele>9.0542</ele>
        <time>2011-02-20T13:27:28Z</time>
      </trkpt>
      <trkpt lat="46.33048" lon="-0.4783">
        <ele>9.0208</ele>
        <time>2011-02-20T13:27:29Z</time>
      </trkpt>
      <trkpt lat="46.33049" lon="-0.47831">
        <ele>8.9889</ele>
        <time>2011-02-20T13:27:30Z</time>
      </trkpt>
      <trkpt lat="46.3305" lon="-0.47831">
        <ele>8.9582</ele>
        <time>2011-02-20T13:27:31Z</time>
      </trkpt>
      <trkpt lat="46.33051" lon="-0.47832">
        <ele>8.9287</ele>
        <time>2011-02-20T13:27:32Z</time>
      </trkpt>
      <trkpt lat="46.33052" lon="-0.47832">
        <ele>8.9001</ele>
        <time>2011-02-20T13:27:33Z</time>
      </trkpt>
      <trkpt lat="46.33053" lon="-0.47833">
        <ele>8.8762</ele>
        <time>2011-02-20T13:27:34Z</time>
      </trkpt>
      <trkpt lat="46.33054" lon="-0.47833">
        <ele>8.8548</ele>
        <time>2011-02-20T13:27:35Z</time>
      </trkpt>
      <trkpt lat="46.33056" lon="-0.47834">
        <ele>8.8358</ele>
        <time>2011-02-20T13:27:36Z</time>
      </trkpt>
      <trkpt lat="46.33057" lon="-0.47835">
        <ele>8.8194</ele>
        <time>2011-02-20T13:27:37Z</time>
      </trkpt>
      <trkpt lat="46.33058" lon="-0.47835">
        <ele>8.806</ele>
        <time>2011-02-20T13:27:38Z</time>
      </trkpt>
      <trkpt lat="46.33059" lon="-0.47836">
        <ele>8.7951</ele>
        <time>2011-02-20T13:27:39Z</time>
      </trkpt>
      <trkpt lat="46.3306" lon="-0.47837">
        <ele>8.787</ele>
        <time>2011-02-20T13:27:40Z</time>
      </trkpt>
      <trkpt lat="46.33061" lon="-0.47837">
        <ele>8.7811</ele>
        <time>2011-02-20T13:27:41Z</time>
      </trkpt>
      <trkpt lat="46.33062" lon="-0.47838">
        <ele>8.7752</ele>
        <time>2011-02-20T13:27:42Z</time>
      </trkpt>
      <trkpt lat="46.33064" lon="-0.47838">
        <ele>8.7705</ele>
        <time>2011-02-20T13:27:43Z</time>
      </trkpt>
      <trkpt lat="46.33065" lon="-0.47839">
        <ele>8.7672</ele>
        <time>2011-02-20T13:27:44Z</time>
      </trkpt>
      <trkpt lat="46.33066" lon="-0.47839">
        <ele>8.765</ele>
        <time>2011-02-20T13:27:45Z</time>
      </trkpt>
      <trkpt lat="46.33067" lon="-0.4784">
        <ele>8.765</ele>
        <time>2011-02-20T13:27:46Z</time>
      </trkpt>
      <trkpt lat="46.33069" lon="-0.4784">
        <ele>8.7661</ele>
        <time>2011-02-20T13:27:47Z</time>
      </trkpt>
      <trkpt lat="46.3307" lon="-0.4784">
        <ele>8.7686</ele>
        <time>2011-02-20T13:27:48Z</time>
      </trkpt>
      <trkpt lat="46.33071" lon="-0.47841">
        <ele>8.7731</ele>
        <time>2011-02-20T13:27:49Z</time>
      </trkpt>
      <trkpt lat="46.33072" lon="-0.47841">
        <ele>8.7792</ele>
        <time>2011-02-20T13:27:50Z</time>
      </trkpt>
      <trkpt lat="46.33073" lon="-0.47842">
        <ele>8.7866</ele>
        <time>2011-02-20T13:27:51Z</time>
      </trkpt>
      <trkpt lat="46.33074" lon="-0.47842">
        <ele>8.7937</ele>
        <time>2011-02-20T13:27:52Z</time>
      </trkpt>
      <trkpt lat="46.33075" lon="-0.47841">
        <ele>8.8</ele>
        <time>2011-02-20T13:27:53Z</time>
      </trkpt>
      <trkpt lat="46.33076" lon="-0.47841">
        <ele>8.8067</ele>
        <time>2011-02-20T13:27:54Z</time>
      </trkpt>
      <trkpt lat="46.33077" lon="-0.47841">
        <ele>8.8132</ele>
        <time>2011-02-20T13:27:55Z</time>
      </trkpt>
      <trkpt lat="46.33078" lon="-0.47841">
        <ele>8.8207</ele>
        <time>2011-02-20T13:27:56Z</time>
      </trkpt>
      <trkpt lat="46.33079" lon="-0.47841">
        <ele>8.8337</ele>
        <time>2011-02-20T13:27:57Z</time>
      </trkpt>
      <trkpt lat="46.33081" lon="-0.47842">
        <ele>8.8507</ele>
        <time>2011-02-20T13:27:58Z</time>
      </trkpt>
      <trkpt lat="46.33082" lon="-0.47842">
        <ele>8.8655</ele>
        <time>2011-02-20T13:27:59Z</time>
      </trkpt>
      <trkpt lat="46.33084" lon="-0.47843">
        <ele>8.877</ele>
        <time>2011-02-20T13:28:00Z</time>
      </trkpt>
      <trkpt lat="46.33085" lon="-0.47844">
        <ele>8.8884</ele>
        <time>2011-02-20T13:28:01Z</time>
      </trkpt>
      <trkpt lat="46.33086" lon="-0.47844">
        <ele>8.9025</ele>
        <time>2011-02-20T13:28:02Z</time>
      </trkpt>
      <trkpt lat="46.33088" lon="-0.47844">
        <ele>8.918</ele>
        <time>2011-02-20T13:28:03Z</time>
      </trkpt>
      <trkpt lat="46.33089" lon="-0.47845">
        <ele>8.9347</ele>
        <time>2011-02-20T13:28:04Z</time>
      </trkpt>
      <trkpt lat="46.33091" lon="-0.47845">
        <ele>8.9512</ele>
        <time>2011-02-20T13:28:05Z</time>
      </trkpt>
      <trkpt lat="46.33092" lon="-0.47845">
        <ele>8.9664</ele>
        <time>2011-02-20T13:28:06Z</time>
      </trkpt>
      <trkpt lat="46.33093" lon="-0.47846">
        <ele>8.9814</ele>
        <time>2011-02-20T13:28:07Z</time>
      </trkpt>
      <trkpt lat="46.33094" lon="-0.47846">
        <ele>8.9928</ele>
        <time>2011-02-20T13:28:08Z</time>
      </trkpt>
      <trkpt lat="46.33095" lon="-0.47847">
        <ele>9.0115</ele>
        <time>2011-02-20T13:28:09Z</time>
      </trkpt>
      <trkpt lat="46.33096" lon="-0.47848">
        <ele>9.0254</ele>
        <time>2011-02-20T13:28:10Z</time>
      </trkpt>
      <trkpt lat="46.33097" lon="-0.4785">
        <ele>9.0461</ele>
        <time>2011-02-20T13:28:11Z</time>
      </trkpt>
      <trkpt lat="46.33098" lon="-0.47852">
        <ele>9.0733</ele>
        <time>2011-02-20T13:28:12Z</time>
      </trkpt>
      <trkpt lat="46.33099" lon="-0.47853">
        <ele>9.0987</ele>
        <time>2011-02-20T13:28:13Z</time>
      </trkpt>
      <trkpt lat="46.331" lon="-0.47855">
        <ele>9.1231</ele>
        <time>2011-02-20T13:28:14Z</time>
      </trkpt>
      <trkpt lat="46.33101" lon="-0.47856">
        <ele>9.1465</ele>
        <time>2011-02-20T13:28:15Z</time>
      </trkpt>
      <trkpt lat="46.33102" lon="-0.47857">
        <ele>9.1671</ele>
        <time>2011-02-20T13:28:16Z</time>
      </trkpt>
      <trkpt lat="46.33103" lon="-0.47857">
        <ele>9.1887</ele>
        <time>2011-02-20T13:28:17Z</time>
      </trkpt>
      <trkpt lat="46.33104" lon="-0.47858">
        <ele>9.2152</ele>
        <time>2011-02-20T13:28:18Z</time>
      </trkpt>
      <trkpt lat="46.33106" lon="-0.47859">
        <ele>9.2429</ele>
        <time>2011-02-20T13:28:19Z</time>
      </trkpt>
      <trkpt lat="46.33107" lon="-0.4786">
        <ele>9.2711</ele>
        <time>2011-02-20T13:28:20Z</time>
      </trkpt>
      <trkpt lat="46.33108" lon="-0.47861">
        <ele>9.2993</ele>
        <time>2011-02-20T13:28:21Z</time>
      </trkpt>
      <trkpt lat="46.33109" lon="-0.47862">
        <ele>9.328</ele>
        <time>2011-02-20T13:28:22Z</time>
      </trkpt>
      <trkpt lat="46.3311" lon="-0.47862">
        <ele>9.3566</ele>
        <time>2011-02-20T13:28:23Z</time>
      </trkpt>
      <trkpt lat="46.33112" lon="-0.47863">
        <ele>9.3846</ele>
        <time>2011-02-20T13:28:24Z</time>
      </trkpt>
      <trkpt lat="46.33113" lon="-0.47863">
        <ele>9.4097</ele>
        <time>2011-02-20T13:28:25Z</time>
      </trkpt>
      <trkpt lat="46.33114" lon="-0.47863">
        <ele>9.4311</ele>
        <time>2011-02-20T13:28:26Z</time>
      </trkpt>
      <trkpt lat="46.33115" lon="-0.47864">
        <ele>9.4498</ele>
        <time>2011-02-20T13:28:27Z</time>
      </trkpt>
      <trkpt lat="46.33116" lon="-0.47864">
        <ele>9.4673</ele>
        <time>2011-02-20T13:28:28Z</time>
      </trkpt>
      <trkpt lat="46.33117" lon="-0.47865">
        <ele>9.4844</ele>
        <time>2011-02-20T13:28:29Z</time>
      </trkpt>
      <trkpt lat="46.33118" lon="-0.47865">
        <ele>9.5002</ele>
        <time>2011-02-20T13:28:30Z</time>
      </trkpt>
      <trkpt lat="46.3312" lon="-0.47865">
        <ele>9.5164</ele>
        <time>2011-02-20T13:28:31Z</time>
      </trkpt>
      <trkpt lat="46.33121" lon="-0.47865">
        <ele>9.5322</ele>
        <time>2011-02-20T13:28:32Z</time>
      </trkpt>
      <trkpt lat="46.33124" lon="-0.47866">
        <ele>9.5934</ele>
        <time>2011-02-20T13:28:36Z</time>
      </trkpt>
      <trkpt lat="46.33125" lon="-0.47866">
        <ele>9.5979</ele>
        <time>2011-02-20T13:28:37Z</time>
      </trkpt>
      <trkpt lat="46.33126" lon="-0.47866">
        <ele>9.6002</ele>
        <time>2011-02-20T13:28:38Z</time>
      </trkpt>
      <trkpt lat="46.33127" lon="-0.47866">
        <ele>9.6044</ele>
        <time>2011-02-20T13:28:39Z</time>
      </trkpt>
      <trkpt lat="46.33128" lon="-0.47866">
        <ele>9.6023</ele>
        <time>2011-02-20T13:28:40Z</time>
      </trkpt>
      <trkpt lat="46.3313" lon="-0.47866">
        <ele>9.5999</ele>
        <time>2011-02-20T13:28:41Z</time>
      </trkpt>
      <trkpt lat="46.33131" lon="-0.47866">
        <ele>9.5959</ele>
        <time>2011-02-20T13:28:42Z</time>
      </trkpt>
      <trkpt lat="46.33132" lon="-0.47866">
        <ele>9.5858</ele>
        <time>2011-02-20T13:28:43Z</time>
      </trkpt>
      <trkpt lat="46.33133" lon="-0.47866">
        <ele>9.5709</ele>
        <time>2011-02-20T13:28:44Z</time>
      </trkpt>
      <trkpt lat="46.33134" lon="-0.47867">
        <ele>9.556</ele>
        <time>2011-02-20T13:28:45Z</time>
      </trkpt>
      <trkpt lat="46.33135" lon="-0.47867">
        <ele>9.5406</ele>
        <time>2011-02-20T13:28:46Z</time>
      </trkpt>
      <trkpt lat="46.33136" lon="-0.47867">
        <ele>9.5229</ele>
        <time>2011-02-20T13:28:47Z</time>
      </trkpt>
      <trkpt lat="46.33138" lon="-0.47867">
        <ele>9.5053</ele>
        <time>2011-02-20T13:28:48Z</time>
      </trkpt>
      <trkpt lat="46.33138" lon="-0.47867">
        <ele>9.4877</ele>
        <time>2011-02-20T13:28:49Z</time>
      </trkpt>
      <trkpt lat="46.33139" lon="-0.47867">
        <ele>9.4713</ele>
        <time>2011-02-20T13:28:50Z</time>
      </trkpt>
      <trkpt lat="46.3314" lon="-0.47867">
        <ele>9.4522</ele>
        <time>2011-02-20T13:28:51Z</time>
      </trkpt>
      <trkpt lat="46.33141" lon="-0.47867">
        <ele>9.4396</ele>
        <time>2011-02-20T13:28:52Z</time>
      </trkpt>
      <trkpt lat="46.33141" lon="-0.47867">
        <ele>9.4256</ele>
        <time>2011-02-20T13:28:53Z</time>
      </trkpt>
      <trkpt lat="46.33143" lon="-0.47867">
        <ele>9.4126</ele>
        <time>2011-02-20T13:28:54Z</time>
      </trkpt>
      <trkpt lat="46.33143" lon="-0.47868">
        <ele>9.3984</ele>
        <time>2011-02-20T13:28:55Z</time>
      </trkpt>
      <trkpt lat="46.33144" lon="-0.47868">
        <ele>9.382</ele>
        <time>2011-02-20T13:28:56Z</time>
      </trkpt>
      <trkpt lat="46.33146" lon="-0.47869">
        <ele>9.3644</ele>
        <time>2011-02-20T13:28:57Z</time>
      </trkpt>
      <trkpt lat="46.33147" lon="-0.47869">
        <ele>9.3468</ele>
        <time>2011-02-20T13:28:58Z</time>
      </trkpt>
      <trkpt lat="46.33148" lon="-0.4787">
        <ele>9.3304</ele>
        <time>2011-02-20T13:28:59Z</time>
      </trkpt>
      <trkpt lat="46.33149" lon="-0.47871">
        <ele>9.3146</ele>
        <time>2011-02-20T13:29:00Z</time>
      </trkpt>
      <trkpt lat="46.33151" lon="-0.47871">
        <ele>9.2994</ele>
        <time>2011-02-20T13:29:01Z</time>
      </trkpt>
      <trkpt lat="46.33152" lon="-0.47871">
        <ele>9.287</ele>
        <time>2011-02-20T13:29:02Z</time>
      </trkpt>
      <trkpt lat="46.33153" lon="-0.47872">
        <ele>9.271</ele>
        <time>2011-02-20T13:29:03Z</time>
      </trkpt>
      <trkpt lat="46.33154" lon="-0.47872">
        <ele>9.2557</ele>
        <time>2011-02-20T13:29:04Z</time>
      </trkpt>
      <trkpt lat="46.33155" lon="-0.47873">
        <ele>9.2387</ele>
        <time>2011-02-20T13:29:05Z</time>
      </trkpt>
      <trkpt lat="46.33156" lon="-0.47873">
        <ele>9.2211</ele>
        <time>2011-02-20T13:29:06Z</time>
      </trkpt>
      <trkpt lat="46.33158" lon="-0.47874">
        <ele>9.2097</ele>
        <time>2011-02-20T13:29:07Z</time>
      </trkpt>
      <trkpt lat="46.33159" lon="-0.47874">
        <ele>9.2019</ele>
        <time>2011-02-20T13:29:08Z</time>
      </trkpt>
      <trkpt lat="46.3316" lon="-0.47874">
        <ele>9.1982</ele>
        <time>2011-02-20T13:29:09Z</time>
      </trkpt>
      <trkpt lat="46.33161" lon="-0.47874">
        <ele>9.1996</ele>
        <time>2011-02-20T13:29:10Z</time>
      </trkpt>
      <trkpt lat="46.33162" lon="-0.47873">
        <ele>9.2028</ele>
        <time>2011-02-20T13:29:11Z</time>
      </trkpt>
      <trkpt lat="46.33164" lon="-0.47873">
        <ele>9.2084</ele>
        <time>2011-02-20T13:29:12Z</time>
      </trkpt>
      <trkpt lat="46.33164" lon="-0.47873">
        <ele>9.212</ele>
        <time>2011-02-20T13:29:13Z</time>
      </trkpt>
      <trkpt lat="46.33166" lon="-0.47872">
        <ele>9.2223</ele>
        <time>2011-02-20T13:29:15Z</time>
      </trkpt>
      <trkpt lat="46.33167" lon="-0.47872">
        <ele>9.2267</ele>
        <time>2011-02-20T13:29:16Z</time>
      </trkpt>
      <trkpt lat="46.33168" lon="-0.47872">
        <ele>9.2294</ele>
        <time>2011-02-20T13:29:17Z</time>
      </trkpt>
      <trkpt lat="46.3317" lon="-0.47871">
        <ele>9.2327</ele>
        <time>2011-02-20T13:29:18Z</time>
      </trkpt>
      <trkpt lat="46.33171" lon="-0.47872">
        <ele>9.2377</ele>
        <time>2011-02-20T13:29:19Z</time>
      </trkpt>
      <trkpt lat="46.33172" lon="-0.47871">
        <ele>9.2412</ele>
        <time>2011-02-20T13:29:20Z</time>
      </trkpt>
      <trkpt lat="46.33173" lon="-0.47871">
        <ele>9.2428</ele>
        <time>2011-02-20T13:29:21Z</time>
      </trkpt>
      <trkpt lat="46.33174" lon="-0.47871">
        <ele>9.2434</ele>
        <time>2011-02-20T13:29:22Z</time>
      </trkpt>
      <trkpt lat="46.33176" lon="-0.47871">
        <ele>9.2435</ele>
        <time>2011-02-20T13:29:23Z</time>
      </trkpt>
      <trkpt lat="46.33177" lon="-0.47871">
        <ele>9.2454</ele>
        <time>2011-02-20T13:29:24Z</time>
      </trkpt>
      <trkpt lat="46.33178" lon="-0.47871">
        <ele>9.2375</ele>
        <time>2011-02-20T13:29:25Z</time>
      </trkpt>
      <trkpt lat="46.3318" lon="-0.47871">
        <ele>9.2209</ele>
        <time>2011-02-20T13:29:26Z</time>
      </trkpt>
      <trkpt lat="46.33181" lon="-0.47871">
        <ele>9.201</ele>
        <time>2011-02-20T13:29:27Z</time>
      </trkpt>
      <trkpt lat="46.33183" lon="-0.47871">
        <ele>9.1815</ele>
        <time>2011-02-20T13:29:28Z</time>
      </trkpt>
      <trkpt lat="46.33184" lon="-0.47871">
        <ele>9.1629</ele>
        <time>2011-02-20T13:29:29Z</time>
      </trkpt>
      <trkpt lat="46.33185" lon="-0.47871">
        <ele>9.1433</ele>
        <time>2011-02-20T13:29:30Z</time>
      </trkpt>
      <trkpt lat="46.33186" lon="-0.47871">
        <ele>9.1233</ele>
        <time>2011-02-20T13:29:31Z</time>
      </trkpt>
      <trkpt lat="46.33187" lon="-0.47872">
        <ele>9.103</ele>
        <time>2011-02-20T13:29:32Z</time>
      </trkpt>
      <trkpt lat="46.33188" lon="-0.47872">
        <ele>9.0811</ele>
        <time>2011-02-20T13:29:33Z</time>
      </trkpt>
      <trkpt lat="46.33189" lon="-0.47872">
        <ele>9.0583</ele>
        <time>2011-02-20T13:29:34Z</time>
      </trkpt>
      <trkpt lat="46.3319" lon="-0.47872">
        <ele>9.0373</ele>
        <time>2011-02-20T13:29:35Z</time>
      </trkpt>
      <trkpt lat="46.33192" lon="-0.47872">
        <ele>9.0178</ele>
        <time>2011-02-20T13:29:36Z</time>
      </trkpt>
      <trkpt lat="46.33193" lon="-0.47871">
        <ele>9</ele>
        <time>2011-02-20T13:29:37Z</time>
      </trkpt>
      <trkpt lat="46.33195" lon="-0.47871">
        <ele>8.9829</ele>
        <time>2011-02-20T13:29:38Z</time>
      </trkpt>
      <trkpt lat="46.33196" lon="-0.47871">
        <ele>8.9653</ele>
        <time>2011-02-20T13:29:39Z</time>
      </trkpt>
      <trkpt lat="46.33198" lon="-0.47871">
        <ele>8.9466</ele>
        <time>2011-02-20T13:29:40Z</time>
      </trkpt>
      <trkpt lat="46.33199" lon="-0.47871">
        <ele>8.9254</ele>
        <time>2011-02-20T13:29:41Z</time>
      </trkpt>
      <trkpt lat="46.33201" lon="-0.47872">
        <ele>8.9004</ele>
        <time>2011-02-20T13:29:42Z</time>
      </trkpt>
      <trkpt lat="46.33202" lon="-0.47872">
        <ele>8.8727</ele>
        <time>2011-02-20T13:29:43Z</time>
      </trkpt>
      <trkpt lat="46.33203" lon="-0.47872">
        <ele>8.8456</ele>
        <time>2011-02-20T13:29:44Z</time>
      </trkpt>
      <trkpt lat="46.33204" lon="-0.47872">
        <ele>8.821</ele>
        <time>2011-02-20T13:29:45Z</time>
      </trkpt>
      <trkpt lat="46.33205" lon="-0.47872">
        <ele>8.8</ele>
        <time>2011-02-20T13:29:46Z</time>
      </trkpt>
      <trkpt lat="46.33207" lon="-0.47873">
        <ele>8.7802</ele>
        <time>2011-02-20T13:29:47Z</time>
      </trkpt>
      <trkpt lat="46.33208" lon="-0.47873">
        <ele>8.7602</ele>
        <time>2011-02-20T13:29:48Z</time>
      </trkpt>
      <trkpt lat="46.33209" lon="-0.47873">
        <ele>8.7418</ele>
        <time>2011-02-20T13:29:49Z</time>
      </trkpt>
      <trkpt lat="46.3321" lon="-0.47873">
        <ele>8.7256</ele>
        <time>2011-02-20T13:29:50Z</time>
      </trkpt>
      <trkpt lat="46.33211" lon="-0.47873">
        <ele>8.7106</ele>
        <time>2011-02-20T13:29:51Z</time>
      </trkpt>
      <trkpt lat="46.33213" lon="-0.47873">
        <ele>8.6958</ele>
        <time>2011-02-20T13:29:52Z</time>
      </trkpt>
      <trkpt lat="46.33214" lon="-0.47873">
        <ele>8.6841</ele>
        <time>2011-02-20T13:29:53Z</time>
      </trkpt>
      <trkpt lat="46.33215" lon="-0.47873">
        <ele>8.6711</ele>
        <time>2011-02-20T13:29:54Z</time>
      </trkpt>
      <trkpt lat="46.33217" lon="-0.47874">
        <ele>8.6601</ele>
        <time>2011-02-20T13:29:55Z</time>
      </trkpt>
      <trkpt lat="46.33218" lon="-0.47874">
        <ele>8.6483</ele>
        <time>2011-02-20T13:29:56Z</time>
      </trkpt>
      <trkpt lat="46.33219" lon="-0.47873">
        <ele>8.6386</ele>
        <time>2011-02-20T13:29:57Z</time>
      </trkpt>
      <trkpt lat="46.3322" lon="-0.47873">
        <ele>8.6311</ele>
        <time>2011-02-20T13:29:58Z</time>
      </trkpt>
      <trkpt lat="46.33221" lon="-0.47873">
        <ele>8.627</ele>
        <time>2011-02-20T13:29:59Z</time>
      </trkpt>
      <trkpt lat="46.33223" lon="-0.47873">
        <ele>8.6261</ele>
        <time>2011-02-20T13:30:00Z</time>
      </trkpt>
      <trkpt lat="46.33224" lon="-0.47872">
        <ele>8.6282</ele>
        <time>2011-02-20T13:30:01Z</time>
      </trkpt>
      <trkpt lat="46.33226" lon="-0.47872">
        <ele>8.6282</ele>
        <time>2011-02-20T13:30:02Z</time>
      </trkpt>
      <trkpt lat="46.33227" lon="-0.47872">
        <ele>8.6286</ele>
        <time>2011-02-20T13:30:03Z</time>
      </trkpt>
      <trkpt lat="46.33228" lon="-0.47872">
        <ele>8.6304</ele>
        <time>2011-02-20T13:30:04Z</time>
      </trkpt>
      <trkpt lat="46.33229" lon="-0.47872">
        <ele>8.6292</ele>
        <time>2011-02-20T13:30:05Z</time>
      </trkpt>
      <trkpt lat="46.33231" lon="-0.47872">
        <ele>8.6257</ele>
        <time>2011-02-20T13:30:06Z</time>
      </trkpt>
      <trkpt lat="46.33232" lon="-0.47872">
        <ele>8.6227</ele>
        <time>2011-02-20T13:30:07Z</time>
      </trkpt>
      <trkpt lat="46.33233" lon="-0.47871">
        <ele>8.6205</ele>
        <time>2011-02-20T13:30:08Z</time>
      </trkpt>
      <trkpt lat="46.33235" lon="-0.47871">
        <ele>8.6148</ele>
        <time>2011-02-20T13:30:09Z</time>
      </trkpt>
      <trkpt lat="46.33236" lon="-0.47871">
        <ele>8.6072</ele>
        <time>2011-02-20T13:30:10Z</time>
      </trkpt>
      <trkpt lat="46.33237" lon="-0.47871">
        <ele>8.5976</ele>
        <time>2011-02-20T13:30:11Z</time>
      </trkpt>
      <trkpt lat="46.33239" lon="-0.47871">
        <ele>8.5876</ele>
        <time>2011-02-20T13:30:12Z</time>
      </trkpt>
      <trkpt lat="46.3324" lon="-0.47871">
        <ele>8.5777</ele>
        <time>2011-02-20T13:30:13Z</time>
      </trkpt>
      <trkpt lat="46.33241" lon="-0.47871">
        <ele>8.5684</ele>
        <time>2011-02-20T13:30:14Z</time>
      </trkpt>
      <trkpt lat="46.33242" lon="-0.4787">
        <ele>8.5584</ele>
        <time>2011-02-20T13:30:15Z</time>
      </trkpt>
      <trkpt lat="46.33243" lon="-0.4787">
        <ele>8.5486</ele>
        <time>2011-02-20T13:30:16Z</time>
      </trkpt>
      <trkpt lat="46.33244" lon="-0.4787">
        <ele>8.5362</ele>
        <time>2011-02-20T13:30:17Z</time>
      </trkpt>
      <trkpt lat="46.33245" lon="-0.47869">
        <ele>8.5257</ele>
        <time>2011-02-20T13:30:18Z</time>
      </trkpt>
      <trkpt lat="46.33247" lon="-0.47868">
        <ele>8.5179</ele>
        <time>2011-02-20T13:30:19Z</time>
      </trkpt>
      <trkpt lat="46.33249" lon="-0.47868">
        <ele>8.511</ele>
        <time>2011-02-20T13:30:20Z</time>
      </trkpt>
      <trkpt lat="46.33252" lon="-0.47866">
        <ele>8.4131</ele>
        <time>2011-02-20T13:30:25Z</time>
      </trkpt>
      <trkpt lat="46.33252" lon="-0.47866">
        <ele>8.3848</ele>
        <time>2011-02-20T13:30:26Z</time>
      </trkpt>
      <trkpt lat="46.33253" lon="-0.47867">
        <ele>8.3572</ele>
        <time>2011-02-20T13:30:27Z</time>
      </trkpt>
      <trkpt lat="46.33254" lon="-0.47867">
        <ele>8.3293</ele>
        <time>2011-02-20T13:30:28Z</time>
      </trkpt>
      <trkpt lat="46.33255" lon="-0.47867">
        <ele>8.3018</ele>
        <time>2011-02-20T13:30:29Z</time>
      </trkpt>
      <trkpt lat="46.33257" lon="-0.47867">
        <ele>8.2785</ele>
        <time>2011-02-20T13:30:30Z</time>
      </trkpt>
      <trkpt lat="46.33258" lon="-0.47868">
        <ele>8.258</ele>
        <time>2011-02-20T13:30:31Z</time>
      </trkpt>
      <trkpt lat="46.33259" lon="-0.47868">
        <ele>8.2395</ele>
        <time>2011-02-20T13:30:32Z</time>
      </trkpt>
      <trkpt lat="46.33261" lon="-0.47869">
        <ele>8.2238</ele>
        <time>2011-02-20T13:30:33Z</time>
      </trkpt>
      <trkpt lat="46.33262" lon="-0.47869">
        <ele>8.2082</ele>
        <time>2011-02-20T13:30:34Z</time>
      </trkpt>
      <trkpt lat="46.33263" lon="-0.47869">
        <ele>8.1944</ele>
        <time>2011-02-20T13:30:35Z</time>
      </trkpt>
      <trkpt lat="46.33264" lon="-0.47869">
        <ele>8.182</ele>
        <time>2011-02-20T13:30:36Z</time>
      </trkpt>
      <trkpt lat="46.33265" lon="-0.47868">
        <ele>8.1723</ele>
        <time>2011-02-20T13:30:37Z</time>
      </trkpt>
      <trkpt lat="46.33266" lon="-0.47868">
        <ele>8.1641</ele>
        <time>2011-02-20T13:30:38Z</time>
      </trkpt>
      <trkpt lat="46.33267" lon="-0.47868">
        <ele>8.1581</ele>
        <time>2011-02-20T13:30:39Z</time>
      </trkpt>
      <trkpt lat="46.33268" lon="-0.47868">
        <ele>8.1537</ele>
        <time>2011-02-20T13:30:40Z</time>
      </trkpt>
      <trkpt lat="46.3327" lon="-0.47868">
        <ele>8.1511</ele>
        <time>2011-02-20T13:30:41Z</time>
      </trkpt>
      <trkpt lat="46.33271" lon="-0.47868">
        <ele>8.1492</ele>
        <time>2011-02-20T13:30:42Z</time>
      </trkpt>
      <trkpt lat="46.33272" lon="-0.47868">
        <ele>8.15</ele>
        <time>2011-02-20T13:30:43Z</time>
      </trkpt>
      <trkpt lat="46.33273" lon="-0.47868">
        <ele>8.1514</ele>
        <time>2011-02-20T13:30:44Z</time>
      </trkpt>
      <trkpt lat="46.33274" lon="-0.47868">
        <ele>8.1534</ele>
        <time>2011-02-20T13:30:45Z</time>
      </trkpt>
      <trkpt lat="46.33275" lon="-0.47869">
        <ele>8.1568</ele>
        <time>2011-02-20T13:30:46Z</time>
      </trkpt>
      <trkpt lat="46.33276" lon="-0.47869">
        <ele>8.1597</ele>
        <time>2011-02-20T13:30:47Z</time>
      </trkpt>
      <trkpt lat="46.33277" lon="-0.47869">
        <ele>8.1677</ele>
        <time>2011-02-20T13:30:48Z</time>
      </trkpt>
      <trkpt lat="46.33278" lon="-0.47869">
        <ele>8.174</ele>
        <time>2011-02-20T13:30:49Z</time>
      </trkpt>
      <trkpt lat="46.33279" lon="-0.47869">
        <ele>8.1814</ele>
        <time>2011-02-20T13:30:50Z</time>
      </trkpt>
      <trkpt lat="46.33279" lon="-0.4787">
        <ele>8.1859</ele>
        <time>2011-02-20T13:30:51Z</time>
      </trkpt>
      <trkpt lat="46.3328" lon="-0.4787">
        <ele>8.1896</ele>
        <time>2011-02-20T13:30:52Z</time>
      </trkpt>
      <trkpt lat="46.33281" lon="-0.4787">
        <ele>8.1929</ele>
        <time>2011-02-20T13:30:53Z</time>
      </trkpt>
      <trkpt lat="46.33282" lon="-0.4787">
        <ele>8.1959</ele>
        <time>2011-02-20T13:30:54Z</time>
      </trkpt>
      <trkpt lat="46.33283" lon="-0.47871">
        <ele>8.1976</ele>
        <time>2011-02-20T13:30:55Z</time>
      </trkpt>
      <trkpt lat="46.33284" lon="-0.47871">
        <ele>8.1989</ele>
        <time>2011-02-20T13:30:56Z</time>
      </trkpt>
      <trkpt lat="46.33286" lon="-0.47871">
        <ele>8.2009</ele>
        <time>2011-02-20T13:30:57Z</time>
      </trkpt>
      <trkpt lat="46.33287" lon="-0.47871">
        <ele>8.2038</ele>
        <time>2011-02-20T13:30:58Z</time>
      </trkpt>
      <trkpt lat="46.33288" lon="-0.47871">
        <ele>8.2044</ele>
        <time>2011-02-20T13:30:59Z</time>
      </trkpt>
      <trkpt lat="46.33289" lon="-0.47872">
        <ele>8.2018</ele>
        <time>2011-02-20T13:31:00Z</time>
      </trkpt>
      <trkpt lat="46.33291" lon="-0.47872">
        <ele>8.1951</ele>
        <time>2011-02-20T13:31:01Z</time>
      </trkpt>
      <trkpt lat="46.33292" lon="-0.47872">
        <ele>8.1945</ele>
        <time>2011-02-20T13:31:02Z</time>
      </trkpt>
      <trkpt lat="46.33294" lon="-0.47872">
        <ele>8.1937</ele>
        <time>2011-02-20T13:31:03Z</time>
      </trkpt>
      <trkpt lat="46.33295" lon="-0.47872">
        <ele>8.1877</ele>
        <time>2011-02-20T13:31:04Z</time>
      </trkpt>
      <trkpt lat="46.33297" lon="-0.47872">
        <ele>8.1816</ele>
        <time>2011-02-20T13:31:05Z</time>
      </trkpt>
      <trkpt lat="46.33299" lon="-0.47872">
        <ele>8.1709</ele>
        <time>2011-02-20T13:31:06Z</time>
      </trkpt>
      <trkpt lat="46.333" lon="-0.47872">
        <ele>8.1597</ele>
        <time>2011-02-20T13:31:07Z</time>
      </trkpt>
      <trkpt lat="46.33302" lon="-0.47872">
        <ele>8.1466</ele>
        <time>2011-02-20T13:31:08Z</time>
      </trkpt>
      <trkpt lat="46.33303" lon="-0.47872">
        <ele>8.1324</ele>
        <time>2011-02-20T13:31:09Z</time>
      </trkpt>
      <trkpt lat="46.33304" lon="-0.47872">
        <ele>8.1161</ele>
        <time>2011-02-20T13:31:10Z</time>
      </trkpt>
      <trkpt lat="46.33305" lon="-0.47872">
        <ele>8.0957</ele>
        <time>2011-02-20T13:31:11Z</time>
      </trkpt>
      <trkpt lat="46.33306" lon="-0.47872">
        <ele>8.0743</ele>
        <time>2011-02-20T13:31:12Z</time>
      </trkpt>
      <trkpt lat="46.33307" lon="-0.47872">
        <ele>8.0502</ele>
        <time>2011-02-20T13:31:13Z</time>
      </trkpt>
      <trkpt lat="46.33308" lon="-0.47872">
        <ele>8.0246</ele>
        <time>2011-02-20T13:31:14Z</time>
      </trkpt>
      <trkpt lat="46.3331" lon="-0.47873">
        <ele>7.9966</ele>
        <time>2011-02-20T13:31:15Z</time>
      </trkpt>
      <trkpt lat="46.3331" lon="-0.47873">
        <ele>7.9659</ele>
        <time>2011-02-20T13:31:16Z</time>
      </trkpt>
      <trkpt lat="46.33312" lon="-0.47874">
        <ele>7.9344</ele>
        <time>2011-02-20T13:31:17Z</time>
      </trkpt>
      <trkpt lat="46.33313" lon="-0.47874">
        <ele>7.9026</ele>
        <time>2011-02-20T13:31:18Z</time>
      </trkpt>
      <trkpt lat="46.33313" lon="-0.47875">
        <ele>7.87</ele>
        <time>2011-02-20T13:31:19Z</time>
      </trkpt>
      <trkpt lat="46.33315" lon="-0.47875">
        <ele>7.8372</ele>
        <time>2011-02-20T13:31:20Z</time>
      </trkpt>
      <trkpt lat="46.33316" lon="-0.47876">
        <ele>7.8037</ele>
        <time>2011-02-20T13:31:21Z</time>
      </trkpt>
      <trkpt lat="46.33316" lon="-0.47876">
        <ele>7.7703</ele>
        <time>2011-02-20T13:31:22Z</time>
      </trkpt>
      <trkpt lat="46.33318" lon="-0.47876">
        <ele>7.702</ele>
        <time>2011-02-20T13:31:24Z</time>
      </trkpt>
      <trkpt lat="46.33323" lon="-0.47874">
        <ele>7.4712</ele>
        <time>2011-02-20T13:31:31Z</time>
      </trkpt>
      <trkpt lat="46.33328" lon="-0.47872">
        <ele>7.1372</ele>
        <time>2011-02-20T13:31:37Z</time>
      </trkpt>
      <trkpt lat="46.33328" lon="-0.47872">
        <ele>7.083</ele>
        <time>2011-02-20T13:31:38Z</time>
      </trkpt>
      <trkpt lat="46.33329" lon="-0.47872">
        <ele>7.0268</ele>
        <time>2011-02-20T13:31:39Z</time>
      </trkpt>
      <trkpt lat="46.33331" lon="-0.47872">
        <ele>6.9684</ele>
        <time>2011-02-20T13:31:40Z</time>
      </trkpt>
      <trkpt lat="46.33332" lon="-0.47872">
        <ele>6.912</ele>
        <time>2011-02-20T13:31:41Z</time>
      </trkpt>
      <trkpt lat="46.33333" lon="-0.47872">
        <ele>6.8467</ele>
        <time>2011-02-20T13:31:42Z</time>
      </trkpt>
      <trkpt lat="46.33334" lon="-0.47872">
        <ele>6.7793</ele>
        <time>2011-02-20T13:31:43Z</time>
      </trkpt>
      <trkpt lat="46.33336" lon="-0.47872">
        <ele>6.729</ele>
        <time>2011-02-20T13:31:44Z</time>
      </trkpt>
      <trkpt lat="46.33337" lon="-0.47872">
        <ele>6.6938</ele>
        <time>2011-02-20T13:31:45Z</time>
      </trkpt>
      <trkpt lat="46.33339" lon="-0.47873">
        <ele>6.6661</ele>
        <time>2011-02-20T13:31:46Z</time>
      </trkpt>
      <trkpt lat="46.3334" lon="-0.47873">
        <ele>6.642</ele>
        <time>2011-02-20T13:31:47Z</time>
      </trkpt>
      <trkpt lat="46.33342" lon="-0.47874">
        <ele>6.6109</ele>
        <time>2011-02-20T13:31:49Z</time>
      </trkpt>
      <trkpt lat="46.33344" lon="-0.47875">
        <ele>6.6021</ele>
        <time>2011-02-20T13:31:50Z</time>
      </trkpt>
      <trkpt lat="46.33345" lon="-0.47875">
        <ele>6.5914</ele>
        <time>2011-02-20T13:31:51Z</time>
      </trkpt>
      <trkpt lat="46.33346" lon="-0.47875">
        <ele>6.587</ele>
        <time>2011-02-20T13:31:52Z</time>
      </trkpt>
      <trkpt lat="46.33347" lon="-0.47875">
        <ele>6.5832</ele>
        <time>2011-02-20T13:31:53Z</time>
      </trkpt>
      <trkpt lat="46.33348" lon="-0.47876">
        <ele>6.576</ele>
        <time>2011-02-20T13:31:54Z</time>
      </trkpt>
      <trkpt lat="46.33349" lon="-0.47876">
        <ele>6.5745</ele>
        <time>2011-02-20T13:31:55Z</time>
      </trkpt>
      <trkpt lat="46.3335" lon="-0.47877">
        <ele>6.571</ele>
        <time>2011-02-20T13:31:56Z</time>
      </trkpt>
      <trkpt lat="46.33352" lon="-0.47877">
        <ele>6.5634</ele>
        <time>2011-02-20T13:31:57Z</time>
      </trkpt>
      <trkpt lat="46.33353" lon="-0.47878">
        <ele>6.5404</ele>
        <time>2011-02-20T13:31:58Z</time>
      </trkpt>
      <trkpt lat="46.33357" lon="-0.47879">
        <ele>6.4508</ele>
        <time>2011-02-20T13:32:01Z</time>
      </trkpt>
      <trkpt lat="46.33358" lon="-0.47879">
        <ele>6.4402</ele>
        <time>2011-02-20T13:32:02Z</time>
      </trkpt>
      <trkpt lat="46.33359" lon="-0.47879">
        <ele>6.4259</ele>
        <time>2011-02-20T13:32:03Z</time>
      </trkpt>
      <trkpt lat="46.33361" lon="-0.47879">
        <ele>6.4106</ele>
        <time>2011-02-20T13:32:04Z</time>
      </trkpt>
      <trkpt lat="46.33362" lon="-0.47879">
        <ele>6.3959</ele>
        <time>2011-02-20T13:32:05Z</time>
      </trkpt>
      <trkpt lat="46.33365" lon="-0.47879">
        <ele>6.3629</ele>
        <time>2011-02-20T13:32:08Z</time>
      </trkpt>
      <trkpt lat="46.33366" lon="-0.47879">
        <ele>6.3607</ele>
        <time>2011-02-20T13:32:09Z</time>
      </trkpt>
      <trkpt lat="46.33367" lon="-0.47879">
        <ele>6.3584</ele>
        <time>2011-02-20T13:32:10Z</time>
      </trkpt>
      <trkpt lat="46.33368" lon="-0.47879">
        <ele>6.3533</ele>
        <time>2011-02-20T13:32:11Z</time>
      </trkpt>
      <trkpt lat="46.33369" lon="-0.47879">
        <ele>6.37</ele>
        <time>2011-02-20T13:32:12Z</time>
      </trkpt>
      <trkpt lat="46.3337" lon="-0.47879">
        <ele>6.4097</ele>
        <time>2011-02-20T13:32:13Z</time>
      </trkpt>
      <trkpt lat="46.33372" lon="-0.47879">
        <ele>6.4759</ele>
        <time>2011-02-20T13:32:14Z</time>
      </trkpt>
      <trkpt lat="46.33373" lon="-0.47879">
        <ele>6.578</ele>
        <time>2011-02-20T13:32:15Z</time>
      </trkpt>
      <trkpt lat="46.33375" lon="-0.47879">
        <ele>6.6939</ele>
        <time>2011-02-20T13:32:16Z</time>
      </trkpt>
      <trkpt lat="46.33376" lon="-0.47879">
        <ele>6.8228</ele>
        <time>2011-02-20T13:32:17Z</time>
      </trkpt>
      <trkpt lat="46.33378" lon="-0.4788">
        <ele>6.9536</ele>
        <time>2011-02-20T13:32:18Z</time>
      </trkpt>
      <trkpt lat="46.33379" lon="-0.4788">
        <ele>7.0893</ele>
        <time>2011-02-20T13:32:19Z</time>
      </trkpt>
      <trkpt lat="46.3338" lon="-0.47881">
        <ele>7.2299</ele>
        <time>2011-02-20T13:32:20Z</time>
      </trkpt>
      <trkpt lat="46.33381" lon="-0.47881">
        <ele>7.3751</ele>
        <time>2011-02-20T13:32:21Z</time>
      </trkpt>
      <trkpt lat="46.33382" lon="-0.47881">
        <ele>7.5172</ele>
        <time>2011-02-20T13:32:22Z</time>
      </trkpt>
      <trkpt lat="46.33383" lon="-0.47882">
        <ele>7.6581</ele>
        <time>2011-02-20T13:32:23Z</time>
      </trkpt>
      <trkpt lat="46.33384" lon="-0.47882">
        <ele>7.7965</ele>
        <time>2011-02-20T13:32:24Z</time>
      </trkpt>
      <trkpt lat="46.33385" lon="-0.47882">
        <ele>7.9279</ele>
        <time>2011-02-20T13:32:25Z</time>
      </trkpt>
      <trkpt lat="46.33386" lon="-0.47883">
        <ele>8.0655</ele>
        <time>2011-02-20T13:32:26Z</time>
      </trkpt>
      <trkpt lat="46.33387" lon="-0.47883">
        <ele>8.2044</ele>
        <time>2011-02-20T13:32:27Z</time>
      </trkpt>
      <trkpt lat="46.33388" lon="-0.47883">
        <ele>8.3442</ele>
        <time>2011-02-20T13:32:28Z</time>
      </trkpt>
      <trkpt lat="46.33389" lon="-0.47883">
        <ele>8.4775</ele>
        <time>2011-02-20T13:32:29Z</time>
      </trkpt>
      <trkpt lat="46.3339" lon="-0.47884">
        <ele>8.6078</ele>
        <time>2011-02-20T13:32:30Z</time>
      </trkpt>
      <trkpt lat="46.33391" lon="-0.47884">
        <ele>8.7402</ele>
        <time>2011-02-20T13:32:31Z</time>
      </trkpt>
      <trkpt lat="46.33392" lon="-0.47884">
        <ele>8.8719</ele>
        <time>2011-02-20T13:32:32Z</time>
      </trkpt>
      <trkpt lat="46.33393" lon="-0.47885">
        <ele>8.9939</ele>
        <time>2011-02-20T13:32:33Z</time>
      </trkpt>
      <trkpt lat="46.33394" lon="-0.47885">
        <ele>9.1024</ele>
        <time>2011-02-20T13:32:34Z</time>
      </trkpt>
      <trkpt lat="46.33395" lon="-0.47885">
        <ele>9.1994</ele>
        <time>2011-02-20T13:32:35Z</time>
      </trkpt>
      <trkpt lat="46.33396" lon="-0.47886">
        <ele>9.2921</ele>
        <time>2011-02-20T13:32:36Z</time>
      </trkpt>
      <trkpt lat="46.33398" lon="-0.47886">
        <ele>9.3769</ele>
        <time>2011-02-20T13:32:37Z</time>
      </trkpt>
      <trkpt lat="46.33399" lon="-0.47886">
        <ele>9.4571</ele>
        <time>2011-02-20T13:32:38Z</time>
      </trkpt>
      <trkpt lat="46.334" lon="-0.47887">
        <ele>9.5328</ele>
        <time>2011-02-20T13:32:39Z</time>
      </trkpt>
      <trkpt lat="46.33402" lon="-0.47887">
        <ele>9.6048</ele>
        <time>2011-02-20T13:32:40Z</time>
      </trkpt>
      <trkpt lat="46.33403" lon="-0.47887">
        <ele>9.6641</ele>
        <time>2011-02-20T13:32:41Z</time>
      </trkpt>
      <trkpt lat="46.33404" lon="-0.47887">
        <ele>9.7305</ele>
        <time>2011-02-20T13:32:42Z</time>
      </trkpt>
      <trkpt lat="46.33406" lon="-0.47888">
        <ele>9.8008</ele>
        <time>2011-02-20T13:32:43Z</time>
      </trkpt>
      <trkpt lat="46.33408" lon="-0.47888">
        <ele>9.8662</ele>
        <time>2011-02-20T13:32:44Z</time>
      </trkpt>
      <trkpt lat="46.33409" lon="-0.47889">
        <ele>9.9279</ele>
        <time>2011-02-20T13:32:45Z</time>
      </trkpt>
      <trkpt lat="46.33411" lon="-0.47889">
        <ele>9.9884</ele>
        <time>2011-02-20T13:32:46Z</time>
      </trkpt>
      <trkpt lat="46.33412" lon="-0.47889">
        <ele>10.0446</ele>
        <time>2011-02-20T13:32:47Z</time>
      </trkpt>
      <trkpt lat="46.33413" lon="-0.47889">
        <ele>10.0973</ele>
        <time>2011-02-20T13:32:48Z</time>
      </trkpt>
      <trkpt lat="46.33414" lon="-0.4789">
        <ele>10.1464</ele>
        <time>2011-02-20T13:32:49Z</time>
      </trkpt>
      <trkpt lat="46.33415" lon="-0.4789">
        <ele>10.1929</ele>
        <time>2011-02-20T13:32:50Z</time>
      </trkpt>
      <trkpt lat="46.33416" lon="-0.47889">
        <ele>10.2362</ele>
        <time>2011-02-20T13:32:51Z</time>
      </trkpt>
      <trkpt lat="46.33418" lon="-0.47889">
        <ele>10.29</ele>
        <time>2011-02-20T13:32:52Z</time>
      </trkpt>
      <trkpt lat="46.33423" lon="-0.47889">
        <ele>10.5295</ele>
        <time>2011-02-20T13:32:56Z</time>
      </trkpt>
      <trkpt lat="46.33424" lon="-0.47888">
        <ele>10.5639</ele>
        <time>2011-02-20T13:32:57Z</time>
      </trkpt>
      <trkpt lat="46.33425" lon="-0.47888">
        <ele>10.5977</ele>
        <time>2011-02-20T13:32:58Z</time>
      </trkpt>
      <trkpt lat="46.33426" lon="-0.47889">
        <ele>10.628</ele>
        <time>2011-02-20T13:32:59Z</time>
      </trkpt>
      <trkpt lat="46.33427" lon="-0.47889">
        <ele>10.6516</ele>
        <time>2011-02-20T13:33:00Z</time>
      </trkpt>
      <trkpt lat="46.33428" lon="-0.47889">
        <ele>10.6763</ele>
        <time>2011-02-20T13:33:01Z</time>
      </trkpt>
      <trkpt lat="46.33429" lon="-0.47889">
        <ele>10.7012</ele>
        <time>2011-02-20T13:33:02Z</time>
      </trkpt>
      <trkpt lat="46.33431" lon="-0.47889">
        <ele>10.7256</ele>
        <time>2011-02-20T13:33:03Z</time>
      </trkpt>
      <trkpt lat="46.33431" lon="-0.47889">
        <ele>10.7503</ele>
        <time>2011-02-20T13:33:04Z</time>
      </trkpt>
      <trkpt lat="46.33432" lon="-0.47889">
        <ele>10.7773</ele>
        <time>2011-02-20T13:33:05Z</time>
      </trkpt>
      <trkpt lat="46.33433" lon="-0.47889">
        <ele>10.803</ele>
        <time>2011-02-20T13:33:06Z</time>
      </trkpt>
      <trkpt lat="46.33434" lon="-0.47889">
        <ele>10.8974</ele>
        <time>2011-02-20T13:33:10Z</time>
      </trkpt>
      <trkpt lat="46.33435" lon="-0.47889">
        <ele>10.9214</ele>
        <time>2011-02-20T13:33:11Z</time>
      </trkpt>
      <trkpt lat="46.33436" lon="-0.47889">
        <ele>10.9457</ele>
        <time>2011-02-20T13:33:12Z</time>
      </trkpt>
      <trkpt lat="46.33437" lon="-0.47889">
        <ele>10.966</ele>
        <time>2011-02-20T13:33:13Z</time>
      </trkpt>
      <trkpt lat="46.33438" lon="-0.47889">
        <ele>10.9833</ele>
        <time>2011-02-20T13:33:14Z</time>
      </trkpt>
      <trkpt lat="46.33439" lon="-0.47889">
        <ele>10.9932</ele>
        <time>2011-02-20T13:33:15Z</time>
      </trkpt>
      <trkpt lat="46.3344" lon="-0.47889">
        <ele>11.001</ele>
        <time>2011-02-20T13:33:16Z</time>
      </trkpt>
      <trkpt lat="46.33441" lon="-0.47889">
        <ele>11.0052</ele>
        <time>2011-02-20T13:33:17Z</time>
      </trkpt>
      <trkpt lat="46.33442" lon="-0.47889">
        <ele>11.004</ele>
        <time>2011-02-20T13:33:18Z</time>
      </trkpt>
      <trkpt lat="46.33444" lon="-0.47889">
        <ele>10.9811</ele>
        <time>2011-02-20T13:33:19Z</time>
      </trkpt>
      <trkpt lat="46.33444" lon="-0.47889">
        <ele>10.9552</ele>
        <time>2011-02-20T13:33:20Z</time>
      </trkpt>
      <trkpt lat="46.33445" lon="-0.47889">
        <ele>10.9265</ele>
        <time>2011-02-20T13:33:21Z</time>
      </trkpt>
      <trkpt lat="46.33447" lon="-0.47889">
        <ele>10.886</ele>
        <time>2011-02-20T13:33:22Z</time>
      </trkpt>
      <trkpt lat="46.33448" lon="-0.4789">
        <ele>10.8337</ele>
        <time>2011-02-20T13:33:23Z</time>
      </trkpt>
      <trkpt lat="46.3345" lon="-0.4789">
        <ele>10.7768</ele>
        <time>2011-02-20T13:33:24Z</time>
      </trkpt>
      <trkpt lat="46.33452" lon="-0.47891">
        <ele>10.7554</ele>
        <time>2011-02-20T13:33:25Z</time>
      </trkpt>
      <trkpt lat="46.33453" lon="-0.47892">
        <ele>10.7604</ele>
        <time>2011-02-20T13:33:26Z</time>
      </trkpt>
      <trkpt lat="46.33455" lon="-0.47893">
        <ele>10.7721</ele>
        <time>2011-02-20T13:33:27Z</time>
      </trkpt>
      <trkpt lat="46.33456" lon="-0.47893">
        <ele>10.788</ele>
        <time>2011-02-20T13:33:28Z</time>
      </trkpt>
      <trkpt lat="46.33458" lon="-0.47894">
        <ele>10.8076</ele>
        <time>2011-02-20T13:33:29Z</time>
      </trkpt>
      <trkpt lat="46.3346" lon="-0.47894">
        <ele>10.8275</ele>
        <time>2011-02-20T13:33:30Z</time>
      </trkpt>
      <trkpt lat="46.33461" lon="-0.47895">
        <ele>10.8444</ele>
        <time>2011-02-20T13:33:31Z</time>
      </trkpt>
      <trkpt lat="46.33462" lon="-0.47895">
        <ele>10.8617</ele>
        <time>2011-02-20T13:33:32Z</time>
      </trkpt>
      <trkpt lat="46.33463" lon="-0.47896">
        <ele>10.8771</ele>
        <time>2011-02-20T13:33:33Z</time>
      </trkpt>
      <trkpt lat="46.33464" lon="-0.47897">
        <ele>10.8908</ele>
        <time>2011-02-20T13:33:34Z</time>
      </trkpt>
      <trkpt lat="46.33466" lon="-0.47897">
        <ele>10.904</ele>
        <time>2011-02-20T13:33:35Z</time>
      </trkpt>
      <trkpt lat="46.33469" lon="-0.47897">
        <ele>10.8419</ele>
        <time>2011-02-20T13:33:39Z</time>
      </trkpt>
      <trkpt lat="46.33469" lon="-0.47898">
        <ele>10.8035</ele>
        <time>2011-02-20T13:33:40Z</time>
      </trkpt>
      <trkpt lat="46.33471" lon="-0.47898">
        <ele>10.7625</ele>
        <time>2011-02-20T13:33:41Z</time>
      </trkpt>
      <trkpt lat="46.33471" lon="-0.47899">
        <ele>10.7175</ele>
        <time>2011-02-20T13:33:42Z</time>
      </trkpt>
      <trkpt lat="46.33472" lon="-0.47899">
        <ele>10.6709</ele>
        <time>2011-02-20T13:33:43Z</time>
      </trkpt>
      <trkpt lat="46.33473" lon="-0.479">
        <ele>10.6311</ele>
        <time>2011-02-20T13:33:44Z</time>
      </trkpt>
      <trkpt lat="46.33474" lon="-0.479">
        <ele>10.591</ele>
        <time>2011-02-20T13:33:45Z</time>
      </trkpt>
      <trkpt lat="46.33476" lon="-0.479">
        <ele>10.5601</ele>
        <time>2011-02-20T13:33:46Z</time>
      </trkpt>
      <trkpt lat="46.33477" lon="-0.47901">
        <ele>10.5282</ele>
        <time>2011-02-20T13:33:47Z</time>
      </trkpt>
      <trkpt lat="46.33478" lon="-0.47901">
        <ele>10.4927</ele>
        <time>2011-02-20T13:33:48Z</time>
      </trkpt>
      <trkpt lat="46.33479" lon="-0.47901">
        <ele>10.4521</ele>
        <time>2011-02-20T13:33:49Z</time>
      </trkpt>
      <trkpt lat="46.3348" lon="-0.47901">
        <ele>10.4079</ele>
        <time>2011-02-20T13:33:50Z</time>
      </trkpt>
      <trkpt lat="46.33481" lon="-0.47901">
        <ele>10.3596</ele>
        <time>2011-02-20T13:33:51Z</time>
      </trkpt>
      <trkpt lat="46.33482" lon="-0.47901">
        <ele>10.3085</ele>
        <time>2011-02-20T13:33:52Z</time>
      </trkpt>
      <trkpt lat="46.33483" lon="-0.47901">
        <ele>10.26</ele>
        <time>2011-02-20T13:33:53Z</time>
      </trkpt>
      <trkpt lat="46.33484" lon="-0.47902">
        <ele>10.214</ele>
        <time>2011-02-20T13:33:54Z</time>
      </trkpt>
      <trkpt lat="46.33485" lon="-0.47902">
        <ele>10.174</ele>
        <time>2011-02-20T13:33:55Z</time>
      </trkpt>
      <trkpt lat="46.33487" lon="-0.47902">
        <ele>10.1363</ele>
        <time>2011-02-20T13:33:56Z</time>
      </trkpt>
      <trkpt lat="46.33488" lon="-0.47902">
        <ele>10.1022</ele>
        <time>2011-02-20T13:33:57Z</time>
      </trkpt>
      <trkpt lat="46.33489" lon="-0.47903">
        <ele>10.0704</ele>
        <time>2011-02-20T13:33:58Z</time>
      </trkpt>
      <trkpt lat="46.33491" lon="-0.47903">
        <ele>10.0416</ele>
        <time>2011-02-20T13:33:59Z</time>
      </trkpt>
      <trkpt lat="46.33492" lon="-0.47904">
        <ele>10.0144</ele>
        <time>2011-02-20T13:34:00Z</time>
      </trkpt>
      <trkpt lat="46.33493" lon="-0.47904">
        <ele>9.9847</ele>
        <time>2011-02-20T13:34:01Z</time>
      </trkpt>
      <trkpt lat="46.33494" lon="-0.47905">
        <ele>9.9565</ele>
        <time>2011-02-20T13:34:02Z</time>
      </trkpt>
      <trkpt lat="46.33495" lon="-0.47905">
        <ele>9.9292</ele>
        <time>2011-02-20T13:34:03Z</time>
      </trkpt>
      <trkpt lat="46.33497" lon="-0.47906">
        <ele>9.9014</ele>
        <time>2011-02-20T13:34:04Z</time>
      </trkpt>
      <trkpt lat="46.33498" lon="-0.47906">
        <ele>9.8721</ele>
        <time>2011-02-20T13:34:05Z</time>
      </trkpt>
      <trkpt lat="46.33499" lon="-0.47907">
        <ele>9.8387</ele>
        <time>2011-02-20T13:34:06Z</time>
      </trkpt>
      <trkpt lat="46.335" lon="-0.47908">
        <ele>9.8023</ele>
        <time>2011-02-20T13:34:07Z</time>
      </trkpt>
      <trkpt lat="46.33501" lon="-0.47908">
        <ele>9.7665</ele>
        <time>2011-02-20T13:34:08Z</time>
      </trkpt>
      <trkpt lat="46.33503" lon="-0.47909">
        <ele>9.7313</ele>
        <time>2011-02-20T13:34:09Z</time>
      </trkpt>
      <trkpt lat="46.33504" lon="-0.47909">
        <ele>9.6972</ele>
        <time>2011-02-20T13:34:10Z</time>
      </trkpt>
      <trkpt lat="46.33505" lon="-0.47909">
        <ele>9.6628</ele>
        <time>2011-02-20T13:34:11Z</time>
      </trkpt>
      <trkpt lat="46.33506" lon="-0.4791">
        <ele>9.628</ele>
        <time>2011-02-20T13:34:12Z</time>
      </trkpt>
      <trkpt lat="46.33507" lon="-0.4791">
        <ele>9.5915</ele>
        <time>2011-02-20T13:34:13Z</time>
      </trkpt>
      <trkpt lat="46.33509" lon="-0.47909">
        <ele>9.4918</ele>
        <time>2011-02-20T13:34:17Z</time>
      </trkpt>
      <trkpt lat="46.3351" lon="-0.47909">
        <ele>9.4578</ele>
        <time>2011-02-20T13:34:18Z</time>
      </trkpt>
      <trkpt lat="46.33511" lon="-0.47909">
        <ele>9.4264</ele>
        <time>2011-02-20T13:34:19Z</time>
      </trkpt>
      <trkpt lat="46.33511" lon="-0.47909">
        <ele>9.3967</ele>
        <time>2011-02-20T13:34:20Z</time>
      </trkpt>
      <trkpt lat="46.33513" lon="-0.4791">
        <ele>9.3654</ele>
        <time>2011-02-20T13:34:21Z</time>
      </trkpt>
      <trkpt lat="46.33514" lon="-0.4791">
        <ele>9.34</ele>
        <time>2011-02-20T13:34:22Z</time>
      </trkpt>
      <trkpt lat="46.33515" lon="-0.47911">
        <ele>9.3209</ele>
        <time>2011-02-20T13:34:23Z</time>
      </trkpt>
      <trkpt lat="46.33516" lon="-0.47911">
        <ele>9.2969</ele>
        <time>2011-02-20T13:34:24Z</time>
      </trkpt>
      <trkpt lat="46.33517" lon="-0.47912">
        <ele>9.2682</ele>
        <time>2011-02-20T13:34:25Z</time>
      </trkpt>
      <trkpt lat="46.33518" lon="-0.47912">
        <ele>9.2379</ele>
        <time>2011-02-20T13:34:26Z</time>
      </trkpt>
      <trkpt lat="46.33519" lon="-0.47913">
        <ele>9.2038</ele>
        <time>2011-02-20T13:34:27Z</time>
      </trkpt>
      <trkpt lat="46.33521" lon="-0.47914">
        <ele>9.166</ele>
        <time>2011-02-20T13:34:28Z</time>
      </trkpt>
      <trkpt lat="46.33522" lon="-0.47914">
        <ele>9.1292</ele>
        <time>2011-02-20T13:34:29Z</time>
      </trkpt>
      <trkpt lat="46.33523" lon="-0.47915">
        <ele>9.0905</ele>
        <time>2011-02-20T13:34:30Z</time>
      </trkpt>
      <trkpt lat="46.33524" lon="-0.47916">
        <ele>9.047</ele>
        <time>2011-02-20T13:34:31Z</time>
      </trkpt>
      <trkpt lat="46.33525" lon="-0.47917">
        <ele>9.0025</ele>
        <time>2011-02-20T13:34:32Z</time>
      </trkpt>
      <trkpt lat="46.33526" lon="-0.47918">
        <ele>8.956</ele>
        <time>2011-02-20T13:34:33Z</time>
      </trkpt>
      <trkpt lat="46.33527" lon="-0.47919">
        <ele>8.9082</ele>
        <time>2011-02-20T13:34:34Z</time>
      </trkpt>
      <trkpt lat="46.33528" lon="-0.4792">
        <ele>8.8613</ele>
        <time>2011-02-20T13:34:35Z</time>
      </trkpt>
      <trkpt lat="46.33529" lon="-0.47921">
        <ele>8.8144</ele>
        <time>2011-02-20T13:34:36Z</time>
      </trkpt>
      <trkpt lat="46.3353" lon="-0.47922">
        <ele>8.77</ele>
        <time>2011-02-20T13:34:37Z</time>
      </trkpt>
      <trkpt lat="46.33531" lon="-0.47922">
        <ele>8.7307</ele>
        <time>2011-02-20T13:34:38Z</time>
      </trkpt>
      <trkpt lat="46.33533" lon="-0.47922">
        <ele>8.6957</ele>
        <time>2011-02-20T13:34:39Z</time>
      </trkpt>
      <trkpt lat="46.33534" lon="-0.47923">
        <ele>8.6617</ele>
        <time>2011-02-20T13:34:40Z</time>
      </trkpt>
      <trkpt lat="46.33535" lon="-0.47923">
        <ele>8.6261</ele>
        <time>2011-02-20T13:34:41Z</time>
      </trkpt>
      <trkpt lat="46.33537" lon="-0.47923">
        <ele>8.5898</ele>
        <time>2011-02-20T13:34:42Z</time>
      </trkpt>
      <trkpt lat="46.33538" lon="-0.47924">
        <ele>8.5552</ele>
        <time>2011-02-20T13:34:43Z</time>
      </trkpt>
      <trkpt lat="46.33539" lon="-0.47924">
        <ele>8.5201</ele>
        <time>2011-02-20T13:34:44Z</time>
      </trkpt>
      <trkpt lat="46.3354" lon="-0.47925">
        <ele>8.4856</ele>
        <time>2011-02-20T13:34:45Z</time>
      </trkpt>
      <trkpt lat="46.33541" lon="-0.47925">
        <ele>8.4508</ele>
        <time>2011-02-20T13:34:46Z</time>
      </trkpt>
      <trkpt lat="46.33542" lon="-0.47926">
        <ele>8.4187</ele>
        <time>2011-02-20T13:34:47Z</time>
      </trkpt>
      <trkpt lat="46.33543" lon="-0.47926">
        <ele>8.3896</ele>
        <time>2011-02-20T13:34:48Z</time>
      </trkpt>
      <trkpt lat="46.33545" lon="-0.47926">
        <ele>8.3642</ele>
        <time>2011-02-20T13:34:49Z</time>
      </trkpt>
      <trkpt lat="46.33546" lon="-0.47927">
        <ele>8.3387</ele>
        <time>2011-02-20T13:34:50Z</time>
      </trkpt>
      <trkpt lat="46.33546" lon="-0.47927">
        <ele>8.3135</ele>
        <time>2011-02-20T13:34:51Z</time>
      </trkpt>
      <trkpt lat="46.33548" lon="-0.47928">
        <ele>8.2907</ele>
        <time>2011-02-20T13:34:52Z</time>
      </trkpt>
      <trkpt lat="46.33548" lon="-0.47928">
        <ele>8.2697</ele>
        <time>2011-02-20T13:34:53Z</time>
      </trkpt>
      <trkpt lat="46.3355" lon="-0.47929">
        <ele>8.2516</ele>
        <time>2011-02-20T13:34:54Z</time>
      </trkpt>
      <trkpt lat="46.3355" lon="-0.47929">
        <ele>8.2329</ele>
        <time>2011-02-20T13:34:55Z</time>
      </trkpt>
      <trkpt lat="46.33551" lon="-0.4793">
        <ele>8.2166</ele>
        <time>2011-02-20T13:34:56Z</time>
      </trkpt>
      <trkpt lat="46.33553" lon="-0.47931">
        <ele>8.2015</ele>
        <time>2011-02-20T13:34:57Z</time>
      </trkpt>
      <trkpt lat="46.33554" lon="-0.47932">
        <ele>8.1865</ele>
        <time>2011-02-20T13:34:58Z</time>
      </trkpt>
      <trkpt lat="46.33555" lon="-0.47933">
        <ele>8.1721</ele>
        <time>2011-02-20T13:34:59Z</time>
      </trkpt>
      <trkpt lat="46.33556" lon="-0.47934">
        <ele>8.1593</ele>
        <time>2011-02-20T13:35:00Z</time>
      </trkpt>
      <trkpt lat="46.33557" lon="-0.47935">
        <ele>8.1471</ele>
        <time>2011-02-20T13:35:01Z</time>
      </trkpt>
      <trkpt lat="46.33558" lon="-0.47935">
        <ele>8.137</ele>
        <time>2011-02-20T13:35:02Z</time>
      </trkpt>
      <trkpt lat="46.33558" lon="-0.47936">
        <ele>8.1281</ele>
        <time>2011-02-20T13:35:03Z</time>
      </trkpt>
      <trkpt lat="46.33559" lon="-0.47936">
        <ele>8.1234</ele>
        <time>2011-02-20T13:35:04Z</time>
      </trkpt>
      <trkpt lat="46.3356" lon="-0.47937">
        <ele>8.1183</ele>
        <time>2011-02-20T13:35:05Z</time>
      </trkpt>
      <trkpt lat="46.33561" lon="-0.47937">
        <ele>8.1158</ele>
        <time>2011-02-20T13:35:06Z</time>
      </trkpt>
      <trkpt lat="46.33563" lon="-0.47938">
        <ele>8.1132</ele>
        <time>2011-02-20T13:35:07Z</time>
      </trkpt>
      <trkpt lat="46.33564" lon="-0.47939">
        <ele>8.1122</ele>
        <time>2011-02-20T13:35:08Z</time>
      </trkpt>
      <trkpt lat="46.33564" lon="-0.4794">
        <ele>8.1101</ele>
        <time>2011-02-20T13:35:09Z</time>
      </trkpt>
      <trkpt lat="46.33566" lon="-0.47941">
        <ele>8.1094</ele>
        <time>2011-02-20T13:35:10Z</time>
      </trkpt>
      <trkpt lat="46.33567" lon="-0.47941">
        <ele>8.1089</ele>
        <time>2011-02-20T13:35:11Z</time>
      </trkpt>
      <trkpt lat="46.33568" lon="-0.47942">
        <ele>8.11</ele>
        <time>2011-02-20T13:35:12Z</time>
      </trkpt>
      <trkpt lat="46.33569" lon="-0.47943">
        <ele>8.113</ele>
        <time>2011-02-20T13:35:13Z</time>
      </trkpt>
      <trkpt lat="46.3357" lon="-0.47944">
        <ele>8.1187</ele>
        <time>2011-02-20T13:35:14Z</time>
      </trkpt>
      <trkpt lat="46.33571" lon="-0.47945">
        <ele>8.1257</ele>
        <time>2011-02-20T13:35:15Z</time>
      </trkpt>
      <trkpt lat="46.33572" lon="-0.47946">
        <ele>8.1338</ele>
        <time>2011-02-20T13:35:16Z</time>
      </trkpt>
      <trkpt lat="46.33574" lon="-0.47947">
        <ele>8.1398</ele>
        <time>2011-02-20T13:35:17Z</time>
      </trkpt>
      <trkpt lat="46.33575" lon="-0.47948">
        <ele>8.1468</ele>
        <time>2011-02-20T13:35:18Z</time>
      </trkpt>
      <trkpt lat="46.33575" lon="-0.47949">
        <ele>8.1511</ele>
        <time>2011-02-20T13:35:19Z</time>
      </trkpt>
      <trkpt lat="46.33577" lon="-0.4795">
        <ele>8.1533</ele>
        <time>2011-02-20T13:35:20Z</time>
      </trkpt>
      <trkpt lat="46.33577" lon="-0.47951">
        <ele>8.1556</ele>
        <time>2011-02-20T13:35:21Z</time>
      </trkpt>
      <trkpt lat="46.33578" lon="-0.47952">
        <ele>8.1586</ele>
        <time>2011-02-20T13:35:22Z</time>
      </trkpt>
      <trkpt lat="46.33579" lon="-0.47953">
        <ele>8.1636</ele>
        <time>2011-02-20T13:35:23Z</time>
      </trkpt>
      <trkpt lat="46.3358" lon="-0.47954">
        <ele>8.1679</ele>
        <time>2011-02-20T13:35:24Z</time>
      </trkpt>
      <trkpt lat="46.3358" lon="-0.47955">
        <ele>8.1721</ele>
        <time>2011-02-20T13:35:25Z</time>
      </trkpt>
      <trkpt lat="46.33581" lon="-0.47955">
        <ele>8.1759</ele>
        <time>2011-02-20T13:35:26Z</time>
      </trkpt>
      <trkpt lat="46.33582" lon="-0.47956">
        <ele>8.1755</ele>
        <time>2011-02-20T13:35:27Z</time>
      </trkpt>
      <trkpt lat="46.33583" lon="-0.47957">
        <ele>8.1729</ele>
        <time>2011-02-20T13:35:28Z</time>
      </trkpt>
      <trkpt lat="46.33584" lon="-0.47958">
        <ele>8.1703</ele>
        <time>2011-02-20T13:35:29Z</time>
      </trkpt>
      <trkpt lat="46.33584" lon="-0.47959">
        <ele>8.1661</ele>
        <time>2011-02-20T13:35:30Z</time>
      </trkpt>
      <trkpt lat="46.33585" lon="-0.47961">
        <ele>8.1613</ele>
        <time>2011-02-20T13:35:31Z</time>
      </trkpt>
      <trkpt lat="46.33586" lon="-0.47962">
        <ele>8.1542</ele>
        <time>2011-02-20T13:35:32Z</time>
      </trkpt>
      <trkpt lat="46.33587" lon="-0.47963">
        <ele>8.1437</ele>
        <time>2011-02-20T13:35:33Z</time>
      </trkpt>
      <trkpt lat="46.33587" lon="-0.47964">
        <ele>8.1309</ele>
        <time>2011-02-20T13:35:34Z</time>
      </trkpt>
      <trkpt lat="46.33588" lon="-0.47965">
        <ele>8.1171</ele>
        <time>2011-02-20T13:35:35Z</time>
      </trkpt>
      <trkpt lat="46.33588" lon="-0.47966">
        <ele>8.1006</ele>
        <time>2011-02-20T13:35:36Z</time>
      </trkpt>
      <trkpt lat="46.33589" lon="-0.47967">
        <ele>8.0832</ele>
        <time>2011-02-20T13:35:37Z</time>
      </trkpt>
      <trkpt lat="46.3359" lon="-0.47968">
        <ele>8.0675</ele>
        <time>2011-02-20T13:35:38Z</time>
      </trkpt>
      <trkpt lat="46.3359" lon="-0.47969">
        <ele>8.0489</ele>
        <time>2011-02-20T13:35:39Z</time>
      </trkpt>
      <trkpt lat="46.33591" lon="-0.4797">
        <ele>8.0275</ele>
        <time>2011-02-20T13:35:40Z</time>
      </trkpt>
      <trkpt lat="46.33592" lon="-0.47971">
        <ele>8.0022</ele>
        <time>2011-02-20T13:35:41Z</time>
      </trkpt>
      <trkpt lat="46.33593" lon="-0.47972">
        <ele>7.9741</ele>
        <time>2011-02-20T13:35:42Z</time>
      </trkpt>
      <trkpt lat="46.33593" lon="-0.47973">
        <ele>7.9455</ele>
        <time>2011-02-20T13:35:43Z</time>
      </trkpt>
      <trkpt lat="46.33594" lon="-0.47974">
        <ele>7.9196</ele>
        <time>2011-02-20T13:35:44Z</time>
      </trkpt>
      <trkpt lat="46.33595" lon="-0.47975">
        <ele>7.8937</ele>
        <time>2011-02-20T13:35:45Z</time>
      </trkpt>
      <trkpt lat="46.33595" lon="-0.47976">
        <ele>7.8684</ele>
        <time>2011-02-20T13:35:46Z</time>
      </trkpt>
      <trkpt lat="46.33596" lon="-0.47977">
        <ele>7.8428</ele>
        <time>2011-02-20T13:35:47Z</time>
      </trkpt>
      <trkpt lat="46.33596" lon="-0.47979">
        <ele>7.8174</ele>
        <time>2011-02-20T13:35:48Z</time>
      </trkpt>
      <trkpt lat="46.33597" lon="-0.4798">
        <ele>7.792</ele>
        <time>2011-02-20T13:35:49Z</time>
      </trkpt>
      <trkpt lat="46.33598" lon="-0.47981">
        <ele>7.7663</ele>
        <time>2011-02-20T13:35:50Z</time>
      </trkpt>
      <trkpt lat="46.33599" lon="-0.47983">
        <ele>7.7391</ele>
        <time>2011-02-20T13:35:51Z</time>
      </trkpt>
      <trkpt lat="46.336" lon="-0.47984">
        <ele>7.7138</ele>
        <time>2011-02-20T13:35:52Z</time>
      </trkpt>
      <trkpt lat="46.336" lon="-0.47985">
        <ele>7.6915</ele>
        <time>2011-02-20T13:35:53Z</time>
      </trkpt>
      <trkpt lat="46.33601" lon="-0.47986">
        <ele>7.6698</ele>
        <time>2011-02-20T13:35:54Z</time>
      </trkpt>
      <trkpt lat="46.33602" lon="-0.47988">
        <ele>7.6479</ele>
        <time>2011-02-20T13:35:55Z</time>
      </trkpt>
      <trkpt lat="46.33603" lon="-0.47989">
        <ele>7.6272</ele>
        <time>2011-02-20T13:35:56Z</time>
      </trkpt>
      <trkpt lat="46.33603" lon="-0.4799">
        <ele>7.6071</ele>
        <time>2011-02-20T13:35:57Z</time>
      </trkpt>
      <trkpt lat="46.33604" lon="-0.47992">
        <ele>7.5873</ele>
        <time>2011-02-20T13:35:58Z</time>
      </trkpt>
      <trkpt lat="46.33605" lon="-0.47993">
        <ele>7.5675</ele>
        <time>2011-02-20T13:35:59Z</time>
      </trkpt>
      <trkpt lat="46.33606" lon="-0.47994">
        <ele>7.5471</ele>
        <time>2011-02-20T13:36:00Z</time>
      </trkpt>
      <trkpt lat="46.33606" lon="-0.47996">
        <ele>7.5263</ele>
        <time>2011-02-20T13:36:01Z</time>
      </trkpt>
      <trkpt lat="46.33607" lon="-0.47997">
        <ele>7.506</ele>
        <time>2011-02-20T13:36:02Z</time>
      </trkpt>
      <trkpt lat="46.33608" lon="-0.47999">
        <ele>7.4874</ele>
        <time>2011-02-20T13:36:03Z</time>
      </trkpt>
      <trkpt lat="46.33608" lon="-0.48">
        <ele>7.4698</ele>
        <time>2011-02-20T13:36:04Z</time>
      </trkpt>
      <trkpt lat="46.33608" lon="-0.48002">
        <ele>7.4525</ele>
        <time>2011-02-20T13:36:05Z</time>
      </trkpt>
      <trkpt lat="46.33609" lon="-0.48003">
        <ele>7.4342</ele>
        <time>2011-02-20T13:36:06Z</time>
      </trkpt>
      <trkpt lat="46.33609" lon="-0.48005">
        <ele>7.4159</ele>
        <time>2011-02-20T13:36:07Z</time>
      </trkpt>
      <trkpt lat="46.33609" lon="-0.48006">
        <ele>7.4009</ele>
        <time>2011-02-20T13:36:08Z</time>
      </trkpt>
      <trkpt lat="46.3361" lon="-0.48007">
        <ele>7.3843</ele>
        <time>2011-02-20T13:36:09Z</time>
      </trkpt>
      <trkpt lat="46.3361" lon="-0.48009">
        <ele>7.3677</ele>
        <time>2011-02-20T13:36:10Z</time>
      </trkpt>
      <trkpt lat="46.33611" lon="-0.4801">
        <ele>7.351</ele>
        <time>2011-02-20T13:36:11Z</time>
      </trkpt>
      <trkpt lat="46.33611" lon="-0.48012">
        <ele>7.3353</ele>
        <time>2011-02-20T13:36:12Z</time>
      </trkpt>
      <trkpt lat="46.33612" lon="-0.48013">
        <ele>7.3211</ele>
        <time>2011-02-20T13:36:13Z</time>
      </trkpt>
      <trkpt lat="46.33612" lon="-0.48014">
        <ele>7.3083</ele>
        <time>2011-02-20T13:36:14Z</time>
      </trkpt>
      <trkpt lat="46.33613" lon="-0.48016">
        <ele>7.2948</ele>
        <time>2011-02-20T13:36:15Z</time>
      </trkpt>
      <trkpt lat="46.33614" lon="-0.48017">
        <ele>7.2808</ele>
        <time>2011-02-20T13:36:16Z</time>
      </trkpt>
      <trkpt lat="46.33614" lon="-0.48018">
        <ele>7.2675</ele>
        <time>2011-02-20T13:36:17Z</time>
      </trkpt>
      <trkpt lat="46.33615" lon="-0.48019">
        <ele>7.2534</ele>
        <time>2011-02-20T13:36:18Z</time>
      </trkpt>
      <trkpt lat="46.33616" lon="-0.4802">
        <ele>7.2371</ele>
        <time>2011-02-20T13:36:19Z</time>
      </trkpt>
      <trkpt lat="46.33617" lon="-0.48022">
        <ele>7.2181</ele>
        <time>2011-02-20T13:36:20Z</time>
      </trkpt>
      <trkpt lat="46.33617" lon="-0.48023">
        <ele>7.196</ele>
        <time>2011-02-20T13:36:21Z</time>
      </trkpt>
      <trkpt lat="46.33618" lon="-0.48024">
        <ele>7.17</ele>
        <time>2011-02-20T13:36:22Z</time>
      </trkpt>
      <trkpt lat="46.33619" lon="-0.48026">
        <ele>7.1439</ele>
        <time>2011-02-20T13:36:23Z</time>
      </trkpt>
      <trkpt lat="46.33619" lon="-0.48027">
        <ele>7.1204</ele>
        <time>2011-02-20T13:36:24Z</time>
      </trkpt>
      <trkpt lat="46.3362" lon="-0.48029">
        <ele>7.0973</ele>
        <time>2011-02-20T13:36:25Z</time>
      </trkpt>
      <trkpt lat="46.33621" lon="-0.4803">
        <ele>7.0748</ele>
        <time>2011-02-20T13:36:26Z</time>
      </trkpt>
      <trkpt lat="46.33622" lon="-0.48031">
        <ele>7.0489</ele>
        <time>2011-02-20T13:36:27Z</time>
      </trkpt>
      <trkpt lat="46.33622" lon="-0.48033">
        <ele>7.0229</ele>
        <time>2011-02-20T13:36:28Z</time>
      </trkpt>
      <trkpt lat="46.33623" lon="-0.48034">
        <ele>6.9986</ele>
        <time>2011-02-20T13:36:29Z</time>
      </trkpt>
      <trkpt lat="46.33624" lon="-0.48036">
        <ele>6.9704</ele>
        <time>2011-02-20T13:36:30Z</time>
      </trkpt>
      <trkpt lat="46.33624" lon="-0.48037">
        <ele>6.9391</ele>
        <time>2011-02-20T13:36:31Z</time>
      </trkpt>
      <trkpt lat="46.33625" lon="-0.48038">
        <ele>6.9039</ele>
        <time>2011-02-20T13:36:32Z</time>
      </trkpt>
      <trkpt lat="46.33626" lon="-0.48039">
        <ele>6.8672</ele>
        <time>2011-02-20T13:36:33Z</time>
      </trkpt>
      <trkpt lat="46.33627" lon="-0.48041">
        <ele>6.8271</ele>
        <time>2011-02-20T13:36:34Z</time>
      </trkpt>
      <trkpt lat="46.33627" lon="-0.48042">
        <ele>6.7913</ele>
        <time>2011-02-20T13:36:35Z</time>
      </trkpt>
      <trkpt lat="46.33628" lon="-0.48043">
        <ele>6.7582</ele>
        <time>2011-02-20T13:36:36Z</time>
      </trkpt>
      <trkpt lat="46.33629" lon="-0.48045">
        <ele>6.7306</ele>
        <time>2011-02-20T13:36:37Z</time>
      </trkpt>
      <trkpt lat="46.33629" lon="-0.48046">
        <ele>6.7059</ele>
        <time>2011-02-20T13:36:38Z</time>
      </trkpt>
      <trkpt lat="46.33629" lon="-0.48047">
        <ele>6.6835</ele>
        <time>2011-02-20T13:36:39Z</time>
      </trkpt>
      <trkpt lat="46.3363" lon="-0.48049">
        <ele>6.6617</ele>
        <time>2011-02-20T13:36:40Z</time>
      </trkpt>
      <trkpt lat="46.3363" lon="-0.4805">
        <ele>6.6351</ele>
        <time>2011-02-20T13:36:41Z</time>
      </trkpt>
      <trkpt lat="46.3363" lon="-0.48052">
        <ele>6.61</ele>
        <time>2011-02-20T13:36:42Z</time>
      </trkpt>
      <trkpt lat="46.33631" lon="-0.48053">
        <ele>6.5859</ele>
        <time>2011-02-20T13:36:43Z</time>
      </trkpt>
      <trkpt lat="46.33632" lon="-0.48055">
        <ele>6.5565</ele>
        <time>2011-02-20T13:36:44Z</time>
      </trkpt>
      <trkpt lat="46.33632" lon="-0.48057">
        <ele>6.5301</ele>
        <time>2011-02-20T13:36:45Z</time>
      </trkpt>
      <trkpt lat="46.33632" lon="-0.48058">
        <ele>6.5064</ele>
        <time>2011-02-20T13:36:46Z</time>
      </trkpt>
      <trkpt lat="46.33632" lon="-0.4806">
        <ele>6.4863</ele>
        <time>2011-02-20T13:36:47Z</time>
      </trkpt>
      <trkpt lat="46.33632" lon="-0.48061">
        <ele>6.4664</ele>
        <time>2011-02-20T13:36:48Z</time>
      </trkpt>
      <trkpt lat="46.33633" lon="-0.48063">
        <ele>6.4466</ele>
        <time>2011-02-20T13:36:49Z</time>
      </trkpt>
      <trkpt lat="46.33633" lon="-0.48064">
        <ele>6.4307</ele>
        <time>2011-02-20T13:36:50Z</time>
      </trkpt>
      <trkpt lat="46.33634" lon="-0.48068">
        <ele>6.3525</ele>
        <time>2011-02-20T13:36:54Z</time>
      </trkpt>
      <trkpt lat="46.33635" lon="-0.4807">
        <ele>6.327</ele>
        <time>2011-02-20T13:36:55Z</time>
      </trkpt>
      <trkpt lat="46.33635" lon="-0.48071">
        <ele>6.3038</ele>
        <time>2011-02-20T13:36:56Z</time>
      </trkpt>
      <trkpt lat="46.33636" lon="-0.48073">
        <ele>6.2834</ele>
        <time>2011-02-20T13:36:57Z</time>
      </trkpt>
      <trkpt lat="46.33637" lon="-0.48074">
        <ele>6.2652</ele>
        <time>2011-02-20T13:36:58Z</time>
      </trkpt>
      <trkpt lat="46.33637" lon="-0.48076">
        <ele>6.249</ele>
        <time>2011-02-20T13:36:59Z</time>
      </trkpt>
      <trkpt lat="46.33638" lon="-0.48077">
        <ele>6.2333</ele>
        <time>2011-02-20T13:37:00Z</time>
      </trkpt>
      <trkpt lat="46.33639" lon="-0.48079">
        <ele>6.2186</ele>
        <time>2011-02-20T13:37:01Z</time>
      </trkpt>
      <trkpt lat="46.3364" lon="-0.4808">
        <ele>6.206</ele>
        <time>2011-02-20T13:37:02Z</time>
      </trkpt>
      <trkpt lat="46.3364" lon="-0.48082">
        <ele>6.1913</ele>
        <time>2011-02-20T13:37:03Z</time>
      </trkpt>
      <trkpt lat="46.33641" lon="-0.48084">
        <ele>6.1771</ele>
        <time>2011-02-20T13:37:04Z</time>
      </trkpt>
      <trkpt lat="46.33641" lon="-0.48085">
        <ele>6.1617</ele>
        <time>2011-02-20T13:37:05Z</time>
      </trkpt>
      <trkpt lat="46.33642" lon="-0.48087">
        <ele>6.1432</ele>
        <time>2011-02-20T13:37:06Z</time>
      </trkpt>
      <trkpt lat="46.33643" lon="-0.48088">
        <ele>6.1255</ele>
        <time>2011-02-20T13:37:07Z</time>
      </trkpt>
      <trkpt lat="46.33643" lon="-0.48089">
        <ele>6.1088</ele>
        <time>2011-02-20T13:37:08Z</time>
      </trkpt>
      <trkpt lat="46.33643" lon="-0.48091">
        <ele>6.0847</ele>
        <time>2011-02-20T13:37:09Z</time>
      </trkpt>
      <trkpt lat="46.33644" lon="-0.48092">
        <ele>6.0531</ele>
        <time>2011-02-20T13:37:10Z</time>
      </trkpt>
      <trkpt lat="46.33644" lon="-0.48093">
        <ele>6.02</ele>
        <time>2011-02-20T13:37:11Z</time>
      </trkpt>
      <trkpt lat="46.33645" lon="-0.48095">
        <ele>5.9852</ele>
        <time>2011-02-20T13:37:12Z</time>
      </trkpt>
      <trkpt lat="46.33645" lon="-0.48096">
        <ele>5.9501</ele>
        <time>2011-02-20T13:37:13Z</time>
      </trkpt>
      <trkpt lat="46.33645" lon="-0.48097">
        <ele>5.9163</ele>
        <time>2011-02-20T13:37:14Z</time>
      </trkpt>
      <trkpt lat="46.33646" lon="-0.48098">
        <ele>5.8839</ele>
        <time>2011-02-20T13:37:15Z</time>
      </trkpt>
      <trkpt lat="46.33646" lon="-0.48099">
        <ele>5.8565</ele>
        <time>2011-02-20T13:37:16Z</time>
      </trkpt>
      <trkpt lat="46.33646" lon="-0.481">
        <ele>5.8286</ele>
        <time>2011-02-20T13:37:17Z</time>
      </trkpt>
      <trkpt lat="46.33647" lon="-0.48101">
        <ele>5.799</ele>
        <time>2011-02-20T13:37:18Z</time>
      </trkpt>
      <trkpt lat="46.33648" lon="-0.48102">
        <ele>5.7668</ele>
        <time>2011-02-20T13:37:19Z</time>
      </trkpt>
      <trkpt lat="46.33648" lon="-0.48104">
        <ele>5.7325</ele>
        <time>2011-02-20T13:37:20Z</time>
      </trkpt>
      <trkpt lat="46.33649" lon="-0.48105">
        <ele>5.7006</ele>
        <time>2011-02-20T13:37:21Z</time>
      </trkpt>
      <trkpt lat="46.33649" lon="-0.48106">
        <ele>5.6701</ele>
        <time>2011-02-20T13:37:22Z</time>
      </trkpt>
      <trkpt lat="46.33649" lon="-0.48107">
        <ele>5.638</ele>
        <time>2011-02-20T13:37:23Z</time>
      </trkpt>
      <trkpt lat="46.3365" lon="-0.48108">
        <ele>5.6018</ele>
        <time>2011-02-20T13:37:24Z</time>
      </trkpt>
      <trkpt lat="46.3365" lon="-0.48109">
        <ele>5.568</ele>
        <time>2011-02-20T13:37:25Z</time>
      </trkpt>
      <trkpt lat="46.33651" lon="-0.4811">
        <ele>5.5269</ele>
        <time>2011-02-20T13:37:26Z</time>
      </trkpt>
      <trkpt lat="46.33651" lon="-0.48112">
        <ele>5.4789</ele>
        <time>2011-02-20T13:37:27Z</time>
      </trkpt>
      <trkpt lat="46.33652" lon="-0.48113">
        <ele>5.4252</ele>
        <time>2011-02-20T13:37:28Z</time>
      </trkpt>
      <trkpt lat="46.33652" lon="-0.48115">
        <ele>5.3667</ele>
        <time>2011-02-20T13:37:29Z</time>
      </trkpt>
      <trkpt lat="46.33653" lon="-0.48116">
        <ele>5.304</ele>
        <time>2011-02-20T13:37:30Z</time>
      </trkpt>
      <trkpt lat="46.33653" lon="-0.48117">
        <ele>5.2384</ele>
        <time>2011-02-20T13:37:31Z</time>
      </trkpt>
      <trkpt lat="46.33654" lon="-0.48119">
        <ele>5.1701</ele>
        <time>2011-02-20T13:37:32Z</time>
      </trkpt>
      <trkpt lat="46.33654" lon="-0.4812">
        <ele>5.0989</ele>
        <time>2011-02-20T13:37:33Z</time>
      </trkpt>
      <trkpt lat="46.33654" lon="-0.48122">
        <ele>5.0263</ele>
        <time>2011-02-20T13:37:34Z</time>
      </trkpt>
      <trkpt lat="46.33655" lon="-0.48124">
        <ele>4.9524</ele>
        <time>2011-02-20T13:37:35Z</time>
      </trkpt>
      <trkpt lat="46.33655" lon="-0.48125">
        <ele>4.8854</ele>
        <time>2011-02-20T13:37:36Z</time>
      </trkpt>
      <trkpt lat="46.33655" lon="-0.48127">
        <ele>4.8128</ele>
        <time>2011-02-20T13:37:37Z</time>
      </trkpt>
      <trkpt lat="46.33656" lon="-0.48128">
        <ele>4.7416</ele>
        <time>2011-02-20T13:37:38Z</time>
      </trkpt>
      <trkpt lat="46.33656" lon="-0.4813">
        <ele>4.6004</ele>
        <time>2011-02-20T13:37:40Z</time>
      </trkpt>
      <trkpt lat="46.33656" lon="-0.48132">
        <ele>4.5273</ele>
        <time>2011-02-20T13:37:41Z</time>
      </trkpt>
      <trkpt lat="46.33656" lon="-0.48133">
        <ele>4.4528</ele>
        <time>2011-02-20T13:37:42Z</time>
      </trkpt>
      <trkpt lat="46.33657" lon="-0.48135">
        <ele>4.3802</ele>
        <time>2011-02-20T13:37:43Z</time>
      </trkpt>
      <trkpt lat="46.33657" lon="-0.48137">
        <ele>4.3105</ele>
        <time>2011-02-20T13:37:44Z</time>
      </trkpt>
      <trkpt lat="46.33657" lon="-0.4814">
        <ele>4.2426</ele>
        <time>2011-02-20T13:37:45Z</time>
      </trkpt>
      <trkpt lat="46.33657" lon="-0.48142">
        <ele>4.1801</ele>
        <time>2011-02-20T13:37:46Z</time>
      </trkpt>
      <trkpt lat="46.33657" lon="-0.48143">
        <ele>4.12</ele>
        <time>2011-02-20T13:37:47Z</time>
      </trkpt>
      <trkpt lat="46.33657" lon="-0.48145">
        <ele>4.063</ele>
        <time>2011-02-20T13:37:48Z</time>
      </trkpt>
      <trkpt lat="46.33657" lon="-0.48147">
        <ele>4.0096</ele>
        <time>2011-02-20T13:37:49Z</time>
      </trkpt>
      <trkpt lat="46.33657" lon="-0.48149">
        <ele>3.9576</ele>
        <time>2011-02-20T13:37:50Z</time>
      </trkpt>
      <trkpt lat="46.33657" lon="-0.4815">
        <ele>3.9079</ele>
        <time>2011-02-20T13:37:51Z</time>
      </trkpt>
      <trkpt lat="46.33658" lon="-0.48153">
        <ele>3.7787</ele>
        <time>2011-02-20T13:37:54Z</time>
      </trkpt>
      <trkpt lat="46.33658" lon="-0.48154">
        <ele>3.7451</ele>
        <time>2011-02-20T13:37:55Z</time>
      </trkpt>
      <trkpt lat="46.33658" lon="-0.48156">
        <ele>3.714</ele>
        <time>2011-02-20T13:37:56Z</time>
      </trkpt>
      <trkpt lat="46.33658" lon="-0.48157">
        <ele>3.6798</ele>
        <time>2011-02-20T13:37:57Z</time>
      </trkpt>
      <trkpt lat="46.33658" lon="-0.4816">
        <ele>3.6041</ele>
        <time>2011-02-20T13:37:59Z</time>
      </trkpt>
      <trkpt lat="46.33659" lon="-0.48165">
        <ele>3.4533</ele>
        <time>2011-02-20T13:38:03Z</time>
      </trkpt>
      <trkpt lat="46.33659" lon="-0.48169">
        <ele>3.3774</ele>
        <time>2011-02-20T13:38:05Z</time>
      </trkpt>
      <trkpt lat="46.33661" lon="-0.48175">
        <ele>3.2141</ele>
        <time>2011-02-20T13:38:11Z</time>
      </trkpt>
      <trkpt lat="46.33661" lon="-0.48177">
        <ele>3.1972</ele>
        <time>2011-02-20T13:38:12Z</time>
      </trkpt>
      <trkpt lat="46.33661" lon="-0.48178">
        <ele>3.1827</ele>
        <time>2011-02-20T13:38:13Z</time>
      </trkpt>
      <trkpt lat="46.33661" lon="-0.48179">
        <ele>3.1688</ele>
        <time>2011-02-20T13:38:14Z</time>
      </trkpt>
      <trkpt lat="46.33661" lon="-0.48181">
        <ele>3.16</ele>
        <time>2011-02-20T13:38:15Z</time>
      </trkpt>
      <trkpt lat="46.33661" lon="-0.48183">
        <ele>3.1493</ele>
        <time>2011-02-20T13:38:16Z</time>
      </trkpt>
      <trkpt lat="46.33661" lon="-0.48184">
        <ele>3.1426</ele>
        <time>2011-02-20T13:38:17Z</time>
      </trkpt>
      <trkpt lat="46.33661" lon="-0.48186">
        <ele>3.1412</ele>
        <time>2011-02-20T13:38:18Z</time>
      </trkpt>
      <trkpt lat="46.33661" lon="-0.48188">
        <ele>3.1405</ele>
        <time>2011-02-20T13:38:19Z</time>
      </trkpt>
      <trkpt lat="46.33661" lon="-0.48189">
        <ele>3.1431</ele>
        <time>2011-02-20T13:38:20Z</time>
      </trkpt>
      <trkpt lat="46.33661" lon="-0.48191">
        <ele>3.1439</ele>
        <time>2011-02-20T13:38:21Z</time>
      </trkpt>
      <trkpt lat="46.33661" lon="-0.48192">
        <ele>3.1481</ele>
        <time>2011-02-20T13:38:22Z</time>
      </trkpt>
      <trkpt lat="46.33661" lon="-0.48194">
        <ele>3.1516</ele>
        <time>2011-02-20T13:38:23Z</time>
      </trkpt>
      <trkpt lat="46.33661" lon="-0.48195">
        <ele>3.153</ele>
        <time>2011-02-20T13:38:24Z</time>
      </trkpt>
      <trkpt lat="46.33661" lon="-0.48197">
        <ele>3.1533</ele>
        <time>2011-02-20T13:38:25Z</time>
      </trkpt>
      <trkpt lat="46.33661" lon="-0.48198">
        <ele>3.1537</ele>
        <time>2011-02-20T13:38:26Z</time>
      </trkpt>
      <trkpt lat="46.33661" lon="-0.48199">
        <ele>3.1542</ele>
        <time>2011-02-20T13:38:27Z</time>
      </trkpt>
      <trkpt lat="46.33662" lon="-0.482">
        <ele>3.1455</ele>
        <time>2011-02-20T13:38:28Z</time>
      </trkpt>
      <trkpt lat="46.33662" lon="-0.48202">
        <ele>3.1311</ele>
        <time>2011-02-20T13:38:29Z</time>
      </trkpt>
      <trkpt lat="46.33662" lon="-0.48204">
        <ele>3.1107</ele>
        <time>2011-02-20T13:38:30Z</time>
      </trkpt>
      <trkpt lat="46.33662" lon="-0.48206">
        <ele>3.0858</ele>
        <time>2011-02-20T13:38:31Z</time>
      </trkpt>
      <trkpt lat="46.33662" lon="-0.48207">
        <ele>3.0628</ele>
        <time>2011-02-20T13:38:32Z</time>
      </trkpt>
      <trkpt lat="46.33662" lon="-0.48209">
        <ele>3.034</ele>
        <time>2011-02-20T13:38:33Z</time>
      </trkpt>
      <trkpt lat="46.33662" lon="-0.48211">
        <ele>3.0086</ele>
        <time>2011-02-20T13:38:34Z</time>
      </trkpt>
      <trkpt lat="46.33662" lon="-0.48213">
        <ele>2.9929</ele>
        <time>2011-02-20T13:38:35Z</time>
      </trkpt>
      <trkpt lat="46.33662" lon="-0.48215">
        <ele>2.9787</ele>
        <time>2011-02-20T13:38:36Z</time>
      </trkpt>
      <trkpt lat="46.33662" lon="-0.48217">
        <ele>2.9665</ele>
        <time>2011-02-20T13:38:37Z</time>
      </trkpt>
      <trkpt lat="46.33662" lon="-0.48218">
        <ele>2.9564</ele>
        <time>2011-02-20T13:38:38Z</time>
      </trkpt>
      <trkpt lat="46.33662" lon="-0.4822">
        <ele>2.9371</ele>
        <time>2011-02-20T13:38:39Z</time>
      </trkpt>
      <trkpt lat="46.33662" lon="-0.48222">
        <ele>2.9129</ele>
        <time>2011-02-20T13:38:40Z</time>
      </trkpt>
      <trkpt lat="46.33662" lon="-0.48224">
        <ele>2.8962</ele>
        <time>2011-02-20T13:38:41Z</time>
      </trkpt>
      <trkpt lat="46.33662" lon="-0.48226">
        <ele>2.8731</ele>
        <time>2011-02-20T13:38:42Z</time>
      </trkpt>
      <trkpt lat="46.33662" lon="-0.48227">
        <ele>2.8523</ele>
        <time>2011-02-20T13:38:43Z</time>
      </trkpt>
      <trkpt lat="46.33662" lon="-0.48229">
        <ele>2.8341</ele>
        <time>2011-02-20T13:38:44Z</time>
      </trkpt>
      <trkpt lat="46.33662" lon="-0.4823">
        <ele>2.82</ele>
        <time>2011-02-20T13:38:45Z</time>
      </trkpt>
      <trkpt lat="46.33663" lon="-0.48231">
        <ele>2.8138</ele>
        <time>2011-02-20T13:38:46Z</time>
      </trkpt>
      <trkpt lat="46.33663" lon="-0.48233">
        <ele>2.8171</ele>
        <time>2011-02-20T13:38:47Z</time>
      </trkpt>
      <trkpt lat="46.33663" lon="-0.48234">
        <ele>2.8239</ele>
        <time>2011-02-20T13:38:48Z</time>
      </trkpt>
      <trkpt lat="46.33663" lon="-0.48235">
        <ele>2.8291</ele>
        <time>2011-02-20T13:38:49Z</time>
      </trkpt>
      <trkpt lat="46.33663" lon="-0.48236">
        <ele>2.8411</ele>
        <time>2011-02-20T13:38:50Z</time>
      </trkpt>
      <trkpt lat="46.33663" lon="-0.48238">
        <ele>2.8548</ele>
        <time>2011-02-20T13:38:51Z</time>
      </trkpt>
      <trkpt lat="46.33663" lon="-0.48239">
        <ele>2.8648</ele>
        <time>2011-02-20T13:38:52Z</time>
      </trkpt>
      <trkpt lat="46.33663" lon="-0.4824">
        <ele>2.8717</ele>
        <time>2011-02-20T13:38:53Z</time>
      </trkpt>
      <trkpt lat="46.33664" lon="-0.48243">
        <ele>2.8775</ele>
        <time>2011-02-20T13:38:57Z</time>
      </trkpt>
      <trkpt lat="46.33664" lon="-0.48245">
        <ele>2.8786</ele>
        <time>2011-02-20T13:38:58Z</time>
      </trkpt>
      <trkpt lat="46.33664" lon="-0.48246">
        <ele>2.8807</ele>
        <time>2011-02-20T13:38:59Z</time>
      </trkpt>
      <trkpt lat="46.33664" lon="-0.48248">
        <ele>2.8872</ele>
        <time>2011-02-20T13:39:00Z</time>
      </trkpt>
      <trkpt lat="46.33664" lon="-0.4825">
        <ele>2.892</ele>
        <time>2011-02-20T13:39:01Z</time>
      </trkpt>
      <trkpt lat="46.33664" lon="-0.48252">
        <ele>2.9018</ele>
        <time>2011-02-20T13:39:02Z</time>
      </trkpt>
      <trkpt lat="46.33664" lon="-0.48254">
        <ele>2.9091</ele>
        <time>2011-02-20T13:39:03Z</time>
      </trkpt>
      <trkpt lat="46.33664" lon="-0.48256">
        <ele>2.9207</ele>
        <time>2011-02-20T13:39:04Z</time>
      </trkpt>
      <trkpt lat="46.33664" lon="-0.48258">
        <ele>2.9389</ele>
        <time>2011-02-20T13:39:05Z</time>
      </trkpt>
      <trkpt lat="46.33664" lon="-0.4826">
        <ele>2.9621</ele>
        <time>2011-02-20T13:39:06Z</time>
      </trkpt>
      <trkpt lat="46.33664" lon="-0.48262">
        <ele>2.9904</ele>
        <time>2011-02-20T13:39:07Z</time>
      </trkpt>
      <trkpt lat="46.33664" lon="-0.48264">
        <ele>3.0254</ele>
        <time>2011-02-20T13:39:08Z</time>
      </trkpt>
      <trkpt lat="46.33663" lon="-0.4827">
        <ele>3.2384</ele>
        <time>2011-02-20T13:39:12Z</time>
      </trkpt>
      <trkpt lat="46.33663" lon="-0.48271">
        <ele>3.3017</ele>
        <time>2011-02-20T13:39:13Z</time>
      </trkpt>
      <trkpt lat="46.33663" lon="-0.48273">
        <ele>3.3691</ele>
        <time>2011-02-20T13:39:14Z</time>
      </trkpt>
      <trkpt lat="46.33663" lon="-0.48274">
        <ele>3.4409</ele>
        <time>2011-02-20T13:39:15Z</time>
      </trkpt>
      <trkpt lat="46.33663" lon="-0.48276">
        <ele>3.5132</ele>
        <time>2011-02-20T13:39:16Z</time>
      </trkpt>
      <trkpt lat="46.33663" lon="-0.48278">
        <ele>3.5798</ele>
        <time>2011-02-20T13:39:17Z</time>
      </trkpt>
      <trkpt lat="46.33663" lon="-0.4828">
        <ele>3.641</ele>
        <time>2011-02-20T13:39:18Z</time>
      </trkpt>
      <trkpt lat="46.33662" lon="-0.48282">
        <ele>3.6923</ele>
        <time>2011-02-20T13:39:19Z</time>
      </trkpt>
      <trkpt lat="46.33662" lon="-0.48285">
        <ele>3.7502</ele>
        <time>2011-02-20T13:39:20Z</time>
      </trkpt>
      <trkpt lat="46.33662" lon="-0.48287">
        <ele>3.8025</ele>
        <time>2011-02-20T13:39:21Z</time>
      </trkpt>
      <trkpt lat="46.33662" lon="-0.48289">
        <ele>3.8488</ele>
        <time>2011-02-20T13:39:22Z</time>
      </trkpt>
      <trkpt lat="46.33661" lon="-0.48291">
        <ele>3.8926</ele>
        <time>2011-02-20T13:39:23Z</time>
      </trkpt>
      <trkpt lat="46.33661" lon="-0.48293">
        <ele>3.9324</ele>
        <time>2011-02-20T13:39:24Z</time>
      </trkpt>
      <trkpt lat="46.33661" lon="-0.48295">
        <ele>3.9761</ele>
        <time>2011-02-20T13:39:25Z</time>
      </trkpt>
      <trkpt lat="46.3366" lon="-0.48297">
        <ele>4.0191</ele>
        <time>2011-02-20T13:39:26Z</time>
      </trkpt>
      <trkpt lat="46.3366" lon="-0.48299">
        <ele>4.0613</ele>
        <time>2011-02-20T13:39:27Z</time>
      </trkpt>
      <trkpt lat="46.3366" lon="-0.48302">
        <ele>4.1122</ele>
        <time>2011-02-20T13:39:28Z</time>
      </trkpt>
      <trkpt lat="46.3366" lon="-0.48304">
        <ele>4.1639</ele>
        <time>2011-02-20T13:39:29Z</time>
      </trkpt>
      <trkpt lat="46.3366" lon="-0.48305">
        <ele>4.2185</ele>
        <time>2011-02-20T13:39:30Z</time>
      </trkpt>
      <trkpt lat="46.3366" lon="-0.48307">
        <ele>4.2708</ele>
        <time>2011-02-20T13:39:31Z</time>
      </trkpt>
      <trkpt lat="46.33659" lon="-0.48309">
        <ele>4.3217</ele>
        <time>2011-02-20T13:39:32Z</time>
      </trkpt>
      <trkpt lat="46.33659" lon="-0.48311">
        <ele>4.3673</ele>
        <time>2011-02-20T13:39:33Z</time>
      </trkpt>
      <trkpt lat="46.33659" lon="-0.48312">
        <ele>4.4116</ele>
        <time>2011-02-20T13:39:34Z</time>
      </trkpt>
      <trkpt lat="46.33658" lon="-0.48314">
        <ele>4.4625</ele>
        <time>2011-02-20T13:39:35Z</time>
      </trkpt>
      <trkpt lat="46.33658" lon="-0.48316">
        <ele>4.5066</ele>
        <time>2011-02-20T13:39:36Z</time>
      </trkpt>
      <trkpt lat="46.33658" lon="-0.48317">
        <ele>4.551</ele>
        <time>2011-02-20T13:39:37Z</time>
      </trkpt>
      <trkpt lat="46.33658" lon="-0.48324">
        <ele>4.8133</ele>
        <time>2011-02-20T13:39:43Z</time>
      </trkpt>
      <trkpt lat="46.33658" lon="-0.48325">
        <ele>4.862</ele>
        <time>2011-02-20T13:39:44Z</time>
      </trkpt>
      <trkpt lat="46.33657" lon="-0.48326">
        <ele>4.911</ele>
        <time>2011-02-20T13:39:45Z</time>
      </trkpt>
      <trkpt lat="46.33657" lon="-0.48327">
        <ele>4.9602</ele>
        <time>2011-02-20T13:39:46Z</time>
      </trkpt>
      <trkpt lat="46.33657" lon="-0.48329">
        <ele>5.0138</ele>
        <time>2011-02-20T13:39:47Z</time>
      </trkpt>
      <trkpt lat="46.33657" lon="-0.48331">
        <ele>5.0621</ele>
        <time>2011-02-20T13:39:48Z</time>
      </trkpt>
      <trkpt lat="46.33657" lon="-0.48332">
        <ele>5.1112</ele>
        <time>2011-02-20T13:39:49Z</time>
      </trkpt>
      <trkpt lat="46.33657" lon="-0.48334">
        <ele>5.1607</ele>
        <time>2011-02-20T13:39:50Z</time>
      </trkpt>
      <trkpt lat="46.33657" lon="-0.48335">
        <ele>5.2093</ele>
        <time>2011-02-20T13:39:51Z</time>
      </trkpt>
      <trkpt lat="46.33657" lon="-0.48337">
        <ele>5.2597</ele>
        <time>2011-02-20T13:39:52Z</time>
      </trkpt>
      <trkpt lat="46.33657" lon="-0.48339">
        <ele>5.3088</ele>
        <time>2011-02-20T13:39:53Z</time>
      </trkpt>
      <trkpt lat="46.33658" lon="-0.4834">
        <ele>5.3552</ele>
        <time>2011-02-20T13:39:54Z</time>
      </trkpt>
      <trkpt lat="46.33658" lon="-0.48342">
        <ele>5.3967</ele>
        <time>2011-02-20T13:39:55Z</time>
      </trkpt>
      <trkpt lat="46.33658" lon="-0.48344">
        <ele>5.4338</ele>
        <time>2011-02-20T13:39:56Z</time>
      </trkpt>
      <trkpt lat="46.33658" lon="-0.48346">
        <ele>5.4729</ele>
        <time>2011-02-20T13:39:57Z</time>
      </trkpt>
      <trkpt lat="46.33658" lon="-0.48347">
        <ele>5.5139</ele>
        <time>2011-02-20T13:39:58Z</time>
      </trkpt>
      <trkpt lat="46.33657" lon="-0.48349">
        <ele>5.5558</ele>
        <time>2011-02-20T13:39:59Z</time>
      </trkpt>
      <trkpt lat="46.33657" lon="-0.48351">
        <ele>5.5975</ele>
        <time>2011-02-20T13:40:00Z</time>
      </trkpt>
      <trkpt lat="46.33657" lon="-0.48352">
        <ele>5.6377</ele>
        <time>2011-02-20T13:40:01Z</time>
      </trkpt>
      <trkpt lat="46.33656" lon="-0.48354">
        <ele>5.676</ele>
        <time>2011-02-20T13:40:02Z</time>
      </trkpt>
      <trkpt lat="46.33656" lon="-0.48356">
        <ele>5.7108</ele>
        <time>2011-02-20T13:40:03Z</time>
      </trkpt>
      <trkpt lat="46.33656" lon="-0.48358">
        <ele>5.7397</ele>
        <time>2011-02-20T13:40:04Z</time>
      </trkpt>
      <trkpt lat="46.33656" lon="-0.4836">
        <ele>5.7659</ele>
        <time>2011-02-20T13:40:05Z</time>
      </trkpt>
      <trkpt lat="46.33656" lon="-0.48366">
        <ele>5.8611</ele>
        <time>2011-02-20T13:40:10Z</time>
      </trkpt>
      <trkpt lat="46.33656" lon="-0.48367">
        <ele>5.8766</ele>
        <time>2011-02-20T13:40:11Z</time>
      </trkpt>
      <trkpt lat="46.33655" lon="-0.48369">
        <ele>5.8929</ele>
        <time>2011-02-20T13:40:12Z</time>
      </trkpt>
      <trkpt lat="46.33655" lon="-0.4837">
        <ele>5.9095</ele>
        <time>2011-02-20T13:40:13Z</time>
      </trkpt>
      <trkpt lat="46.33655" lon="-0.48372">
        <ele>5.9263</ele>
        <time>2011-02-20T13:40:14Z</time>
      </trkpt>
      <trkpt lat="46.33656" lon="-0.48373">
        <ele>5.9431</ele>
        <time>2011-02-20T13:40:15Z</time>
      </trkpt>
      <trkpt lat="46.33656" lon="-0.48375">
        <ele>5.9603</ele>
        <time>2011-02-20T13:40:16Z</time>
      </trkpt>
      <trkpt lat="46.33656" lon="-0.48376">
        <ele>5.9713</ele>
        <time>2011-02-20T13:40:17Z</time>
      </trkpt>
      <trkpt lat="46.33656" lon="-0.48378">
        <ele>5.9756</ele>
        <time>2011-02-20T13:40:18Z</time>
      </trkpt>
      <trkpt lat="46.33656" lon="-0.48379">
        <ele>5.9744</ele>
        <time>2011-02-20T13:40:19Z</time>
      </trkpt>
      <trkpt lat="46.33656" lon="-0.4838">
        <ele>5.9696</ele>
        <time>2011-02-20T13:40:20Z</time>
      </trkpt>
      <trkpt lat="46.33656" lon="-0.48382">
        <ele>5.9613</ele>
        <time>2011-02-20T13:40:21Z</time>
      </trkpt>
      <trkpt lat="46.33656" lon="-0.48383">
        <ele>5.9533</ele>
        <time>2011-02-20T13:40:22Z</time>
      </trkpt>
      <trkpt lat="46.33655" lon="-0.48385">
        <ele>5.9467</ele>
        <time>2011-02-20T13:40:23Z</time>
      </trkpt>
      <trkpt lat="46.33655" lon="-0.48387">
        <ele>5.9389</ele>
        <time>2011-02-20T13:40:24Z</time>
      </trkpt>
      <trkpt lat="46.33655" lon="-0.48388">
        <ele>5.9313</ele>
        <time>2011-02-20T13:40:25Z</time>
      </trkpt>
      <trkpt lat="46.33655" lon="-0.48389">
        <ele>5.9244</ele>
        <time>2011-02-20T13:40:26Z</time>
      </trkpt>
      <trkpt lat="46.33655" lon="-0.48391">
        <ele>5.9185</ele>
        <time>2011-02-20T13:40:27Z</time>
      </trkpt>
      <trkpt lat="46.33655" lon="-0.48392">
        <ele>5.9132</ele>
        <time>2011-02-20T13:40:28Z</time>
      </trkpt>
      <trkpt lat="46.33655" lon="-0.48393">
        <ele>5.9073</ele>
        <time>2011-02-20T13:40:29Z</time>
      </trkpt>
      <trkpt lat="46.33656" lon="-0.48395">
        <ele>5.9005</ele>
        <time>2011-02-20T13:40:30Z</time>
      </trkpt>
      <trkpt lat="46.33655" lon="-0.48396">
        <ele>5.8946</ele>
        <time>2011-02-20T13:40:31Z</time>
      </trkpt>
      <trkpt lat="46.33656" lon="-0.48397">
        <ele>5.8898</ele>
        <time>2011-02-20T13:40:32Z</time>
      </trkpt>
      <trkpt lat="46.33656" lon="-0.48399">
        <ele>5.8858</ele>
        <time>2011-02-20T13:40:33Z</time>
      </trkpt>
      <trkpt lat="46.33656" lon="-0.484">
        <ele>5.8803</ele>
        <time>2011-02-20T13:40:34Z</time>
      </trkpt>
      <trkpt lat="46.33656" lon="-0.48402">
        <ele>5.8753</ele>
        <time>2011-02-20T13:40:35Z</time>
      </trkpt>
      <trkpt lat="46.33656" lon="-0.48403">
        <ele>5.8693</ele>
        <time>2011-02-20T13:40:36Z</time>
      </trkpt>
      <trkpt lat="46.33656" lon="-0.48405">
        <ele>5.856</ele>
        <time>2011-02-20T13:40:37Z</time>
      </trkpt>
      <trkpt lat="46.33656" lon="-0.48407">
        <ele>5.8247</ele>
        <time>2011-02-20T13:40:38Z</time>
      </trkpt>
      <trkpt lat="46.33656" lon="-0.48409">
        <ele>5.7853</ele>
        <time>2011-02-20T13:40:39Z</time>
      </trkpt>
      <trkpt lat="46.33656" lon="-0.48411">
        <ele>5.7435</ele>
        <time>2011-02-20T13:40:40Z</time>
      </trkpt>
      <trkpt lat="46.33656" lon="-0.48413">
        <ele>5.6978</ele>
        <time>2011-02-20T13:40:41Z</time>
      </trkpt>
      <trkpt lat="46.33656" lon="-0.48415">
        <ele>5.6426</ele>
        <time>2011-02-20T13:40:42Z</time>
      </trkpt>
      <trkpt lat="46.33656" lon="-0.48417">
        <ele>5.5872</ele>
        <time>2011-02-20T13:40:43Z</time>
      </trkpt>
      <trkpt lat="46.33655" lon="-0.48419">
        <ele>5.5327</ele>
        <time>2011-02-20T13:40:44Z</time>
      </trkpt>
      <trkpt lat="46.33655" lon="-0.48421">
        <ele>5.4759</ele>
        <time>2011-02-20T13:40:45Z</time>
      </trkpt>
      <trkpt lat="46.33654" lon="-0.48422">
        <ele>5.4214</ele>
        <time>2011-02-20T13:40:46Z</time>
      </trkpt>
      <trkpt lat="46.33654" lon="-0.48424">
        <ele>5.369</ele>
        <time>2011-02-20T13:40:47Z</time>
      </trkpt>
      <trkpt lat="46.33654" lon="-0.48426">
        <ele>5.3177</ele>
        <time>2011-02-20T13:40:48Z</time>
      </trkpt>
      <trkpt lat="46.33654" lon="-0.48427">
        <ele>5.2679</ele>
        <time>2011-02-20T13:40:49Z</time>
      </trkpt>
      <trkpt lat="46.33653" lon="-0.48429">
        <ele>5.2186</ele>
        <time>2011-02-20T13:40:50Z</time>
      </trkpt>
      <trkpt lat="46.33653" lon="-0.48431">
        <ele>5.1748</ele>
        <time>2011-02-20T13:40:51Z</time>
      </trkpt>
      <trkpt lat="46.33653" lon="-0.48432">
        <ele>5.1311</ele>
        <time>2011-02-20T13:40:52Z</time>
      </trkpt>
      <trkpt lat="46.33653" lon="-0.48434">
        <ele>5.0924</ele>
        <time>2011-02-20T13:40:53Z</time>
      </trkpt>
      <trkpt lat="46.33653" lon="-0.48435">
        <ele>5.0596</ele>
        <time>2011-02-20T13:40:54Z</time>
      </trkpt>
      <trkpt lat="46.33653" lon="-0.48436">
        <ele>5.0244</ele>
        <time>2011-02-20T13:40:55Z</time>
      </trkpt>
      <trkpt lat="46.33653" lon="-0.48443">
        <ele>4.8403</ele>
        <time>2011-02-20T13:41:00Z</time>
      </trkpt>
      <trkpt lat="46.33653" lon="-0.48451">
        <ele>4.68</ele>
        <time>2011-02-20T13:41:04Z</time>
      </trkpt>
      <trkpt lat="46.33652" lon="-0.48452">
        <ele>4.6439</ele>
        <time>2011-02-20T13:41:05Z</time>
      </trkpt>
      <trkpt lat="46.33652" lon="-0.48453">
        <ele>4.6099</ele>
        <time>2011-02-20T13:41:06Z</time>
      </trkpt>
      <trkpt lat="46.33652" lon="-0.48455">
        <ele>4.5808</ele>
        <time>2011-02-20T13:41:07Z</time>
      </trkpt>
      <trkpt lat="46.33651" lon="-0.48457">
        <ele>4.5293</ele>
        <time>2011-02-20T13:41:09Z</time>
      </trkpt>
      <trkpt lat="46.33651" lon="-0.48458">
        <ele>4.5058</ele>
        <time>2011-02-20T13:41:10Z</time>
      </trkpt>
      <trkpt lat="46.33651" lon="-0.48459">
        <ele>4.4798</ele>
        <time>2011-02-20T13:41:11Z</time>
      </trkpt>
      <trkpt lat="46.33651" lon="-0.4846">
        <ele>4.4567</ele>
        <time>2011-02-20T13:41:12Z</time>
      </trkpt>
      <trkpt lat="46.3365" lon="-0.48461">
        <ele>4.4402</ele>
        <time>2011-02-20T13:41:13Z</time>
      </trkpt>
      <trkpt lat="46.3365" lon="-0.48462">
        <ele>4.4314</ele>
        <time>2011-02-20T13:41:14Z</time>
      </trkpt>
      <trkpt lat="46.3365" lon="-0.48464">
        <ele>4.4299</ele>
        <time>2011-02-20T13:41:15Z</time>
      </trkpt>
      <trkpt lat="46.3365" lon="-0.48465">
        <ele>4.4335</ele>
        <time>2011-02-20T13:41:16Z</time>
      </trkpt>
      <trkpt lat="46.33649" lon="-0.48468">
        <ele>4.44</ele>
        <time>2011-02-20T13:41:18Z</time>
      </trkpt>
      <trkpt lat="46.33649" lon="-0.48469">
        <ele>4.4375</ele>
        <time>2011-02-20T13:41:19Z</time>
      </trkpt>
      <trkpt lat="46.33649" lon="-0.48471">
        <ele>4.4295</ele>
        <time>2011-02-20T13:41:20Z</time>
      </trkpt>
      <trkpt lat="46.33649" lon="-0.48472">
        <ele>4.4162</ele>
        <time>2011-02-20T13:41:21Z</time>
      </trkpt>
      <trkpt lat="46.33649" lon="-0.48474">
        <ele>4.4079</ele>
        <time>2011-02-20T13:41:22Z</time>
      </trkpt>
      <trkpt lat="46.33649" lon="-0.48475">
        <ele>4.4027</ele>
        <time>2011-02-20T13:41:23Z</time>
      </trkpt>
      <trkpt lat="46.33649" lon="-0.48477">
        <ele>4.3999</ele>
        <time>2011-02-20T13:41:24Z</time>
      </trkpt>
      <trkpt lat="46.33649" lon="-0.48478">
        <ele>4.3988</ele>
        <time>2011-02-20T13:41:25Z</time>
      </trkpt>
      <trkpt lat="46.33649" lon="-0.48479">
        <ele>4.3985</ele>
        <time>2011-02-20T13:41:26Z</time>
      </trkpt>
      <trkpt lat="46.33649" lon="-0.48481">
        <ele>4.398</ele>
        <time>2011-02-20T13:41:27Z</time>
      </trkpt>
      <trkpt lat="46.33649" lon="-0.48482">
        <ele>4.3973</ele>
        <time>2011-02-20T13:41:28Z</time>
      </trkpt>
      <trkpt lat="46.33649" lon="-0.48484">
        <ele>4.3948</ele>
        <time>2011-02-20T13:41:29Z</time>
      </trkpt>
      <trkpt lat="46.33648" lon="-0.48485">
        <ele>4.3862</ele>
        <time>2011-02-20T13:41:30Z</time>
      </trkpt>
      <trkpt lat="46.33648" lon="-0.48487">
        <ele>4.3693</ele>
        <time>2011-02-20T13:41:31Z</time>
      </trkpt>
      <trkpt lat="46.33648" lon="-0.4849">
        <ele>4.3462</ele>
        <time>2011-02-20T13:41:32Z</time>
      </trkpt>
      <trkpt lat="46.33648" lon="-0.48492">
        <ele>4.3193</ele>
        <time>2011-02-20T13:41:33Z</time>
      </trkpt>
      <trkpt lat="46.33647" lon="-0.48494">
        <ele>4.2905</ele>
        <time>2011-02-20T13:41:34Z</time>
      </trkpt>
      <trkpt lat="46.33647" lon="-0.48497">
        <ele>4.261</ele>
        <time>2011-02-20T13:41:35Z</time>
      </trkpt>
      <trkpt lat="46.33647" lon="-0.48499">
        <ele>4.2313</ele>
        <time>2011-02-20T13:41:36Z</time>
      </trkpt>
      <trkpt lat="46.33646" lon="-0.48501">
        <ele>4.2001</ele>
        <time>2011-02-20T13:41:37Z</time>
      </trkpt>
      <trkpt lat="46.33646" lon="-0.48504">
        <ele>4.1376</ele>
        <time>2011-02-20T13:41:39Z</time>
      </trkpt>
      <trkpt lat="46.33646" lon="-0.48506">
        <ele>4.105</ele>
        <time>2011-02-20T13:41:40Z</time>
      </trkpt>
      <trkpt lat="46.33646" lon="-0.48507">
        <ele>4.0731</ele>
        <time>2011-02-20T13:41:41Z</time>
      </trkpt>
      <trkpt lat="46.33645" lon="-0.48508">
        <ele>4.04</ele>
        <time>2011-02-20T13:41:42Z</time>
      </trkpt>
      <trkpt lat="46.33646" lon="-0.48509">
        <ele>4.009</ele>
        <time>2011-02-20T13:41:43Z</time>
      </trkpt>
      <trkpt lat="46.33646" lon="-0.48511">
        <ele>3.9778</ele>
        <time>2011-02-20T13:41:44Z</time>
      </trkpt>
      <trkpt lat="46.33646" lon="-0.48512">
        <ele>3.9461</ele>
        <time>2011-02-20T13:41:45Z</time>
      </trkpt>
      <trkpt lat="46.33646" lon="-0.48513">
        <ele>3.9155</ele>
        <time>2011-02-20T13:41:46Z</time>
      </trkpt>
      <trkpt lat="46.33647" lon="-0.48516">
        <ele>3.8159</ele>
        <time>2011-02-20T13:41:51Z</time>
      </trkpt>
      <trkpt lat="46.33647" lon="-0.48518">
        <ele>3.7851</ele>
        <time>2011-02-20T13:41:52Z</time>
      </trkpt>
      <trkpt lat="46.33647" lon="-0.48519">
        <ele>3.7559</ele>
        <time>2011-02-20T13:41:53Z</time>
      </trkpt>
      <trkpt lat="46.33646" lon="-0.4852">
        <ele>3.73</ele>
        <time>2011-02-20T13:41:54Z</time>
      </trkpt>
      <trkpt lat="46.33646" lon="-0.48522">
        <ele>3.7083</ele>
        <time>2011-02-20T13:41:55Z</time>
      </trkpt>
      <trkpt lat="46.33646" lon="-0.48523">
        <ele>3.6903</ele>
        <time>2011-02-20T13:41:56Z</time>
      </trkpt>
      <trkpt lat="46.33646" lon="-0.48525">
        <ele>3.6757</ele>
        <time>2011-02-20T13:41:57Z</time>
      </trkpt>
      <trkpt lat="46.33645" lon="-0.48526">
        <ele>3.6649</ele>
        <time>2011-02-20T13:41:58Z</time>
      </trkpt>
      <trkpt lat="46.33645" lon="-0.48528">
        <ele>3.6547</ele>
        <time>2011-02-20T13:41:59Z</time>
      </trkpt>
      <trkpt lat="46.33645" lon="-0.48529">
        <ele>3.6442</ele>
        <time>2011-02-20T13:42:00Z</time>
      </trkpt>
      <trkpt lat="46.33643" lon="-0.48535">
        <ele>3.6039</ele>
        <time>2011-02-20T13:42:05Z</time>
      </trkpt>
      <trkpt lat="46.33643" lon="-0.48537">
        <ele>3.581</ele>
        <time>2011-02-20T13:42:06Z</time>
      </trkpt>
      <trkpt lat="46.33643" lon="-0.48538">
        <ele>3.5601</ele>
        <time>2011-02-20T13:42:07Z</time>
      </trkpt>
      <trkpt lat="46.33643" lon="-0.4854">
        <ele>3.5411</ele>
        <time>2011-02-20T13:42:08Z</time>
      </trkpt>
      <trkpt lat="46.33643" lon="-0.48542">
        <ele>3.519</ele>
        <time>2011-02-20T13:42:09Z</time>
      </trkpt>
      <trkpt lat="46.33643" lon="-0.48543">
        <ele>3.496</ele>
        <time>2011-02-20T13:42:10Z</time>
      </trkpt>
      <trkpt lat="46.33643" lon="-0.48545">
        <ele>3.4719</ele>
        <time>2011-02-20T13:42:11Z</time>
      </trkpt>
      <trkpt lat="46.33642" lon="-0.48546">
        <ele>3.4448</ele>
        <time>2011-02-20T13:42:12Z</time>
      </trkpt>
      <trkpt lat="46.33642" lon="-0.48548">
        <ele>3.4177</ele>
        <time>2011-02-20T13:42:13Z</time>
      </trkpt>
      <trkpt lat="46.33642" lon="-0.4855">
        <ele>3.3958</ele>
        <time>2011-02-20T13:42:14Z</time>
      </trkpt>
      <trkpt lat="46.33642" lon="-0.48551">
        <ele>3.3789</ele>
        <time>2011-02-20T13:42:15Z</time>
      </trkpt>
      <trkpt lat="46.33641" lon="-0.48553">
        <ele>3.3654</ele>
        <time>2011-02-20T13:42:16Z</time>
      </trkpt>
      <trkpt lat="46.33641" lon="-0.48555">
        <ele>3.3536</ele>
        <time>2011-02-20T13:42:17Z</time>
      </trkpt>
      <trkpt lat="46.33641" lon="-0.48556">
        <ele>3.342</ele>
        <time>2011-02-20T13:42:18Z</time>
      </trkpt>
      <trkpt lat="46.3364" lon="-0.48558">
        <ele>3.3322</ele>
        <time>2011-02-20T13:42:19Z</time>
      </trkpt>
      <trkpt lat="46.3364" lon="-0.4856">
        <ele>3.3232</ele>
        <time>2011-02-20T13:42:20Z</time>
      </trkpt>
      <trkpt lat="46.3364" lon="-0.48562">
        <ele>3.3153</ele>
        <time>2011-02-20T13:42:21Z</time>
      </trkpt>
      <trkpt lat="46.3364" lon="-0.48564">
        <ele>3.309</ele>
        <time>2011-02-20T13:42:22Z</time>
      </trkpt>
      <trkpt lat="46.33639" lon="-0.48566">
        <ele>3.3034</ele>
        <time>2011-02-20T13:42:23Z</time>
      </trkpt>
      <trkpt lat="46.33639" lon="-0.48567">
        <ele>3.2984</ele>
        <time>2011-02-20T13:42:24Z</time>
      </trkpt>
      <trkpt lat="46.33639" lon="-0.4857">
        <ele>3.2866</ele>
        <time>2011-02-20T13:42:26Z</time>
      </trkpt>
      <trkpt lat="46.33638" lon="-0.48571">
        <ele>3.2742</ele>
        <time>2011-02-20T13:42:27Z</time>
      </trkpt>
      <trkpt lat="46.33638" lon="-0.48575">
        <ele>3.2598</ele>
        <time>2011-02-20T13:42:28Z</time>
      </trkpt>
      <trkpt lat="46.33638" lon="-0.48577">
        <ele>3.2432</ele>
        <time>2011-02-20T13:42:29Z</time>
      </trkpt>
      <trkpt lat="46.33638" lon="-0.48578">
        <ele>3.2266</ele>
        <time>2011-02-20T13:42:30Z</time>
      </trkpt>
      <trkpt lat="46.33637" lon="-0.48582">
        <ele>3.1608</ele>
        <time>2011-02-20T13:42:34Z</time>
      </trkpt>
      <trkpt lat="46.33637" lon="-0.48583">
        <ele>3.1417</ele>
        <time>2011-02-20T13:42:35Z</time>
      </trkpt>
      <trkpt lat="46.33637" lon="-0.48584">
        <ele>3.1241</ele>
        <time>2011-02-20T13:42:36Z</time>
      </trkpt>
      <trkpt lat="46.33637" lon="-0.48585">
        <ele>3.1056</ele>
        <time>2011-02-20T13:42:37Z</time>
      </trkpt>
      <trkpt lat="46.33637" lon="-0.48586">
        <ele>3.0864</ele>
        <time>2011-02-20T13:42:38Z</time>
      </trkpt>
      <trkpt lat="46.33636" lon="-0.48587">
        <ele>3.0684</ele>
        <time>2011-02-20T13:42:39Z</time>
      </trkpt>
      <trkpt lat="46.33636" lon="-0.48588">
        <ele>3.0516</ele>
        <time>2011-02-20T13:42:40Z</time>
      </trkpt>
      <trkpt lat="46.33636" lon="-0.48589">
        <ele>3.0356</ele>
        <time>2011-02-20T13:42:41Z</time>
      </trkpt>
      <trkpt lat="46.33636" lon="-0.4859">
        <ele>3.0202</ele>
        <time>2011-02-20T13:42:42Z</time>
      </trkpt>
      <trkpt lat="46.33636" lon="-0.48591">
        <ele>3.005</ele>
        <time>2011-02-20T13:42:43Z</time>
      </trkpt>
      <trkpt lat="46.33636" lon="-0.48593">
        <ele>2.9882</ele>
        <time>2011-02-20T13:42:44Z</time>
      </trkpt>
      <trkpt lat="46.33636" lon="-0.48594">
        <ele>2.9724</ele>
        <time>2011-02-20T13:42:45Z</time>
      </trkpt>
      <trkpt lat="46.33635" lon="-0.48595">
        <ele>2.9605</ele>
        <time>2011-02-20T13:42:46Z</time>
      </trkpt>
      <trkpt lat="46.33635" lon="-0.48596">
        <ele>2.9513</ele>
        <time>2011-02-20T13:42:47Z</time>
      </trkpt>
      <trkpt lat="46.33635" lon="-0.48597">
        <ele>2.9375</ele>
        <time>2011-02-20T13:42:48Z</time>
      </trkpt>
      <trkpt lat="46.33635" lon="-0.48598">
        <ele>2.9227</ele>
        <time>2011-02-20T13:42:49Z</time>
      </trkpt>
      <trkpt lat="46.33635" lon="-0.486">
        <ele>2.9072</ele>
        <time>2011-02-20T13:42:50Z</time>
      </trkpt>
      <trkpt lat="46.33635" lon="-0.486">
        <ele>2.8928</ele>
        <time>2011-02-20T13:42:51Z</time>
      </trkpt>
      <trkpt lat="46.33635" lon="-0.48601">
        <ele>2.881</ele>
        <time>2011-02-20T13:42:52Z</time>
      </trkpt>
      <trkpt lat="46.33635" lon="-0.48602">
        <ele>2.8743</ele>
        <time>2011-02-20T13:42:53Z</time>
      </trkpt>
      <trkpt lat="46.33635" lon="-0.48603">
        <ele>2.8683</ele>
        <time>2011-02-20T13:42:54Z</time>
      </trkpt>
      <trkpt lat="46.33635" lon="-0.48604">
        <ele>2.8587</ele>
        <time>2011-02-20T13:42:55Z</time>
      </trkpt>
      <trkpt lat="46.33635" lon="-0.48606">
        <ele>2.8509</ele>
        <time>2011-02-20T13:42:56Z</time>
      </trkpt>
      <trkpt lat="46.33635" lon="-0.48607">
        <ele>2.8581</ele>
        <time>2011-02-20T13:42:57Z</time>
      </trkpt>
      <trkpt lat="46.33636" lon="-0.48609">
        <ele>2.8709</ele>
        <time>2011-02-20T13:42:58Z</time>
      </trkpt>
      <trkpt lat="46.33637" lon="-0.48611">
        <ele>2.8841</ele>
        <time>2011-02-20T13:42:59Z</time>
      </trkpt>
      <trkpt lat="46.33637" lon="-0.48612">
        <ele>2.8945</ele>
        <time>2011-02-20T13:43:00Z</time>
      </trkpt>
      <trkpt lat="46.33637" lon="-0.48613">
        <ele>2.9075</ele>
        <time>2011-02-20T13:43:01Z</time>
      </trkpt>
      <trkpt lat="46.33637" lon="-0.48615">
        <ele>2.9227</ele>
        <time>2011-02-20T13:43:02Z</time>
      </trkpt>
      <trkpt lat="46.33637" lon="-0.48616">
        <ele>2.9398</ele>
        <time>2011-02-20T13:43:03Z</time>
      </trkpt>
      <trkpt lat="46.33637" lon="-0.48617">
        <ele>2.9611</ele>
        <time>2011-02-20T13:43:04Z</time>
      </trkpt>
      <trkpt lat="46.33638" lon="-0.48619">
        <ele>2.9808</ele>
        <time>2011-02-20T13:43:05Z</time>
      </trkpt>
      <trkpt lat="46.33638" lon="-0.48621">
        <ele>2.9947</ele>
        <time>2011-02-20T13:43:06Z</time>
      </trkpt>
      <trkpt lat="46.33638" lon="-0.48622">
        <ele>3.01</ele>
        <time>2011-02-20T13:43:07Z</time>
      </trkpt>
      <trkpt lat="46.33638" lon="-0.48623">
        <ele>3.0257</ele>
        <time>2011-02-20T13:43:08Z</time>
      </trkpt>
      <trkpt lat="46.33637" lon="-0.48624">
        <ele>3.0427</ele>
        <time>2011-02-20T13:43:09Z</time>
      </trkpt>
      <trkpt lat="46.33637" lon="-0.48625">
        <ele>3.0603</ele>
        <time>2011-02-20T13:43:10Z</time>
      </trkpt>
      <trkpt lat="46.33637" lon="-0.48627">
        <ele>3.079</ele>
        <time>2011-02-20T13:43:11Z</time>
      </trkpt>
      <trkpt lat="46.33637" lon="-0.48628">
        <ele>3.1001</ele>
        <time>2011-02-20T13:43:12Z</time>
      </trkpt>
      <trkpt lat="46.33637" lon="-0.48629">
        <ele>3.1223</ele>
        <time>2011-02-20T13:43:13Z</time>
      </trkpt>
      <trkpt lat="46.33637" lon="-0.48632">
        <ele>3.1418</ele>
        <time>2011-02-20T13:43:14Z</time>
      </trkpt>
      <trkpt lat="46.33637" lon="-0.48634">
        <ele>3.1627</ele>
        <time>2011-02-20T13:43:15Z</time>
      </trkpt>
      <trkpt lat="46.33637" lon="-0.48635">
        <ele>3.1869</ele>
        <time>2011-02-20T13:43:16Z</time>
      </trkpt>
      <trkpt lat="46.33637" lon="-0.48637">
        <ele>3.2101</ele>
        <time>2011-02-20T13:43:17Z</time>
      </trkpt>
      <trkpt lat="46.33636" lon="-0.48639">
        <ele>3.2339</ele>
        <time>2011-02-20T13:43:18Z</time>
      </trkpt>
      <trkpt lat="46.33636" lon="-0.4864">
        <ele>3.2565</ele>
        <time>2011-02-20T13:43:19Z</time>
      </trkpt>
      <trkpt lat="46.33635" lon="-0.48642">
        <ele>3.279</ele>
        <time>2011-02-20T13:43:20Z</time>
      </trkpt>
      <trkpt lat="46.33635" lon="-0.48643">
        <ele>3.3027</ele>
        <time>2011-02-20T13:43:21Z</time>
      </trkpt>
      <trkpt lat="46.33635" lon="-0.48645">
        <ele>3.3238</ele>
        <time>2011-02-20T13:43:22Z</time>
      </trkpt>
      <trkpt lat="46.33635" lon="-0.48647">
        <ele>3.3422</ele>
        <time>2011-02-20T13:43:23Z</time>
      </trkpt>
      <trkpt lat="46.33634" lon="-0.48649">
        <ele>3.3618</ele>
        <time>2011-02-20T13:43:24Z</time>
      </trkpt>
      <trkpt lat="46.33634" lon="-0.48651">
        <ele>3.3824</ele>
        <time>2011-02-20T13:43:25Z</time>
      </trkpt>
      <trkpt lat="46.33634" lon="-0.48653">
        <ele>3.4042</ele>
        <time>2011-02-20T13:43:26Z</time>
      </trkpt>
      <trkpt lat="46.33633" lon="-0.48654">
        <ele>3.4261</ele>
        <time>2011-02-20T13:43:27Z</time>
      </trkpt>
      <trkpt lat="46.33633" lon="-0.48656">
        <ele>3.448</ele>
        <time>2011-02-20T13:43:28Z</time>
      </trkpt>
      <trkpt lat="46.33633" lon="-0.48658">
        <ele>3.4569</ele>
        <time>2011-02-20T13:43:29Z</time>
      </trkpt>
      <trkpt lat="46.33632" lon="-0.4866">
        <ele>3.4627</ele>
        <time>2011-02-20T13:43:30Z</time>
      </trkpt>
      <trkpt lat="46.33632" lon="-0.48663">
        <ele>3.4666</ele>
        <time>2011-02-20T13:43:31Z</time>
      </trkpt>
      <trkpt lat="46.33632" lon="-0.48665">
        <ele>3.4704</ele>
        <time>2011-02-20T13:43:32Z</time>
      </trkpt>
      <trkpt lat="46.33631" lon="-0.48667">
        <ele>3.4759</ele>
        <time>2011-02-20T13:43:33Z</time>
      </trkpt>
      <trkpt lat="46.33631" lon="-0.48669">
        <ele>3.4787</ele>
        <time>2011-02-20T13:43:34Z</time>
      </trkpt>
      <trkpt lat="46.3363" lon="-0.48671">
        <ele>3.4808</ele>
        <time>2011-02-20T13:43:35Z</time>
      </trkpt>
      <trkpt lat="46.3363" lon="-0.48673">
        <ele>3.4855</ele>
        <time>2011-02-20T13:43:36Z</time>
      </trkpt>
      <trkpt lat="46.3363" lon="-0.48674">
        <ele>3.4921</ele>
        <time>2011-02-20T13:43:37Z</time>
      </trkpt>
      <trkpt lat="46.3363" lon="-0.48676">
        <ele>3.4984</ele>
        <time>2011-02-20T13:43:38Z</time>
      </trkpt>
      <trkpt lat="46.3363" lon="-0.48678">
        <ele>3.5047</ele>
        <time>2011-02-20T13:43:39Z</time>
      </trkpt>
      <trkpt lat="46.3363" lon="-0.4868">
        <ele>3.5133</ele>
        <time>2011-02-20T13:43:40Z</time>
      </trkpt>
      <trkpt lat="46.3363" lon="-0.48681">
        <ele>3.5225</ele>
        <time>2011-02-20T13:43:41Z</time>
      </trkpt>
      <trkpt lat="46.33629" lon="-0.48683">
        <ele>3.5283</ele>
        <time>2011-02-20T13:43:42Z</time>
      </trkpt>
      <trkpt lat="46.33629" lon="-0.48685">
        <ele>3.5299</ele>
        <time>2011-02-20T13:43:43Z</time>
      </trkpt>
      <trkpt lat="46.33629" lon="-0.48688">
        <ele>3.5269</ele>
        <time>2011-02-20T13:43:44Z</time>
      </trkpt>
      <trkpt lat="46.33628" lon="-0.4869">
        <ele>3.5188</ele>
        <time>2011-02-20T13:43:45Z</time>
      </trkpt>
      <trkpt lat="46.33627" lon="-0.48692">
        <ele>3.5092</ele>
        <time>2011-02-20T13:43:46Z</time>
      </trkpt>
      <trkpt lat="46.33627" lon="-0.48694">
        <ele>3.5008</ele>
        <time>2011-02-20T13:43:47Z</time>
      </trkpt>
      <trkpt lat="46.33627" lon="-0.48695">
        <ele>3.4914</ele>
        <time>2011-02-20T13:43:48Z</time>
      </trkpt>
      <trkpt lat="46.33626" lon="-0.48697">
        <ele>3.4807</ele>
        <time>2011-02-20T13:43:49Z</time>
      </trkpt>
      <trkpt lat="46.33626" lon="-0.48699">
        <ele>3.4716</ele>
        <time>2011-02-20T13:43:50Z</time>
      </trkpt>
      <trkpt lat="46.33626" lon="-0.487">
        <ele>3.4636</ele>
        <time>2011-02-20T13:43:51Z</time>
      </trkpt>
      <trkpt lat="46.33626" lon="-0.48701">
        <ele>3.4574</ele>
        <time>2011-02-20T13:43:52Z</time>
      </trkpt>
      <trkpt lat="46.33626" lon="-0.48702">
        <ele>3.449</ele>
        <time>2011-02-20T13:43:53Z</time>
      </trkpt>
      <trkpt lat="46.33626" lon="-0.48703">
        <ele>3.4399</ele>
        <time>2011-02-20T13:43:54Z</time>
      </trkpt>
      <trkpt lat="46.33626" lon="-0.48704">
        <ele>3.434</ele>
        <time>2011-02-20T13:43:55Z</time>
      </trkpt>
      <trkpt lat="46.33626" lon="-0.48705">
        <ele>3.4288</ele>
        <time>2011-02-20T13:43:56Z</time>
      </trkpt>
      <trkpt lat="46.33626" lon="-0.48706">
        <ele>3.4241</ele>
        <time>2011-02-20T13:43:57Z</time>
      </trkpt>
      <trkpt lat="46.33626" lon="-0.48707">
        <ele>3.4185</ele>
        <time>2011-02-20T13:43:58Z</time>
      </trkpt>
      <trkpt lat="46.33627" lon="-0.48708">
        <ele>3.4147</ele>
        <time>2011-02-20T13:43:59Z</time>
      </trkpt>
      <trkpt lat="46.33627" lon="-0.48709">
        <ele>3.4108</ele>
        <time>2011-02-20T13:44:00Z</time>
      </trkpt>
      <trkpt lat="46.33627" lon="-0.4871">
        <ele>3.4077</ele>
        <time>2011-02-20T13:44:01Z</time>
      </trkpt>
      <trkpt lat="46.33627" lon="-0.48712">
        <ele>3.4044</ele>
        <time>2011-02-20T13:44:02Z</time>
      </trkpt>
      <trkpt lat="46.33627" lon="-0.48713">
        <ele>3.4</ele>
        <time>2011-02-20T13:44:03Z</time>
      </trkpt>
      <trkpt lat="46.33627" lon="-0.48714">
        <ele>3.3944</ele>
        <time>2011-02-20T13:44:04Z</time>
      </trkpt>
      <trkpt lat="46.33627" lon="-0.48715">
        <ele>3.391</ele>
        <time>2011-02-20T13:44:05Z</time>
      </trkpt>
      <trkpt lat="46.33627" lon="-0.48716">
        <ele>3.3905</ele>
        <time>2011-02-20T13:44:07Z</time>
      </trkpt>
      <trkpt lat="46.33627" lon="-0.48716">
        <ele>3.3901</ele>
        <time>2011-02-20T13:44:08Z</time>
      </trkpt>
      <trkpt lat="46.33627" lon="-0.48717">
        <ele>3.4033</ele>
        <time>2011-02-20T13:44:09Z</time>
      </trkpt>
      <trkpt lat="46.33627" lon="-0.48717">
        <ele>3.4259</ele>
        <time>2011-02-20T13:44:10Z</time>
      </trkpt>
      <trkpt lat="46.33627" lon="-0.48719">
        <ele>3.4313</ele>
        <time>2011-02-20T13:44:11Z</time>
      </trkpt>
      <trkpt lat="46.33626" lon="-0.48721">
        <ele>3.4418</ele>
        <time>2011-02-20T13:44:12Z</time>
      </trkpt>
      <trkpt lat="46.33626" lon="-0.48722">
        <ele>3.4562</ele>
        <time>2011-02-20T13:44:13Z</time>
      </trkpt>
      <trkpt lat="46.33625" lon="-0.48724">
        <ele>3.4716</ele>
        <time>2011-02-20T13:44:14Z</time>
      </trkpt>
      <trkpt lat="46.33625" lon="-0.48725">
        <ele>3.4894</ele>
        <time>2011-02-20T13:44:15Z</time>
      </trkpt>
      <trkpt lat="46.33624" lon="-0.48727">
        <ele>3.5088</ele>
        <time>2011-02-20T13:44:16Z</time>
      </trkpt>
      <trkpt lat="46.33624" lon="-0.48729">
        <ele>3.5301</ele>
        <time>2011-02-20T13:44:17Z</time>
      </trkpt>
      <trkpt lat="46.33624" lon="-0.48731">
        <ele>3.5524</ele>
        <time>2011-02-20T13:44:18Z</time>
      </trkpt>
      <trkpt lat="46.33624" lon="-0.48733">
        <ele>3.5731</ele>
        <time>2011-02-20T13:44:19Z</time>
      </trkpt>
      <trkpt lat="46.33624" lon="-0.48734">
        <ele>3.596</ele>
        <time>2011-02-20T13:44:20Z</time>
      </trkpt>
      <trkpt lat="46.33624" lon="-0.48736">
        <ele>3.6206</ele>
        <time>2011-02-20T13:44:21Z</time>
      </trkpt>
      <trkpt lat="46.33624" lon="-0.48738">
        <ele>3.6461</ele>
        <time>2011-02-20T13:44:22Z</time>
      </trkpt>
      <trkpt lat="46.33624" lon="-0.48739">
        <ele>3.6736</ele>
        <time>2011-02-20T13:44:23Z</time>
      </trkpt>
      <trkpt lat="46.33623" lon="-0.4874">
        <ele>3.7027</ele>
        <time>2011-02-20T13:44:24Z</time>
      </trkpt>
      <trkpt lat="46.33623" lon="-0.48741">
        <ele>3.7329</ele>
        <time>2011-02-20T13:44:25Z</time>
      </trkpt>
      <trkpt lat="46.33623" lon="-0.48743">
        <ele>3.7628</ele>
        <time>2011-02-20T13:44:26Z</time>
      </trkpt>
      <trkpt lat="46.33623" lon="-0.48744">
        <ele>3.793</ele>
        <time>2011-02-20T13:44:27Z</time>
      </trkpt>
      <trkpt lat="46.33624" lon="-0.48744">
        <ele>3.8229</ele>
        <time>2011-02-20T13:44:28Z</time>
      </trkpt>
      <trkpt lat="46.33624" lon="-0.48745">
        <ele>3.8524</ele>
        <time>2011-02-20T13:44:29Z</time>
      </trkpt>
      <trkpt lat="46.33624" lon="-0.48746">
        <ele>3.8805</ele>
        <time>2011-02-20T13:44:30Z</time>
      </trkpt>
      <trkpt lat="46.33624" lon="-0.48747">
        <ele>3.9055</ele>
        <time>2011-02-20T13:44:31Z</time>
      </trkpt>
      <trkpt lat="46.33624" lon="-0.48748">
        <ele>3.9262</ele>
        <time>2011-02-20T13:44:32Z</time>
      </trkpt>
      <trkpt lat="46.33624" lon="-0.48749">
        <ele>3.9495</ele>
        <time>2011-02-20T13:44:33Z</time>
      </trkpt>
      <trkpt lat="46.33624" lon="-0.4875">
        <ele>3.9767</ele>
        <time>2011-02-20T13:44:34Z</time>
      </trkpt>
      <trkpt lat="46.33624" lon="-0.4875">
        <ele>4.0033</ele>
        <time>2011-02-20T13:44:35Z</time>
      </trkpt>
      <trkpt lat="46.33624" lon="-0.48751">
        <ele>4.0287</ele>
        <time>2011-02-20T13:44:36Z</time>
      </trkpt>
      <trkpt lat="46.33623" lon="-0.48752">
        <ele>4.0497</ele>
        <time>2011-02-20T13:44:37Z</time>
      </trkpt>
      <trkpt lat="46.33623" lon="-0.48754">
        <ele>4.0676</ele>
        <time>2011-02-20T13:44:38Z</time>
      </trkpt>
      <trkpt lat="46.33623" lon="-0.48755">
        <ele>4.0843</ele>
        <time>2011-02-20T13:44:39Z</time>
      </trkpt>
      <trkpt lat="46.33623" lon="-0.48756">
        <ele>4.1009</ele>
        <time>2011-02-20T13:44:40Z</time>
      </trkpt>
      <trkpt lat="46.33623" lon="-0.48758">
        <ele>4.1161</ele>
        <time>2011-02-20T13:44:41Z</time>
      </trkpt>
      <trkpt lat="46.33624" lon="-0.48759">
        <ele>4.1293</ele>
        <time>2011-02-20T13:44:42Z</time>
      </trkpt>
      <trkpt lat="46.33624" lon="-0.4876">
        <ele>4.142</ele>
        <time>2011-02-20T13:44:43Z</time>
      </trkpt>
      <trkpt lat="46.33624" lon="-0.48761">
        <ele>4.1535</ele>
        <time>2011-02-20T13:44:44Z</time>
      </trkpt>
      <trkpt lat="46.33624" lon="-0.48762">
        <ele>4.1645</ele>
        <time>2011-02-20T13:44:45Z</time>
      </trkpt>
      <trkpt lat="46.33624" lon="-0.48763">
        <ele>4.1763</ele>
        <time>2011-02-20T13:44:46Z</time>
      </trkpt>
      <trkpt lat="46.33624" lon="-0.48764">
        <ele>4.1865</ele>
        <time>2011-02-20T13:44:47Z</time>
      </trkpt>
      <trkpt lat="46.33624" lon="-0.48765">
        <ele>4.1951</ele>
        <time>2011-02-20T13:44:48Z</time>
      </trkpt>
      <trkpt lat="46.33624" lon="-0.48766">
        <ele>4.2048</ele>
        <time>2011-02-20T13:44:49Z</time>
      </trkpt>
      <trkpt lat="46.33624" lon="-0.48767">
        <ele>4.2141</ele>
        <time>2011-02-20T13:44:50Z</time>
      </trkpt>
      <trkpt lat="46.33624" lon="-0.48768">
        <ele>4.2237</ele>
        <time>2011-02-20T13:44:51Z</time>
      </trkpt>
      <trkpt lat="46.33624" lon="-0.48769">
        <ele>4.2317</ele>
        <time>2011-02-20T13:44:52Z</time>
      </trkpt>
      <trkpt lat="46.33624" lon="-0.4877">
        <ele>4.2386</ele>
        <time>2011-02-20T13:44:53Z</time>
      </trkpt>
      <trkpt lat="46.33624" lon="-0.48772">
        <ele>4.2472</ele>
        <time>2011-02-20T13:44:54Z</time>
      </trkpt>
      <trkpt lat="46.33624" lon="-0.48773">
        <ele>4.257</ele>
        <time>2011-02-20T13:44:55Z</time>
      </trkpt>
      <trkpt lat="46.33623" lon="-0.48774">
        <ele>4.2671</ele>
        <time>2011-02-20T13:44:56Z</time>
      </trkpt>
      <trkpt lat="46.33623" lon="-0.48776">
        <ele>4.2784</ele>
        <time>2011-02-20T13:44:57Z</time>
      </trkpt>
      <trkpt lat="46.33623" lon="-0.48777">
        <ele>4.2907</ele>
        <time>2011-02-20T13:44:58Z</time>
      </trkpt>
      <trkpt lat="46.33623" lon="-0.48778">
        <ele>4.3044</ele>
        <time>2011-02-20T13:44:59Z</time>
      </trkpt>
      <trkpt lat="46.33623" lon="-0.4878">
        <ele>4.3172</ele>
        <time>2011-02-20T13:45:00Z</time>
      </trkpt>
      <trkpt lat="46.33622" lon="-0.48781">
        <ele>4.3255</ele>
        <time>2011-02-20T13:45:01Z</time>
      </trkpt>
      <trkpt lat="46.33622" lon="-0.48783">
        <ele>4.328</ele>
        <time>2011-02-20T13:45:02Z</time>
      </trkpt>
      <trkpt lat="46.33622" lon="-0.48785">
        <ele>4.3243</ele>
        <time>2011-02-20T13:45:03Z</time>
      </trkpt>
      <trkpt lat="46.33622" lon="-0.48787">
        <ele>4.3135</ele>
        <time>2011-02-20T13:45:04Z</time>
      </trkpt>
      <trkpt lat="46.33621" lon="-0.48788">
        <ele>4.3048</ele>
        <time>2011-02-20T13:45:05Z</time>
      </trkpt>
      <trkpt lat="46.33621" lon="-0.48791">
        <ele>4.2696</ele>
        <time>2011-02-20T13:45:06Z</time>
      </trkpt>
      <trkpt lat="46.3362" lon="-0.48794">
        <ele>4.2403</ele>
        <time>2011-02-20T13:45:07Z</time>
      </trkpt>
      <trkpt lat="46.33619" lon="-0.48797">
        <ele>4.1962</ele>
        <time>2011-02-20T13:45:08Z</time>
      </trkpt>
      <trkpt lat="46.33617" lon="-0.48801">
        <ele>4.1442</ele>
        <time>2011-02-20T13:45:09Z</time>
      </trkpt>
      <trkpt lat="46.33616" lon="-0.48805">
        <ele>4.0867</ele>
        <time>2011-02-20T13:45:10Z</time>
      </trkpt>
      <trkpt lat="46.33614" lon="-0.48811">
        <ele>4.0163</ele>
        <time>2011-02-20T13:45:12Z</time>
      </trkpt>
      <trkpt lat="46.33613" lon="-0.48819">
        <ele>3.814</ele>
        <time>2011-02-20T13:45:15Z</time>
      </trkpt>
      <trkpt lat="46.33612" lon="-0.48821">
        <ele>3.7612</ele>
        <time>2011-02-20T13:45:16Z</time>
      </trkpt>
      <trkpt lat="46.33612" lon="-0.48824">
        <ele>3.713</ele>
        <time>2011-02-20T13:45:17Z</time>
      </trkpt>
      <trkpt lat="46.33612" lon="-0.48826">
        <ele>3.6681</ele>
        <time>2011-02-20T13:45:18Z</time>
      </trkpt>
      <trkpt lat="46.33612" lon="-0.48828">
        <ele>3.6323</ele>
        <time>2011-02-20T13:45:19Z</time>
      </trkpt>
      <trkpt lat="46.33612" lon="-0.4883">
        <ele>3.6025</ele>
        <time>2011-02-20T13:45:20Z</time>
      </trkpt>
      <trkpt lat="46.33611" lon="-0.48831">
        <ele>3.5753</ele>
        <time>2011-02-20T13:45:21Z</time>
      </trkpt>
      <trkpt lat="46.33611" lon="-0.48833">
        <ele>3.5512</ele>
        <time>2011-02-20T13:45:22Z</time>
      </trkpt>
      <trkpt lat="46.3361" lon="-0.48835">
        <ele>3.5303</ele>
        <time>2011-02-20T13:45:23Z</time>
      </trkpt>
      <trkpt lat="46.33609" lon="-0.48837">
        <ele>3.5147</ele>
        <time>2011-02-20T13:45:24Z</time>
      </trkpt>
      <trkpt lat="46.33608" lon="-0.4884">
        <ele>3.502</ele>
        <time>2011-02-20T13:45:25Z</time>
      </trkpt>
      <trkpt lat="46.33608" lon="-0.48842">
        <ele>3.4935</ele>
        <time>2011-02-20T13:45:26Z</time>
      </trkpt>
      <trkpt lat="46.33607" lon="-0.48844">
        <ele>3.4885</ele>
        <time>2011-02-20T13:45:27Z</time>
      </trkpt>
      <trkpt lat="46.33606" lon="-0.48846">
        <ele>3.4856</ele>
        <time>2011-02-20T13:45:28Z</time>
      </trkpt>
      <trkpt lat="46.33606" lon="-0.48849">
        <ele>3.4863</ele>
        <time>2011-02-20T13:45:29Z</time>
      </trkpt>
      <trkpt lat="46.33606" lon="-0.48851">
        <ele>3.4902</ele>
        <time>2011-02-20T13:45:30Z</time>
      </trkpt>
      <trkpt lat="46.33605" lon="-0.48853">
        <ele>3.4968</ele>
        <time>2011-02-20T13:45:31Z</time>
      </trkpt>
      <trkpt lat="46.33604" lon="-0.48854">
        <ele>3.5045</ele>
        <time>2011-02-20T13:45:32Z</time>
      </trkpt>
      <trkpt lat="46.33604" lon="-0.48856">
        <ele>3.5122</ele>
        <time>2011-02-20T13:45:33Z</time>
      </trkpt>
      <trkpt lat="46.33604" lon="-0.48858">
        <ele>3.5227</ele>
        <time>2011-02-20T13:45:34Z</time>
      </trkpt>
      <trkpt lat="46.33603" lon="-0.4886">
        <ele>3.5362</ele>
        <time>2011-02-20T13:45:35Z</time>
      </trkpt>
      <trkpt lat="46.33603" lon="-0.48862">
        <ele>3.5525</ele>
        <time>2011-02-20T13:45:36Z</time>
      </trkpt>
      <trkpt lat="46.33603" lon="-0.48864">
        <ele>3.5723</ele>
        <time>2011-02-20T13:45:37Z</time>
      </trkpt>
      <trkpt lat="46.33602" lon="-0.48865">
        <ele>3.5955</ele>
        <time>2011-02-20T13:45:38Z</time>
      </trkpt>
      <trkpt lat="46.33602" lon="-0.48867">
        <ele>3.6123</ele>
        <time>2011-02-20T13:45:39Z</time>
      </trkpt>
      <trkpt lat="46.33602" lon="-0.48869">
        <ele>3.6355</ele>
        <time>2011-02-20T13:45:41Z</time>
      </trkpt>
      <trkpt lat="46.33601" lon="-0.4887">
        <ele>3.6447</ele>
        <time>2011-02-20T13:45:42Z</time>
      </trkpt>
      <trkpt lat="46.33601" lon="-0.48871">
        <ele>3.6529</ele>
        <time>2011-02-20T13:45:43Z</time>
      </trkpt>
      <trkpt lat="46.33601" lon="-0.48873">
        <ele>3.6614</ele>
        <time>2011-02-20T13:45:44Z</time>
      </trkpt>
      <trkpt lat="46.336" lon="-0.48874">
        <ele>3.672</ele>
        <time>2011-02-20T13:45:45Z</time>
      </trkpt>
      <trkpt lat="46.336" lon="-0.48876">
        <ele>3.6836</ele>
        <time>2011-02-20T13:45:46Z</time>
      </trkpt>
      <trkpt lat="46.336" lon="-0.48877">
        <ele>3.6941</ele>
        <time>2011-02-20T13:45:47Z</time>
      </trkpt>
      <trkpt lat="46.336" lon="-0.48879">
        <ele>3.7057</ele>
        <time>2011-02-20T13:45:48Z</time>
      </trkpt>
      <trkpt lat="46.336" lon="-0.4888">
        <ele>3.7189</ele>
        <time>2011-02-20T13:45:49Z</time>
      </trkpt>
      <trkpt lat="46.33599" lon="-0.48882">
        <ele>3.7333</ele>
        <time>2011-02-20T13:45:50Z</time>
      </trkpt>
      <trkpt lat="46.33599" lon="-0.48883">
        <ele>3.7477</ele>
        <time>2011-02-20T13:45:51Z</time>
      </trkpt>
      <trkpt lat="46.33598" lon="-0.48885">
        <ele>3.7601</ele>
        <time>2011-02-20T13:45:52Z</time>
      </trkpt>
      <trkpt lat="46.33598" lon="-0.48886">
        <ele>3.7737</ele>
        <time>2011-02-20T13:45:53Z</time>
      </trkpt>
      <trkpt lat="46.33598" lon="-0.48888">
        <ele>3.7886</ele>
        <time>2011-02-20T13:45:54Z</time>
      </trkpt>
      <trkpt lat="46.33597" lon="-0.4889">
        <ele>3.8038</ele>
        <time>2011-02-20T13:45:55Z</time>
      </trkpt>
      <trkpt lat="46.33596" lon="-0.48893">
        <ele>3.8178</ele>
        <time>2011-02-20T13:45:56Z</time>
      </trkpt>
      <trkpt lat="46.33596" lon="-0.48894">
        <ele>3.8317</ele>
        <time>2011-02-20T13:45:57Z</time>
      </trkpt>
      <trkpt lat="46.33596" lon="-0.48896">
        <ele>3.8445</ele>
        <time>2011-02-20T13:45:58Z</time>
      </trkpt>
      <trkpt lat="46.33595" lon="-0.48898">
        <ele>3.8516</ele>
        <time>2011-02-20T13:45:59Z</time>
      </trkpt>
      <trkpt lat="46.33594" lon="-0.489">
        <ele>3.8553</ele>
        <time>2011-02-20T13:46:00Z</time>
      </trkpt>
      <trkpt lat="46.33594" lon="-0.48902">
        <ele>3.8587</ele>
        <time>2011-02-20T13:46:01Z</time>
      </trkpt>
      <trkpt lat="46.33593" lon="-0.48904">
        <ele>3.8628</ele>
        <time>2011-02-20T13:46:02Z</time>
      </trkpt>
      <trkpt lat="46.33592" lon="-0.48905">
        <ele>3.8668</ele>
        <time>2011-02-20T13:46:03Z</time>
      </trkpt>
      <trkpt lat="46.33592" lon="-0.48907">
        <ele>3.8693</ele>
        <time>2011-02-20T13:46:04Z</time>
      </trkpt>
      <trkpt lat="46.33592" lon="-0.48908">
        <ele>3.8702</ele>
        <time>2011-02-20T13:46:05Z</time>
      </trkpt>
      <trkpt lat="46.33591" lon="-0.48909">
        <ele>3.8733</ele>
        <time>2011-02-20T13:46:07Z</time>
      </trkpt>
      <trkpt lat="46.33591" lon="-0.48911">
        <ele>3.8744</ele>
        <time>2011-02-20T13:46:08Z</time>
      </trkpt>
      <trkpt lat="46.3359" lon="-0.48912">
        <ele>3.8752</ele>
        <time>2011-02-20T13:46:09Z</time>
      </trkpt>
      <trkpt lat="46.3359" lon="-0.48914">
        <ele>3.876</ele>
        <time>2011-02-20T13:46:10Z</time>
      </trkpt>
      <trkpt lat="46.33589" lon="-0.48915">
        <ele>3.875</ele>
        <time>2011-02-20T13:46:11Z</time>
      </trkpt>
      <trkpt lat="46.33589" lon="-0.48916">
        <ele>3.8738</ele>
        <time>2011-02-20T13:46:12Z</time>
      </trkpt>
      <trkpt lat="46.33589" lon="-0.48918">
        <ele>3.8723</ele>
        <time>2011-02-20T13:46:13Z</time>
      </trkpt>
      <trkpt lat="46.33588" lon="-0.48919">
        <ele>3.8699</ele>
        <time>2011-02-20T13:46:14Z</time>
      </trkpt>
      <trkpt lat="46.33588" lon="-0.48921">
        <ele>3.8666</ele>
        <time>2011-02-20T13:46:15Z</time>
      </trkpt>
      <trkpt lat="46.33588" lon="-0.48922">
        <ele>3.863</ele>
        <time>2011-02-20T13:46:16Z</time>
      </trkpt>
      <trkpt lat="46.33588" lon="-0.48923">
        <ele>3.8608</ele>
        <time>2011-02-20T13:46:17Z</time>
      </trkpt>
      <trkpt lat="46.33588" lon="-0.48925">
        <ele>3.863</ele>
        <time>2011-02-20T13:46:18Z</time>
      </trkpt>
      <trkpt lat="46.33588" lon="-0.48926">
        <ele>3.8695</ele>
        <time>2011-02-20T13:46:19Z</time>
      </trkpt>
      <trkpt lat="46.33587" lon="-0.48928">
        <ele>3.8768</ele>
        <time>2011-02-20T13:46:20Z</time>
      </trkpt>
      <trkpt lat="46.33587" lon="-0.48929">
        <ele>3.8854</ele>
        <time>2011-02-20T13:46:21Z</time>
      </trkpt>
      <trkpt lat="46.33586" lon="-0.48931">
        <ele>3.8945</ele>
        <time>2011-02-20T13:46:22Z</time>
      </trkpt>
      <trkpt lat="46.33586" lon="-0.48932">
        <ele>3.9049</ele>
        <time>2011-02-20T13:46:23Z</time>
      </trkpt>
      <trkpt lat="46.33585" lon="-0.48933">
        <ele>3.9171</ele>
        <time>2011-02-20T13:46:24Z</time>
      </trkpt>
      <trkpt lat="46.33585" lon="-0.48935">
        <ele>3.926</ele>
        <time>2011-02-20T13:46:25Z</time>
      </trkpt>
      <trkpt lat="46.33585" lon="-0.48937">
        <ele>3.9356</ele>
        <time>2011-02-20T13:46:26Z</time>
      </trkpt>
      <trkpt lat="46.33584" lon="-0.48938">
        <ele>3.9471</ele>
        <time>2011-02-20T13:46:27Z</time>
      </trkpt>
      <trkpt lat="46.33584" lon="-0.4894">
        <ele>3.9562</ele>
        <time>2011-02-20T13:46:28Z</time>
      </trkpt>
      <trkpt lat="46.33583" lon="-0.48941">
        <ele>3.9667</ele>
        <time>2011-02-20T13:46:29Z</time>
      </trkpt>
      <trkpt lat="46.33583" lon="-0.48943">
        <ele>3.9741</ele>
        <time>2011-02-20T13:46:30Z</time>
      </trkpt>
      <trkpt lat="46.33582" lon="-0.48945">
        <ele>3.9813</ele>
        <time>2011-02-20T13:46:31Z</time>
      </trkpt>
      <trkpt lat="46.33582" lon="-0.48946">
        <ele>3.9854</ele>
        <time>2011-02-20T13:46:32Z</time>
      </trkpt>
      <trkpt lat="46.33582" lon="-0.48948">
        <ele>3.9885</ele>
        <time>2011-02-20T13:46:33Z</time>
      </trkpt>
      <trkpt lat="46.33582" lon="-0.48949">
        <ele>3.9931</ele>
        <time>2011-02-20T13:46:34Z</time>
      </trkpt>
      <trkpt lat="46.33582" lon="-0.48951">
        <ele>3.9972</ele>
        <time>2011-02-20T13:46:35Z</time>
      </trkpt>
      <trkpt lat="46.33582" lon="-0.48952">
        <ele>4.0042</ele>
        <time>2011-02-20T13:46:36Z</time>
      </trkpt>
      <trkpt lat="46.33581" lon="-0.48953">
        <ele>4.0151</ele>
        <time>2011-02-20T13:46:37Z</time>
      </trkpt>
      <trkpt lat="46.33581" lon="-0.48954">
        <ele>4.0329</ele>
        <time>2011-02-20T13:46:38Z</time>
      </trkpt>
      <trkpt lat="46.33581" lon="-0.48955">
        <ele>4.0533</ele>
        <time>2011-02-20T13:46:39Z</time>
      </trkpt>
      <trkpt lat="46.3358" lon="-0.48956">
        <ele>4.0752</ele>
        <time>2011-02-20T13:46:40Z</time>
      </trkpt>
      <trkpt lat="46.3358" lon="-0.48957">
        <ele>4.0992</ele>
        <time>2011-02-20T13:46:41Z</time>
      </trkpt>
      <trkpt lat="46.3358" lon="-0.48958">
        <ele>4.1252</ele>
        <time>2011-02-20T13:46:42Z</time>
      </trkpt>
      <trkpt lat="46.3358" lon="-0.4896">
        <ele>4.1527</ele>
        <time>2011-02-20T13:46:43Z</time>
      </trkpt>
      <trkpt lat="46.33579" lon="-0.48961">
        <ele>4.1784</ele>
        <time>2011-02-20T13:46:44Z</time>
      </trkpt>
      <trkpt lat="46.33579" lon="-0.48962">
        <ele>4.2025</ele>
        <time>2011-02-20T13:46:45Z</time>
      </trkpt>
      <trkpt lat="46.33579" lon="-0.48964">
        <ele>4.2257</ele>
        <time>2011-02-20T13:46:46Z</time>
      </trkpt>
      <trkpt lat="46.33578" lon="-0.48965">
        <ele>4.2487</ele>
        <time>2011-02-20T13:46:47Z</time>
      </trkpt>
      <trkpt lat="46.33578" lon="-0.48967">
        <ele>4.2703</ele>
        <time>2011-02-20T13:46:48Z</time>
      </trkpt>
      <trkpt lat="46.33577" lon="-0.48969">
        <ele>4.2882</ele>
        <time>2011-02-20T13:46:49Z</time>
      </trkpt>
      <trkpt lat="46.33577" lon="-0.4897">
        <ele>4.307</ele>
        <time>2011-02-20T13:46:50Z</time>
      </trkpt>
      <trkpt lat="46.33577" lon="-0.48971">
        <ele>4.3245</ele>
        <time>2011-02-20T13:46:51Z</time>
      </trkpt>
      <trkpt lat="46.33577" lon="-0.48972">
        <ele>4.3374</ele>
        <time>2011-02-20T13:46:52Z</time>
      </trkpt>
      <trkpt lat="46.33577" lon="-0.48973">
        <ele>4.3502</ele>
        <time>2011-02-20T13:46:53Z</time>
      </trkpt>
      <trkpt lat="46.33577" lon="-0.48975">
        <ele>4.3639</ele>
        <time>2011-02-20T13:46:54Z</time>
      </trkpt>
      <trkpt lat="46.33577" lon="-0.48976">
        <ele>4.3768</ele>
        <time>2011-02-20T13:46:55Z</time>
      </trkpt>
      <trkpt lat="46.33577" lon="-0.48978">
        <ele>4.3901</ele>
        <time>2011-02-20T13:46:56Z</time>
      </trkpt>
      <trkpt lat="46.33576" lon="-0.4898">
        <ele>4.4043</ele>
        <time>2011-02-20T13:46:57Z</time>
      </trkpt>
      <trkpt lat="46.33575" lon="-0.48981">
        <ele>4.4186</ele>
        <time>2011-02-20T13:46:58Z</time>
      </trkpt>
      <trkpt lat="46.33575" lon="-0.48983">
        <ele>4.4332</ele>
        <time>2011-02-20T13:46:59Z</time>
      </trkpt>
      <trkpt lat="46.33574" lon="-0.48985">
        <ele>4.4479</ele>
        <time>2011-02-20T13:47:00Z</time>
      </trkpt>
      <trkpt lat="46.33574" lon="-0.48986">
        <ele>4.4581</ele>
        <time>2011-02-20T13:47:01Z</time>
      </trkpt>
      <trkpt lat="46.33574" lon="-0.48988">
        <ele>4.4677</ele>
        <time>2011-02-20T13:47:02Z</time>
      </trkpt>
      <trkpt lat="46.33573" lon="-0.4899">
        <ele>4.4777</ele>
        <time>2011-02-20T13:47:03Z</time>
      </trkpt>
      <trkpt lat="46.33572" lon="-0.48991">
        <ele>4.4879</ele>
        <time>2011-02-20T13:47:04Z</time>
      </trkpt>
      <trkpt lat="46.33572" lon="-0.48993">
        <ele>4.4935</ele>
        <time>2011-02-20T13:47:05Z</time>
      </trkpt>
      <trkpt lat="46.33571" lon="-0.48994">
        <ele>4.4953</ele>
        <time>2011-02-20T13:47:06Z</time>
      </trkpt>
      <trkpt lat="46.33571" lon="-0.48996">
        <ele>4.4968</ele>
        <time>2011-02-20T13:47:07Z</time>
      </trkpt>
      <trkpt lat="46.33571" lon="-0.48998">
        <ele>4.4984</ele>
        <time>2011-02-20T13:47:08Z</time>
      </trkpt>
      <trkpt lat="46.33571" lon="-0.49">
        <ele>4.4978</ele>
        <time>2011-02-20T13:47:09Z</time>
      </trkpt>
      <trkpt lat="46.3357" lon="-0.49001">
        <ele>4.497</ele>
        <time>2011-02-20T13:47:10Z</time>
      </trkpt>
      <trkpt lat="46.33569" lon="-0.49003">
        <ele>4.4914</ele>
        <time>2011-02-20T13:47:11Z</time>
      </trkpt>
      <trkpt lat="46.33569" lon="-0.49005">
        <ele>4.4862</ele>
        <time>2011-02-20T13:47:12Z</time>
      </trkpt>
      <trkpt lat="46.33569" lon="-0.49007">
        <ele>4.4818</ele>
        <time>2011-02-20T13:47:13Z</time>
      </trkpt>
      <trkpt lat="46.33568" lon="-0.49008">
        <ele>4.4764</ele>
        <time>2011-02-20T13:47:14Z</time>
      </trkpt>
      <trkpt lat="46.33568" lon="-0.4901">
        <ele>4.4711</ele>
        <time>2011-02-20T13:47:15Z</time>
      </trkpt>
      <trkpt lat="46.33568" lon="-0.49011">
        <ele>4.4656</ele>
        <time>2011-02-20T13:47:16Z</time>
      </trkpt>
      <trkpt lat="46.33568" lon="-0.49012">
        <ele>4.4571</ele>
        <time>2011-02-20T13:47:17Z</time>
      </trkpt>
      <trkpt lat="46.33567" lon="-0.49014">
        <ele>4.4483</ele>
        <time>2011-02-20T13:47:18Z</time>
      </trkpt>
      <trkpt lat="46.33567" lon="-0.49015">
        <ele>4.4399</ele>
        <time>2011-02-20T13:47:19Z</time>
      </trkpt>
      <trkpt lat="46.33567" lon="-0.49016">
        <ele>4.4318</ele>
        <time>2011-02-20T13:47:20Z</time>
      </trkpt>
      <trkpt lat="46.33566" lon="-0.49017">
        <ele>4.4217</ele>
        <time>2011-02-20T13:47:21Z</time>
      </trkpt>
      <trkpt lat="46.33566" lon="-0.49018">
        <ele>4.4116</ele>
        <time>2011-02-20T13:47:22Z</time>
      </trkpt>
      <trkpt lat="46.33566" lon="-0.49019">
        <ele>4.4008</ele>
        <time>2011-02-20T13:47:23Z</time>
      </trkpt>
      <trkpt lat="46.33566" lon="-0.4902">
        <ele>4.3883</ele>
        <time>2011-02-20T13:47:24Z</time>
      </trkpt>
      <trkpt lat="46.33566" lon="-0.49021">
        <ele>4.37</ele>
        <time>2011-02-20T13:47:25Z</time>
      </trkpt>
      <trkpt lat="46.33566" lon="-0.49023">
        <ele>4.3484</ele>
        <time>2011-02-20T13:47:26Z</time>
      </trkpt>
      <trkpt lat="46.33566" lon="-0.49024">
        <ele>4.326</ele>
        <time>2011-02-20T13:47:27Z</time>
      </trkpt>
      <trkpt lat="46.33566" lon="-0.49025">
        <ele>4.3035</ele>
        <time>2011-02-20T13:47:28Z</time>
      </trkpt>
      <trkpt lat="46.33566" lon="-0.49026">
        <ele>4.2804</ele>
        <time>2011-02-20T13:47:29Z</time>
      </trkpt>
      <trkpt lat="46.33565" lon="-0.49027">
        <ele>4.2535</ele>
        <time>2011-02-20T13:47:30Z</time>
      </trkpt>
      <trkpt lat="46.33565" lon="-0.49029">
        <ele>4.2244</ele>
        <time>2011-02-20T13:47:31Z</time>
      </trkpt>
      <trkpt lat="46.33565" lon="-0.4903">
        <ele>4.185</ele>
        <time>2011-02-20T13:47:32Z</time>
      </trkpt>
      <trkpt lat="46.33564" lon="-0.49032">
        <ele>4.1399</ele>
        <time>2011-02-20T13:47:33Z</time>
      </trkpt>
      <trkpt lat="46.33564" lon="-0.49033">
        <ele>4.0808</ele>
        <time>2011-02-20T13:47:34Z</time>
      </trkpt>
      <trkpt lat="46.33564" lon="-0.49034">
        <ele>4.0189</ele>
        <time>2011-02-20T13:47:35Z</time>
      </trkpt>
      <trkpt lat="46.33564" lon="-0.49035">
        <ele>3.9566</ele>
        <time>2011-02-20T13:47:36Z</time>
      </trkpt>
      <trkpt lat="46.33564" lon="-0.49036">
        <ele>3.8949</ele>
        <time>2011-02-20T13:47:37Z</time>
      </trkpt>
      <trkpt lat="46.33564" lon="-0.49036">
        <ele>3.833</ele>
        <time>2011-02-20T13:47:38Z</time>
      </trkpt>
      <trkpt lat="46.33562" lon="-0.49044">
        <ele>3.6781</ele>
        <time>2011-02-20T13:47:44Z</time>
      </trkpt>
      <trkpt lat="46.33561" lon="-0.49049">
        <ele>3.5378</ele>
        <time>2011-02-20T13:47:48Z</time>
      </trkpt>
      <trkpt lat="46.33561" lon="-0.49049">
        <ele>3.442</ele>
        <time>2011-02-20T13:47:49Z</time>
      </trkpt>
      <trkpt lat="46.33561" lon="-0.4905">
        <ele>3.3556</ele>
        <time>2011-02-20T13:47:50Z</time>
      </trkpt>
      <trkpt lat="46.3356" lon="-0.49051">
        <ele>3.2738</ele>
        <time>2011-02-20T13:47:51Z</time>
      </trkpt>
      <trkpt lat="46.3356" lon="-0.49052">
        <ele>3.1967</ele>
        <time>2011-02-20T13:47:52Z</time>
      </trkpt>
      <trkpt lat="46.3356" lon="-0.49053">
        <ele>3.1253</ele>
        <time>2011-02-20T13:47:53Z</time>
      </trkpt>
      <trkpt lat="46.33559" lon="-0.49054">
        <ele>3.0598</ele>
        <time>2011-02-20T13:47:54Z</time>
      </trkpt>
      <trkpt lat="46.33559" lon="-0.49055">
        <ele>3.0084</ele>
        <time>2011-02-20T13:47:55Z</time>
      </trkpt>
      <trkpt lat="46.33559" lon="-0.49056">
        <ele>2.9653</ele>
        <time>2011-02-20T13:47:56Z</time>
      </trkpt>
      <trkpt lat="46.33559" lon="-0.49057">
        <ele>2.924</ele>
        <time>2011-02-20T13:47:57Z</time>
      </trkpt>
      <trkpt lat="46.33559" lon="-0.49058">
        <ele>2.8841</ele>
        <time>2011-02-20T13:47:58Z</time>
      </trkpt>
      <trkpt lat="46.33559" lon="-0.49059">
        <ele>2.8474</ele>
        <time>2011-02-20T13:47:59Z</time>
      </trkpt>
      <trkpt lat="46.33559" lon="-0.4906">
        <ele>2.8195</ele>
        <time>2011-02-20T13:48:00Z</time>
      </trkpt>
      <trkpt lat="46.33559" lon="-0.49061">
        <ele>2.79</ele>
        <time>2011-02-20T13:48:01Z</time>
      </trkpt>
      <trkpt lat="46.3356" lon="-0.49062">
        <ele>2.761</ele>
        <time>2011-02-20T13:48:02Z</time>
      </trkpt>
      <trkpt lat="46.3356" lon="-0.49063">
        <ele>2.7413</ele>
        <time>2011-02-20T13:48:03Z</time>
      </trkpt>
      <trkpt lat="46.3356" lon="-0.49063">
        <ele>2.7594</ele>
        <time>2011-02-20T13:48:04Z</time>
      </trkpt>
      <trkpt lat="46.3356" lon="-0.49064">
        <ele>2.7892</ele>
        <time>2011-02-20T13:48:05Z</time>
      </trkpt>
      <trkpt lat="46.33559" lon="-0.49065">
        <ele>2.8806</ele>
        <time>2011-02-20T13:48:06Z</time>
      </trkpt>
      <trkpt lat="46.33558" lon="-0.49065">
        <ele>3.0442</ele>
        <time>2011-02-20T13:48:07Z</time>
      </trkpt>
      <trkpt lat="46.33558" lon="-0.49066">
        <ele>3.2003</ele>
        <time>2011-02-20T13:48:08Z</time>
      </trkpt>
      <trkpt lat="46.33557" lon="-0.49067">
        <ele>3.3394</ele>
        <time>2011-02-20T13:48:09Z</time>
      </trkpt>
      <trkpt lat="46.33557" lon="-0.49069">
        <ele>3.4591</ele>
        <time>2011-02-20T13:48:10Z</time>
      </trkpt>
      <trkpt lat="46.33557" lon="-0.49071">
        <ele>3.5761</ele>
        <time>2011-02-20T13:48:11Z</time>
      </trkpt>
      <trkpt lat="46.33557" lon="-0.49073">
        <ele>3.6795</ele>
        <time>2011-02-20T13:48:12Z</time>
      </trkpt>
      <trkpt lat="46.33557" lon="-0.49075">
        <ele>3.7741</ele>
        <time>2011-02-20T13:48:13Z</time>
      </trkpt>
      <trkpt lat="46.33556" lon="-0.49078">
        <ele>3.8639</ele>
        <time>2011-02-20T13:48:14Z</time>
      </trkpt>
      <trkpt lat="46.33556" lon="-0.4908">
        <ele>3.9434</ele>
        <time>2011-02-20T13:48:15Z</time>
      </trkpt>
      <trkpt lat="46.33555" lon="-0.49083">
        <ele>4.0204</ele>
        <time>2011-02-20T13:48:16Z</time>
      </trkpt>
      <trkpt lat="46.33555" lon="-0.49085">
        <ele>4.0914</ele>
        <time>2011-02-20T13:48:17Z</time>
      </trkpt>
      <trkpt lat="46.33555" lon="-0.49087">
        <ele>4.1566</ele>
        <time>2011-02-20T13:48:18Z</time>
      </trkpt>
      <trkpt lat="46.33555" lon="-0.49088">
        <ele>4.2194</ele>
        <time>2011-02-20T13:48:19Z</time>
      </trkpt>
      <trkpt lat="46.33555" lon="-0.4909">
        <ele>4.2715</ele>
        <time>2011-02-20T13:48:20Z</time>
      </trkpt>
      <trkpt lat="46.33554" lon="-0.49092">
        <ele>4.3152</ele>
        <time>2011-02-20T13:48:21Z</time>
      </trkpt>
      <trkpt lat="46.33554" lon="-0.49094">
        <ele>4.3563</ele>
        <time>2011-02-20T13:48:22Z</time>
      </trkpt>
      <trkpt lat="46.33554" lon="-0.49096">
        <ele>4.394</ele>
        <time>2011-02-20T13:48:23Z</time>
      </trkpt>
      <trkpt lat="46.33555" lon="-0.49097">
        <ele>4.4189</ele>
        <time>2011-02-20T13:48:24Z</time>
      </trkpt>
      <trkpt lat="46.33555" lon="-0.49099">
        <ele>4.4432</ele>
        <time>2011-02-20T13:48:25Z</time>
      </trkpt>
      <trkpt lat="46.33554" lon="-0.49101">
        <ele>4.4667</ele>
        <time>2011-02-20T13:48:26Z</time>
      </trkpt>
      <trkpt lat="46.33554" lon="-0.49103">
        <ele>4.4876</ele>
        <time>2011-02-20T13:48:27Z</time>
      </trkpt>
      <trkpt lat="46.33554" lon="-0.49104">
        <ele>4.5078</ele>
        <time>2011-02-20T13:48:28Z</time>
      </trkpt>
      <trkpt lat="46.33554" lon="-0.49106">
        <ele>4.527</ele>
        <time>2011-02-20T13:48:29Z</time>
      </trkpt>
      <trkpt lat="46.33554" lon="-0.49107">
        <ele>4.5434</ele>
        <time>2011-02-20T13:48:30Z</time>
      </trkpt>
      <trkpt lat="46.33554" lon="-0.49109">
        <ele>4.5531</ele>
        <time>2011-02-20T13:48:31Z</time>
      </trkpt>
      <trkpt lat="46.33553" lon="-0.49111">
        <ele>4.5661</ele>
        <time>2011-02-20T13:48:32Z</time>
      </trkpt>
      <trkpt lat="46.33553" lon="-0.49113">
        <ele>4.5847</ele>
        <time>2011-02-20T13:48:33Z</time>
      </trkpt>
      <trkpt lat="46.33553" lon="-0.49114">
        <ele>4.6031</ele>
        <time>2011-02-20T13:48:34Z</time>
      </trkpt>
      <trkpt lat="46.33553" lon="-0.49115">
        <ele>4.6202</ele>
        <time>2011-02-20T13:48:35Z</time>
      </trkpt>
      <trkpt lat="46.33553" lon="-0.49117">
        <ele>4.628</ele>
        <time>2011-02-20T13:48:36Z</time>
      </trkpt>
      <trkpt lat="46.33553" lon="-0.49118">
        <ele>4.6334</ele>
        <time>2011-02-20T13:48:37Z</time>
      </trkpt>
      <trkpt lat="46.33552" lon="-0.4912">
        <ele>4.6244</ele>
        <time>2011-02-20T13:48:38Z</time>
      </trkpt>
      <trkpt lat="46.33552" lon="-0.49122">
        <ele>4.6083</ele>
        <time>2011-02-20T13:48:39Z</time>
      </trkpt>
      <trkpt lat="46.33551" lon="-0.49123">
        <ele>4.593</ele>
        <time>2011-02-20T13:48:40Z</time>
      </trkpt>
      <trkpt lat="46.33551" lon="-0.49125">
        <ele>4.5721</ele>
        <time>2011-02-20T13:48:41Z</time>
      </trkpt>
      <trkpt lat="46.33551" lon="-0.49126">
        <ele>4.5561</ele>
        <time>2011-02-20T13:48:42Z</time>
      </trkpt>
      <trkpt lat="46.33551" lon="-0.49127">
        <ele>4.5363</ele>
        <time>2011-02-20T13:48:43Z</time>
      </trkpt>
      <trkpt lat="46.33551" lon="-0.49128">
        <ele>4.5074</ele>
        <time>2011-02-20T13:48:44Z</time>
      </trkpt>
      <trkpt lat="46.33551" lon="-0.4913">
        <ele>4.4678</ele>
        <time>2011-02-20T13:48:45Z</time>
      </trkpt>
      <trkpt lat="46.33551" lon="-0.49131">
        <ele>4.4233</ele>
        <time>2011-02-20T13:48:46Z</time>
      </trkpt>
      <trkpt lat="46.3355" lon="-0.49133">
        <ele>4.379</ele>
        <time>2011-02-20T13:48:47Z</time>
      </trkpt>
      <trkpt lat="46.3355" lon="-0.49135">
        <ele>4.3407</ele>
        <time>2011-02-20T13:48:48Z</time>
      </trkpt>
      <trkpt lat="46.3355" lon="-0.49136">
        <ele>4.3136</ele>
        <time>2011-02-20T13:48:49Z</time>
      </trkpt>
      <trkpt lat="46.33549" lon="-0.49137">
        <ele>4.2678</ele>
        <time>2011-02-20T13:48:50Z</time>
      </trkpt>
      <trkpt lat="46.33549" lon="-0.49138">
        <ele>4.2227</ele>
        <time>2011-02-20T13:48:51Z</time>
      </trkpt>
      <trkpt lat="46.33548" lon="-0.4914">
        <ele>4.1826</ele>
        <time>2011-02-20T13:48:52Z</time>
      </trkpt>
      <trkpt lat="46.33548" lon="-0.49141">
        <ele>4.1485</ele>
        <time>2011-02-20T13:48:53Z</time>
      </trkpt>
      <trkpt lat="46.33548" lon="-0.49143">
        <ele>4.1277</ele>
        <time>2011-02-20T13:48:54Z</time>
      </trkpt>
      <trkpt lat="46.33547" lon="-0.49144">
        <ele>4.105</ele>
        <time>2011-02-20T13:48:55Z</time>
      </trkpt>
      <trkpt lat="46.33546" lon="-0.49145">
        <ele>4.0803</ele>
        <time>2011-02-20T13:48:56Z</time>
      </trkpt>
      <trkpt lat="46.33546" lon="-0.49147">
        <ele>4.0562</ele>
        <time>2011-02-20T13:48:57Z</time>
      </trkpt>
      <trkpt lat="46.33546" lon="-0.49148">
        <ele>4.0632</ele>
        <time>2011-02-20T13:48:58Z</time>
      </trkpt>
      <trkpt lat="46.33545" lon="-0.49149">
        <ele>4.0675</ele>
        <time>2011-02-20T13:48:59Z</time>
      </trkpt>
      <trkpt lat="46.33545" lon="-0.49151">
        <ele>4.0699</ele>
        <time>2011-02-20T13:49:00Z</time>
      </trkpt>
      <trkpt lat="46.33544" lon="-0.49152">
        <ele>4.0678</ele>
        <time>2011-02-20T13:49:01Z</time>
      </trkpt>
      <trkpt lat="46.33543" lon="-0.49154">
        <ele>4.0638</ele>
        <time>2011-02-20T13:49:02Z</time>
      </trkpt>
      <trkpt lat="46.33543" lon="-0.49157">
        <ele>4.034</ele>
        <time>2011-02-20T13:49:04Z</time>
      </trkpt>
      <trkpt lat="46.33542" lon="-0.49159">
        <ele>4.0045</ele>
        <time>2011-02-20T13:49:05Z</time>
      </trkpt>
      <trkpt lat="46.33542" lon="-0.49161">
        <ele>3.9754</ele>
        <time>2011-02-20T13:49:06Z</time>
      </trkpt>
      <trkpt lat="46.3354" lon="-0.49167">
        <ele>3.7405</ele>
        <time>2011-02-20T13:49:10Z</time>
      </trkpt>
      <trkpt lat="46.33537" lon="-0.49174">
        <ele>3.3185</ele>
        <time>2011-02-20T13:49:15Z</time>
      </trkpt>
      <trkpt lat="46.33534" lon="-0.49179">
        <ele>2.9426</ele>
        <time>2011-02-20T13:49:20Z</time>
      </trkpt>
      <trkpt lat="46.3353" lon="-0.49182">
        <ele>2.77</ele>
        <time>2011-02-20T13:49:26Z</time>
      </trkpt>
      <trkpt lat="46.33527" lon="-0.49189">
        <ele>2.804</ele>
        <time>2011-02-20T13:49:32Z</time>
      </trkpt>
      <trkpt lat="46.33524" lon="-0.49195">
        <ele>3.1937</ele>
        <time>2011-02-20T13:49:37Z</time>
      </trkpt>
      <trkpt lat="46.3352" lon="-0.49199">
        <ele>3.574</ele>
        <time>2011-02-20T13:49:43Z</time>
      </trkpt>
      <trkpt lat="46.33516" lon="-0.49202">
        <ele>3.769</ele>
        <time>2011-02-20T13:49:46Z</time>
      </trkpt>
      <trkpt lat="46.33515" lon="-0.49203">
        <ele>3.8331</ele>
        <time>2011-02-20T13:49:47Z</time>
      </trkpt>
      <trkpt lat="46.33511" lon="-0.49207">
        <ele>3.9939</ele>
        <time>2011-02-20T13:49:50Z</time>
      </trkpt>
      <trkpt lat="46.33509" lon="-0.4921">
        <ele>4.0367</ele>
        <time>2011-02-20T13:49:51Z</time>
      </trkpt>
      <trkpt lat="46.33508" lon="-0.49212">
        <ele>4.0738</ele>
        <time>2011-02-20T13:49:52Z</time>
      </trkpt>
      <trkpt lat="46.33507" lon="-0.49214">
        <ele>4.108</ele>
        <time>2011-02-20T13:49:53Z</time>
      </trkpt>
      <trkpt lat="46.33506" lon="-0.49215">
        <ele>4.1367</ele>
        <time>2011-02-20T13:49:54Z</time>
      </trkpt>
      <trkpt lat="46.33505" lon="-0.49216">
        <ele>4.1637</ele>
        <time>2011-02-20T13:49:55Z</time>
      </trkpt>
      <trkpt lat="46.33505" lon="-0.49217">
        <ele>4.1911</ele>
        <time>2011-02-20T13:49:56Z</time>
      </trkpt>
      <trkpt lat="46.33504" lon="-0.49217">
        <ele>4.223</ele>
        <time>2011-02-20T13:49:57Z</time>
      </trkpt>
      <trkpt lat="46.33503" lon="-0.49218">
        <ele>4.265</ele>
        <time>2011-02-20T13:49:58Z</time>
      </trkpt>
      <trkpt lat="46.33503" lon="-0.49219">
        <ele>4.314</ele>
        <time>2011-02-20T13:49:59Z</time>
      </trkpt>
      <trkpt lat="46.33503" lon="-0.49219">
        <ele>4.3717</ele>
        <time>2011-02-20T13:50:00Z</time>
      </trkpt>
      <trkpt lat="46.33503" lon="-0.4922">
        <ele>4.439</ele>
        <time>2011-02-20T13:50:01Z</time>
      </trkpt>
      <trkpt lat="46.33503" lon="-0.49221">
        <ele>4.5045</ele>
        <time>2011-02-20T13:50:02Z</time>
      </trkpt>
      <trkpt lat="46.33502" lon="-0.49222">
        <ele>4.5683</ele>
        <time>2011-02-20T13:50:03Z</time>
      </trkpt>
      <trkpt lat="46.33502" lon="-0.49223">
        <ele>4.6299</ele>
        <time>2011-02-20T13:50:04Z</time>
      </trkpt>
      <trkpt lat="46.33501" lon="-0.49224">
        <ele>4.6926</ele>
        <time>2011-02-20T13:50:05Z</time>
      </trkpt>
      <trkpt lat="46.33501" lon="-0.49225">
        <ele>4.7487</ele>
        <time>2011-02-20T13:50:06Z</time>
      </trkpt>
      <trkpt lat="46.335" lon="-0.49226">
        <ele>4.7956</ele>
        <time>2011-02-20T13:50:07Z</time>
      </trkpt>
      <trkpt lat="46.33499" lon="-0.49227">
        <ele>4.8392</ele>
        <time>2011-02-20T13:50:08Z</time>
      </trkpt>
      <trkpt lat="46.33498" lon="-0.49228">
        <ele>4.8784</ele>
        <time>2011-02-20T13:50:09Z</time>
      </trkpt>
      <trkpt lat="46.33497" lon="-0.49229">
        <ele>4.911</ele>
        <time>2011-02-20T13:50:10Z</time>
      </trkpt>
      <trkpt lat="46.33496" lon="-0.4923">
        <ele>4.9586</ele>
        <time>2011-02-20T13:50:11Z</time>
      </trkpt>
      <trkpt lat="46.33495" lon="-0.49231">
        <ele>5.0041</ele>
        <time>2011-02-20T13:50:12Z</time>
      </trkpt>
      <trkpt lat="46.33494" lon="-0.49232">
        <ele>5.0525</ele>
        <time>2011-02-20T13:50:13Z</time>
      </trkpt>
      <trkpt lat="46.33493" lon="-0.49233">
        <ele>5.0927</ele>
        <time>2011-02-20T13:50:14Z</time>
      </trkpt>
      <trkpt lat="46.33492" lon="-0.49235">
        <ele>5.102</ele>
        <time>2011-02-20T13:50:15Z</time>
      </trkpt>
      <trkpt lat="46.33492" lon="-0.49236">
        <ele>5.1052</ele>
        <time>2011-02-20T13:50:16Z</time>
      </trkpt>
      <trkpt lat="46.33491" lon="-0.49237">
        <ele>5.1057</ele>
        <time>2011-02-20T13:50:17Z</time>
      </trkpt>
      <trkpt lat="46.33491" lon="-0.49239">
        <ele>5.0973</ele>
        <time>2011-02-20T13:50:18Z</time>
      </trkpt>
      <trkpt lat="46.33491" lon="-0.4924">
        <ele>5.0843</ele>
        <time>2011-02-20T13:50:19Z</time>
      </trkpt>
      <trkpt lat="46.3349" lon="-0.49241">
        <ele>5.069</ele>
        <time>2011-02-20T13:50:20Z</time>
      </trkpt>
      <trkpt lat="46.3349" lon="-0.49242">
        <ele>5.0377</ele>
        <time>2011-02-20T13:50:21Z</time>
      </trkpt>
      <trkpt lat="46.33489" lon="-0.49244">
        <ele>4.9923</ele>
        <time>2011-02-20T13:50:22Z</time>
      </trkpt>
      <trkpt lat="46.33488" lon="-0.49246">
        <ele>4.9437</ele>
        <time>2011-02-20T13:50:23Z</time>
      </trkpt>
      <trkpt lat="46.33487" lon="-0.49248">
        <ele>4.8932</ele>
        <time>2011-02-20T13:50:24Z</time>
      </trkpt>
      <trkpt lat="46.33486" lon="-0.49249">
        <ele>4.837</ele>
        <time>2011-02-20T13:50:25Z</time>
      </trkpt>
      <trkpt lat="46.33485" lon="-0.4925">
        <ele>4.7809</ele>
        <time>2011-02-20T13:50:26Z</time>
      </trkpt>
      <trkpt lat="46.33484" lon="-0.49252">
        <ele>4.7236</ele>
        <time>2011-02-20T13:50:27Z</time>
      </trkpt>
      <trkpt lat="46.33483" lon="-0.49253">
        <ele>4.6672</ele>
        <time>2011-02-20T13:50:28Z</time>
      </trkpt>
      <trkpt lat="46.33482" lon="-0.49254">
        <ele>4.6089</ele>
        <time>2011-02-20T13:50:29Z</time>
      </trkpt>
      <trkpt lat="46.33482" lon="-0.49256">
        <ele>4.5518</ele>
        <time>2011-02-20T13:50:30Z</time>
      </trkpt>
      <trkpt lat="46.33481" lon="-0.49257">
        <ele>4.4942</ele>
        <time>2011-02-20T13:50:31Z</time>
      </trkpt>
      <trkpt lat="46.3348" lon="-0.49259">
        <ele>4.4389</ele>
        <time>2011-02-20T13:50:32Z</time>
      </trkpt>
      <trkpt lat="46.33479" lon="-0.4926">
        <ele>4.3831</ele>
        <time>2011-02-20T13:50:33Z</time>
      </trkpt>
      <trkpt lat="46.33479" lon="-0.49262">
        <ele>4.3307</ele>
        <time>2011-02-20T13:50:34Z</time>
      </trkpt>
      <trkpt lat="46.33477" lon="-0.49264">
        <ele>4.2789</ele>
        <time>2011-02-20T13:50:35Z</time>
      </trkpt>
      <trkpt lat="46.33477" lon="-0.49266">
        <ele>4.2283</ele>
        <time>2011-02-20T13:50:36Z</time>
      </trkpt>
      <trkpt lat="46.33476" lon="-0.49267">
        <ele>4.179</ele>
        <time>2011-02-20T13:50:37Z</time>
      </trkpt>
      <trkpt lat="46.33475" lon="-0.49269">
        <ele>4.1333</ele>
        <time>2011-02-20T13:50:38Z</time>
      </trkpt>
      <trkpt lat="46.33474" lon="-0.4927">
        <ele>4.0907</ele>
        <time>2011-02-20T13:50:39Z</time>
      </trkpt>
      <trkpt lat="46.33473" lon="-0.49272">
        <ele>4.0446</ele>
        <time>2011-02-20T13:50:40Z</time>
      </trkpt>
      <trkpt lat="46.33472" lon="-0.49274">
        <ele>4.0012</ele>
        <time>2011-02-20T13:50:41Z</time>
      </trkpt>
      <trkpt lat="46.33471" lon="-0.49276">
        <ele>3.9597</ele>
        <time>2011-02-20T13:50:42Z</time>
      </trkpt>
      <trkpt lat="46.3347" lon="-0.49278">
        <ele>3.9189</ele>
        <time>2011-02-20T13:50:43Z</time>
      </trkpt>
      <trkpt lat="46.33469" lon="-0.49279">
        <ele>3.8867</ele>
        <time>2011-02-20T13:50:44Z</time>
      </trkpt>
      <trkpt lat="46.33468" lon="-0.4928">
        <ele>3.8611</ele>
        <time>2011-02-20T13:50:45Z</time>
      </trkpt>
      <trkpt lat="46.33468" lon="-0.49281">
        <ele>3.8394</ele>
        <time>2011-02-20T13:50:46Z</time>
      </trkpt>
      <trkpt lat="46.33467" lon="-0.49281">
        <ele>3.8199</ele>
        <time>2011-02-20T13:50:47Z</time>
      </trkpt>
      <trkpt lat="46.33467" lon="-0.49281">
        <ele>3.8013</ele>
        <time>2011-02-20T13:50:48Z</time>
      </trkpt>
      <trkpt lat="46.33466" lon="-0.49283">
        <ele>3.7798</ele>
        <time>2011-02-20T13:50:49Z</time>
      </trkpt>
      <trkpt lat="46.33466" lon="-0.49284">
        <ele>3.7588</ele>
        <time>2011-02-20T13:50:50Z</time>
      </trkpt>
      <trkpt lat="46.33465" lon="-0.49286">
        <ele>3.7325</ele>
        <time>2011-02-20T13:50:51Z</time>
      </trkpt>
      <trkpt lat="46.33464" lon="-0.49288">
        <ele>3.7015</ele>
        <time>2011-02-20T13:50:52Z</time>
      </trkpt>
      <trkpt lat="46.33463" lon="-0.49289">
        <ele>3.6701</ele>
        <time>2011-02-20T13:50:53Z</time>
      </trkpt>
      <trkpt lat="46.33463" lon="-0.49291">
        <ele>3.6394</ele>
        <time>2011-02-20T13:50:54Z</time>
      </trkpt>
      <trkpt lat="46.33462" lon="-0.49292">
        <ele>3.5893</ele>
        <time>2011-02-20T13:50:55Z</time>
      </trkpt>
      <trkpt lat="46.33462" lon="-0.49293">
        <ele>3.5479</ele>
        <time>2011-02-20T13:50:56Z</time>
      </trkpt>
      <trkpt lat="46.33461" lon="-0.49294">
        <ele>3.5068</ele>
        <time>2011-02-20T13:50:57Z</time>
      </trkpt>
      <trkpt lat="46.33461" lon="-0.49295">
        <ele>3.4642</ele>
        <time>2011-02-20T13:50:58Z</time>
      </trkpt>
      <trkpt lat="46.3346" lon="-0.49296">
        <ele>3.4196</ele>
        <time>2011-02-20T13:50:59Z</time>
      </trkpt>
      <trkpt lat="46.3346" lon="-0.49297">
        <ele>3.379</ele>
        <time>2011-02-20T13:51:00Z</time>
      </trkpt>
      <trkpt lat="46.33459" lon="-0.49299">
        <ele>3.334</ele>
        <time>2011-02-20T13:51:01Z</time>
      </trkpt>
      <trkpt lat="46.33458" lon="-0.49301">
        <ele>3.2892</ele>
        <time>2011-02-20T13:51:02Z</time>
      </trkpt>
      <trkpt lat="46.33458" lon="-0.49303">
        <ele>3.2509</ele>
        <time>2011-02-20T13:51:03Z</time>
      </trkpt>
      <trkpt lat="46.33457" lon="-0.49304">
        <ele>3.2233</ele>
        <time>2011-02-20T13:51:04Z</time>
      </trkpt>
      <trkpt lat="46.33456" lon="-0.49306">
        <ele>3.2105</ele>
        <time>2011-02-20T13:51:05Z</time>
      </trkpt>
      <trkpt lat="46.33455" lon="-0.49307">
        <ele>3.204</ele>
        <time>2011-02-20T13:51:06Z</time>
      </trkpt>
      <trkpt lat="46.33455" lon="-0.49309">
        <ele>3.1975</ele>
        <time>2011-02-20T13:51:07Z</time>
      </trkpt>
      <trkpt lat="46.33454" lon="-0.49311">
        <ele>3.1964</ele>
        <time>2011-02-20T13:51:08Z</time>
      </trkpt>
      <trkpt lat="46.33453" lon="-0.49312">
        <ele>3.1999</ele>
        <time>2011-02-20T13:51:09Z</time>
      </trkpt>
      <trkpt lat="46.33452" lon="-0.49314">
        <ele>3.2046</ele>
        <time>2011-02-20T13:51:10Z</time>
      </trkpt>
      <trkpt lat="46.3345" lon="-0.49316">
        <ele>3.2093</ele>
        <time>2011-02-20T13:51:11Z</time>
      </trkpt>
      <trkpt lat="46.3345" lon="-0.49317">
        <ele>3.2104</ele>
        <time>2011-02-20T13:51:12Z</time>
      </trkpt>
      <trkpt lat="46.33449" lon="-0.49319">
        <ele>3.2123</ele>
        <time>2011-02-20T13:51:13Z</time>
      </trkpt>
      <trkpt lat="46.33448" lon="-0.4932">
        <ele>3.2176</ele>
        <time>2011-02-20T13:51:14Z</time>
      </trkpt>
      <trkpt lat="46.33448" lon="-0.49321">
        <ele>3.2256</ele>
        <time>2011-02-20T13:51:15Z</time>
      </trkpt>
      <trkpt lat="46.33447" lon="-0.49322">
        <ele>3.2322</ele>
        <time>2011-02-20T13:51:16Z</time>
      </trkpt>
      <trkpt lat="46.33447" lon="-0.49323">
        <ele>3.2378</ele>
        <time>2011-02-20T13:51:17Z</time>
      </trkpt>
      <trkpt lat="46.33446" lon="-0.49324">
        <ele>3.2461</ele>
        <time>2011-02-20T13:51:18Z</time>
      </trkpt>
      <trkpt lat="46.33445" lon="-0.49324">
        <ele>3.2552</ele>
        <time>2011-02-20T13:51:19Z</time>
      </trkpt>
      <trkpt lat="46.33445" lon="-0.49325">
        <ele>3.2629</ele>
        <time>2011-02-20T13:51:20Z</time>
      </trkpt>
      <trkpt lat="46.33444" lon="-0.49327">
        <ele>3.2709</ele>
        <time>2011-02-20T13:51:21Z</time>
      </trkpt>
      <trkpt lat="46.33443" lon="-0.49328">
        <ele>3.2807</ele>
        <time>2011-02-20T13:51:22Z</time>
      </trkpt>
      <trkpt lat="46.33442" lon="-0.49329">
        <ele>3.2927</ele>
        <time>2011-02-20T13:51:23Z</time>
      </trkpt>
      <trkpt lat="46.33442" lon="-0.4933">
        <ele>3.3053</ele>
        <time>2011-02-20T13:51:24Z</time>
      </trkpt>
      <trkpt lat="46.33441" lon="-0.49331">
        <ele>3.3195</ele>
        <time>2011-02-20T13:51:25Z</time>
      </trkpt>
      <trkpt lat="46.3344" lon="-0.49333">
        <ele>3.3331</ele>
        <time>2011-02-20T13:51:26Z</time>
      </trkpt>
      <trkpt lat="46.3344" lon="-0.49334">
        <ele>3.346</ele>
        <time>2011-02-20T13:51:27Z</time>
      </trkpt>
      <trkpt lat="46.33439" lon="-0.49334">
        <ele>3.3571</ele>
        <time>2011-02-20T13:51:28Z</time>
      </trkpt>
      <trkpt lat="46.33438" lon="-0.49335">
        <ele>3.3684</ele>
        <time>2011-02-20T13:51:29Z</time>
      </trkpt>
      <trkpt lat="46.33438" lon="-0.49336">
        <ele>3.3867</ele>
        <time>2011-02-20T13:51:30Z</time>
      </trkpt>
      <trkpt lat="46.33437" lon="-0.49336">
        <ele>3.4022</ele>
        <time>2011-02-20T13:51:31Z</time>
      </trkpt>
      <trkpt lat="46.33437" lon="-0.49337">
        <ele>3.4109</ele>
        <time>2011-02-20T13:51:32Z</time>
      </trkpt>
      <trkpt lat="46.33437" lon="-0.49338">
        <ele>3.4224</ele>
        <time>2011-02-20T13:51:33Z</time>
      </trkpt>
      <trkpt lat="46.33436" lon="-0.49339">
        <ele>3.4341</ele>
        <time>2011-02-20T13:51:34Z</time>
      </trkpt>
      <trkpt lat="46.33435" lon="-0.4934">
        <ele>3.4363</ele>
        <time>2011-02-20T13:51:35Z</time>
      </trkpt>
      <trkpt lat="46.33435" lon="-0.49342">
        <ele>3.4491</ele>
        <time>2011-02-20T13:51:36Z</time>
      </trkpt>
      <trkpt lat="46.33435" lon="-0.49343">
        <ele>3.4467</ele>
        <time>2011-02-20T13:51:37Z</time>
      </trkpt>
      <trkpt lat="46.33435" lon="-0.49345">
        <ele>3.4581</ele>
        <time>2011-02-20T13:51:38Z</time>
      </trkpt>
      <trkpt lat="46.33435" lon="-0.49346">
        <ele>3.4258</ele>
        <time>2011-02-20T13:51:39Z</time>
      </trkpt>
      <trkpt lat="46.33434" lon="-0.49347">
        <ele>3.3928</ele>
        <time>2011-02-20T13:51:40Z</time>
      </trkpt>
      <trkpt lat="46.33434" lon="-0.49347">
        <ele>3.3577</ele>
        <time>2011-02-20T13:51:41Z</time>
      </trkpt>
      <trkpt lat="46.33433" lon="-0.49348">
        <ele>3.3277</ele>
        <time>2011-02-20T13:51:42Z</time>
      </trkpt>
      <trkpt lat="46.33432" lon="-0.49349">
        <ele>3.301</ele>
        <time>2011-02-20T13:51:43Z</time>
      </trkpt>
      <trkpt lat="46.33431" lon="-0.49349">
        <ele>3.2681</ele>
        <time>2011-02-20T13:51:44Z</time>
      </trkpt>
      <trkpt lat="46.33429" lon="-0.4935">
        <ele>3.2417</ele>
        <time>2011-02-20T13:51:45Z</time>
      </trkpt>
      <trkpt lat="46.33429" lon="-0.4935">
        <ele>3.2333</ele>
        <time>2011-02-20T13:51:46Z</time>
      </trkpt>
      <trkpt lat="46.33428" lon="-0.4935">
        <ele>3.2333</ele>
        <time>2011-02-20T13:51:47Z</time>
      </trkpt>
      <trkpt lat="46.33427" lon="-0.49352">
        <ele>3.2367</ele>
        <time>2011-02-20T13:51:48Z</time>
      </trkpt>
      <trkpt lat="46.33426" lon="-0.49352">
        <ele>3.2169</ele>
        <time>2011-02-20T13:51:49Z</time>
      </trkpt>
      <trkpt lat="46.33424" lon="-0.49354">
        <ele>3.2004</ele>
        <time>2011-02-20T13:51:50Z</time>
      </trkpt>
      <trkpt lat="46.33423" lon="-0.49355">
        <ele>3.1842</ele>
        <time>2011-02-20T13:51:51Z</time>
      </trkpt>
      <trkpt lat="46.33422" lon="-0.49355">
        <ele>3.1737</ele>
        <time>2011-02-20T13:51:52Z</time>
      </trkpt>
      <trkpt lat="46.33421" lon="-0.49356">
        <ele>3.1636</ele>
        <time>2011-02-20T13:51:53Z</time>
      </trkpt>
      <trkpt lat="46.33421" lon="-0.49357">
        <ele>3.1416</ele>
        <time>2011-02-20T13:51:54Z</time>
      </trkpt>
      <trkpt lat="46.33419" lon="-0.49358">
        <ele>3.1133</ele>
        <time>2011-02-20T13:51:55Z</time>
      </trkpt>
      <trkpt lat="46.33418" lon="-0.49359">
        <ele>3.0904</ele>
        <time>2011-02-20T13:51:56Z</time>
      </trkpt>
      <trkpt lat="46.33417" lon="-0.4936">
        <ele>3.076</ele>
        <time>2011-02-20T13:51:57Z</time>
      </trkpt>
      <trkpt lat="46.33416" lon="-0.49361">
        <ele>3.065</ele>
        <time>2011-02-20T13:51:58Z</time>
      </trkpt>
      <trkpt lat="46.33415" lon="-0.49362">
        <ele>3.0606</ele>
        <time>2011-02-20T13:51:59Z</time>
      </trkpt>
      <trkpt lat="46.33414" lon="-0.49363">
        <ele>3.0604</ele>
        <time>2011-02-20T13:52:00Z</time>
      </trkpt>
      <trkpt lat="46.33413" lon="-0.49364">
        <ele>3.0606</ele>
        <time>2011-02-20T13:52:01Z</time>
      </trkpt>
      <trkpt lat="46.33412" lon="-0.49365">
        <ele>3.064</ele>
        <time>2011-02-20T13:52:02Z</time>
      </trkpt>
      <trkpt lat="46.33411" lon="-0.49366">
        <ele>3.0677</ele>
        <time>2011-02-20T13:52:03Z</time>
      </trkpt>
      <trkpt lat="46.3341" lon="-0.49366">
        <ele>3.0804</ele>
        <time>2011-02-20T13:52:04Z</time>
      </trkpt>
      <trkpt lat="46.33409" lon="-0.49367">
        <ele>3.1024</ele>
        <time>2011-02-20T13:52:05Z</time>
      </trkpt>
      <trkpt lat="46.33408" lon="-0.49367">
        <ele>3.1279</ele>
        <time>2011-02-20T13:52:06Z</time>
      </trkpt>
      <trkpt lat="46.33406" lon="-0.49368">
        <ele>3.1547</ele>
        <time>2011-02-20T13:52:07Z</time>
      </trkpt>
      <trkpt lat="46.33406" lon="-0.49368">
        <ele>3.1814</ele>
        <time>2011-02-20T13:52:08Z</time>
      </trkpt>
      <trkpt lat="46.33405" lon="-0.49369">
        <ele>3.2049</ele>
        <time>2011-02-20T13:52:09Z</time>
      </trkpt>
      <trkpt lat="46.33403" lon="-0.4937">
        <ele>3.2282</ele>
        <time>2011-02-20T13:52:10Z</time>
      </trkpt>
      <trkpt lat="46.33403" lon="-0.49371">
        <ele>3.2518</ele>
        <time>2011-02-20T13:52:11Z</time>
      </trkpt>
      <trkpt lat="46.33402" lon="-0.49371">
        <ele>3.28</ele>
        <time>2011-02-20T13:52:12Z</time>
      </trkpt>
      <trkpt lat="46.33402" lon="-0.49371">
        <ele>3.3111</ele>
        <time>2011-02-20T13:52:13Z</time>
      </trkpt>
      <trkpt lat="46.33401" lon="-0.49372">
        <ele>3.3413</ele>
        <time>2011-02-20T13:52:14Z</time>
      </trkpt>
      <trkpt lat="46.334" lon="-0.49372">
        <ele>3.367</ele>
        <time>2011-02-20T13:52:15Z</time>
      </trkpt>
      <trkpt lat="46.334" lon="-0.49373">
        <ele>3.3914</ele>
        <time>2011-02-20T13:52:16Z</time>
      </trkpt>
      <trkpt lat="46.33399" lon="-0.49373">
        <ele>3.4158</ele>
        <time>2011-02-20T13:52:17Z</time>
      </trkpt>
      <trkpt lat="46.33398" lon="-0.49374">
        <ele>3.4403</ele>
        <time>2011-02-20T13:52:18Z</time>
      </trkpt>
      <trkpt lat="46.33397" lon="-0.49375">
        <ele>3.465</ele>
        <time>2011-02-20T13:52:19Z</time>
      </trkpt>
      <trkpt lat="46.33397" lon="-0.49376">
        <ele>3.4916</ele>
        <time>2011-02-20T13:52:20Z</time>
      </trkpt>
      <trkpt lat="46.33396" lon="-0.49376">
        <ele>3.5213</ele>
        <time>2011-02-20T13:52:21Z</time>
      </trkpt>
      <trkpt lat="46.33395" lon="-0.49377">
        <ele>3.5537</ele>
        <time>2011-02-20T13:52:22Z</time>
      </trkpt>
      <trkpt lat="46.33394" lon="-0.49377">
        <ele>3.5895</ele>
        <time>2011-02-20T13:52:23Z</time>
      </trkpt>
      <trkpt lat="46.33393" lon="-0.49377">
        <ele>3.6253</ele>
        <time>2011-02-20T13:52:24Z</time>
      </trkpt>
      <trkpt lat="46.33392" lon="-0.49377">
        <ele>3.6607</ele>
        <time>2011-02-20T13:52:25Z</time>
      </trkpt>
      <trkpt lat="46.33391" lon="-0.49377">
        <ele>3.6966</ele>
        <time>2011-02-20T13:52:26Z</time>
      </trkpt>
      <trkpt lat="46.3339" lon="-0.49377">
        <ele>3.7322</ele>
        <time>2011-02-20T13:52:27Z</time>
      </trkpt>
      <trkpt lat="46.33389" lon="-0.49378">
        <ele>3.7684</ele>
        <time>2011-02-20T13:52:28Z</time>
      </trkpt>
      <trkpt lat="46.33388" lon="-0.49378">
        <ele>3.8045</ele>
        <time>2011-02-20T13:52:29Z</time>
      </trkpt>
      <trkpt lat="46.33387" lon="-0.49378">
        <ele>3.8448</ele>
        <time>2011-02-20T13:52:30Z</time>
      </trkpt>
      <trkpt lat="46.33386" lon="-0.49379">
        <ele>3.8916</ele>
        <time>2011-02-20T13:52:31Z</time>
      </trkpt>
      <trkpt lat="46.33384" lon="-0.49379">
        <ele>3.9415</ele>
        <time>2011-02-20T13:52:32Z</time>
      </trkpt>
      <trkpt lat="46.33383" lon="-0.4938">
        <ele>3.9885</ele>
        <time>2011-02-20T13:52:33Z</time>
      </trkpt>
      <trkpt lat="46.33382" lon="-0.49381">
        <ele>4.0382</ele>
        <time>2011-02-20T13:52:34Z</time>
      </trkpt>
      <trkpt lat="46.33381" lon="-0.49382">
        <ele>4.0861</ele>
        <time>2011-02-20T13:52:35Z</time>
      </trkpt>
      <trkpt lat="46.33379" lon="-0.49382">
        <ele>4.1317</ele>
        <time>2011-02-20T13:52:36Z</time>
      </trkpt>
      <trkpt lat="46.33378" lon="-0.49383">
        <ele>4.1757</ele>
        <time>2011-02-20T13:52:37Z</time>
      </trkpt>
      <trkpt lat="46.33377" lon="-0.49384">
        <ele>4.2177</ele>
        <time>2011-02-20T13:52:38Z</time>
      </trkpt>
      <trkpt lat="46.33375" lon="-0.49384">
        <ele>4.26</ele>
        <time>2011-02-20T13:52:39Z</time>
      </trkpt>
      <trkpt lat="46.33374" lon="-0.49385">
        <ele>4.3084</ele>
        <time>2011-02-20T13:52:40Z</time>
      </trkpt>
      <trkpt lat="46.33373" lon="-0.49385">
        <ele>4.3611</ele>
        <time>2011-02-20T13:52:41Z</time>
      </trkpt>
      <trkpt lat="46.33371" lon="-0.49386">
        <ele>4.41</ele>
        <time>2011-02-20T13:52:42Z</time>
      </trkpt>
      <trkpt lat="46.3337" lon="-0.49386">
        <ele>4.4571</ele>
        <time>2011-02-20T13:52:43Z</time>
      </trkpt>
      <trkpt lat="46.33369" lon="-0.49386">
        <ele>4.5016</ele>
        <time>2011-02-20T13:52:44Z</time>
      </trkpt>
      <trkpt lat="46.33368" lon="-0.49387">
        <ele>4.5431</ele>
        <time>2011-02-20T13:52:45Z</time>
      </trkpt>
      <trkpt lat="46.33367" lon="-0.49387">
        <ele>4.5759</ele>
        <time>2011-02-20T13:52:46Z</time>
      </trkpt>
      <trkpt lat="46.33366" lon="-0.49387">
        <ele>4.6</ele>
        <time>2011-02-20T13:52:47Z</time>
      </trkpt>
      <trkpt lat="46.33365" lon="-0.49388">
        <ele>4.6156</ele>
        <time>2011-02-20T13:52:48Z</time>
      </trkpt>
      <trkpt lat="46.33364" lon="-0.49388">
        <ele>4.6269</ele>
        <time>2011-02-20T13:52:49Z</time>
      </trkpt>
      <trkpt lat="46.33362" lon="-0.49389">
        <ele>4.6374</ele>
        <time>2011-02-20T13:52:50Z</time>
      </trkpt>
      <trkpt lat="46.33361" lon="-0.49389">
        <ele>4.6491</ele>
        <time>2011-02-20T13:52:51Z</time>
      </trkpt>
      <trkpt lat="46.3336" lon="-0.49389">
        <ele>4.6586</ele>
        <time>2011-02-20T13:52:52Z</time>
      </trkpt>
      <trkpt lat="46.33358" lon="-0.49389">
        <ele>4.6664</ele>
        <time>2011-02-20T13:52:53Z</time>
      </trkpt>
      <trkpt lat="46.33357" lon="-0.4939">
        <ele>4.6791</ele>
        <time>2011-02-20T13:52:54Z</time>
      </trkpt>
      <trkpt lat="46.33356" lon="-0.4939">
        <ele>4.6963</ele>
        <time>2011-02-20T13:52:55Z</time>
      </trkpt>
      <trkpt lat="46.33355" lon="-0.49391">
        <ele>4.7171</ele>
        <time>2011-02-20T13:52:56Z</time>
      </trkpt>
      <trkpt lat="46.33353" lon="-0.49391">
        <ele>4.737</ele>
        <time>2011-02-20T13:52:57Z</time>
      </trkpt>
      <trkpt lat="46.33352" lon="-0.49391">
        <ele>4.7597</ele>
        <time>2011-02-20T13:52:58Z</time>
      </trkpt>
      <trkpt lat="46.33351" lon="-0.49392">
        <ele>4.7845</ele>
        <time>2011-02-20T13:52:59Z</time>
      </trkpt>
      <trkpt lat="46.3335" lon="-0.49392">
        <ele>4.8103</ele>
        <time>2011-02-20T13:53:00Z</time>
      </trkpt>
      <trkpt lat="46.33349" lon="-0.49392">
        <ele>4.8352</ele>
        <time>2011-02-20T13:53:01Z</time>
      </trkpt>
      <trkpt lat="46.33348" lon="-0.49393">
        <ele>4.8608</ele>
        <time>2011-02-20T13:53:02Z</time>
      </trkpt>
      <trkpt lat="46.33347" lon="-0.49393">
        <ele>4.8927</ele>
        <time>2011-02-20T13:53:03Z</time>
      </trkpt>
      <trkpt lat="46.33345" lon="-0.49393">
        <ele>4.9263</ele>
        <time>2011-02-20T13:53:04Z</time>
      </trkpt>
      <trkpt lat="46.33344" lon="-0.49394">
        <ele>4.9634</ele>
        <time>2011-02-20T13:53:05Z</time>
      </trkpt>
      <trkpt lat="46.33344" lon="-0.49394">
        <ele>5.0052</ele>
        <time>2011-02-20T13:53:06Z</time>
      </trkpt>
      <trkpt lat="46.33342" lon="-0.49394">
        <ele>5.0457</ele>
        <time>2011-02-20T13:53:07Z</time>
      </trkpt>
      <trkpt lat="46.33341" lon="-0.49395">
        <ele>5.0859</ele>
        <time>2011-02-20T13:53:08Z</time>
      </trkpt>
      <trkpt lat="46.33341" lon="-0.49395">
        <ele>5.1262</ele>
        <time>2011-02-20T13:53:09Z</time>
      </trkpt>
      <trkpt lat="46.33339" lon="-0.49396">
        <ele>5.1665</ele>
        <time>2011-02-20T13:53:10Z</time>
      </trkpt>
      <trkpt lat="46.33339" lon="-0.49396">
        <ele>5.2028</ele>
        <time>2011-02-20T13:53:11Z</time>
      </trkpt>
      <trkpt lat="46.33338" lon="-0.49397">
        <ele>5.2357</ele>
        <time>2011-02-20T13:53:12Z</time>
      </trkpt>
      <trkpt lat="46.33337" lon="-0.49397">
        <ele>5.2664</ele>
        <time>2011-02-20T13:53:13Z</time>
      </trkpt>
      <trkpt lat="46.33337" lon="-0.49398">
        <ele>5.2969</ele>
        <time>2011-02-20T13:53:14Z</time>
      </trkpt>
      <trkpt lat="46.33336" lon="-0.49398">
        <ele>5.3167</ele>
        <time>2011-02-20T13:53:15Z</time>
      </trkpt>
      <trkpt lat="46.33335" lon="-0.49399">
        <ele>5.3408</ele>
        <time>2011-02-20T13:53:17Z</time>
      </trkpt>
      <trkpt lat="46.33335" lon="-0.494">
        <ele>5.3534</ele>
        <time>2011-02-20T13:53:18Z</time>
      </trkpt>
      <trkpt lat="46.33334" lon="-0.494">
        <ele>5.3661</ele>
        <time>2011-02-20T13:53:19Z</time>
      </trkpt>
      <trkpt lat="46.33333" lon="-0.49401">
        <ele>5.3773</ele>
        <time>2011-02-20T13:53:20Z</time>
      </trkpt>
      <trkpt lat="46.33332" lon="-0.49402">
        <ele>5.3876</ele>
        <time>2011-02-20T13:53:21Z</time>
      </trkpt>
      <trkpt lat="46.33332" lon="-0.49402">
        <ele>5.4021</ele>
        <time>2011-02-20T13:53:22Z</time>
      </trkpt>
      <trkpt lat="46.33331" lon="-0.49403">
        <ele>5.4196</ele>
        <time>2011-02-20T13:53:23Z</time>
      </trkpt>
      <trkpt lat="46.33331" lon="-0.49403">
        <ele>5.433</ele>
        <time>2011-02-20T13:53:24Z</time>
      </trkpt>
      <trkpt lat="46.3333" lon="-0.49404">
        <ele>5.4459</ele>
        <time>2011-02-20T13:53:25Z</time>
      </trkpt>
      <trkpt lat="46.33329" lon="-0.49404">
        <ele>5.4546</ele>
        <time>2011-02-20T13:53:26Z</time>
      </trkpt>
      <trkpt lat="46.33328" lon="-0.49405">
        <ele>5.4608</ele>
        <time>2011-02-20T13:53:27Z</time>
      </trkpt>
      <trkpt lat="46.33328" lon="-0.49405">
        <ele>5.4682</ele>
        <time>2011-02-20T13:53:28Z</time>
      </trkpt>
      <trkpt lat="46.33326" lon="-0.49405">
        <ele>5.4773</ele>
        <time>2011-02-20T13:53:29Z</time>
      </trkpt>
      <trkpt lat="46.33326" lon="-0.49406">
        <ele>5.4854</ele>
        <time>2011-02-20T13:53:30Z</time>
      </trkpt>
      <trkpt lat="46.33324" lon="-0.49406">
        <ele>5.4941</ele>
        <time>2011-02-20T13:53:31Z</time>
      </trkpt>
      <trkpt lat="46.33323" lon="-0.49406">
        <ele>5.5045</ele>
        <time>2011-02-20T13:53:32Z</time>
      </trkpt>
      <trkpt lat="46.33322" lon="-0.49407">
        <ele>5.5169</ele>
        <time>2011-02-20T13:53:33Z</time>
      </trkpt>
      <trkpt lat="46.33321" lon="-0.49407">
        <ele>5.5317</ele>
        <time>2011-02-20T13:53:34Z</time>
      </trkpt>
      <trkpt lat="46.3332" lon="-0.49407">
        <ele>5.5476</ele>
        <time>2011-02-20T13:53:35Z</time>
      </trkpt>
      <trkpt lat="46.33318" lon="-0.49408">
        <ele>5.5651</ele>
        <time>2011-02-20T13:53:36Z</time>
      </trkpt>
      <trkpt lat="46.33317" lon="-0.49408">
        <ele>5.5798</ele>
        <time>2011-02-20T13:53:37Z</time>
      </trkpt>
      <trkpt lat="46.33316" lon="-0.49409">
        <ele>5.5936</ele>
        <time>2011-02-20T13:53:38Z</time>
      </trkpt>
      <trkpt lat="46.33315" lon="-0.49409">
        <ele>5.6075</ele>
        <time>2011-02-20T13:53:39Z</time>
      </trkpt>
      <trkpt lat="46.33313" lon="-0.4941">
        <ele>5.6203</ele>
        <time>2011-02-20T13:53:40Z</time>
      </trkpt>
      <trkpt lat="46.33312" lon="-0.4941">
        <ele>5.6294</ele>
        <time>2011-02-20T13:53:41Z</time>
      </trkpt>
      <trkpt lat="46.33311" lon="-0.4941">
        <ele>5.6376</ele>
        <time>2011-02-20T13:53:42Z</time>
      </trkpt>
      <trkpt lat="46.3331" lon="-0.4941">
        <ele>5.6453</ele>
        <time>2011-02-20T13:53:43Z</time>
      </trkpt>
      <trkpt lat="46.33309" lon="-0.49411">
        <ele>5.6475</ele>
        <time>2011-02-20T13:53:44Z</time>
      </trkpt>
      <trkpt lat="46.33307" lon="-0.49411">
        <ele>5.6472</ele>
        <time>2011-02-20T13:53:45Z</time>
      </trkpt>
      <trkpt lat="46.33306" lon="-0.49411">
        <ele>5.6468</ele>
        <time>2011-02-20T13:53:46Z</time>
      </trkpt>
      <trkpt lat="46.33305" lon="-0.49411">
        <ele>5.6423</ele>
        <time>2011-02-20T13:53:47Z</time>
      </trkpt>
      <trkpt lat="46.33304" lon="-0.49412">
        <ele>5.6383</ele>
        <time>2011-02-20T13:53:48Z</time>
      </trkpt>
      <trkpt lat="46.33302" lon="-0.49412">
        <ele>5.6347</ele>
        <time>2011-02-20T13:53:49Z</time>
      </trkpt>
      <trkpt lat="46.33301" lon="-0.49413">
        <ele>5.6318</ele>
        <time>2011-02-20T13:53:50Z</time>
      </trkpt>
      <trkpt lat="46.33299" lon="-0.49413">
        <ele>5.6247</ele>
        <time>2011-02-20T13:53:51Z</time>
      </trkpt>
      <trkpt lat="46.33298" lon="-0.49414">
        <ele>5.6136</ele>
        <time>2011-02-20T13:53:52Z</time>
      </trkpt>
      <trkpt lat="46.33297" lon="-0.49415">
        <ele>5.6028</ele>
        <time>2011-02-20T13:53:53Z</time>
      </trkpt>
      <trkpt lat="46.33296" lon="-0.49415">
        <ele>5.5867</ele>
        <time>2011-02-20T13:53:54Z</time>
      </trkpt>
      <trkpt lat="46.33295" lon="-0.49416">
        <ele>5.5668</ele>
        <time>2011-02-20T13:53:55Z</time>
      </trkpt>
      <trkpt lat="46.33294" lon="-0.49416">
        <ele>5.544</ele>
        <time>2011-02-20T13:53:56Z</time>
      </trkpt>
      <trkpt lat="46.33293" lon="-0.49416">
        <ele>5.5223</ele>
        <time>2011-02-20T13:53:57Z</time>
      </trkpt>
      <trkpt lat="46.33292" lon="-0.49416">
        <ele>5.4999</ele>
        <time>2011-02-20T13:53:58Z</time>
      </trkpt>
      <trkpt lat="46.33291" lon="-0.49417">
        <ele>5.4778</ele>
        <time>2011-02-20T13:53:59Z</time>
      </trkpt>
      <trkpt lat="46.3329" lon="-0.49417">
        <ele>5.4559</ele>
        <time>2011-02-20T13:54:00Z</time>
      </trkpt>
      <trkpt lat="46.33289" lon="-0.49417">
        <ele>5.4385</ele>
        <time>2011-02-20T13:54:01Z</time>
      </trkpt>
      <trkpt lat="46.33288" lon="-0.49418">
        <ele>5.4205</ele>
        <time>2011-02-20T13:54:02Z</time>
      </trkpt>
      <trkpt lat="46.33284" lon="-0.49418">
        <ele>5.2593</ele>
        <time>2011-02-20T13:54:10Z</time>
      </trkpt>
      <trkpt lat="46.33283" lon="-0.49418">
        <ele>5.2324</ele>
        <time>2011-02-20T13:54:11Z</time>
      </trkpt>
      <trkpt lat="46.33282" lon="-0.49419">
        <ele>5.206</ele>
        <time>2011-02-20T13:54:12Z</time>
      </trkpt>
      <trkpt lat="46.3328" lon="-0.49419">
        <ele>5.1806</ele>
        <time>2011-02-20T13:54:13Z</time>
      </trkpt>
      <trkpt lat="46.33279" lon="-0.49419">
        <ele>5.1536</ele>
        <time>2011-02-20T13:54:14Z</time>
      </trkpt>
      <trkpt lat="46.33278" lon="-0.4942">
        <ele>5.1197</ele>
        <time>2011-02-20T13:54:15Z</time>
      </trkpt>
      <trkpt lat="46.33276" lon="-0.4942">
        <ele>5.0805</ele>
        <time>2011-02-20T13:54:16Z</time>
      </trkpt>
      <trkpt lat="46.33275" lon="-0.49421">
        <ele>5.047</ele>
        <time>2011-02-20T13:54:17Z</time>
      </trkpt>
      <trkpt lat="46.33273" lon="-0.49421">
        <ele>5.0322</ele>
        <time>2011-02-20T13:54:18Z</time>
      </trkpt>
      <trkpt lat="46.33272" lon="-0.49421">
        <ele>5.0244</ele>
        <time>2011-02-20T13:54:19Z</time>
      </trkpt>
      <trkpt lat="46.33271" lon="-0.49421">
        <ele>5.0231</ele>
        <time>2011-02-20T13:54:20Z</time>
      </trkpt>
      <trkpt lat="46.3327" lon="-0.49421">
        <ele>5.0204</ele>
        <time>2011-02-20T13:54:21Z</time>
      </trkpt>
      <trkpt lat="46.33268" lon="-0.49421">
        <ele>5.0177</ele>
        <time>2011-02-20T13:54:22Z</time>
      </trkpt>
      <trkpt lat="46.33267" lon="-0.49422">
        <ele>5.0147</ele>
        <time>2011-02-20T13:54:23Z</time>
      </trkpt>
      <trkpt lat="46.33266" lon="-0.49422">
        <ele>5.0163</ele>
        <time>2011-02-20T13:54:24Z</time>
      </trkpt>
      <trkpt lat="46.33265" lon="-0.49423">
        <ele>5.0165</ele>
        <time>2011-02-20T13:54:25Z</time>
      </trkpt>
      <trkpt lat="46.33264" lon="-0.49423">
        <ele>5.0196</ele>
        <time>2011-02-20T13:54:26Z</time>
      </trkpt>
      <trkpt lat="46.33263" lon="-0.49424">
        <ele>5.0245</ele>
        <time>2011-02-20T13:54:27Z</time>
      </trkpt>
      <trkpt lat="46.33262" lon="-0.49424">
        <ele>5.0561</ele>
        <time>2011-02-20T13:54:28Z</time>
      </trkpt>
      <trkpt lat="46.33261" lon="-0.49424">
        <ele>5.0836</ele>
        <time>2011-02-20T13:54:29Z</time>
      </trkpt>
      <trkpt lat="46.3326" lon="-0.49424">
        <ele>5.1093</ele>
        <time>2011-02-20T13:54:30Z</time>
      </trkpt>
      <trkpt lat="46.33259" lon="-0.49425">
        <ele>5.138</ele>
        <time>2011-02-20T13:54:31Z</time>
      </trkpt>
      <trkpt lat="46.33258" lon="-0.49425">
        <ele>5.1669</ele>
        <time>2011-02-20T13:54:32Z</time>
      </trkpt>
      <trkpt lat="46.33257" lon="-0.49425">
        <ele>5.1945</ele>
        <time>2011-02-20T13:54:33Z</time>
      </trkpt>
      <trkpt lat="46.33257" lon="-0.49426">
        <ele>5.2218</ele>
        <time>2011-02-20T13:54:34Z</time>
      </trkpt>
      <trkpt lat="46.33255" lon="-0.49426">
        <ele>5.2408</ele>
        <time>2011-02-20T13:54:35Z</time>
      </trkpt>
      <trkpt lat="46.33255" lon="-0.49427">
        <ele>5.2596</ele>
        <time>2011-02-20T13:54:36Z</time>
      </trkpt>
      <trkpt lat="46.33254" lon="-0.49427">
        <ele>5.2791</ele>
        <time>2011-02-20T13:54:37Z</time>
      </trkpt>
      <trkpt lat="46.33252" lon="-0.49427">
        <ele>5.3097</ele>
        <time>2011-02-20T13:54:38Z</time>
      </trkpt>
      <trkpt lat="46.33251" lon="-0.49428">
        <ele>5.3383</ele>
        <time>2011-02-20T13:54:39Z</time>
      </trkpt>
      <trkpt lat="46.33247" lon="-0.49428">
        <ele>5.4374</ele>
        <time>2011-02-20T13:54:44Z</time>
      </trkpt>
      <trkpt lat="46.33247" lon="-0.49428">
        <ele>5.4603</ele>
        <time>2011-02-20T13:54:45Z</time>
      </trkpt>
      <trkpt lat="46.33246" lon="-0.49429">
        <ele>5.477</ele>
        <time>2011-02-20T13:54:46Z</time>
      </trkpt>
      <trkpt lat="46.33244" lon="-0.49429">
        <ele>5.488</ele>
        <time>2011-02-20T13:54:47Z</time>
      </trkpt>
      <trkpt lat="46.33243" lon="-0.4943">
        <ele>5.4974</ele>
        <time>2011-02-20T13:54:48Z</time>
      </trkpt>
      <trkpt lat="46.33242" lon="-0.4943">
        <ele>5.5074</ele>
        <time>2011-02-20T13:54:49Z</time>
      </trkpt>
      <trkpt lat="46.3324" lon="-0.4943">
        <ele>5.5297</ele>
        <time>2011-02-20T13:54:50Z</time>
      </trkpt>
      <trkpt lat="46.33239" lon="-0.4943">
        <ele>5.5528</ele>
        <time>2011-02-20T13:54:51Z</time>
      </trkpt>
      <trkpt lat="46.33236" lon="-0.4943">
        <ele>5.5748</ele>
        <time>2011-02-20T13:54:52Z</time>
      </trkpt>
      <trkpt lat="46.33235" lon="-0.4943">
        <ele>5.5949</ele>
        <time>2011-02-20T13:54:53Z</time>
      </trkpt>
      <trkpt lat="46.33234" lon="-0.4943">
        <ele>5.6144</ele>
        <time>2011-02-20T13:54:54Z</time>
      </trkpt>
      <trkpt lat="46.33233" lon="-0.4943">
        <ele>5.6337</ele>
        <time>2011-02-20T13:54:55Z</time>
      </trkpt>
      <trkpt lat="46.33232" lon="-0.4943">
        <ele>5.6523</ele>
        <time>2011-02-20T13:54:56Z</time>
      </trkpt>
      <trkpt lat="46.3323" lon="-0.49432">
        <ele>5.6085</ele>
        <time>2011-02-20T13:55:03Z</time>
      </trkpt>
      <trkpt lat="46.33229" lon="-0.49433">
        <ele>5.5871</ele>
        <time>2011-02-20T13:55:04Z</time>
      </trkpt>
      <trkpt lat="46.33228" lon="-0.49433">
        <ele>5.5646</ele>
        <time>2011-02-20T13:55:05Z</time>
      </trkpt>
      <trkpt lat="46.33226" lon="-0.49433">
        <ele>5.5362</ele>
        <time>2011-02-20T13:55:06Z</time>
      </trkpt>
      <trkpt lat="46.33225" lon="-0.49432">
        <ele>5.5101</ele>
        <time>2011-02-20T13:55:07Z</time>
      </trkpt>
      <trkpt lat="46.33224" lon="-0.49432">
        <ele>5.4832</ele>
        <time>2011-02-20T13:55:08Z</time>
      </trkpt>
      <trkpt lat="46.33223" lon="-0.49431">
        <ele>5.462</ele>
        <time>2011-02-20T13:55:09Z</time>
      </trkpt>
      <trkpt lat="46.33222" lon="-0.49431">
        <ele>5.4448</ele>
        <time>2011-02-20T13:55:10Z</time>
      </trkpt>
      <trkpt lat="46.3322" lon="-0.4943">
        <ele>5.4394</ele>
        <time>2011-02-20T13:55:11Z</time>
      </trkpt>
      <trkpt lat="46.33219" lon="-0.4943">
        <ele>5.439</ele>
        <time>2011-02-20T13:55:12Z</time>
      </trkpt>
      <trkpt lat="46.33218" lon="-0.4943">
        <ele>5.4439</ele>
        <time>2011-02-20T13:55:13Z</time>
      </trkpt>
      <trkpt lat="46.33217" lon="-0.4943">
        <ele>5.4565</ele>
        <time>2011-02-20T13:55:14Z</time>
      </trkpt>
      <trkpt lat="46.33216" lon="-0.4943">
        <ele>5.4695</ele>
        <time>2011-02-20T13:55:15Z</time>
      </trkpt>
      <trkpt lat="46.33215" lon="-0.4943">
        <ele>5.4816</ele>
        <time>2011-02-20T13:55:16Z</time>
      </trkpt>
      <trkpt lat="46.33214" lon="-0.4943">
        <ele>5.511</ele>
        <time>2011-02-20T13:55:17Z</time>
      </trkpt>
      <trkpt lat="46.33213" lon="-0.4943">
        <ele>5.5423</ele>
        <time>2011-02-20T13:55:18Z</time>
      </trkpt>
      <trkpt lat="46.33212" lon="-0.4943">
        <ele>5.5747</ele>
        <time>2011-02-20T13:55:19Z</time>
      </trkpt>
      <trkpt lat="46.33211" lon="-0.4943">
        <ele>5.6237</ele>
        <time>2011-02-20T13:55:20Z</time>
      </trkpt>
      <trkpt lat="46.3321" lon="-0.4943">
        <ele>5.6706</ele>
        <time>2011-02-20T13:55:21Z</time>
      </trkpt>
      <trkpt lat="46.33209" lon="-0.4943">
        <ele>5.7177</ele>
        <time>2011-02-20T13:55:22Z</time>
      </trkpt>
      <trkpt lat="46.33209" lon="-0.4943">
        <ele>5.7626</ele>
        <time>2011-02-20T13:55:23Z</time>
      </trkpt>
      <trkpt lat="46.33208" lon="-0.49431">
        <ele>5.805</ele>
        <time>2011-02-20T13:55:24Z</time>
      </trkpt>
      <trkpt lat="46.33207" lon="-0.49431">
        <ele>5.8477</ele>
        <time>2011-02-20T13:55:25Z</time>
      </trkpt>
      <trkpt lat="46.33207" lon="-0.49431">
        <ele>5.889</ele>
        <time>2011-02-20T13:55:26Z</time>
      </trkpt>
      <trkpt lat="46.33206" lon="-0.49431">
        <ele>5.9294</ele>
        <time>2011-02-20T13:55:27Z</time>
      </trkpt>
      <trkpt lat="46.33206" lon="-0.49431">
        <ele>5.9675</ele>
        <time>2011-02-20T13:55:28Z</time>
      </trkpt>
      <trkpt lat="46.33205" lon="-0.49431">
        <ele>6.0013</ele>
        <time>2011-02-20T13:55:29Z</time>
      </trkpt>
      <trkpt lat="46.33204" lon="-0.49431">
        <ele>6.0311</ele>
        <time>2011-02-20T13:55:30Z</time>
      </trkpt>
      <trkpt lat="46.33203" lon="-0.49431">
        <ele>6.0502</ele>
        <time>2011-02-20T13:55:31Z</time>
      </trkpt>
      <trkpt lat="46.33202" lon="-0.49432">
        <ele>6.0687</ele>
        <time>2011-02-20T13:55:32Z</time>
      </trkpt>
      <trkpt lat="46.33202" lon="-0.49432">
        <ele>6.0903</ele>
        <time>2011-02-20T13:55:33Z</time>
      </trkpt>
      <trkpt lat="46.33201" lon="-0.49432">
        <ele>6.1059</ele>
        <time>2011-02-20T13:55:34Z</time>
      </trkpt>
      <trkpt lat="46.33199" lon="-0.49433">
        <ele>6.1247</ele>
        <time>2011-02-20T13:55:35Z</time>
      </trkpt>
      <trkpt lat="46.33198" lon="-0.49433">
        <ele>6.1481</ele>
        <time>2011-02-20T13:55:36Z</time>
      </trkpt>
      <trkpt lat="46.33197" lon="-0.49433">
        <ele>6.1739</ele>
        <time>2011-02-20T13:55:37Z</time>
      </trkpt>
      <trkpt lat="46.33196" lon="-0.49433">
        <ele>6.1976</ele>
        <time>2011-02-20T13:55:38Z</time>
      </trkpt>
      <trkpt lat="46.33195" lon="-0.49433">
        <ele>6.2215</ele>
        <time>2011-02-20T13:55:39Z</time>
      </trkpt>
      <trkpt lat="46.33194" lon="-0.49433">
        <ele>6.2476</ele>
        <time>2011-02-20T13:55:40Z</time>
      </trkpt>
      <trkpt lat="46.33192" lon="-0.49433">
        <ele>6.2647</ele>
        <time>2011-02-20T13:55:41Z</time>
      </trkpt>
      <trkpt lat="46.33191" lon="-0.49433">
        <ele>6.2818</ele>
        <time>2011-02-20T13:55:42Z</time>
      </trkpt>
      <trkpt lat="46.33189" lon="-0.49434">
        <ele>6.2869</ele>
        <time>2011-02-20T13:55:43Z</time>
      </trkpt>
      <trkpt lat="46.33188" lon="-0.49433">
        <ele>6.3005</ele>
        <time>2011-02-20T13:55:44Z</time>
      </trkpt>
      <trkpt lat="46.33186" lon="-0.49433">
        <ele>6.3151</ele>
        <time>2011-02-20T13:55:45Z</time>
      </trkpt>
      <trkpt lat="46.33184" lon="-0.49433">
        <ele>6.3289</ele>
        <time>2011-02-20T13:55:46Z</time>
      </trkpt>
      <trkpt lat="46.33183" lon="-0.49433">
        <ele>6.344</ele>
        <time>2011-02-20T13:55:47Z</time>
      </trkpt>
      <trkpt lat="46.33182" lon="-0.49433">
        <ele>6.3522</ele>
        <time>2011-02-20T13:55:48Z</time>
      </trkpt>
      <trkpt lat="46.33181" lon="-0.49433">
        <ele>6.3613</ele>
        <time>2011-02-20T13:55:49Z</time>
      </trkpt>
      <trkpt lat="46.3318" lon="-0.49433">
        <ele>6.3688</ele>
        <time>2011-02-20T13:55:50Z</time>
      </trkpt>
      <trkpt lat="46.33178" lon="-0.49433">
        <ele>6.3783</ele>
        <time>2011-02-20T13:55:51Z</time>
      </trkpt>
      <trkpt lat="46.33177" lon="-0.49434">
        <ele>6.3819</ele>
        <time>2011-02-20T13:55:52Z</time>
      </trkpt>
      <trkpt lat="46.33176" lon="-0.49434">
        <ele>6.3766</ele>
        <time>2011-02-20T13:55:53Z</time>
      </trkpt>
      <trkpt lat="46.33175" lon="-0.49435">
        <ele>6.3646</ele>
        <time>2011-02-20T13:55:54Z</time>
      </trkpt>
      <trkpt lat="46.33174" lon="-0.49435">
        <ele>6.3532</ele>
        <time>2011-02-20T13:55:55Z</time>
      </trkpt>
      <trkpt lat="46.33173" lon="-0.49435">
        <ele>6.3427</ele>
        <time>2011-02-20T13:55:56Z</time>
      </trkpt>
      <trkpt lat="46.33172" lon="-0.49435">
        <ele>6.3328</ele>
        <time>2011-02-20T13:55:57Z</time>
      </trkpt>
      <trkpt lat="46.33171" lon="-0.49435">
        <ele>6.3226</ele>
        <time>2011-02-20T13:55:58Z</time>
      </trkpt>
      <trkpt lat="46.3317" lon="-0.49436">
        <ele>6.311</ele>
        <time>2011-02-20T13:55:59Z</time>
      </trkpt>
      <trkpt lat="46.33168" lon="-0.49436">
        <ele>6.2987</ele>
        <time>2011-02-20T13:56:00Z</time>
      </trkpt>
      <trkpt lat="46.33168" lon="-0.49437">
        <ele>6.2878</ele>
        <time>2011-02-20T13:56:01Z</time>
      </trkpt>
      <trkpt lat="46.33167" lon="-0.49437">
        <ele>6.2751</ele>
        <time>2011-02-20T13:56:02Z</time>
      </trkpt>
      <trkpt lat="46.33166" lon="-0.49438">
        <ele>6.2633</ele>
        <time>2011-02-20T13:56:03Z</time>
      </trkpt>
      <trkpt lat="46.33165" lon="-0.49438">
        <ele>6.2503</ele>
        <time>2011-02-20T13:56:04Z</time>
      </trkpt>
      <trkpt lat="46.33164" lon="-0.49438">
        <ele>6.2381</ele>
        <time>2011-02-20T13:56:05Z</time>
      </trkpt>
      <trkpt lat="46.33163" lon="-0.49438">
        <ele>6.2251</ele>
        <time>2011-02-20T13:56:06Z</time>
      </trkpt>
      <trkpt lat="46.33162" lon="-0.49439">
        <ele>6.2122</ele>
        <time>2011-02-20T13:56:07Z</time>
      </trkpt>
      <trkpt lat="46.33161" lon="-0.49439">
        <ele>6.1995</ele>
        <time>2011-02-20T13:56:08Z</time>
      </trkpt>
      <trkpt lat="46.3316" lon="-0.49439">
        <ele>6.1864</ele>
        <time>2011-02-20T13:56:09Z</time>
      </trkpt>
      <trkpt lat="46.33159" lon="-0.49439">
        <ele>6.1713</ele>
        <time>2011-02-20T13:56:10Z</time>
      </trkpt>
      <trkpt lat="46.33158" lon="-0.49439">
        <ele>6.1575</ele>
        <time>2011-02-20T13:56:11Z</time>
      </trkpt>
      <trkpt lat="46.33157" lon="-0.49439">
        <ele>6.1433</ele>
        <time>2011-02-20T13:56:12Z</time>
      </trkpt>
      <trkpt lat="46.33156" lon="-0.49439">
        <ele>6.1276</ele>
        <time>2011-02-20T13:56:13Z</time>
      </trkpt>
      <trkpt lat="46.33154" lon="-0.49439">
        <ele>6.1059</ele>
        <time>2011-02-20T13:56:14Z</time>
      </trkpt>
      <trkpt lat="46.33153" lon="-0.49439">
        <ele>6.0748</ele>
        <time>2011-02-20T13:56:15Z</time>
      </trkpt>
      <trkpt lat="46.33152" lon="-0.4944">
        <ele>6.0449</ele>
        <time>2011-02-20T13:56:16Z</time>
      </trkpt>
      <trkpt lat="46.3315" lon="-0.4944">
        <ele>6.0134</ele>
        <time>2011-02-20T13:56:17Z</time>
      </trkpt>
      <trkpt lat="46.33149" lon="-0.4944">
        <ele>5.9865</ele>
        <time>2011-02-20T13:56:18Z</time>
      </trkpt>
      <trkpt lat="46.33147" lon="-0.4944">
        <ele>5.9572</ele>
        <time>2011-02-20T13:56:19Z</time>
      </trkpt>
      <trkpt lat="46.33146" lon="-0.4944">
        <ele>5.9297</ele>
        <time>2011-02-20T13:56:20Z</time>
      </trkpt>
      <trkpt lat="46.33145" lon="-0.4944">
        <ele>5.9016</ele>
        <time>2011-02-20T13:56:21Z</time>
      </trkpt>
      <trkpt lat="46.33143" lon="-0.4944">
        <ele>5.875</ele>
        <time>2011-02-20T13:56:22Z</time>
      </trkpt>
      <trkpt lat="46.33142" lon="-0.49441">
        <ele>5.8504</ele>
        <time>2011-02-20T13:56:23Z</time>
      </trkpt>
      <trkpt lat="46.33141" lon="-0.49441">
        <ele>5.8229</ele>
        <time>2011-02-20T13:56:24Z</time>
      </trkpt>
      <trkpt lat="46.33139" lon="-0.4944">
        <ele>5.7934</ele>
        <time>2011-02-20T13:56:25Z</time>
      </trkpt>
      <trkpt lat="46.33138" lon="-0.49441">
        <ele>5.7662</ele>
        <time>2011-02-20T13:56:26Z</time>
      </trkpt>
      <trkpt lat="46.33136" lon="-0.4944">
        <ele>5.7404</ele>
        <time>2011-02-20T13:56:27Z</time>
      </trkpt>
      <trkpt lat="46.33135" lon="-0.49441">
        <ele>5.7151</ele>
        <time>2011-02-20T13:56:28Z</time>
      </trkpt>
      <trkpt lat="46.33134" lon="-0.49441">
        <ele>5.6861</ele>
        <time>2011-02-20T13:56:29Z</time>
      </trkpt>
      <trkpt lat="46.33133" lon="-0.49441">
        <ele>5.6579</ele>
        <time>2011-02-20T13:56:30Z</time>
      </trkpt>
      <trkpt lat="46.33131" lon="-0.49441">
        <ele>5.6298</ele>
        <time>2011-02-20T13:56:31Z</time>
      </trkpt>
      <trkpt lat="46.3313" lon="-0.49441">
        <ele>5.6033</ele>
        <time>2011-02-20T13:56:32Z</time>
      </trkpt>
      <trkpt lat="46.33129" lon="-0.49441">
        <ele>5.579</ele>
        <time>2011-02-20T13:56:33Z</time>
      </trkpt>
      <trkpt lat="46.33128" lon="-0.49442">
        <ele>5.5532</ele>
        <time>2011-02-20T13:56:34Z</time>
      </trkpt>
      <trkpt lat="46.33127" lon="-0.49442">
        <ele>5.528</ele>
        <time>2011-02-20T13:56:35Z</time>
      </trkpt>
      <trkpt lat="46.33126" lon="-0.49442">
        <ele>5.5032</ele>
        <time>2011-02-20T13:56:36Z</time>
      </trkpt>
      <trkpt lat="46.33125" lon="-0.49442">
        <ele>5.4802</ele>
        <time>2011-02-20T13:56:37Z</time>
      </trkpt>
      <trkpt lat="46.33124" lon="-0.49442">
        <ele>5.4579</ele>
        <time>2011-02-20T13:56:38Z</time>
      </trkpt>
      <trkpt lat="46.33122" lon="-0.49441">
        <ele>5.436</ele>
        <time>2011-02-20T13:56:39Z</time>
      </trkpt>
      <trkpt lat="46.33121" lon="-0.49441">
        <ele>5.4129</ele>
        <time>2011-02-20T13:56:40Z</time>
      </trkpt>
      <trkpt lat="46.3312" lon="-0.49441">
        <ele>5.3898</ele>
        <time>2011-02-20T13:56:41Z</time>
      </trkpt>
      <trkpt lat="46.33118" lon="-0.4944">
        <ele>5.367</ele>
        <time>2011-02-20T13:56:42Z</time>
      </trkpt>
      <trkpt lat="46.33117" lon="-0.4944">
        <ele>5.3447</ele>
        <time>2011-02-20T13:56:43Z</time>
      </trkpt>
      <trkpt lat="46.33116" lon="-0.49439">
        <ele>5.3251</ele>
        <time>2011-02-20T13:56:44Z</time>
      </trkpt>
      <trkpt lat="46.33115" lon="-0.49439">
        <ele>5.3057</ele>
        <time>2011-02-20T13:56:45Z</time>
      </trkpt>
      <trkpt lat="46.33114" lon="-0.49439">
        <ele>5.2859</ele>
        <time>2011-02-20T13:56:46Z</time>
      </trkpt>
      <trkpt lat="46.33112" lon="-0.49439">
        <ele>5.267</ele>
        <time>2011-02-20T13:56:47Z</time>
      </trkpt>
      <trkpt lat="46.3311" lon="-0.49439">
        <ele>5.249</ele>
        <time>2011-02-20T13:56:48Z</time>
      </trkpt>
      <trkpt lat="46.33109" lon="-0.49438">
        <ele>5.2331</ele>
        <time>2011-02-20T13:56:49Z</time>
      </trkpt>
      <trkpt lat="46.33108" lon="-0.49438">
        <ele>5.2212</ele>
        <time>2011-02-20T13:56:50Z</time>
      </trkpt>
      <trkpt lat="46.33107" lon="-0.49437">
        <ele>5.2106</ele>
        <time>2011-02-20T13:56:51Z</time>
      </trkpt>
      <trkpt lat="46.33106" lon="-0.49437">
        <ele>5.1999</ele>
        <time>2011-02-20T13:56:52Z</time>
      </trkpt>
      <trkpt lat="46.33104" lon="-0.49437">
        <ele>5.1863</ele>
        <time>2011-02-20T13:56:53Z</time>
      </trkpt>
      <trkpt lat="46.33103" lon="-0.49437">
        <ele>5.1727</ele>
        <time>2011-02-20T13:56:54Z</time>
      </trkpt>
      <trkpt lat="46.33102" lon="-0.49438">
        <ele>5.1585</ele>
        <time>2011-02-20T13:56:55Z</time>
      </trkpt>
      <trkpt lat="46.33101" lon="-0.49438">
        <ele>5.1453</ele>
        <time>2011-02-20T13:56:56Z</time>
      </trkpt>
      <trkpt lat="46.331" lon="-0.49439">
        <ele>5.1353</ele>
        <time>2011-02-20T13:56:57Z</time>
      </trkpt>
      <trkpt lat="46.33099" lon="-0.49439">
        <ele>5.1272</ele>
        <time>2011-02-20T13:56:58Z</time>
      </trkpt>
      <trkpt lat="46.33098" lon="-0.49439">
        <ele>5.1205</ele>
        <time>2011-02-20T13:56:59Z</time>
      </trkpt>
      <trkpt lat="46.33097" lon="-0.49439">
        <ele>5.1165</ele>
        <time>2011-02-20T13:57:00Z</time>
      </trkpt>
      <trkpt lat="46.33096" lon="-0.49439">
        <ele>5.1126</ele>
        <time>2011-02-20T13:57:01Z</time>
      </trkpt>
      <trkpt lat="46.33094" lon="-0.49439">
        <ele>5.1079</ele>
        <time>2011-02-20T13:57:02Z</time>
      </trkpt>
      <trkpt lat="46.33093" lon="-0.49439">
        <ele>5.1</ele>
        <time>2011-02-20T13:57:03Z</time>
      </trkpt>
      <trkpt lat="46.33093" lon="-0.49439">
        <ele>5.092</ele>
        <time>2011-02-20T13:57:04Z</time>
      </trkpt>
      <trkpt lat="46.33091" lon="-0.49439">
        <ele>5.0812</ele>
        <time>2011-02-20T13:57:05Z</time>
      </trkpt>
      <trkpt lat="46.3309" lon="-0.49439">
        <ele>5.0701</ele>
        <time>2011-02-20T13:57:06Z</time>
      </trkpt>
      <trkpt lat="46.33089" lon="-0.49438">
        <ele>5.0579</ele>
        <time>2011-02-20T13:57:07Z</time>
      </trkpt>
      <trkpt lat="46.33088" lon="-0.49438">
        <ele>5.0439</ele>
        <time>2011-02-20T13:57:08Z</time>
      </trkpt>
      <trkpt lat="46.33087" lon="-0.49437">
        <ele>5.0316</ele>
        <time>2011-02-20T13:57:09Z</time>
      </trkpt>
      <trkpt lat="46.33086" lon="-0.49437">
        <ele>5.0188</ele>
        <time>2011-02-20T13:57:10Z</time>
      </trkpt>
      <trkpt lat="46.33085" lon="-0.49437">
        <ele>5.0061</ele>
        <time>2011-02-20T13:57:11Z</time>
      </trkpt>
      <trkpt lat="46.33084" lon="-0.49437">
        <ele>5.001</ele>
        <time>2011-02-20T13:57:12Z</time>
      </trkpt>
      <trkpt lat="46.33083" lon="-0.49437">
        <ele>5.0022</ele>
        <time>2011-02-20T13:57:13Z</time>
      </trkpt>
      <trkpt lat="46.33082" lon="-0.49437">
        <ele>5.0037</ele>
        <time>2011-02-20T13:57:14Z</time>
      </trkpt>
      <trkpt lat="46.33081" lon="-0.49437">
        <ele>5.0016</ele>
        <time>2011-02-20T13:57:15Z</time>
      </trkpt>
      <trkpt lat="46.33081" lon="-0.49436">
        <ele>4.9979</ele>
        <time>2011-02-20T13:57:16Z</time>
      </trkpt>
      <trkpt lat="46.3308" lon="-0.49436">
        <ele>4.9927</ele>
        <time>2011-02-20T13:57:17Z</time>
      </trkpt>
      <trkpt lat="46.3308" lon="-0.49436">
        <ele>4.9871</ele>
        <time>2011-02-20T13:57:18Z</time>
      </trkpt>
      <trkpt lat="46.33078" lon="-0.49436">
        <ele>4.9825</ele>
        <time>2011-02-20T13:57:19Z</time>
      </trkpt>
      <trkpt lat="46.33077" lon="-0.49435">
        <ele>4.9792</ele>
        <time>2011-02-20T13:57:20Z</time>
      </trkpt>
      <trkpt lat="46.33076" lon="-0.49435">
        <ele>4.9762</ele>
        <time>2011-02-20T13:57:21Z</time>
      </trkpt>
      <trkpt lat="46.33075" lon="-0.49435">
        <ele>4.9716</ele>
        <time>2011-02-20T13:57:22Z</time>
      </trkpt>
      <trkpt lat="46.33074" lon="-0.49434">
        <ele>4.9675</ele>
        <time>2011-02-20T13:57:23Z</time>
      </trkpt>
      <trkpt lat="46.33073" lon="-0.49434">
        <ele>4.9651</ele>
        <time>2011-02-20T13:57:24Z</time>
      </trkpt>
      <trkpt lat="46.33072" lon="-0.49434">
        <ele>4.9638</ele>
        <time>2011-02-20T13:57:25Z</time>
      </trkpt>
      <trkpt lat="46.33072" lon="-0.49434">
        <ele>4.9547</ele>
        <time>2011-02-20T13:57:26Z</time>
      </trkpt>
      <trkpt lat="46.33071" lon="-0.49434">
        <ele>4.9452</ele>
        <time>2011-02-20T13:57:27Z</time>
      </trkpt>
      <trkpt lat="46.3307" lon="-0.49435">
        <ele>4.9198</ele>
        <time>2011-02-20T13:57:28Z</time>
      </trkpt>
      <trkpt lat="46.33069" lon="-0.49434">
        <ele>4.8814</ele>
        <time>2011-02-20T13:57:29Z</time>
      </trkpt>
      <trkpt lat="46.33068" lon="-0.49434">
        <ele>4.8296</ele>
        <time>2011-02-20T13:57:30Z</time>
      </trkpt>
      <trkpt lat="46.33067" lon="-0.49434">
        <ele>4.773</ele>
        <time>2011-02-20T13:57:31Z</time>
      </trkpt>
      <trkpt lat="46.33066" lon="-0.49434">
        <ele>4.7155</ele>
        <time>2011-02-20T13:57:32Z</time>
      </trkpt>
      <trkpt lat="46.33065" lon="-0.49434">
        <ele>4.6601</ele>
        <time>2011-02-20T13:57:33Z</time>
      </trkpt>
      <trkpt lat="46.33064" lon="-0.49434">
        <ele>4.6061</ele>
        <time>2011-02-20T13:57:34Z</time>
      </trkpt>
      <trkpt lat="46.33063" lon="-0.49434">
        <ele>4.552</ele>
        <time>2011-02-20T13:57:35Z</time>
      </trkpt>
      <trkpt lat="46.33062" lon="-0.49434">
        <ele>4.4964</ele>
        <time>2011-02-20T13:57:36Z</time>
      </trkpt>
      <trkpt lat="46.33061" lon="-0.49435">
        <ele>4.4416</ele>
        <time>2011-02-20T13:57:37Z</time>
      </trkpt>
      <trkpt lat="46.3306" lon="-0.49436">
        <ele>4.3869</ele>
        <time>2011-02-20T13:57:38Z</time>
      </trkpt>
      <trkpt lat="46.33059" lon="-0.49436">
        <ele>4.3354</ele>
        <time>2011-02-20T13:57:39Z</time>
      </trkpt>
      <trkpt lat="46.33057" lon="-0.49436">
        <ele>4.2831</ele>
        <time>2011-02-20T13:57:40Z</time>
      </trkpt>
      <trkpt lat="46.33056" lon="-0.49436">
        <ele>4.2313</ele>
        <time>2011-02-20T13:57:41Z</time>
      </trkpt>
      <trkpt lat="46.33055" lon="-0.49437">
        <ele>4.1786</ele>
        <time>2011-02-20T13:57:42Z</time>
      </trkpt>
      <trkpt lat="46.33054" lon="-0.49437">
        <ele>4.1229</ele>
        <time>2011-02-20T13:57:43Z</time>
      </trkpt>
      <trkpt lat="46.33053" lon="-0.49437">
        <ele>4.0675</ele>
        <time>2011-02-20T13:57:44Z</time>
      </trkpt>
      <trkpt lat="46.33052" lon="-0.49437">
        <ele>4.0068</ele>
        <time>2011-02-20T13:57:45Z</time>
      </trkpt>
      <trkpt lat="46.33052" lon="-0.49437">
        <ele>3.9617</ele>
        <time>2011-02-20T13:57:46Z</time>
      </trkpt>
      <trkpt lat="46.33051" lon="-0.49435">
        <ele>3.8637</ele>
        <time>2011-02-20T13:57:49Z</time>
      </trkpt>
      <trkpt lat="46.3305" lon="-0.49435">
        <ele>3.8135</ele>
        <time>2011-02-20T13:57:50Z</time>
      </trkpt>
      <trkpt lat="46.33049" lon="-0.49434">
        <ele>3.7513</ele>
        <time>2011-02-20T13:57:51Z</time>
      </trkpt>
      <trkpt lat="46.33048" lon="-0.49435">
        <ele>3.7021</ele>
        <time>2011-02-20T13:57:52Z</time>
      </trkpt>
      <trkpt lat="46.33046" lon="-0.49434">
        <ele>3.6466</ele>
        <time>2011-02-20T13:57:53Z</time>
      </trkpt>
      <trkpt lat="46.33045" lon="-0.49434">
        <ele>3.6466</ele>
        <time>2011-02-20T13:57:54Z</time>
      </trkpt>
      <trkpt lat="46.33044" lon="-0.49435">
        <ele>3.5887</ele>
        <time>2011-02-20T13:57:55Z</time>
      </trkpt>
      <trkpt lat="46.33042" lon="-0.49435">
        <ele>3.5191</ele>
        <time>2011-02-20T13:57:56Z</time>
      </trkpt>
      <trkpt lat="46.33041" lon="-0.49435">
        <ele>3.4425</ele>
        <time>2011-02-20T13:57:57Z</time>
      </trkpt>
      <trkpt lat="46.3304" lon="-0.49435">
        <ele>3.3711</ele>
        <time>2011-02-20T13:57:58Z</time>
      </trkpt>
      <trkpt lat="46.33039" lon="-0.49435">
        <ele>3.2962</ele>
        <time>2011-02-20T13:57:59Z</time>
      </trkpt>
      <trkpt lat="46.33038" lon="-0.49435">
        <ele>3.2212</ele>
        <time>2011-02-20T13:58:00Z</time>
      </trkpt>
      <trkpt lat="46.33037" lon="-0.49435">
        <ele>3.1612</ele>
        <time>2011-02-20T13:58:01Z</time>
      </trkpt>
      <trkpt lat="46.33036" lon="-0.49434">
        <ele>3.1097</ele>
        <time>2011-02-20T13:58:02Z</time>
      </trkpt>
      <trkpt lat="46.33035" lon="-0.49434">
        <ele>3.0618</ele>
        <time>2011-02-20T13:58:03Z</time>
      </trkpt>
      <trkpt lat="46.33033" lon="-0.49434">
        <ele>3.0445</ele>
        <time>2011-02-20T13:58:04Z</time>
      </trkpt>
      <trkpt lat="46.33032" lon="-0.49434">
        <ele>3.0272</ele>
        <time>2011-02-20T13:58:05Z</time>
      </trkpt>
      <trkpt lat="46.33031" lon="-0.49434">
        <ele>3.0109</ele>
        <time>2011-02-20T13:58:06Z</time>
      </trkpt>
      <trkpt lat="46.3303" lon="-0.49434">
        <ele>2.9951</ele>
        <time>2011-02-20T13:58:07Z</time>
      </trkpt>
      <trkpt lat="46.33029" lon="-0.49434">
        <ele>2.9793</ele>
        <time>2011-02-20T13:58:08Z</time>
      </trkpt>
      <trkpt lat="46.33028" lon="-0.49434">
        <ele>2.9622</ele>
        <time>2011-02-20T13:58:09Z</time>
      </trkpt>
      <trkpt lat="46.33027" lon="-0.49434">
        <ele>2.9463</ele>
        <time>2011-02-20T13:58:10Z</time>
      </trkpt>
      <trkpt lat="46.33026" lon="-0.49434">
        <ele>2.9305</ele>
        <time>2011-02-20T13:58:11Z</time>
      </trkpt>
      <trkpt lat="46.33025" lon="-0.49434">
        <ele>2.9148</ele>
        <time>2011-02-20T13:58:12Z</time>
      </trkpt>
      <trkpt lat="46.33024" lon="-0.49433">
        <ele>2.9183</ele>
        <time>2011-02-20T13:58:13Z</time>
      </trkpt>
      <trkpt lat="46.33022" lon="-0.49433">
        <ele>2.9127</ele>
        <time>2011-02-20T13:58:14Z</time>
      </trkpt>
      <trkpt lat="46.33021" lon="-0.49433">
        <ele>2.9051</ele>
        <time>2011-02-20T13:58:15Z</time>
      </trkpt>
      <trkpt lat="46.3302" lon="-0.49432">
        <ele>2.897</ele>
        <time>2011-02-20T13:58:16Z</time>
      </trkpt>
      <trkpt lat="46.33019" lon="-0.49432">
        <ele>2.89</ele>
        <time>2011-02-20T13:58:17Z</time>
      </trkpt>
      <trkpt lat="46.33018" lon="-0.49432">
        <ele>2.8831</ele>
        <time>2011-02-20T13:58:18Z</time>
      </trkpt>
      <trkpt lat="46.33017" lon="-0.49432">
        <ele>2.8696</ele>
        <time>2011-02-20T13:58:19Z</time>
      </trkpt>
      <trkpt lat="46.33016" lon="-0.49432">
        <ele>2.85</ele>
        <time>2011-02-20T13:58:20Z</time>
      </trkpt>
      <trkpt lat="46.33015" lon="-0.49433">
        <ele>2.823</ele>
        <time>2011-02-20T13:58:21Z</time>
      </trkpt>
      <trkpt lat="46.33014" lon="-0.49433">
        <ele>2.8005</ele>
        <time>2011-02-20T13:58:22Z</time>
      </trkpt>
      <trkpt lat="46.33013" lon="-0.49433">
        <ele>2.7843</ele>
        <time>2011-02-20T13:58:23Z</time>
      </trkpt>
      <trkpt lat="46.33012" lon="-0.49433">
        <ele>2.7723</ele>
        <time>2011-02-20T13:58:24Z</time>
      </trkpt>
      <trkpt lat="46.33011" lon="-0.49433">
        <ele>2.7693</ele>
        <time>2011-02-20T13:58:25Z</time>
      </trkpt>
      <trkpt lat="46.3301" lon="-0.49433">
        <ele>2.7762</ele>
        <time>2011-02-20T13:58:26Z</time>
      </trkpt>
      <trkpt lat="46.33009" lon="-0.49432">
        <ele>2.793</ele>
        <time>2011-02-20T13:58:27Z</time>
      </trkpt>
      <trkpt lat="46.33009" lon="-0.49432">
        <ele>2.8083</ele>
        <time>2011-02-20T13:58:28Z</time>
      </trkpt>
      <trkpt lat="46.33008" lon="-0.49432">
        <ele>2.827</ele>
        <time>2011-02-20T13:58:29Z</time>
      </trkpt>
      <trkpt lat="46.33008" lon="-0.49432">
        <ele>2.8424</ele>
        <time>2011-02-20T13:58:30Z</time>
      </trkpt>
      <trkpt lat="46.33007" lon="-0.49431">
        <ele>2.8671</ele>
        <time>2011-02-20T13:58:31Z</time>
      </trkpt>
      <trkpt lat="46.33006" lon="-0.49431">
        <ele>2.9015</ele>
        <time>2011-02-20T13:58:32Z</time>
      </trkpt>
      <trkpt lat="46.33005" lon="-0.49431">
        <ele>2.9394</ele>
        <time>2011-02-20T13:58:33Z</time>
      </trkpt>
      <trkpt lat="46.33004" lon="-0.49431">
        <ele>2.9773</ele>
        <time>2011-02-20T13:58:34Z</time>
      </trkpt>
      <trkpt lat="46.33003" lon="-0.49431">
        <ele>3.0256</ele>
        <time>2011-02-20T13:58:35Z</time>
      </trkpt>
      <trkpt lat="46.33003" lon="-0.49431">
        <ele>3.0721</ele>
        <time>2011-02-20T13:58:36Z</time>
      </trkpt>
      <trkpt lat="46.33001" lon="-0.49432">
        <ele>3.1135</ele>
        <time>2011-02-20T13:58:37Z</time>
      </trkpt>
      <trkpt lat="46.33001" lon="-0.49432">
        <ele>3.1554</ele>
        <time>2011-02-20T13:58:38Z</time>
      </trkpt>
      <trkpt lat="46.32999" lon="-0.49432">
        <ele>3.198</ele>
        <time>2011-02-20T13:58:39Z</time>
      </trkpt>
      <trkpt lat="46.32999" lon="-0.49433">
        <ele>3.2475</ele>
        <time>2011-02-20T13:58:40Z</time>
      </trkpt>
      <trkpt lat="46.32998" lon="-0.49433">
        <ele>3.2966</ele>
        <time>2011-02-20T13:58:41Z</time>
      </trkpt>
      <trkpt lat="46.32997" lon="-0.49434">
        <ele>3.3585</ele>
        <time>2011-02-20T13:58:42Z</time>
      </trkpt>
      <trkpt lat="46.32996" lon="-0.49434">
        <ele>3.4218</ele>
        <time>2011-02-20T13:58:43Z</time>
      </trkpt>
      <trkpt lat="46.32994" lon="-0.49434">
        <ele>3.502</ele>
        <time>2011-02-20T13:58:44Z</time>
      </trkpt>
      <trkpt lat="46.32993" lon="-0.49434">
        <ele>3.5952</ele>
        <time>2011-02-20T13:58:45Z</time>
      </trkpt>
      <trkpt lat="46.32991" lon="-0.49434">
        <ele>3.6901</ele>
        <time>2011-02-20T13:58:46Z</time>
      </trkpt>
      <trkpt lat="46.3299" lon="-0.49434">
        <ele>3.7757</ele>
        <time>2011-02-20T13:58:47Z</time>
      </trkpt>
      <trkpt lat="46.32989" lon="-0.49435">
        <ele>3.8612</ele>
        <time>2011-02-20T13:58:48Z</time>
      </trkpt>
      <trkpt lat="46.32988" lon="-0.49435">
        <ele>3.9443</ele>
        <time>2011-02-20T13:58:49Z</time>
      </trkpt>
      <trkpt lat="46.32987" lon="-0.49436">
        <ele>4.0272</ele>
        <time>2011-02-20T13:58:50Z</time>
      </trkpt>
      <trkpt lat="46.32987" lon="-0.49436">
        <ele>4.1098</ele>
        <time>2011-02-20T13:58:51Z</time>
      </trkpt>
      <trkpt lat="46.32985" lon="-0.49436">
        <ele>4.1908</ele>
        <time>2011-02-20T13:58:52Z</time>
      </trkpt>
      <trkpt lat="46.32985" lon="-0.49436">
        <ele>4.271</ele>
        <time>2011-02-20T13:58:53Z</time>
      </trkpt>
      <trkpt lat="46.32984" lon="-0.49436">
        <ele>4.349</ele>
        <time>2011-02-20T13:58:54Z</time>
      </trkpt>
      <trkpt lat="46.32983" lon="-0.49436">
        <ele>4.4233</ele>
        <time>2011-02-20T13:58:55Z</time>
      </trkpt>
      <trkpt lat="46.32982" lon="-0.49436">
        <ele>4.4966</ele>
        <time>2011-02-20T13:58:56Z</time>
      </trkpt>
      <trkpt lat="46.32982" lon="-0.49436">
        <ele>4.5648</ele>
        <time>2011-02-20T13:58:57Z</time>
      </trkpt>
      <trkpt lat="46.32981" lon="-0.49436">
        <ele>4.6316</ele>
        <time>2011-02-20T13:58:58Z</time>
      </trkpt>
      <trkpt lat="46.3298" lon="-0.49435">
        <ele>4.7049</ele>
        <time>2011-02-20T13:58:59Z</time>
      </trkpt>
      <trkpt lat="46.3298" lon="-0.49435">
        <ele>4.7777</ele>
        <time>2011-02-20T13:59:00Z</time>
      </trkpt>
      <trkpt lat="46.32979" lon="-0.49434">
        <ele>4.8494</ele>
        <time>2011-02-20T13:59:01Z</time>
      </trkpt>
      <trkpt lat="46.32979" lon="-0.49434">
        <ele>4.9179</ele>
        <time>2011-02-20T13:59:02Z</time>
      </trkpt>
      <trkpt lat="46.32978" lon="-0.49434">
        <ele>4.9854</ele>
        <time>2011-02-20T13:59:03Z</time>
      </trkpt>
      <trkpt lat="46.32978" lon="-0.49434">
        <ele>5.0533</ele>
        <time>2011-02-20T13:59:04Z</time>
      </trkpt>
      <trkpt lat="46.32977" lon="-0.49434">
        <ele>5.1198</ele>
        <time>2011-02-20T13:59:05Z</time>
      </trkpt>
      <trkpt lat="46.32977" lon="-0.49434">
        <ele>5.1898</ele>
        <time>2011-02-20T13:59:06Z</time>
      </trkpt>
      <trkpt lat="46.32976" lon="-0.49435">
        <ele>5.324</ele>
        <time>2011-02-20T13:59:09Z</time>
      </trkpt>
      <trkpt lat="46.32975" lon="-0.49435">
        <ele>5.3731</ele>
        <time>2011-02-20T13:59:10Z</time>
      </trkpt>
      <trkpt lat="46.32974" lon="-0.49435">
        <ele>5.4227</ele>
        <time>2011-02-20T13:59:11Z</time>
      </trkpt>
      <trkpt lat="46.32973" lon="-0.49435">
        <ele>5.4711</ele>
        <time>2011-02-20T13:59:12Z</time>
      </trkpt>
      <trkpt lat="46.32972" lon="-0.49434">
        <ele>5.5004</ele>
        <time>2011-02-20T13:59:13Z</time>
      </trkpt>
      <trkpt lat="46.32971" lon="-0.49434">
        <ele>5.5097</ele>
        <time>2011-02-20T13:59:14Z</time>
      </trkpt>
      <trkpt lat="46.3297" lon="-0.49435">
        <ele>5.4914</ele>
        <time>2011-02-20T13:59:15Z</time>
      </trkpt>
      <trkpt lat="46.32969" lon="-0.49435">
        <ele>5.4579</ele>
        <time>2011-02-20T13:59:16Z</time>
      </trkpt>
      <trkpt lat="46.32968" lon="-0.49435">
        <ele>5.4227</ele>
        <time>2011-02-20T13:59:17Z</time>
      </trkpt>
      <trkpt lat="46.32967" lon="-0.49435">
        <ele>5.3892</ele>
        <time>2011-02-20T13:59:18Z</time>
      </trkpt>
      <trkpt lat="46.32966" lon="-0.49435">
        <ele>5.3583</ele>
        <time>2011-02-20T13:59:19Z</time>
      </trkpt>
      <trkpt lat="46.32964" lon="-0.49435">
        <ele>5.3173</ele>
        <time>2011-02-20T13:59:20Z</time>
      </trkpt>
      <trkpt lat="46.32963" lon="-0.49434">
        <ele>5.2784</ele>
        <time>2011-02-20T13:59:21Z</time>
      </trkpt>
      <trkpt lat="46.32962" lon="-0.49434">
        <ele>5.2277</ele>
        <time>2011-02-20T13:59:22Z</time>
      </trkpt>
      <trkpt lat="46.32961" lon="-0.49434">
        <ele>5.194</ele>
        <time>2011-02-20T13:59:23Z</time>
      </trkpt>
      <trkpt lat="46.32959" lon="-0.49434">
        <ele>5.1592</ele>
        <time>2011-02-20T13:59:24Z</time>
      </trkpt>
      <trkpt lat="46.32959" lon="-0.49433">
        <ele>5.1239</ele>
        <time>2011-02-20T13:59:25Z</time>
      </trkpt>
      <trkpt lat="46.32958" lon="-0.49433">
        <ele>5.0901</ele>
        <time>2011-02-20T13:59:26Z</time>
      </trkpt>
      <trkpt lat="46.32956" lon="-0.49433">
        <ele>5.0537</ele>
        <time>2011-02-20T13:59:27Z</time>
      </trkpt>
      <trkpt lat="46.32955" lon="-0.49433">
        <ele>5.0389</ele>
        <time>2011-02-20T13:59:28Z</time>
      </trkpt>
      <trkpt lat="46.32954" lon="-0.49432">
        <ele>5.0245</ele>
        <time>2011-02-20T13:59:29Z</time>
      </trkpt>
      <trkpt lat="46.32953" lon="-0.49432">
        <ele>5.0324</ele>
        <time>2011-02-20T13:59:30Z</time>
      </trkpt>
      <trkpt lat="46.32952" lon="-0.49432">
        <ele>5.0444</ele>
        <time>2011-02-20T13:59:31Z</time>
      </trkpt>
      <trkpt lat="46.32951" lon="-0.49431">
        <ele>5.0678</ele>
        <time>2011-02-20T13:59:32Z</time>
      </trkpt>
      <trkpt lat="46.3295" lon="-0.4943">
        <ele>5.0939</ele>
        <time>2011-02-20T13:59:33Z</time>
      </trkpt>
      <trkpt lat="46.32949" lon="-0.4943">
        <ele>5.119</ele>
        <time>2011-02-20T13:59:34Z</time>
      </trkpt>
      <trkpt lat="46.32948" lon="-0.4943">
        <ele>5.1438</ele>
        <time>2011-02-20T13:59:35Z</time>
      </trkpt>
      <trkpt lat="46.32947" lon="-0.4943">
        <ele>5.1621</ele>
        <time>2011-02-20T13:59:36Z</time>
      </trkpt>
      <trkpt lat="46.32946" lon="-0.4943">
        <ele>5.1692</ele>
        <time>2011-02-20T13:59:37Z</time>
      </trkpt>
      <trkpt lat="46.32945" lon="-0.49429">
        <ele>5.1806</ele>
        <time>2011-02-20T13:59:38Z</time>
      </trkpt>
      <trkpt lat="46.32943" lon="-0.49429">
        <ele>5.1967</ele>
        <time>2011-02-20T13:59:39Z</time>
      </trkpt>
      <trkpt lat="46.32943" lon="-0.49428">
        <ele>5.2141</ele>
        <time>2011-02-20T13:59:40Z</time>
      </trkpt>
      <trkpt lat="46.32941" lon="-0.49428">
        <ele>5.2365</ele>
        <time>2011-02-20T13:59:41Z</time>
      </trkpt>
      <trkpt lat="46.32941" lon="-0.49428">
        <ele>5.2598</ele>
        <time>2011-02-20T13:59:42Z</time>
      </trkpt>
      <trkpt lat="46.3294" lon="-0.49427">
        <ele>5.2938</ele>
        <time>2011-02-20T13:59:43Z</time>
      </trkpt>
      <trkpt lat="46.32939" lon="-0.49426">
        <ele>5.33</ele>
        <time>2011-02-20T13:59:44Z</time>
      </trkpt>
      <trkpt lat="46.32938" lon="-0.49426">
        <ele>5.3655</ele>
        <time>2011-02-20T13:59:45Z</time>
      </trkpt>
      <trkpt lat="46.32937" lon="-0.49425">
        <ele>5.4006</ele>
        <time>2011-02-20T13:59:46Z</time>
      </trkpt>
      <trkpt lat="46.32936" lon="-0.49425">
        <ele>5.4455</ele>
        <time>2011-02-20T13:59:47Z</time>
      </trkpt>
      <trkpt lat="46.32935" lon="-0.49425">
        <ele>5.4909</ele>
        <time>2011-02-20T13:59:48Z</time>
      </trkpt>
      <trkpt lat="46.32933" lon="-0.49424">
        <ele>5.52</ele>
        <time>2011-02-20T13:59:49Z</time>
      </trkpt>
      <trkpt lat="46.32932" lon="-0.49424">
        <ele>5.5505</ele>
        <time>2011-02-20T13:59:50Z</time>
      </trkpt>
      <trkpt lat="46.32932" lon="-0.49424">
        <ele>5.582</ele>
        <time>2011-02-20T13:59:51Z</time>
      </trkpt>
      <trkpt lat="46.32931" lon="-0.49423">
        <ele>5.6068</ele>
        <time>2011-02-20T13:59:52Z</time>
      </trkpt>
      <trkpt lat="46.3293" lon="-0.49423">
        <ele>5.617</ele>
        <time>2011-02-20T13:59:53Z</time>
      </trkpt>
      <trkpt lat="46.32929" lon="-0.49423">
        <ele>5.6236</ele>
        <time>2011-02-20T13:59:54Z</time>
      </trkpt>
      <trkpt lat="46.32928" lon="-0.49422">
        <ele>5.6338</ele>
        <time>2011-02-20T13:59:55Z</time>
      </trkpt>
      <trkpt lat="46.32927" lon="-0.49422">
        <ele>5.6414</ele>
        <time>2011-02-20T13:59:56Z</time>
      </trkpt>
      <trkpt lat="46.32927" lon="-0.49422">
        <ele>5.6554</ele>
        <time>2011-02-20T13:59:57Z</time>
      </trkpt>
      <trkpt lat="46.32926" lon="-0.49422">
        <ele>5.6699</ele>
        <time>2011-02-20T13:59:58Z</time>
      </trkpt>
      <trkpt lat="46.32925" lon="-0.49422">
        <ele>5.6939</ele>
        <time>2011-02-20T13:59:59Z</time>
      </trkpt>
      <trkpt lat="46.32924" lon="-0.49422">
        <ele>5.7308</ele>
        <time>2011-02-20T14:00:00Z</time>
      </trkpt>
      <trkpt lat="46.32922" lon="-0.49422">
        <ele>5.7785</ele>
        <time>2011-02-20T14:00:01Z</time>
      </trkpt>
      <trkpt lat="46.32921" lon="-0.49422">
        <ele>5.8322</ele>
        <time>2011-02-20T14:00:02Z</time>
      </trkpt>
      <trkpt lat="46.3292" lon="-0.49422">
        <ele>5.8867</ele>
        <time>2011-02-20T14:00:03Z</time>
      </trkpt>
      <trkpt lat="46.32919" lon="-0.49422">
        <ele>5.9373</ele>
        <time>2011-02-20T14:00:04Z</time>
      </trkpt>
      <trkpt lat="46.32917" lon="-0.49422">
        <ele>5.9896</ele>
        <time>2011-02-20T14:00:05Z</time>
      </trkpt>
      <trkpt lat="46.32916" lon="-0.49422">
        <ele>6.0459</ele>
        <time>2011-02-20T14:00:06Z</time>
      </trkpt>
      <trkpt lat="46.32915" lon="-0.49423">
        <ele>6.1001</ele>
        <time>2011-02-20T14:00:07Z</time>
      </trkpt>
      <trkpt lat="46.32914" lon="-0.49423">
        <ele>6.1595</ele>
        <time>2011-02-20T14:00:08Z</time>
      </trkpt>
      <trkpt lat="46.32913" lon="-0.49423">
        <ele>6.2209</ele>
        <time>2011-02-20T14:00:09Z</time>
      </trkpt>
      <trkpt lat="46.32912" lon="-0.49422">
        <ele>6.2825</ele>
        <time>2011-02-20T14:00:10Z</time>
      </trkpt>
      <trkpt lat="46.32911" lon="-0.49422">
        <ele>6.3442</ele>
        <time>2011-02-20T14:00:11Z</time>
      </trkpt>
      <trkpt lat="46.3291" lon="-0.49422">
        <ele>6.4088</ele>
        <time>2011-02-20T14:00:12Z</time>
      </trkpt>
      <trkpt lat="46.32909" lon="-0.49421">
        <ele>6.4707</ele>
        <time>2011-02-20T14:00:13Z</time>
      </trkpt>
      <trkpt lat="46.32908" lon="-0.49421">
        <ele>6.5336</ele>
        <time>2011-02-20T14:00:14Z</time>
      </trkpt>
      <trkpt lat="46.32907" lon="-0.4942">
        <ele>6.5999</ele>
        <time>2011-02-20T14:00:15Z</time>
      </trkpt>
      <trkpt lat="46.32906" lon="-0.49419">
        <ele>6.6718</ele>
        <time>2011-02-20T14:00:16Z</time>
      </trkpt>
      <trkpt lat="46.32906" lon="-0.49418">
        <ele>6.7343</ele>
        <time>2011-02-20T14:00:17Z</time>
      </trkpt>
      <trkpt lat="46.32905" lon="-0.49417">
        <ele>6.8054</ele>
        <time>2011-02-20T14:00:18Z</time>
      </trkpt>
      <trkpt lat="46.32904" lon="-0.49416">
        <ele>6.867</ele>
        <time>2011-02-20T14:00:19Z</time>
      </trkpt>
      <trkpt lat="46.32904" lon="-0.49415">
        <ele>6.9471</ele>
        <time>2011-02-20T14:00:20Z</time>
      </trkpt>
      <trkpt lat="46.32902" lon="-0.49415">
        <ele>6.9779</ele>
        <time>2011-02-20T14:00:21Z</time>
      </trkpt>
      <trkpt lat="46.32901" lon="-0.49415">
        <ele>7.0079</ele>
        <time>2011-02-20T14:00:22Z</time>
      </trkpt>
      <trkpt lat="46.32896" lon="-0.49418">
        <ele>6.9663</ele>
        <time>2011-02-20T14:00:26Z</time>
      </trkpt>
      <trkpt lat="46.32897" lon="-0.49411">
        <ele>6.8343</ele>
        <time>2011-02-20T14:00:44Z</time>
      </trkpt>
    </trkseg>
  </trk>
</gpx>